<?xml version="1.0" encoding="UTF-8" standalone="no" ?>
<gpx xmlns="http://www.topografix.com/GPX/1/1" xmlns:xsi="http://www.w3.org/2001/XMLSchema-instance" xsi:schemaLocation="http://www.topografix.com/GPX/1/1 http://www.topografix.com/GPX/1/1/gpx.xsd" version="1.1" creator="VisuGPX - https://www.visugpx.com">
  <metadata>
    <name>Des Mouettes aux Cigales 2021</name>
  </metadata>
  <trk>
    <name><![CDATA[Étape 14 : Peyrolles-en-Provence - St-Julien-du-Verdon]]></name>
    <extensions>
      <line xmlns="http://www.topografix.com/GPX/gpx_style/0/2">
        <color>00FFFF</color>
        <width>4</width>
      </line>
    </extensions>
    <trkseg>
      <trkpt lat="43.63905" lon="5.57768">
        <ele>234.410108</ele>
        <time>2021-09-18T06:06:14.000Z</time>
      </trkpt>
      <trkpt lat="43.63914" lon="5.57748">
        <ele>234.410108</ele>
        <time>2021-09-18T06:06:19.000Z</time>
      </trkpt>
      <trkpt lat="43.63919" lon="5.57737">
        <ele>234.410108</ele>
        <time>2021-09-18T06:06:24.000Z</time>
      </trkpt>
      <trkpt lat="43.63928" lon="5.57744">
        <ele>234.410108</ele>
        <time>2021-09-18T06:06:28.000Z</time>
      </trkpt>
      <trkpt lat="43.63946" lon="5.5776">
        <ele>234.410108</ele>
        <time>2021-09-18T06:06:34.000Z</time>
      </trkpt>
      <trkpt lat="43.63959" lon="5.57771">
        <ele>234.410108</ele>
        <time>2021-09-18T06:06:39.000Z</time>
      </trkpt>
      <trkpt lat="43.63977" lon="5.57787">
        <ele>234.380988</ele>
        <time>2021-09-18T06:06:45.000Z</time>
      </trkpt>
      <trkpt lat="43.63991" lon="5.578">
        <ele>234.259072</ele>
        <time>2021-09-18T06:06:50.000Z</time>
      </trkpt>
      <trkpt lat="43.64007" lon="5.57814">
        <ele>234.12267</ele>
        <time>2021-09-18T06:06:55.000Z</time>
      </trkpt>
      <trkpt lat="43.64011" lon="5.57838">
        <ele>233.996155</ele>
        <time>2021-09-18T06:07:00.000Z</time>
      </trkpt>
      <trkpt lat="43.64016" lon="5.57848">
        <ele>233.935716</ele>
        <time>2021-09-18T06:07:02.000Z</time>
      </trkpt>
      <trkpt lat="43.64022" lon="5.57864">
        <ele>233.841084</ele>
        <time>2021-09-18T06:07:05.000Z</time>
      </trkpt>
      <trkpt lat="43.64028" lon="5.5788">
        <ele>233.748435</ele>
        <time>2021-09-18T06:07:08.000Z</time>
      </trkpt>
      <trkpt lat="43.64033" lon="5.57901">
        <ele>233.633304</ele>
        <time>2021-09-18T06:07:12.000Z</time>
      </trkpt>
      <trkpt lat="43.64036" lon="5.57912">
        <ele>233.573074</ele>
        <time>2021-09-18T06:07:14.000Z</time>
      </trkpt>
      <trkpt lat="43.64041" lon="5.57932">
        <ele>233.467136</ele>
        <time>2021-09-18T06:07:17.000Z</time>
      </trkpt>
      <trkpt lat="43.64051" lon="5.57974">
        <ele>233.237359</ele>
        <time>2021-09-18T06:07:23.000Z</time>
      </trkpt>
      <trkpt lat="43.64064" lon="5.58019">
        <ele>233.086578</ele>
        <time>2021-09-18T06:07:29.000Z</time>
      </trkpt>
      <trkpt lat="43.64076" lon="5.58056">
        <ele>233.022365</ele>
        <time>2021-09-18T06:07:34.000Z</time>
      </trkpt>
      <trkpt lat="43.64093" lon="5.581">
        <ele>232.942734</ele>
        <time>2021-09-18T06:07:39.000Z</time>
      </trkpt>
      <trkpt lat="43.64093" lon="5.581">
        <ele>232.942734</ele>
        <time>2021-09-18T06:07:40.000Z</time>
      </trkpt>
      <trkpt lat="43.64107" lon="5.58128">
        <ele>232.887998</ele>
        <time>2021-09-18T06:07:44.000Z</time>
      </trkpt>
      <trkpt lat="43.64133" lon="5.58173">
        <ele>232.795458</ele>
        <time>2021-09-18T06:07:51.000Z</time>
      </trkpt>
      <trkpt lat="43.64157" lon="5.5821">
        <ele>232.685965</ele>
        <time>2021-09-18T06:07:57.000Z</time>
      </trkpt>
      <trkpt lat="43.64185" lon="5.58252">
        <ele>232.449241</ele>
        <time>2021-09-18T06:08:04.000Z</time>
      </trkpt>
      <trkpt lat="43.64213" lon="5.58306">
        <ele>232.170784</ele>
        <time>2021-09-18T06:08:12.000Z</time>
      </trkpt>
      <trkpt lat="43.64234" lon="5.58365">
        <ele>231.893025</ele>
        <time>2021-09-18T06:08:20.000Z</time>
      </trkpt>
      <trkpt lat="43.64251" lon="5.58424">
        <ele>231.655709</ele>
        <time>2021-09-18T06:08:28.000Z</time>
      </trkpt>
      <trkpt lat="43.6426" lon="5.58467">
        <ele>231.545145</ele>
        <time>2021-09-18T06:08:34.000Z</time>
      </trkpt>
      <trkpt lat="43.64261" lon="5.58473">
        <ele>231.529211</ele>
        <time>2021-09-18T06:08:35.000Z</time>
      </trkpt>
      <trkpt lat="43.64264" lon="5.58491">
        <ele>231.483562</ele>
        <time>2021-09-18T06:08:38.000Z</time>
      </trkpt>
      <trkpt lat="43.64267" lon="5.58507">
        <ele>231.443792</ele>
        <time>2021-09-18T06:08:41.000Z</time>
      </trkpt>
      <trkpt lat="43.6427" lon="5.58532">
        <ele>231.37995</ele>
        <time>2021-09-18T06:08:46.000Z</time>
      </trkpt>
      <trkpt lat="43.64272" lon="5.58543">
        <ele>231.351147</ele>
        <time>2021-09-18T06:08:48.000Z</time>
      </trkpt>
      <trkpt lat="43.64283" lon="5.58578">
        <ele>231.256946</ele>
        <time>2021-09-18T06:08:54.000Z</time>
      </trkpt>
      <trkpt lat="43.64296" lon="5.5862">
        <ele>231.143167</ele>
        <time>2021-09-18T06:08:59.000Z</time>
      </trkpt>
      <trkpt lat="43.64302" lon="5.58638">
        <ele>231.095459</ele>
        <time>2021-09-18T06:09:01.000Z</time>
      </trkpt>
      <trkpt lat="43.64308" lon="5.58656">
        <ele>231.026145</ele>
        <time>2021-09-18T06:09:03.000Z</time>
      </trkpt>
      <trkpt lat="43.64311" lon="5.58663">
        <ele>230.990743</ele>
        <time>2021-09-18T06:09:04.000Z</time>
      </trkpt>
      <trkpt lat="43.6433" lon="5.58739">
        <ele>230.658717</ele>
        <time>2021-09-18T06:09:14.000Z</time>
      </trkpt>
      <trkpt lat="43.64336" lon="5.58805">
        <ele>230.386411</ele>
        <time>2021-09-18T06:09:22.000Z</time>
      </trkpt>
      <trkpt lat="43.64337" lon="5.58855">
        <ele>230.181393</ele>
        <time>2021-09-18T06:09:28.000Z</time>
      </trkpt>
      <trkpt lat="43.64338" lon="5.58913">
        <ele>230.020627</ele>
        <time>2021-09-18T06:09:35.000Z</time>
      </trkpt>
      <trkpt lat="43.64339" lon="5.58972">
        <ele>229.952354</ele>
        <time>2021-09-18T06:09:42.000Z</time>
      </trkpt>
      <trkpt lat="43.6434" lon="5.59027">
        <ele>229.889156</ele>
        <time>2021-09-18T06:09:49.000Z</time>
      </trkpt>
      <trkpt lat="43.64341" lon="5.59065">
        <ele>229.845448</ele>
        <time>2021-09-18T06:09:55.000Z</time>
      </trkpt>
      <trkpt lat="43.64341" lon="5.59096">
        <ele>229.809354</ele>
        <time>2021-09-18T06:10:00.000Z</time>
      </trkpt>
      <trkpt lat="43.64342" lon="5.59103">
        <ele>229.801969</ele>
        <time>2021-09-18T06:10:01.000Z</time>
      </trkpt>
      <trkpt lat="43.64342" lon="5.59116">
        <ele>229.786863</ele>
        <time>2021-09-18T06:10:03.000Z</time>
      </trkpt>
      <trkpt lat="43.64342" lon="5.59127">
        <ele>229.773485</ele>
        <time>2021-09-18T06:10:05.000Z</time>
      </trkpt>
      <trkpt lat="43.64342" lon="5.59145">
        <ele>229.687879</ele>
        <time>2021-09-18T06:10:10.000Z</time>
      </trkpt>
      <trkpt lat="43.64343" lon="5.59157">
        <ele>229.606915</ele>
        <time>2021-09-18T06:10:13.000Z</time>
      </trkpt>
      <trkpt lat="43.64349" lon="5.59166">
        <ele>229.514663</ele>
        <time>2021-09-18T06:10:15.000Z</time>
      </trkpt>
      <trkpt lat="43.64362" lon="5.59161">
        <ele>229.389073</ele>
        <time>2021-09-18T06:10:21.000Z</time>
      </trkpt>
      <trkpt lat="43.64373" lon="5.59157">
        <ele>229.273055</ele>
        <time>2021-09-18T06:10:23.000Z</time>
      </trkpt>
      <trkpt lat="43.64383" lon="5.59154">
        <ele>229.179341</ele>
        <time>2021-09-18T06:10:26.000Z</time>
      </trkpt>
      <trkpt lat="43.64394" lon="5.5915">
        <ele>229.07063</ele>
        <time>2021-09-18T06:10:28.000Z</time>
      </trkpt>
      <trkpt lat="43.6441" lon="5.59137">
        <ele>228.889888</ele>
        <time>2021-09-18T06:10:30.000Z</time>
      </trkpt>
      <trkpt lat="43.64415" lon="5.59131">
        <ele>228.824023</ele>
        <time>2021-09-18T06:10:32.000Z</time>
      </trkpt>
      <trkpt lat="43.64424" lon="5.59116">
        <ele>228.683245</ele>
        <time>2021-09-18T06:10:34.000Z</time>
      </trkpt>
      <trkpt lat="43.64433" lon="5.59097">
        <ele>228.525286</ele>
        <time>2021-09-18T06:10:36.000Z</time>
      </trkpt>
      <trkpt lat="43.6444" lon="5.59075">
        <ele>228.357878</ele>
        <time>2021-09-18T06:10:38.000Z</time>
      </trkpt>
      <trkpt lat="43.64446" lon="5.59054">
        <ele>228.19744</ele>
        <time>2021-09-18T06:10:40.000Z</time>
      </trkpt>
      <trkpt lat="43.64452" lon="5.59035">
        <ele>228.050157</ele>
        <time>2021-09-18T06:10:42.000Z</time>
      </trkpt>
      <trkpt lat="43.64463" lon="5.59022">
        <ele>227.819811</ele>
        <time>2021-09-18T06:10:44.000Z</time>
      </trkpt>
      <trkpt lat="43.64493" lon="5.5902">
        <ele>227.268246</ele>
        <time>2021-09-18T06:10:48.000Z</time>
      </trkpt>
      <trkpt lat="43.64548" lon="5.59025">
        <ele>226.269435</ele>
        <time>2021-09-18T06:10:54.000Z</time>
      </trkpt>
      <trkpt lat="43.64563" lon="5.59027">
        <ele>225.989491</ele>
        <time>2021-09-18T06:10:57.000Z</time>
      </trkpt>
      <trkpt lat="43.64593" lon="5.5903">
        <ele>225.453452</ele>
        <time>2021-09-18T06:11:01.000Z</time>
      </trkpt>
      <trkpt lat="43.64598" lon="5.5903">
        <ele>225.345605</ele>
        <time>2021-09-18T06:11:02.000Z</time>
      </trkpt>
      <trkpt lat="43.64608" lon="5.59038">
        <ele>225.152965</ele>
        <time>2021-09-18T06:11:03.000Z</time>
      </trkpt>
      <trkpt lat="43.64608" lon="5.59038">
        <ele>225.152965</ele>
        <time>2021-09-18T06:11:05.000Z</time>
      </trkpt>
      <trkpt lat="43.64608" lon="5.5906">
        <ele>224.854142</ele>
        <time>2021-09-18T06:11:07.000Z</time>
      </trkpt>
      <trkpt lat="43.64607" lon="5.59075">
        <ele>224.66493</ele>
        <time>2021-09-18T06:11:09.000Z</time>
      </trkpt>
      <trkpt lat="43.64606" lon="5.59082">
        <ele>224.579329</ele>
        <time>2021-09-18T06:11:10.000Z</time>
      </trkpt>
      <trkpt lat="43.64601" lon="5.5913">
        <ele>224.018943</ele>
        <time>2021-09-18T06:11:16.000Z</time>
      </trkpt>
      <trkpt lat="43.64595" lon="5.59185">
        <ele>223.366258</ele>
        <time>2021-09-18T06:11:23.000Z</time>
      </trkpt>
      <trkpt lat="43.64594" lon="5.59192">
        <ele>223.273682</ele>
        <time>2021-09-18T06:11:24.000Z</time>
      </trkpt>
      <trkpt lat="43.64593" lon="5.592">
        <ele>223.180154</ele>
        <time>2021-09-18T06:11:25.000Z</time>
      </trkpt>
      <trkpt lat="43.64591" lon="5.59224">
        <ele>222.899156</ele>
        <time>2021-09-18T06:11:28.000Z</time>
      </trkpt>
      <trkpt lat="43.64587" lon="5.59272">
        <ele>222.333666</ele>
        <time>2021-09-18T06:11:34.000Z</time>
      </trkpt>
      <trkpt lat="43.64585" lon="5.59288">
        <ele>222.140366</ele>
        <time>2021-09-18T06:11:36.000Z</time>
      </trkpt>
      <trkpt lat="43.64583" lon="5.59311">
        <ele>221.863075</ele>
        <time>2021-09-18T06:11:39.000Z</time>
      </trkpt>
      <trkpt lat="43.64578" lon="5.59358">
        <ele>221.444348</ele>
        <time>2021-09-18T06:11:44.000Z</time>
      </trkpt>
      <trkpt lat="43.64576" lon="5.59382">
        <ele>221.240204</ele>
        <time>2021-09-18T06:11:47.000Z</time>
      </trkpt>
      <trkpt lat="43.64575" lon="5.59389">
        <ele>221.174251</ele>
        <time>2021-09-18T06:11:49.000Z</time>
      </trkpt>
      <trkpt lat="43.64571" lon="5.59432">
        <ele>220.800027</ele>
        <time>2021-09-18T06:11:55.000Z</time>
      </trkpt>
      <trkpt lat="43.64565" lon="5.59496">
        <ele>220.243306</ele>
        <time>2021-09-18T06:12:03.000Z</time>
      </trkpt>
      <trkpt lat="43.64562" lon="5.5953">
        <ele>219.952257</ele>
        <time>2021-09-18T06:12:09.000Z</time>
      </trkpt>
      <trkpt lat="43.6456" lon="5.59547">
        <ele>219.805821</ele>
        <time>2021-09-18T06:12:13.000Z</time>
      </trkpt>
      <trkpt lat="43.6456" lon="5.59551">
        <ele>219.765342</ele>
        <time>2021-09-18T06:12:15.000Z</time>
      </trkpt>
      <trkpt lat="43.64562" lon="5.59553">
        <ele>219.736389</ele>
        <time>2021-09-18T06:12:17.000Z</time>
      </trkpt>
      <trkpt lat="43.64562" lon="5.59543">
        <ele>219.6758</ele>
        <time>2021-09-18T06:12:19.000Z</time>
      </trkpt>
      <trkpt lat="43.6456" lon="5.59543">
        <ele>219.676806</ele>
        <time>2021-09-18T06:12:20.000Z</time>
      </trkpt>
      <trkpt lat="43.64561" lon="5.59537">
        <ele>219.679729</ele>
        <time>2021-09-18T06:12:21.000Z</time>
      </trkpt>
      <trkpt lat="43.64564" lon="5.59508">
        <ele>219.694627</ele>
        <time>2021-09-18T06:12:25.000Z</time>
      </trkpt>
      <trkpt lat="43.64567" lon="5.59475">
        <ele>219.710882</ele>
        <time>2021-09-18T06:12:29.000Z</time>
      </trkpt>
      <trkpt lat="43.64568" lon="5.59468">
        <ele>219.714641</ele>
        <time>2021-09-18T06:12:30.000Z</time>
      </trkpt>
      <trkpt lat="43.64573" lon="5.59412">
        <ele>219.742822</ele>
        <time>2021-09-18T06:12:35.000Z</time>
      </trkpt>
      <trkpt lat="43.64575" lon="5.59392">
        <ele>219.752495</ele>
        <time>2021-09-18T06:12:38.000Z</time>
      </trkpt>
      <trkpt lat="43.64576" lon="5.59384">
        <ele>219.756864</ele>
        <time>2021-09-18T06:12:39.000Z</time>
      </trkpt>
      <trkpt lat="43.64582" lon="5.59321">
        <ele>219.787998</ele>
        <time>2021-09-18T06:12:45.000Z</time>
      </trkpt>
      <trkpt lat="43.64582" lon="5.59321">
        <ele>219.787998</ele>
        <time>2021-09-18T06:12:46.000Z</time>
      </trkpt>
      <trkpt lat="43.64585" lon="5.59283">
        <ele>219.83478</ele>
        <time>2021-09-18T06:12:49.000Z</time>
      </trkpt>
      <trkpt lat="43.64591" lon="5.59224">
        <ele>219.952272</ele>
        <time>2021-09-18T06:12:55.000Z</time>
      </trkpt>
      <trkpt lat="43.64598" lon="5.59163">
        <ele>220.072427</ele>
        <time>2021-09-18T06:13:01.000Z</time>
      </trkpt>
      <trkpt lat="43.64599" lon="5.59142">
        <ele>220.113889</ele>
        <time>2021-09-18T06:13:04.000Z</time>
      </trkpt>
      <trkpt lat="43.64604" lon="5.59122">
        <ele>220.154777</ele>
        <time>2021-09-18T06:13:05.000Z</time>
      </trkpt>
      <trkpt lat="43.6461" lon="5.5912">
        <ele>220.173026</ele>
        <time>2021-09-18T06:13:06.000Z</time>
      </trkpt>
      <trkpt lat="43.6461" lon="5.5912">
        <ele>220.173296</ele>
        <time>2021-09-18T06:13:07.000Z</time>
      </trkpt>
      <trkpt lat="43.64616" lon="5.59121">
        <ele>220.189698</ele>
        <time>2021-09-18T06:13:08.000Z</time>
      </trkpt>
      <trkpt lat="43.64622" lon="5.59126">
        <ele>220.206729</ele>
        <time>2021-09-18T06:13:09.000Z</time>
      </trkpt>
      <trkpt lat="43.64624" lon="5.59136">
        <ele>220.228641</ele>
        <time>2021-09-18T06:13:10.000Z</time>
      </trkpt>
      <trkpt lat="43.64624" lon="5.5918">
        <ele>220.244182</ele>
        <time>2021-09-18T06:13:15.000Z</time>
      </trkpt>
      <trkpt lat="43.64624" lon="5.59222">
        <ele>220.133834</ele>
        <time>2021-09-18T06:13:20.000Z</time>
      </trkpt>
      <trkpt lat="43.64624" lon="5.59248">
        <ele>220.06804</ele>
        <time>2021-09-18T06:13:22.000Z</time>
      </trkpt>
      <trkpt lat="43.64624" lon="5.59274">
        <ele>220.000432</ele>
        <time>2021-09-18T06:13:26.000Z</time>
      </trkpt>
      <trkpt lat="43.64624" lon="5.59325">
        <ele>219.867289</ele>
        <time>2021-09-18T06:13:32.000Z</time>
      </trkpt>
      <trkpt lat="43.64629" lon="5.59382">
        <ele>219.718542</ele>
        <time>2021-09-18T06:13:39.000Z</time>
      </trkpt>
      <trkpt lat="43.64642" lon="5.59437">
        <ele>219.627508</ele>
        <time>2021-09-18T06:13:46.000Z</time>
      </trkpt>
      <trkpt lat="43.64659" lon="5.59492">
        <ele>219.600701</ele>
        <time>2021-09-18T06:13:53.000Z</time>
      </trkpt>
      <trkpt lat="43.64664" lon="5.59507">
        <ele>219.593238</ele>
        <time>2021-09-18T06:13:55.000Z</time>
      </trkpt>
      <trkpt lat="43.64669" lon="5.59523">
        <ele>219.585729</ele>
        <time>2021-09-18T06:13:57.000Z</time>
      </trkpt>
      <trkpt lat="43.6469" lon="5.59585">
        <ele>219.554931</ele>
        <time>2021-09-18T06:14:05.000Z</time>
      </trkpt>
      <trkpt lat="43.64708" lon="5.59638">
        <ele>219.528853</ele>
        <time>2021-09-18T06:14:12.000Z</time>
      </trkpt>
      <trkpt lat="43.64713" lon="5.59653">
        <ele>219.601367</ele>
        <time>2021-09-18T06:14:14.000Z</time>
      </trkpt>
      <trkpt lat="43.64718" lon="5.59667">
        <ele>219.670588</ele>
        <time>2021-09-18T06:14:16.000Z</time>
      </trkpt>
      <trkpt lat="43.6473" lon="5.59702">
        <ele>219.85017</ele>
        <time>2021-09-18T06:14:21.000Z</time>
      </trkpt>
      <trkpt lat="43.64732" lon="5.59709">
        <ele>219.886086</ele>
        <time>2021-09-18T06:14:22.000Z</time>
      </trkpt>
      <trkpt lat="43.64743" lon="5.59743">
        <ele>220.056885</ele>
        <time>2021-09-18T06:14:27.000Z</time>
      </trkpt>
      <trkpt lat="43.64746" lon="5.5975">
        <ele>220.092538</ele>
        <time>2021-09-18T06:14:28.000Z</time>
      </trkpt>
      <trkpt lat="43.6475" lon="5.59765">
        <ele>220.165358</ele>
        <time>2021-09-18T06:14:30.000Z</time>
      </trkpt>
      <trkpt lat="43.64753" lon="5.59771">
        <ele>220.19976</ele>
        <time>2021-09-18T06:14:31.000Z</time>
      </trkpt>
      <trkpt lat="43.64757" lon="5.59785">
        <ele>220.269396</ele>
        <time>2021-09-18T06:14:33.000Z</time>
      </trkpt>
      <trkpt lat="43.64762" lon="5.598">
        <ele>220.345088</ele>
        <time>2021-09-18T06:14:35.000Z</time>
      </trkpt>
      <trkpt lat="43.64765" lon="5.59808">
        <ele>220.384447</ele>
        <time>2021-09-18T06:14:36.000Z</time>
      </trkpt>
      <trkpt lat="43.64775" lon="5.59839">
        <ele>220.538177</ele>
        <time>2021-09-18T06:14:40.000Z</time>
      </trkpt>
      <trkpt lat="43.6478" lon="5.59853">
        <ele>220.612928</ele>
        <time>2021-09-18T06:14:42.000Z</time>
      </trkpt>
      <trkpt lat="43.64796" lon="5.59906">
        <ele>220.826209</ele>
        <time>2021-09-18T06:14:49.000Z</time>
      </trkpt>
      <trkpt lat="43.64808" lon="5.59942">
        <ele>220.965072</ele>
        <time>2021-09-18T06:14:54.000Z</time>
      </trkpt>
      <trkpt lat="43.6481" lon="5.59949">
        <ele>220.993566</ele>
        <time>2021-09-18T06:14:55.000Z</time>
      </trkpt>
      <trkpt lat="43.64813" lon="5.59957">
        <ele>221.022261</ele>
        <time>2021-09-18T06:14:56.000Z</time>
      </trkpt>
      <trkpt lat="43.64823" lon="5.59987">
        <ele>221.139796</ele>
        <time>2021-09-18T06:15:00.000Z</time>
      </trkpt>
      <trkpt lat="43.64847" lon="5.6006">
        <ele>221.420803</ele>
        <time>2021-09-18T06:15:09.000Z</time>
      </trkpt>
      <trkpt lat="43.6486" lon="5.601">
        <ele>221.582755</ele>
        <time>2021-09-18T06:15:14.000Z</time>
      </trkpt>
      <trkpt lat="43.64862" lon="5.60107">
        <ele>221.619584</ele>
        <time>2021-09-18T06:15:15.000Z</time>
      </trkpt>
      <trkpt lat="43.64867" lon="5.60122">
        <ele>221.69498</ele>
        <time>2021-09-18T06:15:17.000Z</time>
      </trkpt>
      <trkpt lat="43.6487" lon="5.6013">
        <ele>221.733703</ele>
        <time>2021-09-18T06:15:18.000Z</time>
      </trkpt>
      <trkpt lat="43.64877" lon="5.60153">
        <ele>221.846592</ele>
        <time>2021-09-18T06:15:21.000Z</time>
      </trkpt>
      <trkpt lat="43.64882" lon="5.60168">
        <ele>221.918357</ele>
        <time>2021-09-18T06:15:23.000Z</time>
      </trkpt>
      <trkpt lat="43.64887" lon="5.60182">
        <ele>221.990376</ele>
        <time>2021-09-18T06:15:25.000Z</time>
      </trkpt>
      <trkpt lat="43.64892" lon="5.60198">
        <ele>222.065108</ele>
        <time>2021-09-18T06:15:27.000Z</time>
      </trkpt>
      <trkpt lat="43.64894" lon="5.60205">
        <ele>222.101937</ele>
        <time>2021-09-18T06:15:28.000Z</time>
      </trkpt>
      <trkpt lat="43.64896" lon="5.60212">
        <ele>222.13498</ele>
        <time>2021-09-18T06:15:29.000Z</time>
      </trkpt>
      <trkpt lat="43.64901" lon="5.60225">
        <ele>222.201885</ele>
        <time>2021-09-18T06:15:31.000Z</time>
      </trkpt>
      <trkpt lat="43.64914" lon="5.60267">
        <ele>222.408123</ele>
        <time>2021-09-18T06:15:37.000Z</time>
      </trkpt>
      <trkpt lat="43.6493" lon="5.60316">
        <ele>222.646329</ele>
        <time>2021-09-18T06:15:44.000Z</time>
      </trkpt>
      <trkpt lat="43.64938" lon="5.60342">
        <ele>222.849183</ele>
        <time>2021-09-18T06:15:48.000Z</time>
      </trkpt>
      <trkpt lat="43.64943" lon="5.60357">
        <ele>222.969902</ele>
        <time>2021-09-18T06:15:50.000Z</time>
      </trkpt>
      <trkpt lat="43.64948" lon="5.60372">
        <ele>223.09303</ele>
        <time>2021-09-18T06:15:52.000Z</time>
      </trkpt>
      <trkpt lat="43.64967" lon="5.60429">
        <ele>223.546425</ele>
        <time>2021-09-18T06:16:00.000Z</time>
      </trkpt>
      <trkpt lat="43.64989" lon="5.60494">
        <ele>224.070669</ele>
        <time>2021-09-18T06:16:09.000Z</time>
      </trkpt>
      <trkpt lat="43.65004" lon="5.60541">
        <ele>224.444976</ele>
        <time>2021-09-18T06:16:18.000Z</time>
      </trkpt>
      <trkpt lat="43.65017" lon="5.60582">
        <ele>224.926315</ele>
        <time>2021-09-18T06:16:25.000Z</time>
      </trkpt>
      <trkpt lat="43.65034" lon="5.60626">
        <ele>225.490298</ele>
        <time>2021-09-18T06:16:35.000Z</time>
      </trkpt>
      <trkpt lat="43.65051" lon="5.60669">
        <ele>226.039132</ele>
        <time>2021-09-18T06:16:43.000Z</time>
      </trkpt>
      <trkpt lat="43.65073" lon="5.60721">
        <ele>226.705512</ele>
        <time>2021-09-18T06:16:52.000Z</time>
      </trkpt>
      <trkpt lat="43.65095" lon="5.60771">
        <ele>227.298392</ele>
        <time>2021-09-18T06:17:00.000Z</time>
      </trkpt>
      <trkpt lat="43.65121" lon="5.60824">
        <ele>227.602225</ele>
        <time>2021-09-18T06:17:08.000Z</time>
      </trkpt>
      <trkpt lat="43.65141" lon="5.60864">
        <ele>227.832151</ele>
        <time>2021-09-18T06:17:14.000Z</time>
      </trkpt>
      <trkpt lat="43.65148" lon="5.60876">
        <ele>227.908551</ele>
        <time>2021-09-18T06:17:16.000Z</time>
      </trkpt>
      <trkpt lat="43.65187" lon="5.6094">
        <ele>228.303238</ele>
        <time>2021-09-18T06:17:26.000Z</time>
      </trkpt>
      <trkpt lat="43.65219" lon="5.60992">
        <ele>228.605627</ele>
        <time>2021-09-18T06:17:34.000Z</time>
      </trkpt>
      <trkpt lat="43.65255" lon="5.61049">
        <ele>228.927123</ele>
        <time>2021-09-18T06:17:43.000Z</time>
      </trkpt>
      <trkpt lat="43.65259" lon="5.61056">
        <ele>228.962102</ele>
        <time>2021-09-18T06:17:44.000Z</time>
      </trkpt>
      <trkpt lat="43.65286" lon="5.611">
        <ele>229.207779</ele>
        <time>2021-09-18T06:17:51.000Z</time>
      </trkpt>
      <trkpt lat="43.65314" lon="5.61144">
        <ele>229.454793</ele>
        <time>2021-09-18T06:17:58.000Z</time>
      </trkpt>
      <trkpt lat="43.65344" lon="5.61198">
        <ele>229.541303</ele>
        <time>2021-09-18T06:18:06.000Z</time>
      </trkpt>
      <trkpt lat="43.65371" lon="5.61259">
        <ele>229.610936</ele>
        <time>2021-09-18T06:18:14.000Z</time>
      </trkpt>
      <trkpt lat="43.65391" lon="5.61319">
        <ele>229.676392</ele>
        <time>2021-09-18T06:18:21.000Z</time>
      </trkpt>
      <trkpt lat="43.65406" lon="5.61386">
        <ele>229.6711</ele>
        <time>2021-09-18T06:18:28.000Z</time>
      </trkpt>
      <trkpt lat="43.65418" lon="5.61465">
        <ele>229.471099</ele>
        <time>2021-09-18T06:18:36.000Z</time>
      </trkpt>
      <trkpt lat="43.65426" lon="5.61542">
        <ele>229.280196</ele>
        <time>2021-09-18T06:18:44.000Z</time>
      </trkpt>
      <trkpt lat="43.65434" lon="5.61623">
        <ele>229.130854</ele>
        <time>2021-09-18T06:18:53.000Z</time>
      </trkpt>
      <trkpt lat="43.65435" lon="5.61631">
        <ele>229.14614</ele>
        <time>2021-09-18T06:18:54.000Z</time>
      </trkpt>
      <trkpt lat="43.65447" lon="5.61699">
        <ele>229.269356</ele>
        <time>2021-09-18T06:19:02.000Z</time>
      </trkpt>
      <trkpt lat="43.6546" lon="5.61756">
        <ele>229.376716</ele>
        <time>2021-09-18T06:19:09.000Z</time>
      </trkpt>
      <trkpt lat="43.65477" lon="5.61831">
        <ele>229.516031</ele>
        <time>2021-09-18T06:19:18.000Z</time>
      </trkpt>
      <trkpt lat="43.65487" lon="5.61872">
        <ele>229.623363</ele>
        <time>2021-09-18T06:19:23.000Z</time>
      </trkpt>
      <trkpt lat="43.65498" lon="5.6192">
        <ele>229.775965</ele>
        <time>2021-09-18T06:19:29.000Z</time>
      </trkpt>
      <trkpt lat="43.65516" lon="5.61993">
        <ele>230.00949</ele>
        <time>2021-09-18T06:19:38.000Z</time>
      </trkpt>
      <trkpt lat="43.65525" lon="5.62032">
        <ele>230.133081</ele>
        <time>2021-09-18T06:19:43.000Z</time>
      </trkpt>
      <trkpt lat="43.65529" lon="5.62048">
        <ele>230.182566</ele>
        <time>2021-09-18T06:19:45.000Z</time>
      </trkpt>
      <trkpt lat="43.65535" lon="5.62073">
        <ele>230.261503</ele>
        <time>2021-09-18T06:19:48.000Z</time>
      </trkpt>
      <trkpt lat="43.65548" lon="5.62129">
        <ele>230.544259</ele>
        <time>2021-09-18T06:19:55.000Z</time>
      </trkpt>
      <trkpt lat="43.6556" lon="5.62176">
        <ele>230.806599</ele>
        <time>2021-09-18T06:20:01.000Z</time>
      </trkpt>
      <trkpt lat="43.65573" lon="5.62233">
        <ele>231.120825</ele>
        <time>2021-09-18T06:20:08.000Z</time>
      </trkpt>
      <trkpt lat="43.65587" lon="5.62289">
        <ele>231.430106</ele>
        <time>2021-09-18T06:20:15.000Z</time>
      </trkpt>
      <trkpt lat="43.65598" lon="5.62337">
        <ele>231.672535</ele>
        <time>2021-09-18T06:20:21.000Z</time>
      </trkpt>
      <trkpt lat="43.65611" lon="5.6239">
        <ele>231.891018</ele>
        <time>2021-09-18T06:20:28.000Z</time>
      </trkpt>
      <trkpt lat="43.65623" lon="5.6245">
        <ele>232.134431</ele>
        <time>2021-09-18T06:20:36.000Z</time>
      </trkpt>
      <trkpt lat="43.6563" lon="5.6251">
        <ele>232.372319</ele>
        <time>2021-09-18T06:20:44.000Z</time>
      </trkpt>
      <trkpt lat="43.65635" lon="5.62567">
        <ele>232.585115</ele>
        <time>2021-09-18T06:20:51.000Z</time>
      </trkpt>
      <trkpt lat="43.65642" lon="5.62634">
        <ele>232.660026</ele>
        <time>2021-09-18T06:20:59.000Z</time>
      </trkpt>
      <trkpt lat="43.65649" lon="5.62708">
        <ele>232.741246</ele>
        <time>2021-09-18T06:21:08.000Z</time>
      </trkpt>
      <trkpt lat="43.6566" lon="5.62785">
        <ele>232.827868</ele>
        <time>2021-09-18T06:21:18.000Z</time>
      </trkpt>
      <trkpt lat="43.65664" lon="5.628">
        <ele>232.844866</ele>
        <time>2021-09-18T06:21:20.000Z</time>
      </trkpt>
      <trkpt lat="43.6567" lon="5.62821">
        <ele>232.878292</ele>
        <time>2021-09-18T06:21:23.000Z</time>
      </trkpt>
      <trkpt lat="43.65672" lon="5.62829">
        <ele>232.891221</ele>
        <time>2021-09-18T06:21:24.000Z</time>
      </trkpt>
      <trkpt lat="43.65681" lon="5.62858">
        <ele>232.941342</ele>
        <time>2021-09-18T06:21:28.000Z</time>
      </trkpt>
      <trkpt lat="43.65684" lon="5.62865">
        <ele>232.954176</ele>
        <time>2021-09-18T06:21:29.000Z</time>
      </trkpt>
      <trkpt lat="43.65696" lon="5.62894">
        <ele>233.007256</ele>
        <time>2021-09-18T06:21:33.000Z</time>
      </trkpt>
      <trkpt lat="43.65726" lon="5.62958">
        <ele>233.127816</ele>
        <time>2021-09-18T06:21:42.000Z</time>
      </trkpt>
      <trkpt lat="43.65746" lon="5.63002">
        <ele>233.210611</ele>
        <time>2021-09-18T06:21:48.000Z</time>
      </trkpt>
      <trkpt lat="43.65773" lon="5.63063">
        <ele>233.371934</ele>
        <time>2021-09-18T06:21:56.000Z</time>
      </trkpt>
      <trkpt lat="43.65798" lon="5.63133">
        <ele>233.5717</ele>
        <time>2021-09-18T06:22:05.000Z</time>
      </trkpt>
      <trkpt lat="43.65819" lon="5.63203">
        <ele>233.770215</ele>
        <time>2021-09-18T06:22:14.000Z</time>
      </trkpt>
      <trkpt lat="43.65826" lon="5.63227">
        <ele>233.834874</ele>
        <time>2021-09-18T06:22:17.000Z</time>
      </trkpt>
      <trkpt lat="43.65845" lon="5.63289">
        <ele>234.005312</ele>
        <time>2021-09-18T06:22:25.000Z</time>
      </trkpt>
      <trkpt lat="43.65871" lon="5.63357">
        <ele>234.195663</ele>
        <time>2021-09-18T06:22:34.000Z</time>
      </trkpt>
      <trkpt lat="43.65873" lon="5.63365">
        <ele>234.216793</ele>
        <time>2021-09-18T06:22:35.000Z</time>
      </trkpt>
      <trkpt lat="43.65896" lon="5.63423">
        <ele>234.381359</ele>
        <time>2021-09-18T06:22:43.000Z</time>
      </trkpt>
      <trkpt lat="43.65922" lon="5.63487">
        <ele>234.601248</ele>
        <time>2021-09-18T06:22:52.000Z</time>
      </trkpt>
      <trkpt lat="43.65926" lon="5.63493">
        <ele>234.6355</ele>
        <time>2021-09-18T06:22:53.000Z</time>
      </trkpt>
      <trkpt lat="43.65939" lon="5.63519">
        <ele>234.769087</ele>
        <time>2021-09-18T06:22:57.000Z</time>
      </trkpt>
      <trkpt lat="43.65964" lon="5.63562">
        <ele>235.00233</ele>
        <time>2021-09-18T06:23:04.000Z</time>
      </trkpt>
      <trkpt lat="43.65999" lon="5.63613">
        <ele>235.299796</ele>
        <time>2021-09-18T06:23:13.000Z</time>
      </trkpt>
      <trkpt lat="43.66027" lon="5.63652">
        <ele>235.533309</ele>
        <time>2021-09-18T06:23:20.000Z</time>
      </trkpt>
      <trkpt lat="43.66055" lon="5.6369">
        <ele>236.015418</ele>
        <time>2021-09-18T06:23:27.000Z</time>
      </trkpt>
      <trkpt lat="43.66077" lon="5.63726">
        <ele>236.468023</ele>
        <time>2021-09-18T06:23:33.000Z</time>
      </trkpt>
      <trkpt lat="43.66088" lon="5.63748">
        <ele>236.717038</ele>
        <time>2021-09-18T06:23:36.000Z</time>
      </trkpt>
      <trkpt lat="43.66115" lon="5.63803">
        <ele>237.355297</ele>
        <time>2021-09-18T06:23:45.000Z</time>
      </trkpt>
      <trkpt lat="43.66135" lon="5.63845">
        <ele>237.838756</ele>
        <time>2021-09-18T06:23:52.000Z</time>
      </trkpt>
      <trkpt lat="43.66156" lon="5.63888">
        <ele>238.263865</ele>
        <time>2021-09-18T06:23:59.000Z</time>
      </trkpt>
      <trkpt lat="43.66173" lon="5.63923">
        <ele>238.609769</ele>
        <time>2021-09-18T06:24:05.000Z</time>
      </trkpt>
      <trkpt lat="43.66193" lon="5.63965">
        <ele>239.013037</ele>
        <time>2021-09-18T06:24:12.000Z</time>
      </trkpt>
      <trkpt lat="43.66216" lon="5.64013">
        <ele>239.471667</ele>
        <time>2021-09-18T06:24:20.000Z</time>
      </trkpt>
      <trkpt lat="43.6624" lon="5.64061">
        <ele>239.937221</ele>
        <time>2021-09-18T06:24:28.000Z</time>
      </trkpt>
      <trkpt lat="43.66268" lon="5.64106">
        <ele>240.209359</ele>
        <time>2021-09-18T06:24:36.000Z</time>
      </trkpt>
      <trkpt lat="43.66294" lon="5.64142">
        <ele>240.438679</ele>
        <time>2021-09-18T06:24:43.000Z</time>
      </trkpt>
      <trkpt lat="43.66298" lon="5.64147">
        <ele>240.471256</ele>
        <time>2021-09-18T06:24:44.000Z</time>
      </trkpt>
      <trkpt lat="43.66316" lon="5.6417">
        <ele>240.628671</ele>
        <time>2021-09-18T06:24:49.000Z</time>
      </trkpt>
      <trkpt lat="43.66347" lon="5.64209">
        <ele>240.88856</ele>
        <time>2021-09-18T06:24:57.000Z</time>
      </trkpt>
      <trkpt lat="43.66384" lon="5.64256">
        <ele>241.27076</ele>
        <time>2021-09-18T06:25:07.000Z</time>
      </trkpt>
      <trkpt lat="43.66413" lon="5.64293">
        <ele>241.625339</ele>
        <time>2021-09-18T06:25:15.000Z</time>
      </trkpt>
      <trkpt lat="43.66441" lon="5.64325">
        <ele>241.955235</ele>
        <time>2021-09-18T06:25:23.000Z</time>
      </trkpt>
      <trkpt lat="43.66464" lon="5.64347">
        <ele>242.201983</ele>
        <time>2021-09-18T06:25:29.000Z</time>
      </trkpt>
      <trkpt lat="43.66487" lon="5.64368">
        <ele>242.452918</ele>
        <time>2021-09-18T06:25:35.000Z</time>
      </trkpt>
      <trkpt lat="43.66516" lon="5.64393">
        <ele>242.739872</ele>
        <time>2021-09-18T06:25:42.000Z</time>
      </trkpt>
      <trkpt lat="43.66546" lon="5.6442">
        <ele>242.983266</ele>
        <time>2021-09-18T06:25:49.000Z</time>
      </trkpt>
      <trkpt lat="43.6658" lon="5.64457">
        <ele>243.276404</ele>
        <time>2021-09-18T06:25:57.000Z</time>
      </trkpt>
      <trkpt lat="43.66604" lon="5.6449">
        <ele>243.507734</ele>
        <time>2021-09-18T06:26:04.000Z</time>
      </trkpt>
      <trkpt lat="43.6661" lon="5.64499">
        <ele>243.568036</ele>
        <time>2021-09-18T06:26:06.000Z</time>
      </trkpt>
      <trkpt lat="43.6662" lon="5.64514">
        <ele>243.66929</ele>
        <time>2021-09-18T06:26:09.000Z</time>
      </trkpt>
      <trkpt lat="43.66647" lon="5.64556">
        <ele>243.870005</ele>
        <time>2021-09-18T06:26:17.000Z</time>
      </trkpt>
      <trkpt lat="43.66668" lon="5.64589">
        <ele>243.688378</ele>
        <time>2021-09-18T06:26:23.000Z</time>
      </trkpt>
      <trkpt lat="43.66689" lon="5.64621">
        <ele>243.508435</ele>
        <time>2021-09-18T06:26:29.000Z</time>
      </trkpt>
      <trkpt lat="43.66718" lon="5.64664">
        <ele>243.267187</ele>
        <time>2021-09-18T06:26:37.000Z</time>
      </trkpt>
      <trkpt lat="43.66758" lon="5.64715">
        <ele>242.9574</ele>
        <time>2021-09-18T06:26:47.000Z</time>
      </trkpt>
      <trkpt lat="43.66791" lon="5.64748">
        <ele>242.637713</ele>
        <time>2021-09-18T06:26:54.000Z</time>
      </trkpt>
      <trkpt lat="43.66821" lon="5.64773">
        <ele>242.312954</ele>
        <time>2021-09-18T06:27:00.000Z</time>
      </trkpt>
      <trkpt lat="43.66866" lon="5.64802">
        <ele>241.854679</ele>
        <time>2021-09-18T06:27:08.000Z</time>
      </trkpt>
      <trkpt lat="43.66923" lon="5.64828">
        <ele>241.308055</ele>
        <time>2021-09-18T06:27:18.000Z</time>
      </trkpt>
      <trkpt lat="43.66961" lon="5.64839">
        <ele>240.856049</ele>
        <time>2021-09-18T06:27:25.000Z</time>
      </trkpt>
      <trkpt lat="43.67009" lon="5.64852">
        <ele>240.250379</ele>
        <time>2021-09-18T06:27:34.000Z</time>
      </trkpt>
      <trkpt lat="43.67062" lon="5.64867">
        <ele>239.571348</ele>
        <time>2021-09-18T06:27:44.000Z</time>
      </trkpt>
      <trkpt lat="43.67068" lon="5.64869">
        <ele>239.503027</ele>
        <time>2021-09-18T06:27:45.000Z</time>
      </trkpt>
      <trkpt lat="43.67105" lon="5.64884">
        <ele>239.021865</ele>
        <time>2021-09-18T06:27:52.000Z</time>
      </trkpt>
      <trkpt lat="43.67141" lon="5.64903">
        <ele>238.520213</ele>
        <time>2021-09-18T06:27:59.000Z</time>
      </trkpt>
      <trkpt lat="43.6718" lon="5.64928">
        <ele>237.952742</ele>
        <time>2021-09-18T06:28:07.000Z</time>
      </trkpt>
      <trkpt lat="43.67211" lon="5.64946">
        <ele>237.518138</ele>
        <time>2021-09-18T06:28:13.000Z</time>
      </trkpt>
      <trkpt lat="43.67257" lon="5.64972">
        <ele>236.864007</ele>
        <time>2021-09-18T06:28:22.000Z</time>
      </trkpt>
      <trkpt lat="43.67296" lon="5.64995">
        <ele>236.437481</ele>
        <time>2021-09-18T06:28:30.000Z</time>
      </trkpt>
      <trkpt lat="43.67336" lon="5.65018">
        <ele>236.094919</ele>
        <time>2021-09-18T06:28:38.000Z</time>
      </trkpt>
      <trkpt lat="43.67373" lon="5.6504">
        <ele>235.775647</ele>
        <time>2021-09-18T06:28:46.000Z</time>
      </trkpt>
      <trkpt lat="43.67408" lon="5.65062">
        <ele>235.464159</ele>
        <time>2021-09-18T06:28:54.000Z</time>
      </trkpt>
      <trkpt lat="43.67439" lon="5.65084">
        <ele>235.219771</ele>
        <time>2021-09-18T06:29:01.000Z</time>
      </trkpt>
      <trkpt lat="43.67465" lon="5.65105">
        <ele>235.357346</ele>
        <time>2021-09-18T06:29:07.000Z</time>
      </trkpt>
      <trkpt lat="43.67486" lon="5.65122">
        <ele>235.463859</ele>
        <time>2021-09-18T06:29:12.000Z</time>
      </trkpt>
      <trkpt lat="43.67516" lon="5.65147">
        <ele>235.624139</ele>
        <time>2021-09-18T06:29:19.000Z</time>
      </trkpt>
      <trkpt lat="43.67543" lon="5.65171">
        <ele>235.767917</ele>
        <time>2021-09-18T06:29:25.000Z</time>
      </trkpt>
      <trkpt lat="43.6758" lon="5.65202">
        <ele>235.964951</ele>
        <time>2021-09-18T06:29:33.000Z</time>
      </trkpt>
      <trkpt lat="43.67613" lon="5.65229">
        <ele>236.226283</ele>
        <time>2021-09-18T06:29:40.000Z</time>
      </trkpt>
      <trkpt lat="43.67646" lon="5.65258">
        <ele>236.544626</ele>
        <time>2021-09-18T06:29:47.000Z</time>
      </trkpt>
      <trkpt lat="43.67689" lon="5.65294">
        <ele>236.950122</ele>
        <time>2021-09-18T06:29:56.000Z</time>
      </trkpt>
      <trkpt lat="43.67728" lon="5.65327">
        <ele>237.321673</ele>
        <time>2021-09-18T06:30:04.000Z</time>
      </trkpt>
      <trkpt lat="43.67772" lon="5.65364">
        <ele>237.570395</ele>
        <time>2021-09-18T06:30:13.000Z</time>
      </trkpt>
      <trkpt lat="43.67805" lon="5.65393">
        <ele>237.689114</ele>
        <time>2021-09-18T06:30:20.000Z</time>
      </trkpt>
      <trkpt lat="43.67837" lon="5.6542">
        <ele>237.804083</ele>
        <time>2021-09-18T06:30:27.000Z</time>
      </trkpt>
      <trkpt lat="43.67869" lon="5.65447">
        <ele>237.918533</ele>
        <time>2021-09-18T06:30:34.000Z</time>
      </trkpt>
      <trkpt lat="43.67911" lon="5.65483">
        <ele>238.073557</ele>
        <time>2021-09-18T06:30:43.000Z</time>
      </trkpt>
      <trkpt lat="43.67942" lon="5.65509">
        <ele>238.200007</ele>
        <time>2021-09-18T06:30:50.000Z</time>
      </trkpt>
      <trkpt lat="43.6797" lon="5.65527">
        <ele>238.303627</ele>
        <time>2021-09-18T06:30:56.000Z</time>
      </trkpt>
      <trkpt lat="43.68002" lon="5.65545">
        <ele>238.42285</ele>
        <time>2021-09-18T06:31:03.000Z</time>
      </trkpt>
      <trkpt lat="43.6804" lon="5.6556">
        <ele>238.556262</ele>
        <time>2021-09-18T06:31:11.000Z</time>
      </trkpt>
      <trkpt lat="43.68087" lon="5.65569">
        <ele>238.66612</ele>
        <time>2021-09-18T06:31:19.000Z</time>
      </trkpt>
      <trkpt lat="43.68133" lon="5.65575">
        <ele>238.729934</ele>
        <time>2021-09-18T06:31:29.000Z</time>
      </trkpt>
      <trkpt lat="43.68168" lon="5.65582">
        <ele>238.777471</ele>
        <time>2021-09-18T06:31:36.000Z</time>
      </trkpt>
      <trkpt lat="43.68177" lon="5.65584">
        <ele>238.790706</ele>
        <time>2021-09-18T06:31:38.000Z</time>
      </trkpt>
      <trkpt lat="43.68196" lon="5.65587">
        <ele>238.816247</ele>
        <time>2021-09-18T06:31:42.000Z</time>
      </trkpt>
      <trkpt lat="43.68227" lon="5.65594">
        <ele>238.859426</ele>
        <time>2021-09-18T06:31:49.000Z</time>
      </trkpt>
      <trkpt lat="43.68236" lon="5.65597">
        <ele>238.871963</ele>
        <time>2021-09-18T06:31:51.000Z</time>
      </trkpt>
      <trkpt lat="43.68259" lon="5.65607">
        <ele>238.86683</ele>
        <time>2021-09-18T06:31:56.000Z</time>
      </trkpt>
      <trkpt lat="43.68291" lon="5.65629">
        <ele>238.846362</ele>
        <time>2021-09-18T06:32:03.000Z</time>
      </trkpt>
      <trkpt lat="43.68325" lon="5.65659">
        <ele>238.824045</ele>
        <time>2021-09-18T06:32:11.000Z</time>
      </trkpt>
      <trkpt lat="43.68358" lon="5.6569">
        <ele>238.801299</ele>
        <time>2021-09-18T06:32:18.000Z</time>
      </trkpt>
      <trkpt lat="43.68378" lon="5.65713">
        <ele>238.786513</ele>
        <time>2021-09-18T06:32:24.000Z</time>
      </trkpt>
      <trkpt lat="43.68406" lon="5.65757">
        <ele>238.694917</ele>
        <time>2021-09-18T06:32:31.000Z</time>
      </trkpt>
      <trkpt lat="43.6842" lon="5.65787">
        <ele>238.610575</ele>
        <time>2021-09-18T06:32:37.000Z</time>
      </trkpt>
      <trkpt lat="43.68428" lon="5.65811">
        <ele>238.54588</ele>
        <time>2021-09-18T06:32:41.000Z</time>
      </trkpt>
      <trkpt lat="43.68434" lon="5.65831">
        <ele>238.494046</ele>
        <time>2021-09-18T06:32:43.000Z</time>
      </trkpt>
      <trkpt lat="43.68437" lon="5.65841">
        <ele>238.467018</ele>
        <time>2021-09-18T06:32:45.000Z</time>
      </trkpt>
      <trkpt lat="43.68439" lon="5.65854">
        <ele>238.435543</ele>
        <time>2021-09-18T06:32:47.000Z</time>
      </trkpt>
      <trkpt lat="43.68445" lon="5.65879">
        <ele>238.371709</ele>
        <time>2021-09-18T06:32:51.000Z</time>
      </trkpt>
      <trkpt lat="43.68451" lon="5.65906">
        <ele>238.303429</ele>
        <time>2021-09-18T06:32:55.000Z</time>
      </trkpt>
      <trkpt lat="43.68464" lon="5.65967">
        <ele>238.195995</ele>
        <time>2021-09-18T06:33:04.000Z</time>
      </trkpt>
      <trkpt lat="43.68475" lon="5.66015">
        <ele>238.291249</ele>
        <time>2021-09-18T06:33:11.000Z</time>
      </trkpt>
      <trkpt lat="43.68489" lon="5.66078">
        <ele>238.415265</ele>
        <time>2021-09-18T06:33:20.000Z</time>
      </trkpt>
      <trkpt lat="43.68499" lon="5.6611">
        <ele>238.480451</ele>
        <time>2021-09-18T06:33:25.000Z</time>
      </trkpt>
      <trkpt lat="43.68501" lon="5.66116">
        <ele>238.493284</ele>
        <time>2021-09-18T06:33:26.000Z</time>
      </trkpt>
      <trkpt lat="43.68507" lon="5.66134">
        <ele>238.530372</ele>
        <time>2021-09-18T06:33:29.000Z</time>
      </trkpt>
      <trkpt lat="43.68509" lon="5.6614">
        <ele>238.543808</ele>
        <time>2021-09-18T06:33:30.000Z</time>
      </trkpt>
      <trkpt lat="43.68511" lon="5.66146">
        <ele>238.556409</ele>
        <time>2021-09-18T06:33:31.000Z</time>
      </trkpt>
      <trkpt lat="43.68516" lon="5.66157">
        <ele>238.580723</ele>
        <time>2021-09-18T06:33:33.000Z</time>
      </trkpt>
      <trkpt lat="43.68521" lon="5.66169">
        <ele>238.605655</ele>
        <time>2021-09-18T06:33:35.000Z</time>
      </trkpt>
      <trkpt lat="43.68538" lon="5.66203">
        <ele>238.796286</ele>
        <time>2021-09-18T06:33:41.000Z</time>
      </trkpt>
      <trkpt lat="43.68546" lon="5.66219">
        <ele>238.933145</ele>
        <time>2021-09-18T06:33:44.000Z</time>
      </trkpt>
      <trkpt lat="43.6855" lon="5.6623">
        <ele>239.026258</ele>
        <time>2021-09-18T06:33:46.000Z</time>
      </trkpt>
      <trkpt lat="43.68556" lon="5.66243">
        <ele>239.13217</ele>
        <time>2021-09-18T06:33:48.000Z</time>
      </trkpt>
      <trkpt lat="43.68559" lon="5.66251">
        <ele>239.198304</ele>
        <time>2021-09-18T06:33:49.000Z</time>
      </trkpt>
      <trkpt lat="43.68565" lon="5.66265">
        <ele>239.314924</ele>
        <time>2021-09-18T06:33:51.000Z</time>
      </trkpt>
      <trkpt lat="43.68568" lon="5.66278">
        <ele>239.415241</ele>
        <time>2021-09-18T06:33:53.000Z</time>
      </trkpt>
      <trkpt lat="43.68579" lon="5.6633">
        <ele>239.80469</ele>
        <time>2021-09-18T06:34:01.000Z</time>
      </trkpt>
      <trkpt lat="43.68587" lon="5.66369">
        <ele>240.090303</ele>
        <time>2021-09-18T06:34:07.000Z</time>
      </trkpt>
      <trkpt lat="43.68599" lon="5.6643">
        <ele>240.643874</ele>
        <time>2021-09-18T06:34:16.000Z</time>
      </trkpt>
      <trkpt lat="43.68611" lon="5.66466">
        <ele>241.146439</ele>
        <time>2021-09-18T06:34:23.000Z</time>
      </trkpt>
      <trkpt lat="43.68627" lon="5.66499">
        <ele>241.656673</ele>
        <time>2021-09-18T06:34:31.000Z</time>
      </trkpt>
      <trkpt lat="43.68647" lon="5.66525">
        <ele>242.141545</ele>
        <time>2021-09-18T06:34:39.000Z</time>
      </trkpt>
      <trkpt lat="43.6867" lon="5.66546">
        <ele>242.642832</ele>
        <time>2021-09-18T06:34:47.000Z</time>
      </trkpt>
      <trkpt lat="43.68691" lon="5.66564">
        <ele>243.084259</ele>
        <time>2021-09-18T06:34:54.000Z</time>
      </trkpt>
      <trkpt lat="43.68717" lon="5.66583">
        <ele>243.603673</ele>
        <time>2021-09-18T06:35:02.000Z</time>
      </trkpt>
      <trkpt lat="43.6874" lon="5.666">
        <ele>243.844335</ele>
        <time>2021-09-18T06:35:09.000Z</time>
      </trkpt>
      <trkpt lat="43.68764" lon="5.66617">
        <ele>244.077529</ele>
        <time>2021-09-18T06:35:16.000Z</time>
      </trkpt>
      <trkpt lat="43.68778" lon="5.66627">
        <ele>244.217823</ele>
        <time>2021-09-18T06:35:20.000Z</time>
      </trkpt>
      <trkpt lat="43.68814" lon="5.66651">
        <ele>244.563014</ele>
        <time>2021-09-18T06:35:28.000Z</time>
      </trkpt>
      <trkpt lat="43.68842" lon="5.6668">
        <ele>244.871614</ele>
        <time>2021-09-18T06:35:35.000Z</time>
      </trkpt>
      <trkpt lat="43.68847" lon="5.66689">
        <ele>244.945537</ele>
        <time>2021-09-18T06:35:37.000Z</time>
      </trkpt>
      <trkpt lat="43.6885" lon="5.66693">
        <ele>244.981911</ele>
        <time>2021-09-18T06:35:39.000Z</time>
      </trkpt>
      <trkpt lat="43.68852" lon="5.66698">
        <ele>245.018791</ele>
        <time>2021-09-18T06:35:40.000Z</time>
      </trkpt>
      <trkpt lat="43.68855" lon="5.66718">
        <ele>245.148482</ele>
        <time>2021-09-18T06:35:43.000Z</time>
      </trkpt>
      <trkpt lat="43.68858" lon="5.66729">
        <ele>245.227486</ele>
        <time>2021-09-18T06:35:45.000Z</time>
      </trkpt>
      <trkpt lat="43.68873" lon="5.66745">
        <ele>245.427927</ele>
        <time>2021-09-18T06:35:50.000Z</time>
      </trkpt>
      <trkpt lat="43.68892" lon="5.6677">
        <ele>245.709443</ele>
        <time>2021-09-18T06:35:56.000Z</time>
      </trkpt>
      <trkpt lat="43.6891" lon="5.66796">
        <ele>245.985047</ele>
        <time>2021-09-18T06:36:03.000Z</time>
      </trkpt>
      <trkpt lat="43.68924" lon="5.6683">
        <ele>246.285387</ele>
        <time>2021-09-18T06:36:10.000Z</time>
      </trkpt>
      <trkpt lat="43.68935" lon="5.66858">
        <ele>246.532853</ele>
        <time>2021-09-18T06:36:16.000Z</time>
      </trkpt>
      <trkpt lat="43.68946" lon="5.66884">
        <ele>246.767346</ele>
        <time>2021-09-18T06:36:22.000Z</time>
      </trkpt>
      <trkpt lat="43.6896" lon="5.66903">
        <ele>246.981163</ele>
        <time>2021-09-18T06:36:28.000Z</time>
      </trkpt>
      <trkpt lat="43.68974" lon="5.66925">
        <ele>247.22179</ele>
        <time>2021-09-18T06:36:33.000Z</time>
      </trkpt>
      <trkpt lat="43.68976" lon="5.66931">
        <ele>247.286274</ele>
        <time>2021-09-18T06:36:34.000Z</time>
      </trkpt>
      <trkpt lat="43.68989" lon="5.66974">
        <ele>247.745603</ele>
        <time>2021-09-18T06:36:42.000Z</time>
      </trkpt>
      <trkpt lat="43.69001" lon="5.67007">
        <ele>248.109082</ele>
        <time>2021-09-18T06:36:49.000Z</time>
      </trkpt>
      <trkpt lat="43.69013" lon="5.67037">
        <ele>248.437742</ele>
        <time>2021-09-18T06:36:56.000Z</time>
      </trkpt>
      <trkpt lat="43.69022" lon="5.67061">
        <ele>248.700125</ele>
        <time>2021-09-18T06:37:03.000Z</time>
      </trkpt>
      <trkpt lat="43.69028" lon="5.67078">
        <ele>248.880994</ele>
        <time>2021-09-18T06:37:09.000Z</time>
      </trkpt>
      <trkpt lat="43.69033" lon="5.67092">
        <ele>249.043403</ele>
        <time>2021-09-18T06:37:16.000Z</time>
      </trkpt>
      <trkpt lat="43.69038" lon="5.67107">
        <ele>249.204611</ele>
        <time>2021-09-18T06:37:22.000Z</time>
      </trkpt>
      <trkpt lat="43.69042" lon="5.67133">
        <ele>249.455319</ele>
        <time>2021-09-18T06:37:28.000Z</time>
      </trkpt>
      <trkpt lat="43.69042" lon="5.67166">
        <ele>249.798519</ele>
        <time>2021-09-18T06:37:35.000Z</time>
      </trkpt>
      <trkpt lat="43.69041" lon="5.67203">
        <ele>250.183397</ele>
        <time>2021-09-18T06:37:42.000Z</time>
      </trkpt>
      <trkpt lat="43.6904" lon="5.6724">
        <ele>250.574484</ele>
        <time>2021-09-18T06:37:49.000Z</time>
      </trkpt>
      <trkpt lat="43.69039" lon="5.6727">
        <ele>250.887336</ele>
        <time>2021-09-18T06:37:56.000Z</time>
      </trkpt>
      <trkpt lat="43.69037" lon="5.67307">
        <ele>251.275055</ele>
        <time>2021-09-18T06:38:05.000Z</time>
      </trkpt>
      <trkpt lat="43.69035" lon="5.67327">
        <ele>251.482552</ele>
        <time>2021-09-18T06:38:11.000Z</time>
      </trkpt>
      <trkpt lat="43.69031" lon="5.67347">
        <ele>251.69701</ele>
        <time>2021-09-18T06:38:17.000Z</time>
      </trkpt>
      <trkpt lat="43.69021" lon="5.6738">
        <ele>252.078089</ele>
        <time>2021-09-18T06:38:25.000Z</time>
      </trkpt>
      <trkpt lat="43.6902" lon="5.67385">
        <ele>252.130919</ele>
        <time>2021-09-18T06:38:26.000Z</time>
      </trkpt>
      <trkpt lat="43.69019" lon="5.67394">
        <ele>252.22541</ele>
        <time>2021-09-18T06:38:28.000Z</time>
      </trkpt>
      <trkpt lat="43.69018" lon="5.67418">
        <ele>252.47765</ele>
        <time>2021-09-18T06:38:33.000Z</time>
      </trkpt>
      <trkpt lat="43.69017" lon="5.67443">
        <ele>252.735395</ele>
        <time>2021-09-18T06:38:38.000Z</time>
      </trkpt>
      <trkpt lat="43.69016" lon="5.67473">
        <ele>253.048314</ele>
        <time>2021-09-18T06:38:44.000Z</time>
      </trkpt>
      <trkpt lat="43.69015" lon="5.67504">
        <ele>253.369473</ele>
        <time>2021-09-18T06:38:50.000Z</time>
      </trkpt>
      <trkpt lat="43.69014" lon="5.67531">
        <ele>253.645954</ele>
        <time>2021-09-18T06:38:54.000Z</time>
      </trkpt>
      <trkpt lat="43.69014" lon="5.6755">
        <ele>253.843458</ele>
        <time>2021-09-18T06:38:57.000Z</time>
      </trkpt>
      <trkpt lat="43.69012" lon="5.67587">
        <ele>254.226156</ele>
        <time>2021-09-18T06:39:03.000Z</time>
      </trkpt>
      <trkpt lat="43.6901" lon="5.67621">
        <ele>254.579625</ele>
        <time>2021-09-18T06:39:09.000Z</time>
      </trkpt>
      <trkpt lat="43.69005" lon="5.67655">
        <ele>254.929799</ele>
        <time>2021-09-18T06:39:16.000Z</time>
      </trkpt>
      <trkpt lat="43.69002" lon="5.67676">
        <ele>255.130462</ele>
        <time>2021-09-18T06:39:20.000Z</time>
      </trkpt>
      <trkpt lat="43.69001" lon="5.67691">
        <ele>255.277658</ele>
        <time>2021-09-18T06:39:23.000Z</time>
      </trkpt>
      <trkpt lat="43.69001" lon="5.67726">
        <ele>255.618692</ele>
        <time>2021-09-18T06:39:30.000Z</time>
      </trkpt>
      <trkpt lat="43.69005" lon="5.67757">
        <ele>255.920517</ele>
        <time>2021-09-18T06:39:36.000Z</time>
      </trkpt>
      <trkpt lat="43.6901" lon="5.67796">
        <ele>256.294647</ele>
        <time>2021-09-18T06:39:44.000Z</time>
      </trkpt>
      <trkpt lat="43.69013" lon="5.67821">
        <ele>256.538089</ele>
        <time>2021-09-18T06:39:49.000Z</time>
      </trkpt>
      <trkpt lat="43.69017" lon="5.67858">
        <ele>256.898515</ele>
        <time>2021-09-18T06:39:56.000Z</time>
      </trkpt>
      <trkpt lat="43.6902" lon="5.67898">
        <ele>257.400287</ele>
        <time>2021-09-18T06:40:03.000Z</time>
      </trkpt>
      <trkpt lat="43.69019" lon="5.67942">
        <ele>258.146423</ele>
        <time>2021-09-18T06:40:11.000Z</time>
      </trkpt>
      <trkpt lat="43.69017" lon="5.67953">
        <ele>258.320134</ele>
        <time>2021-09-18T06:40:13.000Z</time>
      </trkpt>
      <trkpt lat="43.69014" lon="5.67974">
        <ele>258.676676</ele>
        <time>2021-09-18T06:40:17.000Z</time>
      </trkpt>
      <trkpt lat="43.69008" lon="5.68005">
        <ele>259.213598</ele>
        <time>2021-09-18T06:40:23.000Z</time>
      </trkpt>
      <trkpt lat="43.68993" lon="5.68053">
        <ele>260.092451</ele>
        <time>2021-09-18T06:40:32.000Z</time>
      </trkpt>
      <trkpt lat="43.68975" lon="5.68099">
        <ele>260.96955</ele>
        <time>2021-09-18T06:40:41.000Z</time>
      </trkpt>
      <trkpt lat="43.68959" lon="5.68137">
        <ele>261.646962</ele>
        <time>2021-09-18T06:40:49.000Z</time>
      </trkpt>
      <trkpt lat="43.68951" lon="5.68161">
        <ele>262.038418</ele>
        <time>2021-09-18T06:40:54.000Z</time>
      </trkpt>
      <trkpt lat="43.68944" lon="5.68198">
        <ele>262.607499</ele>
        <time>2021-09-18T06:41:01.000Z</time>
      </trkpt>
      <trkpt lat="43.6894" lon="5.6822">
        <ele>262.949083</ele>
        <time>2021-09-18T06:41:05.000Z</time>
      </trkpt>
      <trkpt lat="43.68939" lon="5.68237">
        <ele>263.194908</ele>
        <time>2021-09-18T06:41:08.000Z</time>
      </trkpt>
      <trkpt lat="43.68938" lon="5.68261">
        <ele>263.554538</ele>
        <time>2021-09-18T06:41:12.000Z</time>
      </trkpt>
      <trkpt lat="43.68937" lon="5.68273">
        <ele>263.737423</ele>
        <time>2021-09-18T06:41:14.000Z</time>
      </trkpt>
      <trkpt lat="43.68935" lon="5.68299">
        <ele>264.133077</ele>
        <time>2021-09-18T06:41:18.000Z</time>
      </trkpt>
      <trkpt lat="43.68934" lon="5.68312">
        <ele>264.329525</ele>
        <time>2021-09-18T06:41:20.000Z</time>
      </trkpt>
      <trkpt lat="43.68931" lon="5.68355">
        <ele>264.968037</ele>
        <time>2021-09-18T06:41:26.000Z</time>
      </trkpt>
      <trkpt lat="43.68927" lon="5.68404">
        <ele>265.259867</ele>
        <time>2021-09-18T06:41:32.000Z</time>
      </trkpt>
      <trkpt lat="43.68927" lon="5.68413">
        <ele>265.310898</ele>
        <time>2021-09-18T06:41:33.000Z</time>
      </trkpt>
      <trkpt lat="43.68924" lon="5.68446">
        <ele>265.508708</ele>
        <time>2021-09-18T06:41:37.000Z</time>
      </trkpt>
      <trkpt lat="43.68919" lon="5.68523">
        <ele>265.959344</ele>
        <time>2021-09-18T06:41:46.000Z</time>
      </trkpt>
      <trkpt lat="43.68916" lon="5.68582">
        <ele>266.302018</ele>
        <time>2021-09-18T06:41:54.000Z</time>
      </trkpt>
      <trkpt lat="43.68915" lon="5.68625">
        <ele>266.801545</ele>
        <time>2021-09-18T06:42:01.000Z</time>
      </trkpt>
      <trkpt lat="43.68914" lon="5.68636">
        <ele>267.003027</ele>
        <time>2021-09-18T06:42:03.000Z</time>
      </trkpt>
      <trkpt lat="43.68914" lon="5.68653">
        <ele>267.287921</ele>
        <time>2021-09-18T06:42:06.000Z</time>
      </trkpt>
      <trkpt lat="43.68913" lon="5.68688">
        <ele>267.907522</ele>
        <time>2021-09-18T06:42:13.000Z</time>
      </trkpt>
      <trkpt lat="43.68913" lon="5.68723">
        <ele>268.502607</ele>
        <time>2021-09-18T06:42:20.000Z</time>
      </trkpt>
      <trkpt lat="43.68913" lon="5.68746">
        <ele>268.910318</ele>
        <time>2021-09-18T06:42:25.000Z</time>
      </trkpt>
      <trkpt lat="43.68913" lon="5.68784">
        <ele>269.569596</ele>
        <time>2021-09-18T06:42:33.000Z</time>
      </trkpt>
      <trkpt lat="43.68913" lon="5.68813">
        <ele>270.067524</ele>
        <time>2021-09-18T06:42:39.000Z</time>
      </trkpt>
      <trkpt lat="43.68913" lon="5.68848">
        <ele>270.680033</ele>
        <time>2021-09-18T06:42:46.000Z</time>
      </trkpt>
      <trkpt lat="43.68912" lon="5.68881">
        <ele>271.023579</ele>
        <time>2021-09-18T06:42:52.000Z</time>
      </trkpt>
      <trkpt lat="43.6891" lon="5.68925">
        <ele>271.435722</ele>
        <time>2021-09-18T06:42:59.000Z</time>
      </trkpt>
      <trkpt lat="43.6891" lon="5.68944">
        <ele>271.625138</ele>
        <time>2021-09-18T06:43:02.000Z</time>
      </trkpt>
      <trkpt lat="43.68909" lon="5.68973">
        <ele>271.901186</ele>
        <time>2021-09-18T06:43:06.000Z</time>
      </trkpt>
      <trkpt lat="43.68907" lon="5.69035">
        <ele>272.491343</ele>
        <time>2021-09-18T06:43:14.000Z</time>
      </trkpt>
      <trkpt lat="43.68905" lon="5.69098">
        <ele>273.085301</ele>
        <time>2021-09-18T06:43:22.000Z</time>
      </trkpt>
      <trkpt lat="43.68903" lon="5.69163">
        <ele>273.285425</ele>
        <time>2021-09-18T06:43:30.000Z</time>
      </trkpt>
      <trkpt lat="43.689" lon="5.69218">
        <ele>273.442811</ele>
        <time>2021-09-18T06:43:37.000Z</time>
      </trkpt>
      <trkpt lat="43.68899" lon="5.69226">
        <ele>273.465278</ele>
        <time>2021-09-18T06:43:38.000Z</time>
      </trkpt>
      <trkpt lat="43.68898" lon="5.69249">
        <ele>273.53035</ele>
        <time>2021-09-18T06:43:41.000Z</time>
      </trkpt>
      <trkpt lat="43.68897" lon="5.69256">
        <ele>273.551371</ele>
        <time>2021-09-18T06:43:42.000Z</time>
      </trkpt>
      <trkpt lat="43.68893" lon="5.69314">
        <ele>273.714793</ele>
        <time>2021-09-18T06:43:50.000Z</time>
      </trkpt>
      <trkpt lat="43.6889" lon="5.69357">
        <ele>273.798442</ele>
        <time>2021-09-18T06:43:56.000Z</time>
      </trkpt>
      <trkpt lat="43.6889" lon="5.69364">
        <ele>273.787461</ele>
        <time>2021-09-18T06:43:57.000Z</time>
      </trkpt>
      <trkpt lat="43.68886" lon="5.69417">
        <ele>273.702647</ele>
        <time>2021-09-18T06:44:04.000Z</time>
      </trkpt>
      <trkpt lat="43.68882" lon="5.6948">
        <ele>273.602733</ele>
        <time>2021-09-18T06:44:11.000Z</time>
      </trkpt>
      <trkpt lat="43.68878" lon="5.69536">
        <ele>273.512991</ele>
        <time>2021-09-18T06:44:17.000Z</time>
      </trkpt>
      <trkpt lat="43.68873" lon="5.69606">
        <ele>273.312204</ele>
        <time>2021-09-18T06:44:24.000Z</time>
      </trkpt>
      <trkpt lat="43.68868" lon="5.69678">
        <ele>272.555849</ele>
        <time>2021-09-18T06:44:31.000Z</time>
      </trkpt>
      <trkpt lat="43.68863" lon="5.69742">
        <ele>271.880681</ele>
        <time>2021-09-18T06:44:37.000Z</time>
      </trkpt>
      <trkpt lat="43.68858" lon="5.69817">
        <ele>271.085436</ele>
        <time>2021-09-18T06:44:44.000Z</time>
      </trkpt>
      <trkpt lat="43.68847" lon="5.69891">
        <ele>270.144565</ele>
        <time>2021-09-18T06:44:52.000Z</time>
      </trkpt>
      <trkpt lat="43.68833" lon="5.69949">
        <ele>269.306202</ele>
        <time>2021-09-18T06:44:59.000Z</time>
      </trkpt>
      <trkpt lat="43.68818" lon="5.69997">
        <ele>268.598424</ele>
        <time>2021-09-18T06:45:05.000Z</time>
      </trkpt>
      <trkpt lat="43.68795" lon="5.70058">
        <ele>267.657096</ele>
        <time>2021-09-18T06:45:13.000Z</time>
      </trkpt>
      <trkpt lat="43.68765" lon="5.70123">
        <ele>266.872474</ele>
        <time>2021-09-18T06:45:22.000Z</time>
      </trkpt>
      <trkpt lat="43.68762" lon="5.7013">
        <ele>266.79659</ele>
        <time>2021-09-18T06:45:23.000Z</time>
      </trkpt>
      <trkpt lat="43.68751" lon="5.7015">
        <ele>266.571171</ele>
        <time>2021-09-18T06:45:26.000Z</time>
      </trkpt>
      <trkpt lat="43.68745" lon="5.70163">
        <ele>266.419404</ele>
        <time>2021-09-18T06:45:28.000Z</time>
      </trkpt>
      <trkpt lat="43.68718" lon="5.70215">
        <ele>265.831808</ele>
        <time>2021-09-18T06:45:36.000Z</time>
      </trkpt>
      <trkpt lat="43.68693" lon="5.70261">
        <ele>265.305921</ele>
        <time>2021-09-18T06:45:43.000Z</time>
      </trkpt>
      <trkpt lat="43.6869" lon="5.70268">
        <ele>265.235258</ele>
        <time>2021-09-18T06:45:44.000Z</time>
      </trkpt>
      <trkpt lat="43.68666" lon="5.70311">
        <ele>265.010769</ele>
        <time>2021-09-18T06:45:51.000Z</time>
      </trkpt>
      <trkpt lat="43.6865" lon="5.70343">
        <ele>264.900935</ele>
        <time>2021-09-18T06:45:56.000Z</time>
      </trkpt>
      <trkpt lat="43.68643" lon="5.70355">
        <ele>264.855612</ele>
        <time>2021-09-18T06:45:58.000Z</time>
      </trkpt>
      <trkpt lat="43.6863" lon="5.70381">
        <ele>264.766356</ele>
        <time>2021-09-18T06:46:02.000Z</time>
      </trkpt>
      <trkpt lat="43.68613" lon="5.70422">
        <ele>264.630992</ele>
        <time>2021-09-18T06:46:08.000Z</time>
      </trkpt>
      <trkpt lat="43.68594" lon="5.7047">
        <ele>264.475408</ele>
        <time>2021-09-18T06:46:15.000Z</time>
      </trkpt>
      <trkpt lat="43.68582" lon="5.70526">
        <ele>264.334933</ele>
        <time>2021-09-18T06:46:23.000Z</time>
      </trkpt>
      <trkpt lat="43.68579" lon="5.7054">
        <ele>264.303735</ele>
        <time>2021-09-18T06:46:25.000Z</time>
      </trkpt>
      <trkpt lat="43.68576" lon="5.70561">
        <ele>264.257109</ele>
        <time>2021-09-18T06:46:28.000Z</time>
      </trkpt>
      <trkpt lat="43.68575" lon="5.70568">
        <ele>264.242271</ele>
        <time>2021-09-18T06:46:29.000Z</time>
      </trkpt>
      <trkpt lat="43.68574" lon="5.70589">
        <ele>264.19575</ele>
        <time>2021-09-18T06:46:32.000Z</time>
      </trkpt>
      <trkpt lat="43.68571" lon="5.70641">
        <ele>264.084065</ele>
        <time>2021-09-18T06:46:39.000Z</time>
      </trkpt>
      <trkpt lat="43.68571" lon="5.70647">
        <ele>264.069508</ele>
        <time>2021-09-18T06:46:40.000Z</time>
      </trkpt>
      <trkpt lat="43.68569" lon="5.70692">
        <ele>263.971265</ele>
        <time>2021-09-18T06:46:46.000Z</time>
      </trkpt>
      <trkpt lat="43.68567" lon="5.70759">
        <ele>263.970545</ele>
        <time>2021-09-18T06:46:54.000Z</time>
      </trkpt>
      <trkpt lat="43.68565" lon="5.70818">
        <ele>264.162264</ele>
        <time>2021-09-18T06:47:01.000Z</time>
      </trkpt>
      <trkpt lat="43.68563" lon="5.70877">
        <ele>264.352013</ele>
        <time>2021-09-18T06:47:08.000Z</time>
      </trkpt>
      <trkpt lat="43.68562" lon="5.70893">
        <ele>264.403897</ele>
        <time>2021-09-18T06:47:10.000Z</time>
      </trkpt>
      <trkpt lat="43.68561" lon="5.70915">
        <ele>264.474769</ele>
        <time>2021-09-18T06:47:13.000Z</time>
      </trkpt>
      <trkpt lat="43.68561" lon="5.70935">
        <ele>264.539149</ele>
        <time>2021-09-18T06:47:16.000Z</time>
      </trkpt>
      <trkpt lat="43.68561" lon="5.70947">
        <ele>264.576804</ele>
        <time>2021-09-18T06:47:18.000Z</time>
      </trkpt>
      <trkpt lat="43.68561" lon="5.70966">
        <ele>264.636989</ele>
        <time>2021-09-18T06:47:21.000Z</time>
      </trkpt>
      <trkpt lat="43.68563" lon="5.7098">
        <ele>264.684448</ele>
        <time>2021-09-18T06:47:23.000Z</time>
      </trkpt>
      <trkpt lat="43.68567" lon="5.71017">
        <ele>264.723526</ele>
        <time>2021-09-18T06:47:28.000Z</time>
      </trkpt>
      <trkpt lat="43.68584" lon="5.71089">
        <ele>264.800959</ele>
        <time>2021-09-18T06:47:37.000Z</time>
      </trkpt>
      <trkpt lat="43.686" lon="5.71152">
        <ele>264.869238</ele>
        <time>2021-09-18T06:47:45.000Z</time>
      </trkpt>
      <trkpt lat="43.68618" lon="5.71223">
        <ele>264.906047</ele>
        <time>2021-09-18T06:47:54.000Z</time>
      </trkpt>
      <trkpt lat="43.68638" lon="5.713">
        <ele>264.413079</ele>
        <time>2021-09-18T06:48:04.000Z</time>
      </trkpt>
      <trkpt lat="43.68655" lon="5.71371">
        <ele>263.964046</ele>
        <time>2021-09-18T06:48:13.000Z</time>
      </trkpt>
      <trkpt lat="43.68673" lon="5.71442">
        <ele>263.511939</ele>
        <time>2021-09-18T06:48:22.000Z</time>
      </trkpt>
      <trkpt lat="43.68687" lon="5.71497">
        <ele>263.257593</ele>
        <time>2021-09-18T06:48:29.000Z</time>
      </trkpt>
      <trkpt lat="43.68702" lon="5.71558">
        <ele>262.992301</ele>
        <time>2021-09-18T06:48:37.000Z</time>
      </trkpt>
      <trkpt lat="43.68722" lon="5.71626">
        <ele>262.693332</ele>
        <time>2021-09-18T06:48:46.000Z</time>
      </trkpt>
      <trkpt lat="43.68745" lon="5.71702">
        <ele>262.369992</ele>
        <time>2021-09-18T06:48:56.000Z</time>
      </trkpt>
      <trkpt lat="43.68764" lon="5.71764">
        <ele>262.144655</ele>
        <time>2021-09-18T06:49:04.000Z</time>
      </trkpt>
      <trkpt lat="43.6878" lon="5.71818">
        <ele>261.945699</ele>
        <time>2021-09-18T06:49:11.000Z</time>
      </trkpt>
      <trkpt lat="43.68804" lon="5.71896">
        <ele>261.660191</ele>
        <time>2021-09-18T06:49:20.000Z</time>
      </trkpt>
      <trkpt lat="43.68815" lon="5.71934">
        <ele>261.548309</ele>
        <time>2021-09-18T06:49:26.000Z</time>
      </trkpt>
      <trkpt lat="43.68836" lon="5.71997">
        <ele>261.407314</ele>
        <time>2021-09-18T06:49:34.000Z</time>
      </trkpt>
      <trkpt lat="43.68851" lon="5.72035">
        <ele>261.317213</ele>
        <time>2021-09-18T06:49:39.000Z</time>
      </trkpt>
      <trkpt lat="43.68877" lon="5.72085">
        <ele>261.190855</ele>
        <time>2021-09-18T06:49:46.000Z</time>
      </trkpt>
      <trkpt lat="43.68917" lon="5.7214">
        <ele>261.121523</ele>
        <time>2021-09-18T06:49:55.000Z</time>
      </trkpt>
      <trkpt lat="43.68961" lon="5.72196">
        <ele>261.254285</ele>
        <time>2021-09-18T06:50:04.000Z</time>
      </trkpt>
      <trkpt lat="43.69004" lon="5.7225">
        <ele>261.383131</ele>
        <time>2021-09-18T06:50:14.000Z</time>
      </trkpt>
      <trkpt lat="43.69008" lon="5.72256">
        <ele>261.395853</ele>
        <time>2021-09-18T06:50:15.000Z</time>
      </trkpt>
      <trkpt lat="43.69033" lon="5.72288">
        <ele>261.471856</ele>
        <time>2021-09-18T06:50:22.000Z</time>
      </trkpt>
      <trkpt lat="43.69076" lon="5.72343">
        <ele>261.649408</ele>
        <time>2021-09-18T06:50:31.000Z</time>
      </trkpt>
      <trkpt lat="43.6911" lon="5.72388">
        <ele>261.795533</ele>
        <time>2021-09-18T06:50:39.000Z</time>
      </trkpt>
      <trkpt lat="43.69145" lon="5.72433">
        <ele>261.942942</ele>
        <time>2021-09-18T06:50:47.000Z</time>
      </trkpt>
      <trkpt lat="43.69186" lon="5.72485">
        <ele>262.06359</ele>
        <time>2021-09-18T06:50:56.000Z</time>
      </trkpt>
      <trkpt lat="43.69191" lon="5.72491">
        <ele>262.070504</ele>
        <time>2021-09-18T06:50:57.000Z</time>
      </trkpt>
      <trkpt lat="43.69225" lon="5.72534">
        <ele>262.120974</ele>
        <time>2021-09-18T06:51:04.000Z</time>
      </trkpt>
      <trkpt lat="43.69269" lon="5.72589">
        <ele>262.186051</ele>
        <time>2021-09-18T06:51:13.000Z</time>
      </trkpt>
      <trkpt lat="43.69297" lon="5.72627">
        <ele>262.22954</ele>
        <time>2021-09-18T06:51:19.000Z</time>
      </trkpt>
      <trkpt lat="43.69325" lon="5.72674">
        <ele>262.437359</ele>
        <time>2021-09-18T06:51:26.000Z</time>
      </trkpt>
      <trkpt lat="43.6935" lon="5.72725">
        <ele>262.661224</ele>
        <time>2021-09-18T06:51:34.000Z</time>
      </trkpt>
      <trkpt lat="43.69355" lon="5.72736">
        <ele>262.71056</ele>
        <time>2021-09-18T06:51:36.000Z</time>
      </trkpt>
      <trkpt lat="43.69364" lon="5.72753">
        <ele>262.786751</ele>
        <time>2021-09-18T06:51:39.000Z</time>
      </trkpt>
      <trkpt lat="43.6937" lon="5.72764">
        <ele>262.836072</ele>
        <time>2021-09-18T06:51:41.000Z</time>
      </trkpt>
      <trkpt lat="43.69375" lon="5.72775">
        <ele>262.886578</ele>
        <time>2021-09-18T06:51:43.000Z</time>
      </trkpt>
      <trkpt lat="43.6939" lon="5.72804">
        <ele>263.012964</ele>
        <time>2021-09-18T06:51:48.000Z</time>
      </trkpt>
      <trkpt lat="43.69413" lon="5.72835">
        <ele>263.205302</ele>
        <time>2021-09-18T06:51:55.000Z</time>
      </trkpt>
      <trkpt lat="43.69436" lon="5.72865">
        <ele>263.489176</ele>
        <time>2021-09-18T06:52:02.000Z</time>
      </trkpt>
      <trkpt lat="43.69457" lon="5.72892">
        <ele>263.74005</ele>
        <time>2021-09-18T06:52:08.000Z</time>
      </trkpt>
      <trkpt lat="43.69493" lon="5.72938">
        <ele>264.173617</ele>
        <time>2021-09-18T06:52:17.000Z</time>
      </trkpt>
      <trkpt lat="43.69517" lon="5.72968">
        <ele>264.466011</ele>
        <time>2021-09-18T06:52:23.000Z</time>
      </trkpt>
      <trkpt lat="43.69554" lon="5.73018">
        <ele>264.783844</ele>
        <time>2021-09-18T06:52:32.000Z</time>
      </trkpt>
      <trkpt lat="43.69584" lon="5.73059">
        <ele>264.866359</ele>
        <time>2021-09-18T06:52:39.000Z</time>
      </trkpt>
      <trkpt lat="43.69619" lon="5.73107">
        <ele>264.961581</ele>
        <time>2021-09-18T06:52:47.000Z</time>
      </trkpt>
      <trkpt lat="43.69657" lon="5.73163">
        <ele>265.069518</ele>
        <time>2021-09-18T06:52:56.000Z</time>
      </trkpt>
      <trkpt lat="43.69682" lon="5.732">
        <ele>265.100735</ele>
        <time>2021-09-18T06:53:02.000Z</time>
      </trkpt>
      <trkpt lat="43.69714" lon="5.73243">
        <ele>265.114727</ele>
        <time>2021-09-18T06:53:10.000Z</time>
      </trkpt>
      <trkpt lat="43.69751" lon="5.73286">
        <ele>265.129997</ele>
        <time>2021-09-18T06:53:17.000Z</time>
      </trkpt>
      <trkpt lat="43.69794" lon="5.73325">
        <ele>265.146346</ele>
        <time>2021-09-18T06:53:25.000Z</time>
      </trkpt>
      <trkpt lat="43.69831" lon="5.73358">
        <ele>265.036225</ele>
        <time>2021-09-18T06:53:32.000Z</time>
      </trkpt>
      <trkpt lat="43.69853" lon="5.73385">
        <ele>264.931013</ele>
        <time>2021-09-18T06:53:37.000Z</time>
      </trkpt>
      <trkpt lat="43.69883" lon="5.73433">
        <ele>264.771375</ele>
        <time>2021-09-18T06:53:44.000Z</time>
      </trkpt>
      <trkpt lat="43.69901" lon="5.73472">
        <ele>264.654659</ele>
        <time>2021-09-18T06:53:49.000Z</time>
      </trkpt>
      <trkpt lat="43.69917" lon="5.73522">
        <ele>264.509986</ele>
        <time>2021-09-18T06:53:55.000Z</time>
      </trkpt>
      <trkpt lat="43.69929" lon="5.73573">
        <ele>264.241218</ele>
        <time>2021-09-18T06:54:01.000Z</time>
      </trkpt>
      <trkpt lat="43.69946" lon="5.73649">
        <ele>263.838309</ele>
        <time>2021-09-18T06:54:10.000Z</time>
      </trkpt>
      <trkpt lat="43.69948" lon="5.73657">
        <ele>263.794789</ele>
        <time>2021-09-18T06:54:11.000Z</time>
      </trkpt>
      <trkpt lat="43.69963" lon="5.73723">
        <ele>263.446574</ele>
        <time>2021-09-18T06:54:19.000Z</time>
      </trkpt>
      <trkpt lat="43.69978" lon="5.73787">
        <ele>263.270713</ele>
        <time>2021-09-18T06:54:28.000Z</time>
      </trkpt>
      <trkpt lat="43.69981" lon="5.73802">
        <ele>263.273326</ele>
        <time>2021-09-18T06:54:29.000Z</time>
      </trkpt>
      <trkpt lat="43.69985" lon="5.7383">
        <ele>263.278051</ele>
        <time>2021-09-18T06:54:33.000Z</time>
      </trkpt>
      <trkpt lat="43.69989" lon="5.73879">
        <ele>263.286292</ele>
        <time>2021-09-18T06:54:40.000Z</time>
      </trkpt>
      <trkpt lat="43.69989" lon="5.73886">
        <ele>263.287432</ele>
        <time>2021-09-18T06:54:41.000Z</time>
      </trkpt>
      <trkpt lat="43.69988" lon="5.73899">
        <ele>263.289716</ele>
        <time>2021-09-18T06:54:43.000Z</time>
      </trkpt>
      <trkpt lat="43.69987" lon="5.73906">
        <ele>263.290865</ele>
        <time>2021-09-18T06:54:45.000Z</time>
      </trkpt>
      <trkpt lat="43.69982" lon="5.73932">
        <ele>263.295386</ele>
        <time>2021-09-18T06:54:48.000Z</time>
      </trkpt>
      <trkpt lat="43.69982" lon="5.73938">
        <ele>263.296424</ele>
        <time>2021-09-18T06:54:50.000Z</time>
      </trkpt>
      <trkpt lat="43.69992" lon="5.7396">
        <ele>263.300624</ele>
        <time>2021-09-18T06:54:54.000Z</time>
      </trkpt>
      <trkpt lat="43.70006" lon="5.73968">
        <ele>263.304146</ele>
        <time>2021-09-18T06:54:59.000Z</time>
      </trkpt>
      <trkpt lat="43.70009" lon="5.73972">
        <ele>263.305031</ele>
        <time>2021-09-18T06:55:00.000Z</time>
      </trkpt>
      <trkpt lat="43.70016" lon="5.73984">
        <ele>263.346822</ele>
        <time>2021-09-18T06:55:03.000Z</time>
      </trkpt>
      <trkpt lat="43.70027" lon="5.74007">
        <ele>263.623901</ele>
        <time>2021-09-18T06:55:08.000Z</time>
      </trkpt>
      <trkpt lat="43.7003" lon="5.74013">
        <ele>263.688028</ele>
        <time>2021-09-18T06:55:09.000Z</time>
      </trkpt>
      <trkpt lat="43.70044" lon="5.74053">
        <ele>264.136224</ele>
        <time>2021-09-18T06:55:16.000Z</time>
      </trkpt>
      <trkpt lat="43.70053" lon="5.74091">
        <ele>264.524432</ele>
        <time>2021-09-18T06:55:23.000Z</time>
      </trkpt>
      <trkpt lat="43.7006" lon="5.7414">
        <ele>265.017445</ele>
        <time>2021-09-18T06:55:33.000Z</time>
      </trkpt>
      <trkpt lat="43.70063" lon="5.74164">
        <ele>265.257876</ele>
        <time>2021-09-18T06:55:38.000Z</time>
      </trkpt>
      <trkpt lat="43.70068" lon="5.74203">
        <ele>265.652724</ele>
        <time>2021-09-18T06:55:46.000Z</time>
      </trkpt>
      <trkpt lat="43.70072" lon="5.74237">
        <ele>266.179175</ele>
        <time>2021-09-18T06:55:53.000Z</time>
      </trkpt>
      <trkpt lat="43.70076" lon="5.74264">
        <ele>266.699956</ele>
        <time>2021-09-18T06:55:59.000Z</time>
      </trkpt>
      <trkpt lat="43.70079" lon="5.74288">
        <ele>267.132659</ele>
        <time>2021-09-18T06:56:04.000Z</time>
      </trkpt>
      <trkpt lat="43.70083" lon="5.7432">
        <ele>267.741063</ele>
        <time>2021-09-18T06:56:11.000Z</time>
      </trkpt>
      <trkpt lat="43.70089" lon="5.74361">
        <ele>268.504391</ele>
        <time>2021-09-18T06:56:20.000Z</time>
      </trkpt>
      <trkpt lat="43.70092" lon="5.74384">
        <ele>268.930805</ele>
        <time>2021-09-18T06:56:25.000Z</time>
      </trkpt>
      <trkpt lat="43.70097" lon="5.7442">
        <ele>269.603836</ele>
        <time>2021-09-18T06:56:33.000Z</time>
      </trkpt>
      <trkpt lat="43.70102" lon="5.74456">
        <ele>270.269177</ele>
        <time>2021-09-18T06:56:40.000Z</time>
      </trkpt>
      <trkpt lat="43.70107" lon="5.74487">
        <ele>270.751179</ele>
        <time>2021-09-18T06:56:46.000Z</time>
      </trkpt>
      <trkpt lat="43.70108" lon="5.74492">
        <ele>270.831618</ele>
        <time>2021-09-18T06:56:47.000Z</time>
      </trkpt>
      <trkpt lat="43.70117" lon="5.74533">
        <ele>271.456644</ele>
        <time>2021-09-18T06:56:55.000Z</time>
      </trkpt>
      <trkpt lat="43.70129" lon="5.74579">
        <ele>272.184523</ele>
        <time>2021-09-18T06:57:04.000Z</time>
      </trkpt>
      <trkpt lat="43.70138" lon="5.7461">
        <ele>272.669317</ele>
        <time>2021-09-18T06:57:10.000Z</time>
      </trkpt>
      <trkpt lat="43.70151" lon="5.74657">
        <ele>273.409621</ele>
        <time>2021-09-18T06:57:19.000Z</time>
      </trkpt>
      <trkpt lat="43.70152" lon="5.74663">
        <ele>273.498613</ele>
        <time>2021-09-18T06:57:20.000Z</time>
      </trkpt>
      <trkpt lat="43.70155" lon="5.74688">
        <ele>273.865358</ele>
        <time>2021-09-18T06:57:24.000Z</time>
      </trkpt>
      <trkpt lat="43.70156" lon="5.74706">
        <ele>274.086768</ele>
        <time>2021-09-18T06:57:27.000Z</time>
      </trkpt>
      <trkpt lat="43.70157" lon="5.7473">
        <ele>274.33494</ele>
        <time>2021-09-18T06:57:31.000Z</time>
      </trkpt>
      <trkpt lat="43.70159" lon="5.74777">
        <ele>274.814257</ele>
        <time>2021-09-18T06:57:38.000Z</time>
      </trkpt>
      <trkpt lat="43.70164" lon="5.74823">
        <ele>275.287827</ele>
        <time>2021-09-18T06:57:45.000Z</time>
      </trkpt>
      <trkpt lat="43.70165" lon="5.74829">
        <ele>275.355497</ele>
        <time>2021-09-18T06:57:46.000Z</time>
      </trkpt>
      <trkpt lat="43.70168" lon="5.74835">
        <ele>275.419858</ele>
        <time>2021-09-18T06:57:47.000Z</time>
      </trkpt>
      <trkpt lat="43.70179" lon="5.74857">
        <ele>275.695208</ele>
        <time>2021-09-18T06:57:51.000Z</time>
      </trkpt>
      <trkpt lat="43.70209" lon="5.74896">
        <ele>276.281016</ele>
        <time>2021-09-18T06:57:59.000Z</time>
      </trkpt>
      <trkpt lat="43.70238" lon="5.74935">
        <ele>276.901986</ele>
        <time>2021-09-18T06:58:07.000Z</time>
      </trkpt>
      <trkpt lat="43.70268" lon="5.74977">
        <ele>277.59199</ele>
        <time>2021-09-18T06:58:16.000Z</time>
      </trkpt>
      <trkpt lat="43.70297" lon="5.75017">
        <ele>278.262159</ele>
        <time>2021-09-18T06:58:25.000Z</time>
      </trkpt>
      <trkpt lat="43.70324" lon="5.7506">
        <ele>278.927787</ele>
        <time>2021-09-18T06:58:34.000Z</time>
      </trkpt>
      <trkpt lat="43.70346" lon="5.75099">
        <ele>279.521369</ele>
        <time>2021-09-18T06:58:42.000Z</time>
      </trkpt>
      <trkpt lat="43.70367" lon="5.7514">
        <ele>280.152795</ele>
        <time>2021-09-18T06:58:50.000Z</time>
      </trkpt>
      <trkpt lat="43.70381" lon="5.75173">
        <ele>280.634729</ele>
        <time>2021-09-18T06:58:56.000Z</time>
      </trkpt>
      <trkpt lat="43.70392" lon="5.75201">
        <ele>281.03971</ele>
        <time>2021-09-18T06:59:02.000Z</time>
      </trkpt>
      <trkpt lat="43.70395" lon="5.75207">
        <ele>281.121874</ele>
        <time>2021-09-18T06:59:03.000Z</time>
      </trkpt>
      <trkpt lat="43.70417" lon="5.75264">
        <ele>281.945383</ele>
        <time>2021-09-18T06:59:13.000Z</time>
      </trkpt>
      <trkpt lat="43.70432" lon="5.75304">
        <ele>282.505565</ele>
        <time>2021-09-18T06:59:19.000Z</time>
      </trkpt>
      <trkpt lat="43.7044" lon="5.75333">
        <ele>282.83471</ele>
        <time>2021-09-18T06:59:25.000Z</time>
      </trkpt>
      <trkpt lat="43.70442" lon="5.75366">
        <ele>283.166448</ele>
        <time>2021-09-18T06:59:29.000Z</time>
      </trkpt>
      <trkpt lat="43.70442" lon="5.75379">
        <ele>283.297509</ele>
        <time>2021-09-18T06:59:31.000Z</time>
      </trkpt>
      <trkpt lat="43.70447" lon="5.7539">
        <ele>283.438049</ele>
        <time>2021-09-18T06:59:33.000Z</time>
      </trkpt>
      <trkpt lat="43.70451" lon="5.75395">
        <ele>283.505082</ele>
        <time>2021-09-18T06:59:35.000Z</time>
      </trkpt>
      <trkpt lat="43.70455" lon="5.75397">
        <ele>283.569019</ele>
        <time>2021-09-18T06:59:36.000Z</time>
      </trkpt>
      <trkpt lat="43.70466" lon="5.75409">
        <ele>283.768189</ele>
        <time>2021-09-18T06:59:38.000Z</time>
      </trkpt>
      <trkpt lat="43.70474" lon="5.75418">
        <ele>283.90984</ele>
        <time>2021-09-18T06:59:40.000Z</time>
      </trkpt>
      <trkpt lat="43.70478" lon="5.75423">
        <ele>283.982383</ele>
        <time>2021-09-18T06:59:41.000Z</time>
      </trkpt>
      <trkpt lat="43.70508" lon="5.75463">
        <ele>284.561164</ele>
        <time>2021-09-18T06:59:49.000Z</time>
      </trkpt>
      <trkpt lat="43.70534" lon="5.75499">
        <ele>285.077729</ele>
        <time>2021-09-18T06:59:56.000Z</time>
      </trkpt>
      <trkpt lat="43.70565" lon="5.7554">
        <ele>285.477805</ele>
        <time>2021-09-18T07:00:04.000Z</time>
      </trkpt>
      <trkpt lat="43.70592" lon="5.75579">
        <ele>285.830593</ele>
        <time>2021-09-18T07:00:11.000Z</time>
      </trkpt>
      <trkpt lat="43.70616" lon="5.75631">
        <ele>286.238543</ele>
        <time>2021-09-18T07:00:19.000Z</time>
      </trkpt>
      <trkpt lat="43.70635" lon="5.75687">
        <ele>286.64936</ele>
        <time>2021-09-18T07:00:27.000Z</time>
      </trkpt>
      <trkpt lat="43.70651" lon="5.75736">
        <ele>286.940044</ele>
        <time>2021-09-18T07:00:34.000Z</time>
      </trkpt>
      <trkpt lat="43.70675" lon="5.75806">
        <ele>287.324604</ele>
        <time>2021-09-18T07:00:44.000Z</time>
      </trkpt>
      <trkpt lat="43.70693" lon="5.75859">
        <ele>287.619467</ele>
        <time>2021-09-18T07:00:52.000Z</time>
      </trkpt>
      <trkpt lat="43.7071" lon="5.75911">
        <ele>287.903088</ele>
        <time>2021-09-18T07:00:59.000Z</time>
      </trkpt>
      <trkpt lat="43.70729" lon="5.75969">
        <ele>288.257761</ele>
        <time>2021-09-18T07:01:07.000Z</time>
      </trkpt>
      <trkpt lat="43.70746" lon="5.7602">
        <ele>288.578938</ele>
        <time>2021-09-18T07:01:14.000Z</time>
      </trkpt>
      <trkpt lat="43.70764" lon="5.76074">
        <ele>288.916483</ele>
        <time>2021-09-18T07:01:22.000Z</time>
      </trkpt>
      <trkpt lat="43.70779" lon="5.76119">
        <ele>289.204307</ele>
        <time>2021-09-18T07:01:30.000Z</time>
      </trkpt>
      <trkpt lat="43.70793" lon="5.76159">
        <ele>289.457257</ele>
        <time>2021-09-18T07:01:37.000Z</time>
      </trkpt>
      <trkpt lat="43.70813" lon="5.7622">
        <ele>289.871983</ele>
        <time>2021-09-18T07:01:47.000Z</time>
      </trkpt>
      <trkpt lat="43.70828" lon="5.76271">
        <ele>290.212255</ele>
        <time>2021-09-18T07:01:55.000Z</time>
      </trkpt>
      <trkpt lat="43.70845" lon="5.76329">
        <ele>290.59624</ele>
        <time>2021-09-18T07:02:04.000Z</time>
      </trkpt>
      <trkpt lat="43.70862" lon="5.76381">
        <ele>290.941725</ele>
        <time>2021-09-18T07:02:12.000Z</time>
      </trkpt>
      <trkpt lat="43.70876" lon="5.76426">
        <ele>291.244746</ele>
        <time>2021-09-18T07:02:19.000Z</time>
      </trkpt>
      <trkpt lat="43.70893" lon="5.76479">
        <ele>291.597022</ele>
        <time>2021-09-18T07:02:27.000Z</time>
      </trkpt>
      <trkpt lat="43.70907" lon="5.76542">
        <ele>291.993352</ele>
        <time>2021-09-18T07:02:36.000Z</time>
      </trkpt>
      <trkpt lat="43.70909" lon="5.76556">
        <ele>292.081325</ele>
        <time>2021-09-18T07:02:38.000Z</time>
      </trkpt>
      <trkpt lat="43.7091" lon="5.76585">
        <ele>292.257415</ele>
        <time>2021-09-18T07:02:42.000Z</time>
      </trkpt>
      <trkpt lat="43.70902" lon="5.76635">
        <ele>292.52744</ele>
        <time>2021-09-18T07:02:49.000Z</time>
      </trkpt>
      <trkpt lat="43.709" lon="5.76656">
        <ele>292.616806</ele>
        <time>2021-09-18T07:02:52.000Z</time>
      </trkpt>
      <trkpt lat="43.70899" lon="5.76671">
        <ele>292.681382</ele>
        <time>2021-09-18T07:02:54.000Z</time>
      </trkpt>
      <trkpt lat="43.70899" lon="5.76671">
        <ele>292.681382</ele>
        <time>2021-09-18T07:02:55.000Z</time>
      </trkpt>
      <trkpt lat="43.70901" lon="5.76679">
        <ele>292.715076</ele>
        <time>2021-09-18T07:02:56.000Z</time>
      </trkpt>
      <trkpt lat="43.70914" lon="5.76717">
        <ele>292.893654</ele>
        <time>2021-09-18T07:03:00.000Z</time>
      </trkpt>
      <trkpt lat="43.70933" lon="5.7676">
        <ele>293.103429</ele>
        <time>2021-09-18T07:03:06.000Z</time>
      </trkpt>
      <trkpt lat="43.70957" lon="5.76813">
        <ele>293.36573</ele>
        <time>2021-09-18T07:03:14.000Z</time>
      </trkpt>
      <trkpt lat="43.70976" lon="5.76855">
        <ele>293.655559</ele>
        <time>2021-09-18T07:03:21.000Z</time>
      </trkpt>
      <trkpt lat="43.70998" lon="5.76903">
        <ele>294.105402</ele>
        <time>2021-09-18T07:03:30.000Z</time>
      </trkpt>
      <trkpt lat="43.71017" lon="5.76937">
        <ele>294.442915</ele>
        <time>2021-09-18T07:03:37.000Z</time>
      </trkpt>
      <trkpt lat="43.71047" lon="5.7699">
        <ele>294.970054</ele>
        <time>2021-09-18T07:03:47.000Z</time>
      </trkpt>
      <trkpt lat="43.7105" lon="5.76995">
        <ele>295.026553</ele>
        <time>2021-09-18T07:03:48.000Z</time>
      </trkpt>
      <trkpt lat="43.71062" lon="5.77017">
        <ele>295.247904</ele>
        <time>2021-09-18T07:03:52.000Z</time>
      </trkpt>
      <trkpt lat="43.71082" lon="5.77064">
        <ele>295.626844</ele>
        <time>2021-09-18T07:03:59.000Z</time>
      </trkpt>
      <trkpt lat="43.71112" lon="5.77133">
        <ele>296.131005</ele>
        <time>2021-09-18T07:04:09.000Z</time>
      </trkpt>
      <trkpt lat="43.71132" lon="5.7718">
        <ele>296.469641</ele>
        <time>2021-09-18T07:04:16.000Z</time>
      </trkpt>
      <trkpt lat="43.71154" lon="5.77231">
        <ele>296.841322</ele>
        <time>2021-09-18T07:04:24.000Z</time>
      </trkpt>
      <trkpt lat="43.71175" lon="5.77282">
        <ele>297.072842</ele>
        <time>2021-09-18T07:04:32.000Z</time>
      </trkpt>
      <trkpt lat="43.712" lon="5.77339">
        <ele>297.199713</ele>
        <time>2021-09-18T07:04:40.000Z</time>
      </trkpt>
      <trkpt lat="43.71216" lon="5.77383">
        <ele>297.295718</ele>
        <time>2021-09-18T07:04:46.000Z</time>
      </trkpt>
      <trkpt lat="43.71217" lon="5.77391">
        <ele>297.311783</ele>
        <time>2021-09-18T07:04:47.000Z</time>
      </trkpt>
      <trkpt lat="43.71218" lon="5.77399">
        <ele>297.327514</ele>
        <time>2021-09-18T07:04:48.000Z</time>
      </trkpt>
      <trkpt lat="43.71221" lon="5.77423">
        <ele>297.374185</ele>
        <time>2021-09-18T07:04:51.000Z</time>
      </trkpt>
      <trkpt lat="43.71222" lon="5.7743">
        <ele>297.387969</ele>
        <time>2021-09-18T07:04:52.000Z</time>
      </trkpt>
      <trkpt lat="43.7122" lon="5.77439">
        <ele>297.407593</ele>
        <time>2021-09-18T07:04:53.000Z</time>
      </trkpt>
      <trkpt lat="43.71217" lon="5.77445">
        <ele>297.422158</ele>
        <time>2021-09-18T07:04:55.000Z</time>
      </trkpt>
      <trkpt lat="43.71215" lon="5.77457">
        <ele>297.446513</ele>
        <time>2021-09-18T07:04:56.000Z</time>
      </trkpt>
      <trkpt lat="43.71219" lon="5.77477">
        <ele>297.485577</ele>
        <time>2021-09-18T07:04:59.000Z</time>
      </trkpt>
      <trkpt lat="43.71223" lon="5.77481">
        <ele>297.474055</ele>
        <time>2021-09-18T07:05:01.000Z</time>
      </trkpt>
      <trkpt lat="43.71227" lon="5.77485">
        <ele>297.444807</ele>
        <time>2021-09-18T07:05:02.000Z</time>
      </trkpt>
      <trkpt lat="43.71236" lon="5.77487">
        <ele>297.390323</ele>
        <time>2021-09-18T07:05:03.000Z</time>
      </trkpt>
      <trkpt lat="43.71241" lon="5.77487">
        <ele>297.361879</ele>
        <time>2021-09-18T07:05:05.000Z</time>
      </trkpt>
      <trkpt lat="43.71249" lon="5.77493">
        <ele>297.305257</ele>
        <time>2021-09-18T07:05:06.000Z</time>
      </trkpt>
      <trkpt lat="43.71253" lon="5.77497">
        <ele>297.278387</ele>
        <time>2021-09-18T07:05:07.000Z</time>
      </trkpt>
      <trkpt lat="43.71265" lon="5.7751">
        <ele>297.186824</ele>
        <time>2021-09-18T07:05:10.000Z</time>
      </trkpt>
      <trkpt lat="43.71289" lon="5.77546">
        <ele>296.975342</ele>
        <time>2021-09-18T07:05:16.000Z</time>
      </trkpt>
      <trkpt lat="43.71321" lon="5.77612">
        <ele>296.636022</ele>
        <time>2021-09-18T07:05:25.000Z</time>
      </trkpt>
      <trkpt lat="43.71325" lon="5.7762">
        <ele>296.595967</ele>
        <time>2021-09-18T07:05:26.000Z</time>
      </trkpt>
      <trkpt lat="43.7135" lon="5.77679">
        <ele>296.174876</ele>
        <time>2021-09-18T07:05:33.000Z</time>
      </trkpt>
      <trkpt lat="43.71372" lon="5.77738">
        <ele>295.590693</ele>
        <time>2021-09-18T07:05:39.000Z</time>
      </trkpt>
      <trkpt lat="43.71396" lon="5.77813">
        <ele>294.863261</ele>
        <time>2021-09-18T07:05:46.000Z</time>
      </trkpt>
      <trkpt lat="43.714" lon="5.77824">
        <ele>294.759759</ele>
        <time>2021-09-18T07:05:47.000Z</time>
      </trkpt>
      <trkpt lat="43.71421" lon="5.77875">
        <ele>294.23746</ele>
        <time>2021-09-18T07:05:52.000Z</time>
      </trkpt>
      <trkpt lat="43.71427" lon="5.77883">
        <ele>294.197405</ele>
        <time>2021-09-18T07:05:53.000Z</time>
      </trkpt>
      <trkpt lat="43.7144" lon="5.77898">
        <ele>294.127348</ele>
        <time>2021-09-18T07:05:55.000Z</time>
      </trkpt>
      <trkpt lat="43.71454" lon="5.77909">
        <ele>294.059518</ele>
        <time>2021-09-18T07:05:57.000Z</time>
      </trkpt>
      <trkpt lat="43.71481" lon="5.77929">
        <ele>293.927792</ele>
        <time>2021-09-18T07:06:01.000Z</time>
      </trkpt>
      <trkpt lat="43.71488" lon="5.77934">
        <ele>293.895119</ele>
        <time>2021-09-18T07:06:02.000Z</time>
      </trkpt>
      <trkpt lat="43.72838" lon="5.81275">
        <ele>284.251358</ele>
        <time>2021-09-18T07:17:50.000Z</time>
      </trkpt>
      <trkpt lat="43.72847" lon="5.81271">
        <ele>284.346793</ele>
        <time>2021-09-18T07:18:04.000Z</time>
      </trkpt>
      <trkpt lat="43.72851" lon="5.81274">
        <ele>284.391332</ele>
        <time>2021-09-18T07:18:06.000Z</time>
      </trkpt>
      <trkpt lat="43.72863" lon="5.81267">
        <ele>284.527788</ele>
        <time>2021-09-18T07:18:11.000Z</time>
      </trkpt>
      <trkpt lat="43.72879" lon="5.81272">
        <ele>284.897155</ele>
        <time>2021-09-18T07:18:17.000Z</time>
      </trkpt>
      <trkpt lat="43.72883" lon="5.81272">
        <ele>284.998355</ele>
        <time>2021-09-18T07:18:18.000Z</time>
      </trkpt>
      <trkpt lat="43.72898" lon="5.8127">
        <ele>285.450084</ele>
        <time>2021-09-18T07:18:22.000Z</time>
      </trkpt>
      <trkpt lat="43.72921" lon="5.81273">
        <ele>286.096264</ele>
        <time>2021-09-18T07:18:28.000Z</time>
      </trkpt>
      <trkpt lat="43.7294" lon="5.81279">
        <ele>286.669931</ele>
        <time>2021-09-18T07:18:34.000Z</time>
      </trkpt>
      <trkpt lat="43.72945" lon="5.81282">
        <ele>286.82385</ele>
        <time>2021-09-18T07:18:37.000Z</time>
      </trkpt>
      <trkpt lat="43.72965" lon="5.81299">
        <ele>287.485412</ele>
        <time>2021-09-18T07:18:41.000Z</time>
      </trkpt>
      <trkpt lat="43.72978" lon="5.81319">
        <ele>288.049066</ele>
        <time>2021-09-18T07:18:47.000Z</time>
      </trkpt>
      <trkpt lat="43.72998" lon="5.8135">
        <ele>288.923858</ele>
        <time>2021-09-18T07:18:55.000Z</time>
      </trkpt>
      <trkpt lat="43.73012" lon="5.81378">
        <ele>289.614746</ele>
        <time>2021-09-18T07:19:01.000Z</time>
      </trkpt>
      <trkpt lat="43.73028" lon="5.81415">
        <ele>289.786975</ele>
        <time>2021-09-18T07:19:08.000Z</time>
      </trkpt>
      <trkpt lat="43.73043" lon="5.8145">
        <ele>289.836907</ele>
        <time>2021-09-18T07:19:15.000Z</time>
      </trkpt>
      <trkpt lat="43.73054" lon="5.81475">
        <ele>289.873422</ele>
        <time>2021-09-18T07:19:21.000Z</time>
      </trkpt>
      <trkpt lat="43.73067" lon="5.81506">
        <ele>289.917359</ele>
        <time>2021-09-18T07:19:28.000Z</time>
      </trkpt>
      <trkpt lat="43.73083" lon="5.81541">
        <ele>289.969031</ele>
        <time>2021-09-18T07:19:37.000Z</time>
      </trkpt>
      <trkpt lat="43.73093" lon="5.81566">
        <ele>290.003541</ele>
        <time>2021-09-18T07:19:43.000Z</time>
      </trkpt>
      <trkpt lat="43.73107" lon="5.81596">
        <ele>290.047493</ele>
        <time>2021-09-18T07:19:49.000Z</time>
      </trkpt>
      <trkpt lat="43.73116" lon="5.8162">
        <ele>290.168022</ele>
        <time>2021-09-18T07:19:56.000Z</time>
      </trkpt>
      <trkpt lat="43.73122" lon="5.81645">
        <ele>290.288725</ele>
        <time>2021-09-18T07:20:01.000Z</time>
      </trkpt>
      <trkpt lat="43.73127" lon="5.8167">
        <ele>290.403248</ele>
        <time>2021-09-18T07:20:07.000Z</time>
      </trkpt>
      <trkpt lat="43.73132" lon="5.81699">
        <ele>290.535946</ele>
        <time>2021-09-18T07:20:13.000Z</time>
      </trkpt>
      <trkpt lat="43.7314" lon="5.81737">
        <ele>290.713437</ele>
        <time>2021-09-18T07:20:20.000Z</time>
      </trkpt>
      <trkpt lat="43.73148" lon="5.81783">
        <ele>290.927671</ele>
        <time>2021-09-18T07:20:28.000Z</time>
      </trkpt>
      <trkpt lat="43.73153" lon="5.81809">
        <ele>291.046287</ele>
        <time>2021-09-18T07:20:34.000Z</time>
      </trkpt>
      <trkpt lat="43.73154" lon="5.81818">
        <ele>291.086451</ele>
        <time>2021-09-18T07:20:36.000Z</time>
      </trkpt>
      <trkpt lat="43.73154" lon="5.81822">
        <ele>291.104773</ele>
        <time>2021-09-18T07:20:37.000Z</time>
      </trkpt>
      <trkpt lat="43.73155" lon="5.81829">
        <ele>291.139419</ele>
        <time>2021-09-18T07:20:39.000Z</time>
      </trkpt>
      <trkpt lat="43.73163" lon="5.81841">
        <ele>291.190322</ele>
        <time>2021-09-18T07:20:41.000Z</time>
      </trkpt>
      <trkpt lat="43.73161" lon="5.81813">
        <ele>291.264331</ele>
        <time>2021-09-18T07:20:46.000Z</time>
      </trkpt>
      <trkpt lat="43.73154" lon="5.81789">
        <ele>291.332808</ele>
        <time>2021-09-18T07:20:52.000Z</time>
      </trkpt>
      <trkpt lat="43.73146" lon="5.81767">
        <ele>291.396973</ele>
        <time>2021-09-18T07:20:56.000Z</time>
      </trkpt>
      <trkpt lat="43.73142" lon="5.81754">
        <ele>291.435056</ele>
        <time>2021-09-18T07:20:58.000Z</time>
      </trkpt>
      <trkpt lat="43.73135" lon="5.81713">
        <ele>291.54899</ele>
        <time>2021-09-18T07:21:05.000Z</time>
      </trkpt>
      <trkpt lat="43.73127" lon="5.81666">
        <ele>291.676113</ele>
        <time>2021-09-18T07:21:12.000Z</time>
      </trkpt>
      <trkpt lat="43.73124" lon="5.81652">
        <ele>291.715936</ele>
        <time>2021-09-18T07:21:14.000Z</time>
      </trkpt>
      <trkpt lat="43.73118" lon="5.81624">
        <ele>291.792469</ele>
        <time>2021-09-18T07:21:17.000Z</time>
      </trkpt>
      <trkpt lat="43.73113" lon="5.81611">
        <ele>291.820114</ele>
        <time>2021-09-18T07:21:20.000Z</time>
      </trkpt>
      <trkpt lat="43.73105" lon="5.81592">
        <ele>291.763715</ele>
        <time>2021-09-18T07:21:23.000Z</time>
      </trkpt>
      <trkpt lat="43.73093" lon="5.81564">
        <ele>291.680724</ele>
        <time>2021-09-18T07:21:27.000Z</time>
      </trkpt>
      <trkpt lat="43.7309" lon="5.81557">
        <ele>291.659459</ele>
        <time>2021-09-18T07:21:28.000Z</time>
      </trkpt>
      <trkpt lat="43.73068" lon="5.81506">
        <ele>291.508316</ele>
        <time>2021-09-18T07:21:35.000Z</time>
      </trkpt>
      <trkpt lat="43.73048" lon="5.81461">
        <ele>291.373426</ele>
        <time>2021-09-18T07:21:41.000Z</time>
      </trkpt>
      <trkpt lat="43.73025" lon="5.81407">
        <ele>291.211561</ele>
        <time>2021-09-18T07:21:47.000Z</time>
      </trkpt>
      <trkpt lat="43.73004" lon="5.81361">
        <ele>291.000749</ele>
        <time>2021-09-18T07:21:54.000Z</time>
      </trkpt>
      <trkpt lat="43.72993" lon="5.81342">
        <ele>290.899619</ele>
        <time>2021-09-18T07:21:56.000Z</time>
      </trkpt>
      <trkpt lat="43.7299" lon="5.81337">
        <ele>290.869507</ele>
        <time>2021-09-18T07:21:58.000Z</time>
      </trkpt>
      <trkpt lat="43.72978" lon="5.8132">
        <ele>290.770524</ele>
        <time>2021-09-18T07:22:04.000Z</time>
      </trkpt>
      <trkpt lat="43.72971" lon="5.81308">
        <ele>290.706534</ele>
        <time>2021-09-18T07:22:05.000Z</time>
      </trkpt>
      <trkpt lat="43.72968" lon="5.81286">
        <ele>290.614284</ele>
        <time>2021-09-18T07:22:09.000Z</time>
      </trkpt>
      <trkpt lat="43.72978" lon="5.81277">
        <ele>290.549133</ele>
        <time>2021-09-18T07:22:12.000Z</time>
      </trkpt>
      <trkpt lat="43.72986" lon="5.81275">
        <ele>290.500305</ele>
        <time>2021-09-18T07:22:13.000Z</time>
      </trkpt>
      <trkpt lat="43.73011" lon="5.81268">
        <ele>290.348995</ele>
        <time>2021-09-18T07:22:18.000Z</time>
      </trkpt>
      <trkpt lat="43.73035" lon="5.81263">
        <ele>290.211373</ele>
        <time>2021-09-18T07:22:24.000Z</time>
      </trkpt>
      <trkpt lat="43.7304" lon="5.81262">
        <ele>290.179119</ele>
        <time>2021-09-18T07:22:25.000Z</time>
      </trkpt>
      <trkpt lat="43.73084" lon="5.81239">
        <ele>289.705424</ele>
        <time>2021-09-18T07:22:32.000Z</time>
      </trkpt>
      <trkpt lat="43.73084" lon="5.81239">
        <ele>289.704346</ele>
        <time>2021-09-18T07:22:33.000Z</time>
      </trkpt>
      <trkpt lat="43.73112" lon="5.81212">
        <ele>289.336443</ele>
        <time>2021-09-18T07:22:38.000Z</time>
      </trkpt>
      <trkpt lat="43.73155" lon="5.81168">
        <ele>288.758746</ele>
        <time>2021-09-18T07:22:47.000Z</time>
      </trkpt>
      <trkpt lat="43.73188" lon="5.81136">
        <ele>288.323811</ele>
        <time>2021-09-18T07:22:54.000Z</time>
      </trkpt>
      <trkpt lat="43.73227" lon="5.81091">
        <ele>288.018498</ele>
        <time>2021-09-18T07:23:02.000Z</time>
      </trkpt>
      <trkpt lat="43.73254" lon="5.81054">
        <ele>287.840682</ele>
        <time>2021-09-18T07:23:10.000Z</time>
      </trkpt>
      <trkpt lat="43.73296" lon="5.80993">
        <ele>287.5515</ele>
        <time>2021-09-18T07:23:20.000Z</time>
      </trkpt>
      <trkpt lat="43.7331" lon="5.80971">
        <ele>287.449773</ele>
        <time>2021-09-18T07:23:24.000Z</time>
      </trkpt>
      <trkpt lat="43.73316" lon="5.80959">
        <ele>287.398386</ele>
        <time>2021-09-18T07:23:27.000Z</time>
      </trkpt>
      <trkpt lat="43.73336" lon="5.8091">
        <ele>287.314583</ele>
        <time>2021-09-18T07:23:35.000Z</time>
      </trkpt>
      <trkpt lat="43.73352" lon="5.80864">
        <ele>287.266405</ele>
        <time>2021-09-18T07:23:42.000Z</time>
      </trkpt>
      <trkpt lat="43.7337" lon="5.80814">
        <ele>287.213741</ele>
        <time>2021-09-18T07:23:49.000Z</time>
      </trkpt>
      <trkpt lat="43.73399" lon="5.80733">
        <ele>287.129273</ele>
        <time>2021-09-18T07:23:59.000Z</time>
      </trkpt>
      <trkpt lat="43.73399" lon="5.80733">
        <ele>287.129273</ele>
        <time>2021-09-18T07:24:00.000Z</time>
      </trkpt>
      <trkpt lat="43.73422" lon="5.8066">
        <ele>287.124403</ele>
        <time>2021-09-18T07:24:10.000Z</time>
      </trkpt>
      <trkpt lat="43.73425" lon="5.80653">
        <ele>287.124784</ele>
        <time>2021-09-18T07:24:11.000Z</time>
      </trkpt>
      <trkpt lat="43.73447" lon="5.80583">
        <ele>287.128566</ele>
        <time>2021-09-18T07:24:21.000Z</time>
      </trkpt>
      <trkpt lat="43.73456" lon="5.80545">
        <ele>287.130524</ele>
        <time>2021-09-18T07:24:27.000Z</time>
      </trkpt>
      <trkpt lat="43.73468" lon="5.80492">
        <ele>287.138211</ele>
        <time>2021-09-18T07:24:35.000Z</time>
      </trkpt>
      <trkpt lat="43.73468" lon="5.80492">
        <ele>287.138211</ele>
        <time>2021-09-18T07:24:36.000Z</time>
      </trkpt>
      <trkpt lat="43.73514" lon="5.80449">
        <ele>287.342197</ele>
        <time>2021-09-18T07:24:43.000Z</time>
      </trkpt>
      <trkpt lat="43.73541" lon="5.80432">
        <ele>287.454363</ele>
        <time>2021-09-18T07:24:49.000Z</time>
      </trkpt>
      <trkpt lat="43.73583" lon="5.80417">
        <ele>287.613825</ele>
        <time>2021-09-18T07:24:58.000Z</time>
      </trkpt>
      <trkpt lat="43.73619" lon="5.80406">
        <ele>287.747507</ele>
        <time>2021-09-18T07:25:06.000Z</time>
      </trkpt>
      <trkpt lat="43.73647" lon="5.80396">
        <ele>288.232753</ele>
        <time>2021-09-18T07:25:13.000Z</time>
      </trkpt>
      <trkpt lat="43.73675" lon="5.80384">
        <ele>289.046093</ele>
        <time>2021-09-18T07:25:21.000Z</time>
      </trkpt>
      <trkpt lat="43.73702" lon="5.80366">
        <ele>289.854339</ele>
        <time>2021-09-18T07:25:30.000Z</time>
      </trkpt>
      <trkpt lat="43.73725" lon="5.80348">
        <ele>290.588933</ele>
        <time>2021-09-18T07:25:39.000Z</time>
      </trkpt>
      <trkpt lat="43.73745" lon="5.80329">
        <ele>291.258789</ele>
        <time>2021-09-18T07:25:47.000Z</time>
      </trkpt>
      <trkpt lat="43.73765" lon="5.80306">
        <ele>291.971984</ele>
        <time>2021-09-18T07:25:56.000Z</time>
      </trkpt>
      <trkpt lat="43.73781" lon="5.80282">
        <ele>292.620995</ele>
        <time>2021-09-18T07:26:04.000Z</time>
      </trkpt>
      <trkpt lat="43.73804" lon="5.8025">
        <ele>293.808801</ele>
        <time>2021-09-18T07:26:15.000Z</time>
      </trkpt>
      <trkpt lat="43.73821" lon="5.80226">
        <ele>294.706608</ele>
        <time>2021-09-18T07:26:23.000Z</time>
      </trkpt>
      <trkpt lat="43.7384" lon="5.80199">
        <ele>295.719733</ele>
        <time>2021-09-18T07:26:31.000Z</time>
      </trkpt>
      <trkpt lat="43.73858" lon="5.80174">
        <ele>296.662261</ele>
        <time>2021-09-18T07:26:38.000Z</time>
      </trkpt>
      <trkpt lat="43.73885" lon="5.80139">
        <ele>298.04652</ele>
        <time>2021-09-18T07:26:48.000Z</time>
      </trkpt>
      <trkpt lat="43.73914" lon="5.80111">
        <ele>299.360885</ele>
        <time>2021-09-18T07:26:57.000Z</time>
      </trkpt>
      <trkpt lat="43.7395" lon="5.80082">
        <ele>300.282669</ele>
        <time>2021-09-18T07:27:07.000Z</time>
      </trkpt>
      <trkpt lat="43.73985" lon="5.80056">
        <ele>301.11094</ele>
        <time>2021-09-18T07:27:16.000Z</time>
      </trkpt>
      <trkpt lat="43.74016" lon="5.80034">
        <ele>301.851077</ele>
        <time>2021-09-18T07:27:24.000Z</time>
      </trkpt>
      <trkpt lat="43.74051" lon="5.8001">
        <ele>302.670541</ele>
        <time>2021-09-18T07:27:32.000Z</time>
      </trkpt>
      <trkpt lat="43.74079" lon="5.79997">
        <ele>303.249478</ele>
        <time>2021-09-18T07:27:38.000Z</time>
      </trkpt>
      <trkpt lat="43.74084" lon="5.79996">
        <ele>303.287311</ele>
        <time>2021-09-18T07:27:39.000Z</time>
      </trkpt>
      <trkpt lat="43.74115" lon="5.79994">
        <ele>303.530561</ele>
        <time>2021-09-18T07:27:45.000Z</time>
      </trkpt>
      <trkpt lat="43.74152" lon="5.80006">
        <ele>303.825734</ele>
        <time>2021-09-18T07:27:51.000Z</time>
      </trkpt>
      <trkpt lat="43.74189" lon="5.80032">
        <ele>304.145856</ele>
        <time>2021-09-18T07:27:59.000Z</time>
      </trkpt>
      <trkpt lat="43.74231" lon="5.8006">
        <ele>304.511577</ele>
        <time>2021-09-18T07:28:07.000Z</time>
      </trkpt>
      <trkpt lat="43.74283" lon="5.80098">
        <ele>304.679419</ele>
        <time>2021-09-18T07:28:16.000Z</time>
      </trkpt>
      <trkpt lat="43.74288" lon="5.80102">
        <ele>304.687291</ele>
        <time>2021-09-18T07:28:17.000Z</time>
      </trkpt>
      <trkpt lat="43.74341" lon="5.80141">
        <ele>304.759657</ele>
        <time>2021-09-18T07:28:26.000Z</time>
      </trkpt>
      <trkpt lat="43.74382" lon="5.80172">
        <ele>304.817238</ele>
        <time>2021-09-18T07:28:34.000Z</time>
      </trkpt>
      <trkpt lat="43.74421" lon="5.802">
        <ele>304.889776</ele>
        <time>2021-09-18T07:28:42.000Z</time>
      </trkpt>
      <trkpt lat="43.74471" lon="5.80236">
        <ele>305.011991</ele>
        <time>2021-09-18T07:28:52.000Z</time>
      </trkpt>
      <trkpt lat="43.74518" lon="5.80265">
        <ele>305.120981</ele>
        <time>2021-09-18T07:29:01.000Z</time>
      </trkpt>
      <trkpt lat="43.74555" lon="5.8028">
        <ele>305.204927</ele>
        <time>2021-09-18T07:29:08.000Z</time>
      </trkpt>
      <trkpt lat="43.74596" lon="5.80293">
        <ele>305.293374</ele>
        <time>2021-09-18T07:29:15.000Z</time>
      </trkpt>
      <trkpt lat="43.74635" lon="5.80304">
        <ele>305.3754</ele>
        <time>2021-09-18T07:29:23.000Z</time>
      </trkpt>
      <trkpt lat="43.74678" lon="5.80315">
        <ele>305.465914</ele>
        <time>2021-09-18T07:29:30.000Z</time>
      </trkpt>
      <trkpt lat="43.74736" lon="5.80327">
        <ele>305.588691</ele>
        <time>2021-09-18T07:29:39.000Z</time>
      </trkpt>
      <trkpt lat="43.74792" lon="5.80332">
        <ele>305.694189</ele>
        <time>2021-09-18T07:29:48.000Z</time>
      </trkpt>
      <trkpt lat="43.74798" lon="5.80332">
        <ele>305.70489</ele>
        <time>2021-09-18T07:29:49.000Z</time>
      </trkpt>
      <trkpt lat="43.74857" lon="5.80336">
        <ele>305.813347</ele>
        <time>2021-09-18T07:29:59.000Z</time>
      </trkpt>
      <trkpt lat="43.74915" lon="5.80344">
        <ele>305.921399</ele>
        <time>2021-09-18T07:30:09.000Z</time>
      </trkpt>
      <trkpt lat="43.74921" lon="5.80346">
        <ele>305.932352</ele>
        <time>2021-09-18T07:30:10.000Z</time>
      </trkpt>
      <trkpt lat="43.74977" lon="5.80368">
        <ele>305.821479</ele>
        <time>2021-09-18T07:30:20.000Z</time>
      </trkpt>
      <trkpt lat="43.75027" lon="5.80389">
        <ele>305.712854</ele>
        <time>2021-09-18T07:30:28.000Z</time>
      </trkpt>
      <trkpt lat="43.75076" lon="5.80405">
        <ele>305.607018</ele>
        <time>2021-09-18T07:30:37.000Z</time>
      </trkpt>
      <trkpt lat="43.75129" lon="5.8042">
        <ele>305.297539</ele>
        <time>2021-09-18T07:30:45.000Z</time>
      </trkpt>
      <trkpt lat="43.75142" lon="5.80423">
        <ele>305.185094</ele>
        <time>2021-09-18T07:30:47.000Z</time>
      </trkpt>
      <trkpt lat="43.75196" lon="5.80439">
        <ele>304.729753</ele>
        <time>2021-09-18T07:30:55.000Z</time>
      </trkpt>
      <trkpt lat="43.75216" lon="5.80444">
        <ele>304.556504</ele>
        <time>2021-09-18T07:30:58.000Z</time>
      </trkpt>
      <trkpt lat="43.75271" lon="5.8046">
        <ele>304.096386</ele>
        <time>2021-09-18T07:31:06.000Z</time>
      </trkpt>
      <trkpt lat="43.75325" lon="5.80476">
        <ele>303.724986</ele>
        <time>2021-09-18T07:31:14.000Z</time>
      </trkpt>
      <trkpt lat="43.75337" lon="5.8048">
        <ele>303.638834</ele>
        <time>2021-09-18T07:31:16.000Z</time>
      </trkpt>
      <trkpt lat="43.75394" lon="5.80496">
        <ele>303.257662</ele>
        <time>2021-09-18T07:31:25.000Z</time>
      </trkpt>
      <trkpt lat="43.754" lon="5.80498">
        <ele>303.21496</ele>
        <time>2021-09-18T07:31:26.000Z</time>
      </trkpt>
      <trkpt lat="43.75458" lon="5.80515">
        <ele>302.816205</ele>
        <time>2021-09-18T07:31:34.000Z</time>
      </trkpt>
      <trkpt lat="43.75458" lon="5.80515">
        <ele>302.816205</ele>
        <time>2021-09-18T07:31:35.000Z</time>
      </trkpt>
      <trkpt lat="43.75516" lon="5.80532">
        <ele>302.379262</ele>
        <time>2021-09-18T07:31:44.000Z</time>
      </trkpt>
      <trkpt lat="43.75567" lon="5.80547">
        <ele>302.000059</ele>
        <time>2021-09-18T07:31:52.000Z</time>
      </trkpt>
      <trkpt lat="43.75621" lon="5.80562">
        <ele>301.594484</ele>
        <time>2021-09-18T07:32:01.000Z</time>
      </trkpt>
      <trkpt lat="43.75627" lon="5.80564">
        <ele>301.55604</ele>
        <time>2021-09-18T07:32:02.000Z</time>
      </trkpt>
      <trkpt lat="43.75678" lon="5.80578">
        <ele>301.434913</ele>
        <time>2021-09-18T07:32:11.000Z</time>
      </trkpt>
      <trkpt lat="43.75722" lon="5.80591">
        <ele>301.330709</ele>
        <time>2021-09-18T07:32:19.000Z</time>
      </trkpt>
      <trkpt lat="43.75777" lon="5.80609">
        <ele>301.20092</ele>
        <time>2021-09-18T07:32:29.000Z</time>
      </trkpt>
      <trkpt lat="43.75817" lon="5.80627">
        <ele>301.262404</ele>
        <time>2021-09-18T07:32:39.000Z</time>
      </trkpt>
      <trkpt lat="43.75855" lon="5.80645">
        <ele>301.543906</ele>
        <time>2021-09-18T07:32:48.000Z</time>
      </trkpt>
      <trkpt lat="43.75902" lon="5.80666">
        <ele>301.896862</ele>
        <time>2021-09-18T07:32:59.000Z</time>
      </trkpt>
      <trkpt lat="43.75924" lon="5.80677">
        <ele>302.057794</ele>
        <time>2021-09-18T07:33:04.000Z</time>
      </trkpt>
      <trkpt lat="43.7594" lon="5.80686">
        <ele>302.184427</ele>
        <time>2021-09-18T07:33:08.000Z</time>
      </trkpt>
      <trkpt lat="43.75978" lon="5.80706">
        <ele>302.452826</ele>
        <time>2021-09-18T07:33:17.000Z</time>
      </trkpt>
      <trkpt lat="43.76026" lon="5.80731">
        <ele>302.717447</ele>
        <time>2021-09-18T07:33:28.000Z</time>
      </trkpt>
      <trkpt lat="43.76061" lon="5.80751">
        <ele>302.912294</ele>
        <time>2021-09-18T07:33:36.000Z</time>
      </trkpt>
      <trkpt lat="43.76116" lon="5.80782">
        <ele>303.220138</ele>
        <time>2021-09-18T07:33:46.000Z</time>
      </trkpt>
      <trkpt lat="43.76173" lon="5.80814">
        <ele>303.415723</ele>
        <time>2021-09-18T07:33:57.000Z</time>
      </trkpt>
      <trkpt lat="43.76231" lon="5.80846">
        <ele>303.537165</ele>
        <time>2021-09-18T07:34:08.000Z</time>
      </trkpt>
      <trkpt lat="43.76274" lon="5.80871">
        <ele>303.627522</ele>
        <time>2021-09-18T07:34:17.000Z</time>
      </trkpt>
      <trkpt lat="43.76327" lon="5.80901">
        <ele>303.676897</ele>
        <time>2021-09-18T07:34:26.000Z</time>
      </trkpt>
      <trkpt lat="43.76333" lon="5.80904">
        <ele>303.672805</ele>
        <time>2021-09-18T07:34:27.000Z</time>
      </trkpt>
      <trkpt lat="43.76384" lon="5.80933">
        <ele>303.637635</ele>
        <time>2021-09-18T07:34:36.000Z</time>
      </trkpt>
      <trkpt lat="43.76396" lon="5.80939">
        <ele>303.629811</ele>
        <time>2021-09-18T07:34:38.000Z</time>
      </trkpt>
      <trkpt lat="43.76448" lon="5.80969">
        <ele>303.594373</ele>
        <time>2021-09-18T07:34:47.000Z</time>
      </trkpt>
      <trkpt lat="43.76459" lon="5.80975">
        <ele>303.586532</ele>
        <time>2021-09-18T07:34:49.000Z</time>
      </trkpt>
      <trkpt lat="43.76511" lon="5.81004">
        <ele>303.804137</ele>
        <time>2021-09-18T07:34:58.000Z</time>
      </trkpt>
      <trkpt lat="43.76521" lon="5.8101">
        <ele>303.865534</ele>
        <time>2021-09-18T07:35:00.000Z</time>
      </trkpt>
      <trkpt lat="43.76561" lon="5.81033">
        <ele>304.090417</ele>
        <time>2021-09-18T07:35:08.000Z</time>
      </trkpt>
      <trkpt lat="43.76615" lon="5.81063">
        <ele>304.399637</ele>
        <time>2021-09-18T07:35:20.000Z</time>
      </trkpt>
      <trkpt lat="43.76656" lon="5.81086">
        <ele>304.687905</ele>
        <time>2021-09-18T07:35:29.000Z</time>
      </trkpt>
      <trkpt lat="43.76706" lon="5.81115">
        <ele>305.136079</ele>
        <time>2021-09-18T07:35:40.000Z</time>
      </trkpt>
      <trkpt lat="43.76711" lon="5.81118">
        <ele>305.179777</ele>
        <time>2021-09-18T07:35:41.000Z</time>
      </trkpt>
      <trkpt lat="43.76756" lon="5.81143">
        <ele>305.579616</ele>
        <time>2021-09-18T07:35:50.000Z</time>
      </trkpt>
      <trkpt lat="43.7681" lon="5.81174">
        <ele>306.066186</ele>
        <time>2021-09-18T07:36:01.000Z</time>
      </trkpt>
      <trkpt lat="43.76853" lon="5.81198">
        <ele>306.453534</ele>
        <time>2021-09-18T07:36:09.000Z</time>
      </trkpt>
      <trkpt lat="43.7689" lon="5.81219">
        <ele>306.791347</ele>
        <time>2021-09-18T07:36:18.000Z</time>
      </trkpt>
      <trkpt lat="43.76938" lon="5.81246">
        <ele>307.225975</ele>
        <time>2021-09-18T07:36:28.000Z</time>
      </trkpt>
      <trkpt lat="43.76983" lon="5.81272">
        <ele>307.596577</ele>
        <time>2021-09-18T07:36:37.000Z</time>
      </trkpt>
      <trkpt lat="43.77019" lon="5.81292">
        <ele>307.791826</ele>
        <time>2021-09-18T07:36:44.000Z</time>
      </trkpt>
      <trkpt lat="43.7707" lon="5.8132">
        <ele>308.075121</ele>
        <time>2021-09-18T07:36:53.000Z</time>
      </trkpt>
      <trkpt lat="43.77107" lon="5.81341">
        <ele>308.276682</ele>
        <time>2021-09-18T07:37:01.000Z</time>
      </trkpt>
      <trkpt lat="43.77147" lon="5.81364">
        <ele>308.464452</ele>
        <time>2021-09-18T07:37:09.000Z</time>
      </trkpt>
      <trkpt lat="43.77187" lon="5.81387">
        <ele>308.550841</ele>
        <time>2021-09-18T07:37:17.000Z</time>
      </trkpt>
      <trkpt lat="43.7724" lon="5.81417">
        <ele>308.663551</ele>
        <time>2021-09-18T07:37:26.000Z</time>
      </trkpt>
      <trkpt lat="43.7725" lon="5.81423">
        <ele>308.686574</ele>
        <time>2021-09-18T07:37:29.000Z</time>
      </trkpt>
      <trkpt lat="43.77303" lon="5.81454">
        <ele>308.799229</ele>
        <time>2021-09-18T07:37:39.000Z</time>
      </trkpt>
      <trkpt lat="43.77345" lon="5.81478">
        <ele>308.81039</ele>
        <time>2021-09-18T07:37:47.000Z</time>
      </trkpt>
      <trkpt lat="43.77398" lon="5.81509">
        <ele>308.82354</ele>
        <time>2021-09-18T07:37:57.000Z</time>
      </trkpt>
      <trkpt lat="43.77404" lon="5.81513">
        <ele>308.82489</ele>
        <time>2021-09-18T07:37:58.000Z</time>
      </trkpt>
      <trkpt lat="43.7745" lon="5.81546">
        <ele>308.836775</ele>
        <time>2021-09-18T07:38:07.000Z</time>
      </trkpt>
      <trkpt lat="43.77489" lon="5.81575">
        <ele>308.882511</ele>
        <time>2021-09-18T07:38:15.000Z</time>
      </trkpt>
      <trkpt lat="43.77537" lon="5.81611">
        <ele>308.969476</ele>
        <time>2021-09-18T07:38:25.000Z</time>
      </trkpt>
      <trkpt lat="43.77542" lon="5.81615">
        <ele>308.978217</ele>
        <time>2021-09-18T07:38:26.000Z</time>
      </trkpt>
      <trkpt lat="43.7758" lon="5.81644">
        <ele>309.048905</ele>
        <time>2021-09-18T07:38:34.000Z</time>
      </trkpt>
      <trkpt lat="43.77621" lon="5.81669">
        <ele>309.11958</ele>
        <time>2021-09-18T07:38:42.000Z</time>
      </trkpt>
      <trkpt lat="43.77663" lon="5.81689">
        <ele>308.89232</ele>
        <time>2021-09-18T07:38:50.000Z</time>
      </trkpt>
      <trkpt lat="43.77699" lon="5.81706">
        <ele>308.660375</ele>
        <time>2021-09-18T07:38:56.000Z</time>
      </trkpt>
      <trkpt lat="43.77742" lon="5.81726">
        <ele>308.385408</ele>
        <time>2021-09-18T07:39:02.000Z</time>
      </trkpt>
      <trkpt lat="43.77773" lon="5.81747">
        <ele>308.176918</ele>
        <time>2021-09-18T07:39:05.000Z</time>
      </trkpt>
      <trkpt lat="43.77773" lon="5.81747">
        <ele>308.176918</ele>
        <time>2021-09-18T07:39:06.000Z</time>
      </trkpt>
      <trkpt lat="43.77815" lon="5.81801">
        <ele>307.368964</ele>
        <time>2021-09-18T07:39:12.000Z</time>
      </trkpt>
      <trkpt lat="43.77857" lon="5.81836">
        <ele>306.42912</ele>
        <time>2021-09-18T07:39:17.000Z</time>
      </trkpt>
      <trkpt lat="43.77864" lon="5.81844">
        <ele>306.2373</ele>
        <time>2021-09-18T07:39:18.000Z</time>
      </trkpt>
      <trkpt lat="43.77888" lon="5.8187">
        <ele>305.655666</ele>
        <time>2021-09-18T07:39:21.000Z</time>
      </trkpt>
      <trkpt lat="43.77933" lon="5.81942">
        <ele>304.345558</ele>
        <time>2021-09-18T07:39:27.000Z</time>
      </trkpt>
      <trkpt lat="43.77933" lon="5.81942">
        <ele>304.345558</ele>
        <time>2021-09-18T07:39:28.000Z</time>
      </trkpt>
      <trkpt lat="43.7797" lon="5.82004">
        <ele>303.316225</ele>
        <time>2021-09-18T07:39:34.000Z</time>
      </trkpt>
      <trkpt lat="43.78004" lon="5.82046">
        <ele>302.515027</ele>
        <time>2021-09-18T07:39:38.000Z</time>
      </trkpt>
      <trkpt lat="43.78032" lon="5.82069">
        <ele>301.945521</ele>
        <time>2021-09-18T07:39:43.000Z</time>
      </trkpt>
      <trkpt lat="43.78078" lon="5.82103">
        <ele>301.106637</ele>
        <time>2021-09-18T07:39:50.000Z</time>
      </trkpt>
      <trkpt lat="43.7811" lon="5.82121">
        <ele>300.642659</ele>
        <time>2021-09-18T07:39:55.000Z</time>
      </trkpt>
      <trkpt lat="43.78157" lon="5.82137">
        <ele>299.992957</ele>
        <time>2021-09-18T07:40:00.000Z</time>
      </trkpt>
      <trkpt lat="43.78199" lon="5.82137">
        <ele>299.415328</ele>
        <time>2021-09-18T07:40:07.000Z</time>
      </trkpt>
      <trkpt lat="43.78253" lon="5.82128">
        <ele>298.693377</ele>
        <time>2021-09-18T07:40:15.000Z</time>
      </trkpt>
      <trkpt lat="43.78308" lon="5.82119">
        <ele>297.986826</ele>
        <time>2021-09-18T07:40:24.000Z</time>
      </trkpt>
      <trkpt lat="43.78314" lon="5.82118">
        <ele>297.911881</ele>
        <time>2021-09-18T07:40:25.000Z</time>
      </trkpt>
      <trkpt lat="43.78366" lon="5.82119">
        <ele>297.246354</ele>
        <time>2021-09-18T07:40:34.000Z</time>
      </trkpt>
      <trkpt lat="43.7841" lon="5.82131">
        <ele>296.670413</ele>
        <time>2021-09-18T07:40:42.000Z</time>
      </trkpt>
      <trkpt lat="43.7846" lon="5.82149">
        <ele>296.329563</ele>
        <time>2021-09-18T07:40:51.000Z</time>
      </trkpt>
      <trkpt lat="43.78515" lon="5.82173">
        <ele>295.969166</ele>
        <time>2021-09-18T07:41:01.000Z</time>
      </trkpt>
      <trkpt lat="43.7852" lon="5.82176">
        <ele>295.93357</ele>
        <time>2021-09-18T07:41:02.000Z</time>
      </trkpt>
      <trkpt lat="43.78567" lon="5.82209">
        <ele>295.606574</ele>
        <time>2021-09-18T07:41:11.000Z</time>
      </trkpt>
      <trkpt lat="43.78611" lon="5.82253">
        <ele>295.322602</ele>
        <time>2021-09-18T07:41:20.000Z</time>
      </trkpt>
      <trkpt lat="43.78653" lon="5.82301">
        <ele>295.058892</ele>
        <time>2021-09-18T07:41:28.000Z</time>
      </trkpt>
      <trkpt lat="43.78658" lon="5.82307">
        <ele>295.028443</ele>
        <time>2021-09-18T07:41:30.000Z</time>
      </trkpt>
      <trkpt lat="43.78691" lon="5.82346">
        <ele>294.820038</ele>
        <time>2021-09-18T07:41:37.000Z</time>
      </trkpt>
      <trkpt lat="43.78732" lon="5.82395">
        <ele>294.600448</ele>
        <time>2021-09-18T07:41:46.000Z</time>
      </trkpt>
      <trkpt lat="43.78771" lon="5.82441">
        <ele>294.467942</ele>
        <time>2021-09-18T07:41:55.000Z</time>
      </trkpt>
      <trkpt lat="43.78809" lon="5.82482">
        <ele>294.343293</ele>
        <time>2021-09-18T07:42:04.000Z</time>
      </trkpt>
      <trkpt lat="43.78852" lon="5.82524">
        <ele>294.205997</ele>
        <time>2021-09-18T07:42:14.000Z</time>
      </trkpt>
      <trkpt lat="43.78902" lon="5.82565">
        <ele>294.090723</ele>
        <time>2021-09-18T07:42:25.000Z</time>
      </trkpt>
      <trkpt lat="43.78943" lon="5.82597">
        <ele>294.000728</ele>
        <time>2021-09-18T07:42:34.000Z</time>
      </trkpt>
      <trkpt lat="43.78991" lon="5.8263">
        <ele>293.901089</ele>
        <time>2021-09-18T07:42:44.000Z</time>
      </trkpt>
      <trkpt lat="43.79038" lon="5.82663">
        <ele>293.790264</ele>
        <time>2021-09-18T07:42:53.000Z</time>
      </trkpt>
      <trkpt lat="43.79081" lon="5.82693">
        <ele>293.674995</ele>
        <time>2021-09-18T07:43:03.000Z</time>
      </trkpt>
      <trkpt lat="43.79133" lon="5.82728">
        <ele>293.536847</ele>
        <time>2021-09-18T07:43:14.000Z</time>
      </trkpt>
      <trkpt lat="43.79171" lon="5.82754">
        <ele>293.436179</ele>
        <time>2021-09-18T07:43:22.000Z</time>
      </trkpt>
      <trkpt lat="43.79219" lon="5.82787">
        <ele>293.452868</ele>
        <time>2021-09-18T07:43:32.000Z</time>
      </trkpt>
      <trkpt lat="43.79265" lon="5.82818">
        <ele>293.497843</ele>
        <time>2021-09-18T07:43:42.000Z</time>
      </trkpt>
      <trkpt lat="43.79305" lon="5.82845">
        <ele>293.537073</ele>
        <time>2021-09-18T07:43:51.000Z</time>
      </trkpt>
      <trkpt lat="43.79352" lon="5.82877">
        <ele>293.619933</ele>
        <time>2021-09-18T07:44:01.000Z</time>
      </trkpt>
      <trkpt lat="43.794" lon="5.8291">
        <ele>293.836281</ele>
        <time>2021-09-18T07:44:12.000Z</time>
      </trkpt>
      <trkpt lat="43.79434" lon="5.82933">
        <ele>293.987402</ele>
        <time>2021-09-18T07:44:20.000Z</time>
      </trkpt>
      <trkpt lat="43.79471" lon="5.82957">
        <ele>294.149152</ele>
        <time>2021-09-18T07:44:29.000Z</time>
      </trkpt>
      <trkpt lat="43.79487" lon="5.82968">
        <ele>294.220537</ele>
        <time>2021-09-18T07:44:32.000Z</time>
      </trkpt>
      <trkpt lat="43.79499" lon="5.82977">
        <ele>294.275262</ele>
        <time>2021-09-18T07:44:36.000Z</time>
      </trkpt>
      <trkpt lat="43.79533" lon="5.83">
        <ele>294.410158</ele>
        <time>2021-09-18T07:44:43.000Z</time>
      </trkpt>
      <trkpt lat="43.79563" lon="5.83023">
        <ele>294.533802</ele>
        <time>2021-09-18T07:44:51.000Z</time>
      </trkpt>
      <trkpt lat="43.79596" lon="5.83045">
        <ele>294.662656</ele>
        <time>2021-09-18T07:44:58.000Z</time>
      </trkpt>
      <trkpt lat="43.79644" lon="5.83066">
        <ele>294.840925</ele>
        <time>2021-09-18T07:45:07.000Z</time>
      </trkpt>
      <trkpt lat="43.79684" lon="5.83075">
        <ele>294.995813</ele>
        <time>2021-09-18T07:45:16.000Z</time>
      </trkpt>
      <trkpt lat="43.79731" lon="5.83081">
        <ele>295.190994</ele>
        <time>2021-09-18T07:45:25.000Z</time>
      </trkpt>
      <trkpt lat="43.79761" lon="5.83086">
        <ele>295.313316</ele>
        <time>2021-09-18T07:45:31.000Z</time>
      </trkpt>
      <trkpt lat="43.79802" lon="5.83094">
        <ele>295.484934</ele>
        <time>2021-09-18T07:45:39.000Z</time>
      </trkpt>
      <trkpt lat="43.79807" lon="5.83096">
        <ele>295.506182</ele>
        <time>2021-09-18T07:45:40.000Z</time>
      </trkpt>
      <trkpt lat="43.79832" lon="5.83104">
        <ele>295.61188</ele>
        <time>2021-09-18T07:45:45.000Z</time>
      </trkpt>
      <trkpt lat="43.7987" lon="5.83124">
        <ele>295.810027</ele>
        <time>2021-09-18T07:45:53.000Z</time>
      </trkpt>
      <trkpt lat="43.79913" lon="5.83153">
        <ele>296.058312</ele>
        <time>2021-09-18T07:46:02.000Z</time>
      </trkpt>
      <trkpt lat="43.79943" lon="5.83182">
        <ele>296.252627</ele>
        <time>2021-09-18T07:46:09.000Z</time>
      </trkpt>
      <trkpt lat="43.79969" lon="5.83217">
        <ele>296.44235</ele>
        <time>2021-09-18T07:46:16.000Z</time>
      </trkpt>
      <trkpt lat="43.79998" lon="5.83267">
        <ele>296.707334</ele>
        <time>2021-09-18T07:46:25.000Z</time>
      </trkpt>
      <trkpt lat="43.80012" lon="5.83301">
        <ele>296.90698</ele>
        <time>2021-09-18T07:46:31.000Z</time>
      </trkpt>
      <trkpt lat="43.80014" lon="5.83306">
        <ele>296.938876</ele>
        <time>2021-09-18T07:46:32.000Z</time>
      </trkpt>
      <trkpt lat="43.80016" lon="5.83312">
        <ele>296.970772</ele>
        <time>2021-09-18T07:46:33.000Z</time>
      </trkpt>
      <trkpt lat="43.80019" lon="5.83324">
        <ele>297.034333</ele>
        <time>2021-09-18T07:46:35.000Z</time>
      </trkpt>
      <trkpt lat="43.80022" lon="5.83333">
        <ele>297.08618</ele>
        <time>2021-09-18T07:46:36.000Z</time>
      </trkpt>
      <trkpt lat="43.80022" lon="5.83336">
        <ele>297.101678</ele>
        <time>2021-09-18T07:46:37.000Z</time>
      </trkpt>
      <trkpt lat="43.80025" lon="5.83346">
        <ele>297.155197</ele>
        <time>2021-09-18T07:46:39.000Z</time>
      </trkpt>
      <trkpt lat="43.80035" lon="5.83352">
        <ele>297.23748</ele>
        <time>2021-09-18T07:46:41.000Z</time>
      </trkpt>
      <trkpt lat="43.80035" lon="5.83352">
        <ele>297.23748</ele>
        <time>2021-09-18T07:46:42.000Z</time>
      </trkpt>
      <trkpt lat="43.80045" lon="5.83352">
        <ele>297.305771</ele>
        <time>2021-09-18T07:46:44.000Z</time>
      </trkpt>
      <trkpt lat="43.80054" lon="5.83356">
        <ele>297.373736</ele>
        <time>2021-09-18T07:46:46.000Z</time>
      </trkpt>
      <trkpt lat="43.80059" lon="5.83358">
        <ele>297.408057</ele>
        <time>2021-09-18T07:46:47.000Z</time>
      </trkpt>
      <trkpt lat="43.80081" lon="5.83378">
        <ele>297.596686</ele>
        <time>2021-09-18T07:46:52.000Z</time>
      </trkpt>
      <trkpt lat="43.80085" lon="5.83383">
        <ele>297.633068</ele>
        <time>2021-09-18T07:46:53.000Z</time>
      </trkpt>
      <trkpt lat="43.80108" lon="5.83414">
        <ele>297.854834</ele>
        <time>2021-09-18T07:46:59.000Z</time>
      </trkpt>
      <trkpt lat="43.80129" lon="5.8346">
        <ele>297.940964</ele>
        <time>2021-09-18T07:47:06.000Z</time>
      </trkpt>
      <trkpt lat="43.80148" lon="5.83508">
        <ele>298.008658</ele>
        <time>2021-09-18T07:47:13.000Z</time>
      </trkpt>
      <trkpt lat="43.80173" lon="5.83567">
        <ele>298.093048</ele>
        <time>2021-09-18T07:47:22.000Z</time>
      </trkpt>
      <trkpt lat="43.80198" lon="5.83629">
        <ele>298.180758</ele>
        <time>2021-09-18T07:47:32.000Z</time>
      </trkpt>
      <trkpt lat="43.80219" lon="5.83679">
        <ele>298.2662</ele>
        <time>2021-09-18T07:47:40.000Z</time>
      </trkpt>
      <trkpt lat="43.80231" lon="5.83713">
        <ele>298.321879</ele>
        <time>2021-09-18T07:47:45.000Z</time>
      </trkpt>
      <trkpt lat="43.80237" lon="5.83734">
        <ele>298.355176</ele>
        <time>2021-09-18T07:47:47.000Z</time>
      </trkpt>
      <trkpt lat="43.80249" lon="5.83782">
        <ele>298.431416</ele>
        <time>2021-09-18T07:47:55.000Z</time>
      </trkpt>
      <trkpt lat="43.80261" lon="5.83813">
        <ele>298.484542</ele>
        <time>2021-09-18T07:47:59.000Z</time>
      </trkpt>
      <trkpt lat="43.80267" lon="5.83825">
        <ele>298.505808</ele>
        <time>2021-09-18T07:48:02.000Z</time>
      </trkpt>
      <trkpt lat="43.8029" lon="5.83864">
        <ele>298.591259</ele>
        <time>2021-09-18T07:48:09.000Z</time>
      </trkpt>
      <trkpt lat="43.80318" lon="5.83915">
        <ele>298.73201</ele>
        <time>2021-09-18T07:48:17.000Z</time>
      </trkpt>
      <trkpt lat="43.80343" lon="5.83978">
        <ele>298.889306</ele>
        <time>2021-09-18T07:48:28.000Z</time>
      </trkpt>
      <trkpt lat="43.80365" lon="5.84033">
        <ele>299.028422</ele>
        <time>2021-09-18T07:48:37.000Z</time>
      </trkpt>
      <trkpt lat="43.80378" lon="5.84064">
        <ele>299.106943</ele>
        <time>2021-09-18T07:48:41.000Z</time>
      </trkpt>
      <trkpt lat="43.80378" lon="5.84064">
        <ele>299.106943</ele>
        <time>2021-09-18T07:48:42.000Z</time>
      </trkpt>
      <trkpt lat="43.8039" lon="5.84094">
        <ele>299.471364</ele>
        <time>2021-09-18T07:48:47.000Z</time>
      </trkpt>
      <trkpt lat="43.80392" lon="5.841">
        <ele>299.54322</ele>
        <time>2021-09-18T07:48:48.000Z</time>
      </trkpt>
      <trkpt lat="43.80405" lon="5.84137">
        <ele>299.979728</ele>
        <time>2021-09-18T07:48:54.000Z</time>
      </trkpt>
      <trkpt lat="43.80412" lon="5.84154">
        <ele>300.181063</ele>
        <time>2021-09-18T07:48:57.000Z</time>
      </trkpt>
      <trkpt lat="43.80417" lon="5.84164">
        <ele>300.308387</ele>
        <time>2021-09-18T07:48:59.000Z</time>
      </trkpt>
      <trkpt lat="43.80425" lon="5.84177">
        <ele>300.495125</ele>
        <time>2021-09-18T07:49:02.000Z</time>
      </trkpt>
      <trkpt lat="43.80428" lon="5.84181">
        <ele>300.55447</ele>
        <time>2021-09-18T07:49:03.000Z</time>
      </trkpt>
      <trkpt lat="43.80446" lon="5.84195">
        <ele>300.85362</ele>
        <time>2021-09-18T07:49:08.000Z</time>
      </trkpt>
      <trkpt lat="43.80466" lon="5.842">
        <ele>301.151239</ele>
        <time>2021-09-18T07:49:13.000Z</time>
      </trkpt>
      <trkpt lat="43.80487" lon="5.84199">
        <ele>301.458068</ele>
        <time>2021-09-18T07:49:20.000Z</time>
      </trkpt>
      <trkpt lat="43.80505" lon="5.84196">
        <ele>301.72567</ele>
        <time>2021-09-18T07:49:24.000Z</time>
      </trkpt>
      <trkpt lat="43.80522" lon="5.84193">
        <ele>301.850812</ele>
        <time>2021-09-18T07:49:29.000Z</time>
      </trkpt>
      <trkpt lat="43.80538" lon="5.84191">
        <ele>301.969469</ele>
        <time>2021-09-18T07:49:32.000Z</time>
      </trkpt>
      <trkpt lat="43.8055" lon="5.84189">
        <ele>302.0556</ele>
        <time>2021-09-18T07:49:34.000Z</time>
      </trkpt>
      <trkpt lat="43.80568" lon="5.8419">
        <ele>302.193949</ele>
        <time>2021-09-18T07:49:36.000Z</time>
      </trkpt>
      <trkpt lat="43.80573" lon="5.8419">
        <ele>302.227643</ele>
        <time>2021-09-18T07:49:38.000Z</time>
      </trkpt>
      <trkpt lat="43.80601" lon="5.84202">
        <ele>302.438515</ele>
        <time>2021-09-18T07:49:43.000Z</time>
      </trkpt>
      <trkpt lat="43.80652" lon="5.84236">
        <ele>302.855702</ele>
        <time>2021-09-18T07:49:51.000Z</time>
      </trkpt>
      <trkpt lat="43.80688" lon="5.84257">
        <ele>303.050107</ele>
        <time>2021-09-18T07:49:58.000Z</time>
      </trkpt>
      <trkpt lat="43.80726" lon="5.84272">
        <ele>303.053842</ele>
        <time>2021-09-18T07:50:05.000Z</time>
      </trkpt>
      <trkpt lat="43.80776" lon="5.84291">
        <ele>303.058651</ele>
        <time>2021-09-18T07:50:14.000Z</time>
      </trkpt>
      <trkpt lat="43.80781" lon="5.84294">
        <ele>303.059174</ele>
        <time>2021-09-18T07:50:15.000Z</time>
      </trkpt>
      <trkpt lat="43.80807" lon="5.8431">
        <ele>303.061811</ele>
        <time>2021-09-18T07:50:20.000Z</time>
      </trkpt>
      <trkpt lat="43.80845" lon="5.84346">
        <ele>303.058386</ele>
        <time>2021-09-18T07:50:29.000Z</time>
      </trkpt>
      <trkpt lat="43.80884" lon="5.8439">
        <ele>302.977021</ele>
        <time>2021-09-18T07:50:39.000Z</time>
      </trkpt>
      <trkpt lat="43.80921" lon="5.8444">
        <ele>302.894047</ele>
        <time>2021-09-18T07:50:49.000Z</time>
      </trkpt>
      <trkpt lat="43.80954" lon="5.84484">
        <ele>302.819373</ele>
        <time>2021-09-18T07:50:58.000Z</time>
      </trkpt>
      <trkpt lat="43.80981" lon="5.84507">
        <ele>302.775087</ele>
        <time>2021-09-18T07:51:04.000Z</time>
      </trkpt>
      <trkpt lat="43.80997" lon="5.84515">
        <ele>302.781916</ele>
        <time>2021-09-18T07:51:06.000Z</time>
      </trkpt>
      <trkpt lat="43.81013" lon="5.84522">
        <ele>302.788617</ele>
        <time>2021-09-18T07:51:10.000Z</time>
      </trkpt>
      <trkpt lat="43.81063" lon="5.84548">
        <ele>302.810094</ele>
        <time>2021-09-18T07:51:18.000Z</time>
      </trkpt>
      <trkpt lat="43.81109" lon="5.84579">
        <ele>302.830859</ele>
        <time>2021-09-18T07:51:28.000Z</time>
      </trkpt>
      <trkpt lat="43.81153" lon="5.84608">
        <ele>302.891407</ele>
        <time>2021-09-18T07:51:37.000Z</time>
      </trkpt>
      <trkpt lat="43.81195" lon="5.84636">
        <ele>303.097468</ele>
        <time>2021-09-18T07:51:46.000Z</time>
      </trkpt>
      <trkpt lat="43.81238" lon="5.84659">
        <ele>303.300054</ele>
        <time>2021-09-18T07:51:55.000Z</time>
      </trkpt>
      <trkpt lat="43.81271" lon="5.84677">
        <ele>303.457886</ele>
        <time>2021-09-18T07:52:02.000Z</time>
      </trkpt>
      <trkpt lat="43.81311" lon="5.84698">
        <ele>303.644789</ele>
        <time>2021-09-18T07:52:10.000Z</time>
      </trkpt>
      <trkpt lat="43.81361" lon="5.84726">
        <ele>303.921342</ele>
        <time>2021-09-18T07:52:20.000Z</time>
      </trkpt>
      <trkpt lat="43.81401" lon="5.84749">
        <ele>304.143456</ele>
        <time>2021-09-18T07:52:28.000Z</time>
      </trkpt>
      <trkpt lat="43.81443" lon="5.84781">
        <ele>304.389962</ele>
        <time>2021-09-18T07:52:36.000Z</time>
      </trkpt>
      <trkpt lat="43.81476" lon="5.8482">
        <ele>304.662265</ele>
        <time>2021-09-18T07:52:45.000Z</time>
      </trkpt>
      <trkpt lat="43.81506" lon="5.84864">
        <ele>305.063419</ele>
        <time>2021-09-18T07:52:53.000Z</time>
      </trkpt>
      <trkpt lat="43.81513" lon="5.84874">
        <ele>305.16356</ele>
        <time>2021-09-18T07:52:54.000Z</time>
      </trkpt>
      <trkpt lat="43.81536" lon="5.84908">
        <ele>305.475127</ele>
        <time>2021-09-18T07:53:01.000Z</time>
      </trkpt>
      <trkpt lat="43.81567" lon="5.84943">
        <ele>305.844824</ele>
        <time>2021-09-18T07:53:08.000Z</time>
      </trkpt>
      <trkpt lat="43.81589" lon="5.8496">
        <ele>306.078588</ele>
        <time>2021-09-18T07:53:13.000Z</time>
      </trkpt>
      <trkpt lat="43.81606" lon="5.8497">
        <ele>306.269462</ele>
        <time>2021-09-18T07:53:17.000Z</time>
      </trkpt>
      <trkpt lat="43.81616" lon="5.84976">
        <ele>306.436631</ele>
        <time>2021-09-18T07:53:20.000Z</time>
      </trkpt>
      <trkpt lat="43.81619" lon="5.84977">
        <ele>306.480016</ele>
        <time>2021-09-18T07:53:21.000Z</time>
      </trkpt>
      <trkpt lat="43.8163" lon="5.84983">
        <ele>306.663815</ele>
        <time>2021-09-18T07:53:23.000Z</time>
      </trkpt>
      <trkpt lat="43.81654" lon="5.84993">
        <ele>307.043838</ele>
        <time>2021-09-18T07:53:27.000Z</time>
      </trkpt>
      <trkpt lat="43.81673" lon="5.85003">
        <ele>307.356823</ele>
        <time>2021-09-18T07:53:31.000Z</time>
      </trkpt>
      <trkpt lat="43.81684" lon="5.8501">
        <ele>307.545636</ele>
        <time>2021-09-18T07:53:33.000Z</time>
      </trkpt>
      <trkpt lat="43.81705" lon="5.85025">
        <ele>307.908613</ele>
        <time>2021-09-18T07:53:36.000Z</time>
      </trkpt>
      <trkpt lat="43.81714" lon="5.85033">
        <ele>308.073604</ele>
        <time>2021-09-18T07:53:39.000Z</time>
      </trkpt>
      <trkpt lat="43.81724" lon="5.85043">
        <ele>308.271133</ele>
        <time>2021-09-18T07:53:41.000Z</time>
      </trkpt>
      <trkpt lat="43.81736" lon="5.85055">
        <ele>308.496516</ele>
        <time>2021-09-18T07:53:42.000Z</time>
      </trkpt>
      <trkpt lat="43.81749" lon="5.85068">
        <ele>308.746876</ele>
        <time>2021-09-18T07:53:45.000Z</time>
      </trkpt>
      <trkpt lat="43.81773" lon="5.85095">
        <ele>309.250011</ele>
        <time>2021-09-18T07:53:50.000Z</time>
      </trkpt>
      <trkpt lat="43.81777" lon="5.85099">
        <ele>309.34956</ele>
        <time>2021-09-18T07:53:51.000Z</time>
      </trkpt>
      <trkpt lat="43.81782" lon="5.85102">
        <ele>309.448791</ele>
        <time>2021-09-18T07:53:52.000Z</time>
      </trkpt>
      <trkpt lat="43.81799" lon="5.85107">
        <ele>309.758636</ele>
        <time>2021-09-18T07:53:55.000Z</time>
      </trkpt>
      <trkpt lat="43.81804" lon="5.85106">
        <ele>309.847039</ele>
        <time>2021-09-18T07:53:56.000Z</time>
      </trkpt>
      <trkpt lat="43.81818" lon="5.85103">
        <ele>310.113857</ele>
        <time>2021-09-18T07:53:59.000Z</time>
      </trkpt>
      <trkpt lat="43.81846" lon="5.85094">
        <ele>310.632061</ele>
        <time>2021-09-18T07:54:05.000Z</time>
      </trkpt>
      <trkpt lat="43.81868" lon="5.8509">
        <ele>311.039271</ele>
        <time>2021-09-18T07:54:10.000Z</time>
      </trkpt>
      <trkpt lat="43.81872" lon="5.8509">
        <ele>311.112121</ele>
        <time>2021-09-18T07:54:11.000Z</time>
      </trkpt>
      <trkpt lat="43.81891" lon="5.85093">
        <ele>311.460253</ele>
        <time>2021-09-18T07:54:15.000Z</time>
      </trkpt>
      <trkpt lat="43.819" lon="5.85096">
        <ele>311.623494</ele>
        <time>2021-09-18T07:54:17.000Z</time>
      </trkpt>
      <trkpt lat="43.8191" lon="5.85102">
        <ele>311.831535</ele>
        <time>2021-09-18T07:54:19.000Z</time>
      </trkpt>
      <trkpt lat="43.81916" lon="5.85107">
        <ele>311.949087</ele>
        <time>2021-09-18T07:54:20.000Z</time>
      </trkpt>
      <trkpt lat="43.81931" lon="5.85124">
        <ele>312.291218</ele>
        <time>2021-09-18T07:54:23.000Z</time>
      </trkpt>
      <trkpt lat="43.81939" lon="5.85139">
        <ele>312.348009</ele>
        <time>2021-09-18T07:54:24.000Z</time>
      </trkpt>
      <trkpt lat="43.81939" lon="5.85139">
        <ele>312.348009</ele>
        <time>2021-09-18T07:54:25.000Z</time>
      </trkpt>
      <trkpt lat="43.81943" lon="5.85154">
        <ele>312.4019</ele>
        <time>2021-09-18T07:54:27.000Z</time>
      </trkpt>
      <trkpt lat="43.81944" lon="5.85162">
        <ele>312.429309</ele>
        <time>2021-09-18T07:54:28.000Z</time>
      </trkpt>
      <trkpt lat="43.81942" lon="5.85201">
        <ele>312.555551</ele>
        <time>2021-09-18T07:54:33.000Z</time>
      </trkpt>
      <trkpt lat="43.81941" lon="5.85209">
        <ele>312.578996</ele>
        <time>2021-09-18T07:54:34.000Z</time>
      </trkpt>
      <trkpt lat="43.81941" lon="5.85216">
        <ele>312.602122</ele>
        <time>2021-09-18T07:54:35.000Z</time>
      </trkpt>
      <trkpt lat="43.81941" lon="5.85229">
        <ele>312.644729</ele>
        <time>2021-09-18T07:54:37.000Z</time>
      </trkpt>
      <trkpt lat="43.81942" lon="5.85235">
        <ele>312.666177</ele>
        <time>2021-09-18T07:54:38.000Z</time>
      </trkpt>
      <trkpt lat="43.81944" lon="5.8524">
        <ele>312.685808</ele>
        <time>2021-09-18T07:54:39.000Z</time>
      </trkpt>
      <trkpt lat="43.81951" lon="5.85251">
        <ele>312.731314</ele>
        <time>2021-09-18T07:54:41.000Z</time>
      </trkpt>
      <trkpt lat="43.81959" lon="5.85258">
        <ele>312.774694</ele>
        <time>2021-09-18T07:54:43.000Z</time>
      </trkpt>
      <trkpt lat="43.81969" lon="5.85263">
        <ele>312.821822</ele>
        <time>2021-09-18T07:54:45.000Z</time>
      </trkpt>
      <trkpt lat="43.81996" lon="5.85272">
        <ele>312.945368</ele>
        <time>2021-09-18T07:54:49.000Z</time>
      </trkpt>
      <trkpt lat="43.82023" lon="5.85273">
        <ele>313.063027</ele>
        <time>2021-09-18T07:54:53.000Z</time>
      </trkpt>
      <trkpt lat="43.82033" lon="5.85273">
        <ele>313.12283</ele>
        <time>2021-09-18T07:54:54.000Z</time>
      </trkpt>
      <trkpt lat="43.82044" lon="5.85275">
        <ele>313.197606</ele>
        <time>2021-09-18T07:54:57.000Z</time>
      </trkpt>
      <trkpt lat="43.82049" lon="5.85277">
        <ele>313.235719</ele>
        <time>2021-09-18T07:54:58.000Z</time>
      </trkpt>
      <trkpt lat="43.82076" lon="5.85294">
        <ele>313.444292</ele>
        <time>2021-09-18T07:55:03.000Z</time>
      </trkpt>
      <trkpt lat="43.82081" lon="5.85297">
        <ele>313.481793</ele>
        <time>2021-09-18T07:55:04.000Z</time>
      </trkpt>
      <trkpt lat="43.82112" lon="5.85312">
        <ele>313.706297</ele>
        <time>2021-09-18T07:55:10.000Z</time>
      </trkpt>
      <trkpt lat="43.82117" lon="5.85313">
        <ele>313.740245</ele>
        <time>2021-09-18T07:55:11.000Z</time>
      </trkpt>
      <trkpt lat="43.8213" lon="5.85317">
        <ele>313.833744</ele>
        <time>2021-09-18T07:55:14.000Z</time>
      </trkpt>
      <trkpt lat="43.82149" lon="5.85323">
        <ele>313.972022</ele>
        <time>2021-09-18T07:55:19.000Z</time>
      </trkpt>
      <trkpt lat="43.82167" lon="5.85329">
        <ele>314.100681</ele>
        <time>2021-09-18T07:55:25.000Z</time>
      </trkpt>
      <trkpt lat="43.8219" lon="5.85339">
        <ele>314.267768</ele>
        <time>2021-09-18T07:55:31.000Z</time>
      </trkpt>
      <trkpt lat="43.8221" lon="5.8535">
        <ele>314.356646</ele>
        <time>2021-09-18T07:55:37.000Z</time>
      </trkpt>
      <trkpt lat="43.82237" lon="5.85367">
        <ele>314.395664</ele>
        <time>2021-09-18T07:55:45.000Z</time>
      </trkpt>
      <trkpt lat="43.82252" lon="5.85376">
        <ele>314.418226</ele>
        <time>2021-09-18T07:55:49.000Z</time>
      </trkpt>
      <trkpt lat="43.82269" lon="5.85386">
        <ele>314.443016</ele>
        <time>2021-09-18T07:55:53.000Z</time>
      </trkpt>
      <trkpt lat="43.823" lon="5.85403">
        <ele>314.487766</ele>
        <time>2021-09-18T07:55:58.000Z</time>
      </trkpt>
      <trkpt lat="43.82341" lon="5.8543">
        <ele>314.547775</ele>
        <time>2021-09-18T07:56:04.000Z</time>
      </trkpt>
      <trkpt lat="43.82377" lon="5.85453">
        <ele>314.625846</ele>
        <time>2021-09-18T07:56:10.000Z</time>
      </trkpt>
      <trkpt lat="43.82383" lon="5.85455">
        <ele>314.645956</ele>
        <time>2021-09-18T07:56:11.000Z</time>
      </trkpt>
      <trkpt lat="43.82389" lon="5.85458">
        <ele>314.665635</ele>
        <time>2021-09-18T07:56:12.000Z</time>
      </trkpt>
      <trkpt lat="43.82407" lon="5.85458">
        <ele>314.722988</ele>
        <time>2021-09-18T07:56:15.000Z</time>
      </trkpt>
      <trkpt lat="43.82441" lon="5.85447">
        <ele>314.833729</ele>
        <time>2021-09-18T07:56:21.000Z</time>
      </trkpt>
      <trkpt lat="43.82453" lon="5.85446">
        <ele>314.870014</ele>
        <time>2021-09-18T07:56:23.000Z</time>
      </trkpt>
      <trkpt lat="43.82465" lon="5.85447">
        <ele>314.908806</ele>
        <time>2021-09-18T07:56:25.000Z</time>
      </trkpt>
      <trkpt lat="43.82475" lon="5.8545">
        <ele>314.941664</ele>
        <time>2021-09-18T07:56:26.000Z</time>
      </trkpt>
      <trkpt lat="43.82483" lon="5.85455">
        <ele>314.969066</ele>
        <time>2021-09-18T07:56:29.000Z</time>
      </trkpt>
      <trkpt lat="43.82499" lon="5.85476">
        <ele>315.038119</ele>
        <time>2021-09-18T07:56:32.000Z</time>
      </trkpt>
      <trkpt lat="43.8251" lon="5.85497">
        <ele>315.096227</ele>
        <time>2021-09-18T07:56:36.000Z</time>
      </trkpt>
      <trkpt lat="43.82518" lon="5.8552">
        <ele>315.157125</ele>
        <time>2021-09-18T07:56:38.000Z</time>
      </trkpt>
      <trkpt lat="43.82524" lon="5.85536">
        <ele>315.210135</ele>
        <time>2021-09-18T07:56:41.000Z</time>
      </trkpt>
      <trkpt lat="43.82532" lon="5.85551">
        <ele>315.26301</ele>
        <time>2021-09-18T07:56:43.000Z</time>
      </trkpt>
      <trkpt lat="43.82557" lon="5.85572">
        <ele>315.385805</ele>
        <time>2021-09-18T07:56:48.000Z</time>
      </trkpt>
      <trkpt lat="43.82579" lon="5.85584">
        <ele>315.482588</ele>
        <time>2021-09-18T07:56:52.000Z</time>
      </trkpt>
      <trkpt lat="43.82609" lon="5.85596">
        <ele>315.608615</ele>
        <time>2021-09-18T07:56:57.000Z</time>
      </trkpt>
      <trkpt lat="43.82642" lon="5.85607">
        <ele>315.74813</ele>
        <time>2021-09-18T07:57:03.000Z</time>
      </trkpt>
      <trkpt lat="43.8268" lon="5.85619">
        <ele>315.981476</ele>
        <time>2021-09-18T07:57:10.000Z</time>
      </trkpt>
      <trkpt lat="43.8269" lon="5.85622">
        <ele>316.141213</ele>
        <time>2021-09-18T07:57:12.000Z</time>
      </trkpt>
      <trkpt lat="43.82707" lon="5.85633">
        <ele>316.458612</ele>
        <time>2021-09-18T07:57:16.000Z</time>
      </trkpt>
      <trkpt lat="43.82711" lon="5.85636">
        <ele>316.533113</ele>
        <time>2021-09-18T07:57:17.000Z</time>
      </trkpt>
      <trkpt lat="43.82723" lon="5.85653">
        <ele>316.811564</ele>
        <time>2021-09-18T07:57:20.000Z</time>
      </trkpt>
      <trkpt lat="43.82731" lon="5.85682">
        <ele>317.183649</ele>
        <time>2021-09-18T07:57:27.000Z</time>
      </trkpt>
      <trkpt lat="43.82737" lon="5.85715">
        <ele>317.596854</ele>
        <time>2021-09-18T07:57:35.000Z</time>
      </trkpt>
      <trkpt lat="43.82745" lon="5.85738">
        <ele>317.90116</ele>
        <time>2021-09-18T07:57:42.000Z</time>
      </trkpt>
      <trkpt lat="43.82758" lon="5.85756">
        <ele>318.210821</ele>
        <time>2021-09-18T07:57:49.000Z</time>
      </trkpt>
      <trkpt lat="43.82778" lon="5.85771">
        <ele>318.581752</ele>
        <time>2021-09-18T07:57:56.000Z</time>
      </trkpt>
      <trkpt lat="43.82791" lon="5.85797">
        <ele>319.110788</ele>
        <time>2021-09-18T07:58:03.000Z</time>
      </trkpt>
      <trkpt lat="43.82798" lon="5.85822">
        <ele>319.96566</ele>
        <time>2021-09-18T07:58:10.000Z</time>
      </trkpt>
      <trkpt lat="43.82807" lon="5.85854">
        <ele>321.024358</ele>
        <time>2021-09-18T07:58:19.000Z</time>
      </trkpt>
      <trkpt lat="43.82815" lon="5.85882">
        <ele>321.949627</ele>
        <time>2021-09-18T07:58:27.000Z</time>
      </trkpt>
      <trkpt lat="43.8282" lon="5.85902">
        <ele>322.61832</ele>
        <time>2021-09-18T07:58:33.000Z</time>
      </trkpt>
      <trkpt lat="43.82826" lon="5.85921">
        <ele>323.248808</ele>
        <time>2021-09-18T07:58:39.000Z</time>
      </trkpt>
      <trkpt lat="43.82832" lon="5.85947">
        <ele>324.113797</ele>
        <time>2021-09-18T07:58:47.000Z</time>
      </trkpt>
      <trkpt lat="43.82836" lon="5.85969">
        <ele>324.824242</ele>
        <time>2021-09-18T07:58:54.000Z</time>
      </trkpt>
      <trkpt lat="43.82842" lon="5.85995">
        <ele>325.667072</ele>
        <time>2021-09-18T07:59:02.000Z</time>
      </trkpt>
      <trkpt lat="43.82846" lon="5.86022">
        <ele>326.535927</ele>
        <time>2021-09-18T07:59:10.000Z</time>
      </trkpt>
      <trkpt lat="43.82848" lon="5.86041">
        <ele>327.433889</ele>
        <time>2021-09-18T07:59:16.000Z</time>
      </trkpt>
      <trkpt lat="43.82851" lon="5.86067">
        <ele>328.718877</ele>
        <time>2021-09-18T07:59:23.000Z</time>
      </trkpt>
      <trkpt lat="43.82854" lon="5.86089">
        <ele>329.794554</ele>
        <time>2021-09-18T07:59:29.000Z</time>
      </trkpt>
      <trkpt lat="43.82857" lon="5.86118">
        <ele>331.263494</ele>
        <time>2021-09-18T07:59:37.000Z</time>
      </trkpt>
      <trkpt lat="43.8286" lon="5.86143">
        <ele>332.499653</ele>
        <time>2021-09-18T07:59:44.000Z</time>
      </trkpt>
      <trkpt lat="43.8286" lon="5.86173">
        <ele>333.941668</ele>
        <time>2021-09-18T07:59:52.000Z</time>
      </trkpt>
      <trkpt lat="43.82861" lon="5.86201">
        <ele>335.354209</ele>
        <time>2021-09-18T08:00:00.000Z</time>
      </trkpt>
      <trkpt lat="43.82861" lon="5.86204">
        <ele>335.501879</ele>
        <time>2021-09-18T08:00:01.000Z</time>
      </trkpt>
      <trkpt lat="43.82859" lon="5.86217">
        <ele>336.148884</ele>
        <time>2021-09-18T08:00:05.000Z</time>
      </trkpt>
      <trkpt lat="43.82859" lon="5.8622">
        <ele>336.303921</ele>
        <time>2021-09-18T08:00:06.000Z</time>
      </trkpt>
      <trkpt lat="43.82863" lon="5.86234">
        <ele>337.026825</ele>
        <time>2021-09-18T08:00:10.000Z</time>
      </trkpt>
      <trkpt lat="43.82864" lon="5.86258">
        <ele>338.20976</ele>
        <time>2021-09-18T08:00:17.000Z</time>
      </trkpt>
      <trkpt lat="43.82864" lon="5.86264">
        <ele>338.531183</ele>
        <time>2021-09-18T08:00:19.000Z</time>
      </trkpt>
      <trkpt lat="43.82865" lon="5.86271">
        <ele>338.88685</ele>
        <time>2021-09-18T08:00:21.000Z</time>
      </trkpt>
      <trkpt lat="43.82867" lon="5.86296">
        <ele>340.078772</ele>
        <time>2021-09-18T08:00:28.000Z</time>
      </trkpt>
      <trkpt lat="43.82868" lon="5.86321">
        <ele>341.242402</ele>
        <time>2021-09-18T08:00:35.000Z</time>
      </trkpt>
      <trkpt lat="43.8287" lon="5.86341">
        <ele>342.219318</ele>
        <time>2021-09-18T08:00:41.000Z</time>
      </trkpt>
      <trkpt lat="43.82871" lon="5.86368">
        <ele>343.501341</ele>
        <time>2021-09-18T08:00:49.000Z</time>
      </trkpt>
      <trkpt lat="43.82869" lon="5.86395">
        <ele>344.774198</ele>
        <time>2021-09-18T08:00:57.000Z</time>
      </trkpt>
      <trkpt lat="43.82871" lon="5.86417">
        <ele>345.817621</ele>
        <time>2021-09-18T08:01:03.000Z</time>
      </trkpt>
      <trkpt lat="43.82874" lon="5.86421">
        <ele>346.09293</ele>
        <time>2021-09-18T08:01:05.000Z</time>
      </trkpt>
      <trkpt lat="43.82878" lon="5.86421">
        <ele>346.35705</ele>
        <time>2021-09-18T08:01:07.000Z</time>
      </trkpt>
      <trkpt lat="43.82885" lon="5.86416">
        <ele>346.862641</ele>
        <time>2021-09-18T08:01:11.000Z</time>
      </trkpt>
      <trkpt lat="43.82886" lon="5.86415">
        <ele>346.985038</ele>
        <time>2021-09-18T08:01:12.000Z</time>
      </trkpt>
      <trkpt lat="43.82889" lon="5.86395">
        <ele>347.924968</ele>
        <time>2021-09-18T08:01:18.000Z</time>
      </trkpt>
      <trkpt lat="43.82892" lon="5.86368">
        <ele>349.235079</ele>
        <time>2021-09-18T08:01:25.000Z</time>
      </trkpt>
      <trkpt lat="43.829" lon="5.86338">
        <ele>350.73256</ele>
        <time>2021-09-18T08:01:33.000Z</time>
      </trkpt>
      <trkpt lat="43.82908" lon="5.86314">
        <ele>351.860302</ele>
        <time>2021-09-18T08:01:40.000Z</time>
      </trkpt>
      <trkpt lat="43.82919" lon="5.86285">
        <ele>353.282982</ele>
        <time>2021-09-18T08:01:49.000Z</time>
      </trkpt>
      <trkpt lat="43.82928" lon="5.86259">
        <ele>354.511321</ele>
        <time>2021-09-18T08:01:57.000Z</time>
      </trkpt>
      <trkpt lat="43.82935" lon="5.86237">
        <ele>355.530598</ele>
        <time>2021-09-18T08:02:04.000Z</time>
      </trkpt>
      <trkpt lat="43.8294" lon="5.86215">
        <ele>356.539565</ele>
        <time>2021-09-18T08:02:11.000Z</time>
      </trkpt>
      <trkpt lat="43.82948" lon="5.86186">
        <ele>357.834603</ele>
        <time>2021-09-18T08:02:20.000Z</time>
      </trkpt>
      <trkpt lat="43.82954" lon="5.86161">
        <ele>358.99871</ele>
        <time>2021-09-18T08:02:28.000Z</time>
      </trkpt>
      <trkpt lat="43.82961" lon="5.86132">
        <ele>360.293621</ele>
        <time>2021-09-18T08:02:37.000Z</time>
      </trkpt>
      <trkpt lat="43.82968" lon="5.8612">
        <ele>360.968107</ele>
        <time>2021-09-18T08:02:42.000Z</time>
      </trkpt>
      <trkpt lat="43.82973" lon="5.86118">
        <ele>361.235972</ele>
        <time>2021-09-18T08:02:44.000Z</time>
      </trkpt>
      <trkpt lat="43.82979" lon="5.86117">
        <ele>361.563663</ele>
        <time>2021-09-18T08:02:47.000Z</time>
      </trkpt>
      <trkpt lat="43.82992" lon="5.86122">
        <ele>362.110431</ele>
        <time>2021-09-18T08:02:53.000Z</time>
      </trkpt>
      <trkpt lat="43.83006" lon="5.86133">
        <ele>362.774649</ele>
        <time>2021-09-18T08:03:00.000Z</time>
      </trkpt>
      <trkpt lat="43.83017" lon="5.86144">
        <ele>363.346524</ele>
        <time>2021-09-18T08:03:06.000Z</time>
      </trkpt>
      <trkpt lat="43.83029" lon="5.86156">
        <ele>363.957966</ele>
        <time>2021-09-18T08:03:12.000Z</time>
      </trkpt>
      <trkpt lat="43.83042" lon="5.86171">
        <ele>364.657095</ele>
        <time>2021-09-18T08:03:18.000Z</time>
      </trkpt>
      <trkpt lat="43.83059" lon="5.86189">
        <ele>365.550754</ele>
        <time>2021-09-18T08:03:24.000Z</time>
      </trkpt>
      <trkpt lat="43.83071" lon="5.86201">
        <ele>366.179673</ele>
        <time>2021-09-18T08:03:29.000Z</time>
      </trkpt>
      <trkpt lat="43.8308" lon="5.86211">
        <ele>366.646242</ele>
        <time>2021-09-18T08:03:34.000Z</time>
      </trkpt>
      <trkpt lat="43.83089" lon="5.86221">
        <ele>367.128169</ele>
        <time>2021-09-18T08:03:39.000Z</time>
      </trkpt>
      <trkpt lat="43.83103" lon="5.86235">
        <ele>367.84594</ele>
        <time>2021-09-18T08:03:44.000Z</time>
      </trkpt>
      <trkpt lat="43.83125" lon="5.8626">
        <ele>368.943633</ele>
        <time>2021-09-18T08:03:52.000Z</time>
      </trkpt>
      <trkpt lat="43.83136" lon="5.8628">
        <ele>369.235121</ele>
        <time>2021-09-18T08:03:57.000Z</time>
      </trkpt>
      <trkpt lat="43.83148" lon="5.86307">
        <ele>369.605109</ele>
        <time>2021-09-18T08:04:02.000Z</time>
      </trkpt>
      <trkpt lat="43.8315" lon="5.86312">
        <ele>369.684194</ele>
        <time>2021-09-18T08:04:03.000Z</time>
      </trkpt>
      <trkpt lat="43.83173" lon="5.86331">
        <ele>370.120535</ele>
        <time>2021-09-18T08:04:08.000Z</time>
      </trkpt>
      <trkpt lat="43.83188" lon="5.86339">
        <ele>370.389272</ele>
        <time>2021-09-18T08:04:11.000Z</time>
      </trkpt>
      <trkpt lat="43.83198" lon="5.86345">
        <ele>370.560396</ele>
        <time>2021-09-18T08:04:13.000Z</time>
      </trkpt>
      <trkpt lat="43.83202" lon="5.86348">
        <ele>370.640711</ele>
        <time>2021-09-18T08:04:14.000Z</time>
      </trkpt>
      <trkpt lat="43.83219" lon="5.86363">
        <ele>370.977413</ele>
        <time>2021-09-18T08:04:18.000Z</time>
      </trkpt>
      <trkpt lat="43.83228" lon="5.86373">
        <ele>371.158692</ele>
        <time>2021-09-18T08:04:20.000Z</time>
      </trkpt>
      <trkpt lat="43.83241" lon="5.86393">
        <ele>371.483045</ele>
        <time>2021-09-18T08:04:24.000Z</time>
      </trkpt>
      <trkpt lat="43.83249" lon="5.8641">
        <ele>371.72063</ele>
        <time>2021-09-18T08:04:27.000Z</time>
      </trkpt>
      <trkpt lat="43.83255" lon="5.86421">
        <ele>371.879817</ele>
        <time>2021-09-18T08:04:29.000Z</time>
      </trkpt>
      <trkpt lat="43.83259" lon="5.86427">
        <ele>371.951746</ele>
        <time>2021-09-18T08:04:30.000Z</time>
      </trkpt>
      <trkpt lat="43.83267" lon="5.86437">
        <ele>372.08789</ele>
        <time>2021-09-18T08:04:32.000Z</time>
      </trkpt>
      <trkpt lat="43.83277" lon="5.86443">
        <ele>372.230073</ele>
        <time>2021-09-18T08:04:34.000Z</time>
      </trkpt>
      <trkpt lat="43.83292" lon="5.86451">
        <ele>372.433945</ele>
        <time>2021-09-18T08:04:37.000Z</time>
      </trkpt>
      <trkpt lat="43.83306" lon="5.8646">
        <ele>372.628181</ele>
        <time>2021-09-18T08:04:40.000Z</time>
      </trkpt>
      <trkpt lat="43.83321" lon="5.86471">
        <ele>372.844569</ele>
        <time>2021-09-18T08:04:44.000Z</time>
      </trkpt>
      <trkpt lat="43.83336" lon="5.86484">
        <ele>373.074736</ele>
        <time>2021-09-18T08:04:48.000Z</time>
      </trkpt>
      <trkpt lat="43.83356" lon="5.86503">
        <ele>373.378642</ele>
        <time>2021-09-18T08:04:53.000Z</time>
      </trkpt>
      <trkpt lat="43.83394" lon="5.86537">
        <ele>373.954033</ele>
        <time>2021-09-18T08:05:02.000Z</time>
      </trkpt>
      <trkpt lat="43.83417" lon="5.86561">
        <ele>374.126242</ele>
        <time>2021-09-18T08:05:08.000Z</time>
      </trkpt>
      <trkpt lat="43.83441" lon="5.86591">
        <ele>374.111078</ele>
        <time>2021-09-18T08:05:14.000Z</time>
      </trkpt>
      <trkpt lat="43.83454" lon="5.8661">
        <ele>374.102651</ele>
        <time>2021-09-18T08:05:17.000Z</time>
      </trkpt>
      <trkpt lat="43.83465" lon="5.86631">
        <ele>374.094074</ele>
        <time>2021-09-18T08:05:20.000Z</time>
      </trkpt>
      <trkpt lat="43.83479" lon="5.86663">
        <ele>374.081474</ele>
        <time>2021-09-18T08:05:24.000Z</time>
      </trkpt>
      <trkpt lat="43.83485" lon="5.8668">
        <ele>374.075283</ele>
        <time>2021-09-18T08:05:26.000Z</time>
      </trkpt>
      <trkpt lat="43.83503" lon="5.86728">
        <ele>374.057432</ele>
        <time>2021-09-18T08:05:32.000Z</time>
      </trkpt>
      <trkpt lat="43.83506" lon="5.86736">
        <ele>374.054593</ele>
        <time>2021-09-18T08:05:33.000Z</time>
      </trkpt>
      <trkpt lat="43.83509" lon="5.86743">
        <ele>374.05176</ele>
        <time>2021-09-18T08:05:34.000Z</time>
      </trkpt>
      <trkpt lat="43.83523" lon="5.86759">
        <ele>374.173939</ele>
        <time>2021-09-18T08:05:37.000Z</time>
      </trkpt>
      <trkpt lat="43.8355" lon="5.86774">
        <ele>374.417291</ele>
        <time>2021-09-18T08:05:43.000Z</time>
      </trkpt>
      <trkpt lat="43.83568" lon="5.86783">
        <ele>374.573868</ele>
        <time>2021-09-18T08:05:49.000Z</time>
      </trkpt>
      <trkpt lat="43.83587" lon="5.86795">
        <ele>374.751465</ele>
        <time>2021-09-18T08:05:57.000Z</time>
      </trkpt>
      <trkpt lat="43.83607" lon="5.86813">
        <ele>374.9492</ele>
        <time>2021-09-18T08:06:05.000Z</time>
      </trkpt>
      <trkpt lat="43.83621" lon="5.86837">
        <ele>375.137795</ele>
        <time>2021-09-18T08:06:11.000Z</time>
      </trkpt>
      <trkpt lat="43.83624" lon="5.86844">
        <ele>375.181378</ele>
        <time>2021-09-18T08:06:12.000Z</time>
      </trkpt>
      <trkpt lat="43.83628" lon="5.86856">
        <ele>375.261466</ele>
        <time>2021-09-18T08:06:14.000Z</time>
      </trkpt>
      <trkpt lat="43.83633" lon="5.86866">
        <ele>375.334526</ele>
        <time>2021-09-18T08:06:16.000Z</time>
      </trkpt>
      <trkpt lat="43.8364" lon="5.86874">
        <ele>375.410533</ele>
        <time>2021-09-18T08:06:18.000Z</time>
      </trkpt>
      <trkpt lat="43.83649" lon="5.86881">
        <ele>375.494733</ele>
        <time>2021-09-18T08:06:20.000Z</time>
      </trkpt>
      <trkpt lat="43.83655" lon="5.86883">
        <ele>375.543352</ele>
        <time>2021-09-18T08:06:21.000Z</time>
      </trkpt>
      <trkpt lat="43.83676" lon="5.8689">
        <ele>375.599135</ele>
        <time>2021-09-18T08:06:25.000Z</time>
      </trkpt>
      <trkpt lat="43.83696" lon="5.869">
        <ele>375.651065</ele>
        <time>2021-09-18T08:06:30.000Z</time>
      </trkpt>
      <trkpt lat="43.83716" lon="5.86916">
        <ele>375.704765</ele>
        <time>2021-09-18T08:06:36.000Z</time>
      </trkpt>
      <trkpt lat="43.83738" lon="5.86935">
        <ele>375.766926</ele>
        <time>2021-09-18T08:06:42.000Z</time>
      </trkpt>
      <trkpt lat="43.83751" lon="5.86944">
        <ele>375.802535</ele>
        <time>2021-09-18T08:06:46.000Z</time>
      </trkpt>
      <trkpt lat="43.8378" lon="5.86956">
        <ele>375.873738</ele>
        <time>2021-09-18T08:06:52.000Z</time>
      </trkpt>
      <trkpt lat="43.83784" lon="5.8696">
        <ele>375.886137</ele>
        <time>2021-09-18T08:06:53.000Z</time>
      </trkpt>
      <trkpt lat="43.83788" lon="5.86964">
        <ele>375.897654</ele>
        <time>2021-09-18T08:06:54.000Z</time>
      </trkpt>
      <trkpt lat="43.83796" lon="5.86972">
        <ele>375.920935</ele>
        <time>2021-09-18T08:06:56.000Z</time>
      </trkpt>
      <trkpt lat="43.83799" lon="5.86978">
        <ele>375.93255</ele>
        <time>2021-09-18T08:06:57.000Z</time>
      </trkpt>
      <trkpt lat="43.83802" lon="5.86984">
        <ele>375.945574</ele>
        <time>2021-09-18T08:06:58.000Z</time>
      </trkpt>
      <trkpt lat="43.83807" lon="5.87009">
        <ele>376.035789</ele>
        <time>2021-09-18T08:07:01.000Z</time>
      </trkpt>
      <trkpt lat="43.8381" lon="5.87027">
        <ele>376.186617</ele>
        <time>2021-09-18T08:07:03.000Z</time>
      </trkpt>
      <trkpt lat="43.83814" lon="5.87044">
        <ele>376.332544</ele>
        <time>2021-09-18T08:07:05.000Z</time>
      </trkpt>
      <trkpt lat="43.83821" lon="5.87057">
        <ele>376.46934</ele>
        <time>2021-09-18T08:07:07.000Z</time>
      </trkpt>
      <trkpt lat="43.83826" lon="5.87062">
        <ele>376.536138</ele>
        <time>2021-09-18T08:07:08.000Z</time>
      </trkpt>
      <trkpt lat="43.83837" lon="5.87068">
        <ele>376.667343</ele>
        <time>2021-09-18T08:07:10.000Z</time>
      </trkpt>
      <trkpt lat="43.83852" lon="5.87074">
        <ele>376.847242</ele>
        <time>2021-09-18T08:07:13.000Z</time>
      </trkpt>
      <trkpt lat="43.83873" lon="5.87084">
        <ele>377.097863</ele>
        <time>2021-09-18T08:07:19.000Z</time>
      </trkpt>
      <trkpt lat="43.83883" lon="5.87097">
        <ele>377.247378</ele>
        <time>2021-09-18T08:07:24.000Z</time>
      </trkpt>
      <trkpt lat="43.83894" lon="5.87118">
        <ele>377.464004</ele>
        <time>2021-09-18T08:07:30.000Z</time>
      </trkpt>
      <trkpt lat="43.83905" lon="5.87136">
        <ele>377.655781</ele>
        <time>2021-09-18T08:07:35.000Z</time>
      </trkpt>
      <trkpt lat="43.83929" lon="5.87155">
        <ele>377.966727</ele>
        <time>2021-09-18T08:07:42.000Z</time>
      </trkpt>
      <trkpt lat="43.83951" lon="5.8717">
        <ele>378.179672</ele>
        <time>2021-09-18T08:07:48.000Z</time>
      </trkpt>
      <trkpt lat="43.83976" lon="5.87186">
        <ele>378.405843</ele>
        <time>2021-09-18T08:07:53.000Z</time>
      </trkpt>
      <trkpt lat="43.84013" lon="5.8721">
        <ele>378.734128</ele>
        <time>2021-09-18T08:08:00.000Z</time>
      </trkpt>
      <trkpt lat="43.8404" lon="5.87228">
        <ele>378.97929</ele>
        <time>2021-09-18T08:08:06.000Z</time>
      </trkpt>
      <trkpt lat="43.84067" lon="5.87245">
        <ele>379.218289</ele>
        <time>2021-09-18T08:08:13.000Z</time>
      </trkpt>
      <trkpt lat="43.84093" lon="5.87263">
        <ele>379.456552</ele>
        <time>2021-09-18T08:08:20.000Z</time>
      </trkpt>
      <trkpt lat="43.84102" lon="5.87271">
        <ele>379.512345</ele>
        <time>2021-09-18T08:08:22.000Z</time>
      </trkpt>
      <trkpt lat="43.84106" lon="5.87277">
        <ele>379.53868</ele>
        <time>2021-09-18T08:08:23.000Z</time>
      </trkpt>
      <trkpt lat="43.84109" lon="5.87285">
        <ele>379.56975</ele>
        <time>2021-09-18T08:08:24.000Z</time>
      </trkpt>
      <trkpt lat="43.8411" lon="5.87303">
        <ele>379.626643</ele>
        <time>2021-09-18T08:08:26.000Z</time>
      </trkpt>
      <trkpt lat="43.84102" lon="5.87333">
        <ele>379.732197</ele>
        <time>2021-09-18T08:08:30.000Z</time>
      </trkpt>
      <trkpt lat="43.841" lon="5.87347">
        <ele>379.777446</ele>
        <time>2021-09-18T08:08:32.000Z</time>
      </trkpt>
      <trkpt lat="43.841" lon="5.87353">
        <ele>379.798912</ele>
        <time>2021-09-18T08:08:33.000Z</time>
      </trkpt>
      <trkpt lat="43.84101" lon="5.8736">
        <ele>379.819481</ele>
        <time>2021-09-18T08:08:34.000Z</time>
      </trkpt>
      <trkpt lat="43.84107" lon="5.87371">
        <ele>379.864884</ele>
        <time>2021-09-18T08:08:36.000Z</time>
      </trkpt>
      <trkpt lat="43.84123" lon="5.87375">
        <ele>379.940399</ele>
        <time>2021-09-18T08:08:39.000Z</time>
      </trkpt>
      <trkpt lat="43.8413" lon="5.87375">
        <ele>379.969824</ele>
        <time>2021-09-18T08:08:40.000Z</time>
      </trkpt>
      <trkpt lat="43.84136" lon="5.87374">
        <ele>379.997453</ele>
        <time>2021-09-18T08:08:41.000Z</time>
      </trkpt>
      <trkpt lat="43.8416" lon="5.87371">
        <ele>380.109285</ele>
        <time>2021-09-18T08:08:45.000Z</time>
      </trkpt>
      <trkpt lat="43.84167" lon="5.87371">
        <ele>380.138234</ele>
        <time>2021-09-18T08:08:46.000Z</time>
      </trkpt>
      <trkpt lat="43.84188" lon="5.87377">
        <ele>380.236308</ele>
        <time>2021-09-18T08:08:50.000Z</time>
      </trkpt>
      <trkpt lat="43.84207" lon="5.87393">
        <ele>380.38604</ele>
        <time>2021-09-18T08:08:55.000Z</time>
      </trkpt>
      <trkpt lat="43.84231" lon="5.87417">
        <ele>380.644485</ele>
        <time>2021-09-18T08:09:02.000Z</time>
      </trkpt>
      <trkpt lat="43.84246" lon="5.87433">
        <ele>380.816725</ele>
        <time>2021-09-18T08:09:07.000Z</time>
      </trkpt>
      <trkpt lat="43.84263" lon="5.87451">
        <ele>381.001695</ele>
        <time>2021-09-18T08:09:13.000Z</time>
      </trkpt>
      <trkpt lat="43.8428" lon="5.87469">
        <ele>381.193613</ele>
        <time>2021-09-18T08:09:19.000Z</time>
      </trkpt>
      <trkpt lat="43.843" lon="5.8749">
        <ele>381.417622</ele>
        <time>2021-09-18T08:09:25.000Z</time>
      </trkpt>
      <trkpt lat="43.84329" lon="5.87521">
        <ele>381.741257</ele>
        <time>2021-09-18T08:09:32.000Z</time>
      </trkpt>
      <trkpt lat="43.8436" lon="5.87551">
        <ele>382.105923</ele>
        <time>2021-09-18T08:09:40.000Z</time>
      </trkpt>
      <trkpt lat="43.84375" lon="5.87559">
        <ele>382.267562</ele>
        <time>2021-09-18T08:09:44.000Z</time>
      </trkpt>
      <trkpt lat="43.84384" lon="5.87563">
        <ele>382.360448</ele>
        <time>2021-09-18T08:09:46.000Z</time>
      </trkpt>
      <trkpt lat="43.84419" lon="5.8757">
        <ele>382.718577</ele>
        <time>2021-09-18T08:09:54.000Z</time>
      </trkpt>
      <trkpt lat="43.84433" lon="5.87576">
        <ele>382.874817</ele>
        <time>2021-09-18T08:09:58.000Z</time>
      </trkpt>
      <trkpt lat="43.84441" lon="5.8758">
        <ele>382.962521</ele>
        <time>2021-09-18T08:10:00.000Z</time>
      </trkpt>
      <trkpt lat="43.84467" lon="5.87607">
        <ele>383.292517</ele>
        <time>2021-09-18T08:10:06.000Z</time>
      </trkpt>
      <trkpt lat="43.84476" lon="5.87622">
        <ele>383.430631</ele>
        <time>2021-09-18T08:10:09.000Z</time>
      </trkpt>
      <trkpt lat="43.84481" lon="5.87634">
        <ele>383.52989</ele>
        <time>2021-09-18T08:10:11.000Z</time>
      </trkpt>
      <trkpt lat="43.84483" lon="5.8764">
        <ele>383.585484</ele>
        <time>2021-09-18T08:10:13.000Z</time>
      </trkpt>
      <trkpt lat="43.84488" lon="5.87666">
        <ele>383.707667</ele>
        <time>2021-09-18T08:10:16.000Z</time>
      </trkpt>
      <trkpt lat="43.84489" lon="5.87684">
        <ele>383.707752</ele>
        <time>2021-09-18T08:10:18.000Z</time>
      </trkpt>
      <trkpt lat="43.8449" lon="5.87701">
        <ele>383.70783</ele>
        <time>2021-09-18T08:10:20.000Z</time>
      </trkpt>
      <trkpt lat="43.84491" lon="5.87709">
        <ele>383.707869</ele>
        <time>2021-09-18T08:10:21.000Z</time>
      </trkpt>
      <trkpt lat="43.84493" lon="5.87717">
        <ele>383.707906</ele>
        <time>2021-09-18T08:10:22.000Z</time>
      </trkpt>
      <trkpt lat="43.84502" lon="5.87726">
        <ele>383.70798</ele>
        <time>2021-09-18T08:10:24.000Z</time>
      </trkpt>
      <trkpt lat="43.84546" lon="5.87725">
        <ele>383.708256</ele>
        <time>2021-09-18T08:10:29.000Z</time>
      </trkpt>
      <trkpt lat="43.84589" lon="5.87718">
        <ele>383.708531</ele>
        <time>2021-09-18T08:10:36.000Z</time>
      </trkpt>
      <trkpt lat="43.84629" lon="5.87704">
        <ele>383.655745</ele>
        <time>2021-09-18T08:10:42.000Z</time>
      </trkpt>
      <trkpt lat="43.84681" lon="5.87673">
        <ele>382.929392</ele>
        <time>2021-09-18T08:10:50.000Z</time>
      </trkpt>
      <trkpt lat="43.84708" lon="5.87657">
        <ele>382.54782</ele>
        <time>2021-09-18T08:10:53.000Z</time>
      </trkpt>
      <trkpt lat="43.84708" lon="5.87657">
        <ele>382.54782</ele>
        <time>2021-09-18T08:10:54.000Z</time>
      </trkpt>
      <trkpt lat="43.84716" lon="5.87656">
        <ele>382.452764</ele>
        <time>2021-09-18T08:10:55.000Z</time>
      </trkpt>
      <trkpt lat="43.84723" lon="5.8766">
        <ele>382.351421</ele>
        <time>2021-09-18T08:10:56.000Z</time>
      </trkpt>
      <trkpt lat="43.84757" lon="5.87713">
        <ele>381.694362</ele>
        <time>2021-09-18T08:11:01.000Z</time>
      </trkpt>
      <trkpt lat="43.84763" lon="5.87723">
        <ele>381.579513</ele>
        <time>2021-09-18T08:11:03.000Z</time>
      </trkpt>
      <trkpt lat="43.8478" lon="5.87757">
        <ele>380.935325</ele>
        <time>2021-09-18T08:11:05.000Z</time>
      </trkpt>
      <trkpt lat="43.8478" lon="5.87757">
        <ele>380.935325</ele>
        <time>2021-09-18T08:11:06.000Z</time>
      </trkpt>
      <trkpt lat="43.8479" lon="5.8778">
        <ele>380.39954</ele>
        <time>2021-09-18T08:11:08.000Z</time>
      </trkpt>
      <trkpt lat="43.84795" lon="5.87789">
        <ele>380.172614</ele>
        <time>2021-09-18T08:11:09.000Z</time>
      </trkpt>
      <trkpt lat="43.84799" lon="5.87798">
        <ele>379.955913</ele>
        <time>2021-09-18T08:11:10.000Z</time>
      </trkpt>
      <trkpt lat="43.848" lon="5.87813">
        <ele>379.663863</ele>
        <time>2021-09-18T08:11:11.000Z</time>
      </trkpt>
      <trkpt lat="43.84797" lon="5.87818">
        <ele>379.520472</ele>
        <time>2021-09-18T08:11:12.000Z</time>
      </trkpt>
      <trkpt lat="43.84791" lon="5.87828">
        <ele>379.265636</ele>
        <time>2021-09-18T08:11:13.000Z</time>
      </trkpt>
      <trkpt lat="43.84773" lon="5.87857">
        <ele>378.477674</ele>
        <time>2021-09-18T08:11:16.000Z</time>
      </trkpt>
      <trkpt lat="43.84749" lon="5.87882">
        <ele>377.66681</ele>
        <time>2021-09-18T08:11:19.000Z</time>
      </trkpt>
      <trkpt lat="43.84731" lon="5.87897">
        <ele>377.074642</ele>
        <time>2021-09-18T08:11:21.000Z</time>
      </trkpt>
      <trkpt lat="43.84712" lon="5.87926">
        <ele>376.238074</ele>
        <time>2021-09-18T08:11:23.000Z</time>
      </trkpt>
      <trkpt lat="43.84715" lon="5.87937">
        <ele>375.899115</ele>
        <time>2021-09-18T08:11:25.000Z</time>
      </trkpt>
      <trkpt lat="43.84728" lon="5.87942">
        <ele>375.34228</ele>
        <time>2021-09-18T08:11:27.000Z</time>
      </trkpt>
      <trkpt lat="43.84752" lon="5.87935">
        <ele>374.336187</ele>
        <time>2021-09-18T08:11:30.000Z</time>
      </trkpt>
      <trkpt lat="43.84761" lon="5.87934">
        <ele>373.985033</ele>
        <time>2021-09-18T08:11:31.000Z</time>
      </trkpt>
      <trkpt lat="43.84779" lon="5.87936">
        <ele>373.248982</ele>
        <time>2021-09-18T08:11:33.000Z</time>
      </trkpt>
      <trkpt lat="43.84787" lon="5.87938">
        <ele>372.899029</ele>
        <time>2021-09-18T08:11:34.000Z</time>
      </trkpt>
      <trkpt lat="43.84796" lon="5.87949">
        <ele>372.406563</ele>
        <time>2021-09-18T08:11:35.000Z</time>
      </trkpt>
      <trkpt lat="43.84796" lon="5.87954">
        <ele>372.250406</ele>
        <time>2021-09-18T08:11:36.000Z</time>
      </trkpt>
      <trkpt lat="43.84796" lon="5.87967">
        <ele>371.875345</ele>
        <time>2021-09-18T08:11:37.000Z</time>
      </trkpt>
      <trkpt lat="43.84787" lon="5.88005">
        <ele>370.680982</ele>
        <time>2021-09-18T08:11:40.000Z</time>
      </trkpt>
      <trkpt lat="43.84777" lon="5.88041">
        <ele>369.518551</ele>
        <time>2021-09-18T08:11:43.000Z</time>
      </trkpt>
      <trkpt lat="43.8477" lon="5.88079">
        <ele>368.239253</ele>
        <time>2021-09-18T08:11:46.000Z</time>
      </trkpt>
      <trkpt lat="43.84768" lon="5.88103">
        <ele>367.337849</ele>
        <time>2021-09-18T08:11:48.000Z</time>
      </trkpt>
      <trkpt lat="43.84767" lon="5.88114">
        <ele>366.945373</ele>
        <time>2021-09-18T08:11:49.000Z</time>
      </trkpt>
      <trkpt lat="43.84775" lon="5.8813">
        <ele>366.223184</ele>
        <time>2021-09-18T08:11:51.000Z</time>
      </trkpt>
      <trkpt lat="43.84791" lon="5.88105">
        <ele>365.022128</ele>
        <time>2021-09-18T08:11:53.000Z</time>
      </trkpt>
      <trkpt lat="43.84797" lon="5.88078">
        <ele>364.031628</ele>
        <time>2021-09-18T08:11:56.000Z</time>
      </trkpt>
      <trkpt lat="43.848" lon="5.88064">
        <ele>363.501562</ele>
        <time>2021-09-18T08:11:57.000Z</time>
      </trkpt>
      <trkpt lat="43.84803" lon="5.8805">
        <ele>362.970001</ele>
        <time>2021-09-18T08:11:58.000Z</time>
      </trkpt>
      <trkpt lat="43.84815" lon="5.88026">
        <ele>361.886429</ele>
        <time>2021-09-18T08:12:00.000Z</time>
      </trkpt>
      <trkpt lat="43.84855" lon="5.87965">
        <ele>358.941814</ele>
        <time>2021-09-18T08:12:04.000Z</time>
      </trkpt>
      <trkpt lat="43.84878" lon="5.87928">
        <ele>357.256963</ele>
        <time>2021-09-18T08:12:08.000Z</time>
      </trkpt>
      <trkpt lat="43.84886" lon="5.87919">
        <ele>356.748169</ele>
        <time>2021-09-18T08:12:09.000Z</time>
      </trkpt>
      <trkpt lat="43.84894" lon="5.87911">
        <ele>356.255139</ele>
        <time>2021-09-18T08:12:10.000Z</time>
      </trkpt>
      <trkpt lat="43.84904" lon="5.87906">
        <ele>355.767135</ele>
        <time>2021-09-18T08:12:11.000Z</time>
      </trkpt>
      <trkpt lat="43.84914" lon="5.87905">
        <ele>355.281512</ele>
        <time>2021-09-18T08:12:12.000Z</time>
      </trkpt>
      <trkpt lat="43.84943" lon="5.87915">
        <ele>353.813869</ele>
        <time>2021-09-18T08:12:14.000Z</time>
      </trkpt>
      <trkpt lat="43.8497" lon="5.87931">
        <ele>352.394962</ele>
        <time>2021-09-18T08:12:18.000Z</time>
      </trkpt>
      <trkpt lat="43.84979" lon="5.87938">
        <ele>351.91487</ele>
        <time>2021-09-18T08:12:19.000Z</time>
      </trkpt>
      <trkpt lat="43.84995" lon="5.87954">
        <ele>350.960403</ele>
        <time>2021-09-18T08:12:21.000Z</time>
      </trkpt>
      <trkpt lat="43.85015" lon="5.8798">
        <ele>349.557937</ele>
        <time>2021-09-18T08:12:23.000Z</time>
      </trkpt>
      <trkpt lat="43.85058" lon="5.88037">
        <ele>346.508824</ele>
        <time>2021-09-18T08:12:30.000Z</time>
      </trkpt>
      <trkpt lat="43.8508" lon="5.88066">
        <ele>344.994178</ele>
        <time>2021-09-18T08:12:35.000Z</time>
      </trkpt>
      <trkpt lat="43.85122" lon="5.8812">
        <ele>342.07549</ele>
        <time>2021-09-18T08:12:43.000Z</time>
      </trkpt>
      <trkpt lat="43.85137" lon="5.8814">
        <ele>341.28285</ele>
        <time>2021-09-18T08:12:45.000Z</time>
      </trkpt>
      <trkpt lat="43.85182" lon="5.88197">
        <ele>338.972772</ele>
        <time>2021-09-18T08:12:54.000Z</time>
      </trkpt>
      <trkpt lat="43.85186" lon="5.88203">
        <ele>338.725594</ele>
        <time>2021-09-18T08:12:55.000Z</time>
      </trkpt>
      <trkpt lat="43.85229" lon="5.88257">
        <ele>336.543762</ele>
        <time>2021-09-18T08:13:04.000Z</time>
      </trkpt>
      <trkpt lat="43.85229" lon="5.88257">
        <ele>336.543762</ele>
        <time>2021-09-18T08:13:05.000Z</time>
      </trkpt>
      <trkpt lat="43.85265" lon="5.88304">
        <ele>334.87422</ele>
        <time>2021-09-18T08:13:13.000Z</time>
      </trkpt>
      <trkpt lat="43.85296" lon="5.88343">
        <ele>333.880813</ele>
        <time>2021-09-18T08:13:20.000Z</time>
      </trkpt>
      <trkpt lat="43.85337" lon="5.88396">
        <ele>332.53395</ele>
        <time>2021-09-18T08:13:30.000Z</time>
      </trkpt>
      <trkpt lat="43.85374" lon="5.88442">
        <ele>331.329047</ele>
        <time>2021-09-18T08:13:39.000Z</time>
      </trkpt>
      <trkpt lat="43.85413" lon="5.88491">
        <ele>330.671321</ele>
        <time>2021-09-18T08:13:47.000Z</time>
      </trkpt>
      <trkpt lat="43.8543" lon="5.88512">
        <ele>330.500512</ele>
        <time>2021-09-18T08:13:52.000Z</time>
      </trkpt>
      <trkpt lat="43.85434" lon="5.88517">
        <ele>330.462738</ele>
        <time>2021-09-18T08:13:53.000Z</time>
      </trkpt>
      <trkpt lat="43.85453" lon="5.88541">
        <ele>330.268766</ele>
        <time>2021-09-18T08:13:59.000Z</time>
      </trkpt>
      <trkpt lat="43.85468" lon="5.88571">
        <ele>330.073847</ele>
        <time>2021-09-18T08:14:05.000Z</time>
      </trkpt>
      <trkpt lat="43.85477" lon="5.88602">
        <ele>329.894408</ele>
        <time>2021-09-18T08:14:10.000Z</time>
      </trkpt>
      <trkpt lat="43.85479" lon="5.88607">
        <ele>329.863052</ele>
        <time>2021-09-18T08:14:12.000Z</time>
      </trkpt>
      <trkpt lat="43.85486" lon="5.88628">
        <ele>329.73869</ele>
        <time>2021-09-18T08:14:16.000Z</time>
      </trkpt>
      <trkpt lat="43.85501" lon="5.88649">
        <ele>329.61023</ele>
        <time>2021-09-18T08:14:21.000Z</time>
      </trkpt>
      <trkpt lat="43.85529" lon="5.8868">
        <ele>329.761586</ele>
        <time>2021-09-18T08:14:27.000Z</time>
      </trkpt>
      <trkpt lat="43.85563" lon="5.88722">
        <ele>329.952378</ele>
        <time>2021-09-18T08:14:35.000Z</time>
      </trkpt>
      <trkpt lat="43.8557" lon="5.88733">
        <ele>329.994564</ele>
        <time>2021-09-18T08:14:38.000Z</time>
      </trkpt>
      <trkpt lat="43.85577" lon="5.88743">
        <ele>330.037251</ele>
        <time>2021-09-18T08:14:40.000Z</time>
      </trkpt>
      <trkpt lat="43.85603" lon="5.88781">
        <ele>330.194227</ele>
        <time>2021-09-18T08:14:47.000Z</time>
      </trkpt>
      <trkpt lat="43.85608" lon="5.88785">
        <ele>330.215972</ele>
        <time>2021-09-18T08:14:48.000Z</time>
      </trkpt>
      <trkpt lat="43.85631" lon="5.88807">
        <ele>330.335321</ele>
        <time>2021-09-18T08:14:53.000Z</time>
      </trkpt>
      <trkpt lat="43.85669" lon="5.88842">
        <ele>330.847953</ele>
        <time>2021-09-18T08:15:00.000Z</time>
      </trkpt>
      <trkpt lat="43.8571" lon="5.88881">
        <ele>331.432534</ele>
        <time>2021-09-18T08:15:09.000Z</time>
      </trkpt>
      <trkpt lat="43.85731" lon="5.88898">
        <ele>331.712056</ele>
        <time>2021-09-18T08:15:15.000Z</time>
      </trkpt>
      <trkpt lat="43.85758" lon="5.88914">
        <ele>332.065795</ele>
        <time>2021-09-18T08:15:22.000Z</time>
      </trkpt>
      <trkpt lat="43.85789" lon="5.88929">
        <ele>332.453692</ele>
        <time>2021-09-18T08:15:30.000Z</time>
      </trkpt>
      <trkpt lat="43.85823" lon="5.88938">
        <ele>332.769128</ele>
        <time>2021-09-18T08:15:40.000Z</time>
      </trkpt>
      <trkpt lat="43.85851" lon="5.88945">
        <ele>333.027941</ele>
        <time>2021-09-18T08:15:48.000Z</time>
      </trkpt>
      <trkpt lat="43.85882" lon="5.88957">
        <ele>333.324103</ele>
        <time>2021-09-18T08:15:55.000Z</time>
      </trkpt>
      <trkpt lat="43.85917" lon="5.88981">
        <ele>333.676907</ele>
        <time>2021-09-18T08:16:02.000Z</time>
      </trkpt>
      <trkpt lat="43.85935" lon="5.88996">
        <ele>333.865775</ele>
        <time>2021-09-18T08:16:07.000Z</time>
      </trkpt>
      <trkpt lat="43.8597" lon="5.89032">
        <ele>334.155617</ele>
        <time>2021-09-18T08:16:15.000Z</time>
      </trkpt>
      <trkpt lat="43.86015" lon="5.89078">
        <ele>334.309512</ele>
        <time>2021-09-18T08:16:25.000Z</time>
      </trkpt>
      <trkpt lat="43.86046" lon="5.89111">
        <ele>334.414727</ele>
        <time>2021-09-18T08:16:32.000Z</time>
      </trkpt>
      <trkpt lat="43.86082" lon="5.89146">
        <ele>334.534782</ele>
        <time>2021-09-18T08:16:40.000Z</time>
      </trkpt>
      <trkpt lat="43.86119" lon="5.89181">
        <ele>334.587753</ele>
        <time>2021-09-18T08:16:49.000Z</time>
      </trkpt>
      <trkpt lat="43.8614" lon="5.89201">
        <ele>334.572092</ele>
        <time>2021-09-18T08:16:55.000Z</time>
      </trkpt>
      <trkpt lat="43.86148" lon="5.89209">
        <ele>334.56608</ele>
        <time>2021-09-18T08:16:57.000Z</time>
      </trkpt>
      <trkpt lat="43.86164" lon="5.89225">
        <ele>334.553473</ele>
        <time>2021-09-18T08:17:01.000Z</time>
      </trkpt>
      <trkpt lat="43.86173" lon="5.89234">
        <ele>334.546827</ele>
        <time>2021-09-18T08:17:03.000Z</time>
      </trkpt>
      <trkpt lat="43.8622" lon="5.89282">
        <ele>334.510964</ele>
        <time>2021-09-18T08:17:13.000Z</time>
      </trkpt>
      <trkpt lat="43.86261" lon="5.89325">
        <ele>334.52356</ele>
        <time>2021-09-18T08:17:21.000Z</time>
      </trkpt>
      <trkpt lat="43.86308" lon="5.8937">
        <ele>334.633376</ele>
        <time>2021-09-18T08:17:31.000Z</time>
      </trkpt>
      <trkpt lat="43.86308" lon="5.8937">
        <ele>334.633376</ele>
        <time>2021-09-18T08:17:32.000Z</time>
      </trkpt>
      <trkpt lat="43.86322" lon="5.89381">
        <ele>334.664963</ele>
        <time>2021-09-18T08:17:35.000Z</time>
      </trkpt>
      <trkpt lat="43.86331" lon="5.89389">
        <ele>334.684945</ele>
        <time>2021-09-18T08:17:37.000Z</time>
      </trkpt>
      <trkpt lat="43.8637" lon="5.8942">
        <ele>334.771801</ele>
        <time>2021-09-18T08:17:45.000Z</time>
      </trkpt>
      <trkpt lat="43.86406" lon="5.89451">
        <ele>334.887517</ele>
        <time>2021-09-18T08:17:52.000Z</time>
      </trkpt>
      <trkpt lat="43.86436" lon="5.89491">
        <ele>335.143489</ele>
        <time>2021-09-18T08:18:02.000Z</time>
      </trkpt>
      <trkpt lat="43.86468" lon="5.89533">
        <ele>335.416018</ele>
        <time>2021-09-18T08:18:11.000Z</time>
      </trkpt>
      <trkpt lat="43.86503" lon="5.89576">
        <ele>335.703947</ele>
        <time>2021-09-18T08:18:20.000Z</time>
      </trkpt>
      <trkpt lat="43.86546" lon="5.89621">
        <ele>336.052222</ele>
        <time>2021-09-18T08:18:29.000Z</time>
      </trkpt>
      <trkpt lat="43.8655" lon="5.89626">
        <ele>336.088971</ele>
        <time>2021-09-18T08:18:30.000Z</time>
      </trkpt>
      <trkpt lat="43.86587" lon="5.89664">
        <ele>336.415924</ele>
        <time>2021-09-18T08:18:39.000Z</time>
      </trkpt>
      <trkpt lat="43.86623" lon="5.89703">
        <ele>336.745577</ele>
        <time>2021-09-18T08:18:49.000Z</time>
      </trkpt>
      <trkpt lat="43.86671" lon="5.89752">
        <ele>337.168264</ele>
        <time>2021-09-18T08:19:00.000Z</time>
      </trkpt>
      <trkpt lat="43.86696" lon="5.89779">
        <ele>337.38639</ele>
        <time>2021-09-18T08:19:08.000Z</time>
      </trkpt>
      <trkpt lat="43.8673" lon="5.89815">
        <ele>337.671771</ele>
        <time>2021-09-18T08:19:17.000Z</time>
      </trkpt>
      <trkpt lat="43.86764" lon="5.89851">
        <ele>337.956381</ele>
        <time>2021-09-18T08:19:26.000Z</time>
      </trkpt>
      <trkpt lat="43.86802" lon="5.8989">
        <ele>338.272058</ele>
        <time>2021-09-18T08:19:35.000Z</time>
      </trkpt>
      <trkpt lat="43.86845" lon="5.89937">
        <ele>338.400138</ele>
        <time>2021-09-18T08:19:46.000Z</time>
      </trkpt>
      <trkpt lat="43.86849" lon="5.89941">
        <ele>338.394907</ele>
        <time>2021-09-18T08:19:47.000Z</time>
      </trkpt>
      <trkpt lat="43.86881" lon="5.89975">
        <ele>338.352484</ele>
        <time>2021-09-18T08:19:55.000Z</time>
      </trkpt>
      <trkpt lat="43.86903" lon="5.89998">
        <ele>338.324447</ele>
        <time>2021-09-18T08:20:00.000Z</time>
      </trkpt>
      <trkpt lat="43.86934" lon="5.90028">
        <ele>338.284819</ele>
        <time>2021-09-18T08:20:07.000Z</time>
      </trkpt>
      <trkpt lat="43.86963" lon="5.90047">
        <ele>338.251884</ele>
        <time>2021-09-18T08:20:12.000Z</time>
      </trkpt>
      <trkpt lat="43.87009" lon="5.90075">
        <ele>338.050457</ele>
        <time>2021-09-18T08:20:19.000Z</time>
      </trkpt>
      <trkpt lat="43.87059" lon="5.90103">
        <ele>337.813882</ele>
        <time>2021-09-18T08:20:27.000Z</time>
      </trkpt>
      <trkpt lat="43.87065" lon="5.90107">
        <ele>337.786419</ele>
        <time>2021-09-18T08:20:28.000Z</time>
      </trkpt>
      <trkpt lat="43.87117" lon="5.90136">
        <ele>337.541707</ele>
        <time>2021-09-18T08:20:37.000Z</time>
      </trkpt>
      <trkpt lat="43.87153" lon="5.9016">
        <ele>337.472419</ele>
        <time>2021-09-18T08:20:44.000Z</time>
      </trkpt>
      <trkpt lat="43.87176" lon="5.90178">
        <ele>337.493485</ele>
        <time>2021-09-18T08:20:49.000Z</time>
      </trkpt>
      <trkpt lat="43.87181" lon="5.90182">
        <ele>337.497379</ele>
        <time>2021-09-18T08:20:51.000Z</time>
      </trkpt>
      <trkpt lat="43.87217" lon="5.9021">
        <ele>337.529818</ele>
        <time>2021-09-18T08:20:58.000Z</time>
      </trkpt>
      <trkpt lat="43.87254" lon="5.90244">
        <ele>337.564163</ele>
        <time>2021-09-18T08:21:06.000Z</time>
      </trkpt>
      <trkpt lat="43.87299" lon="5.90288">
        <ele>337.626919</ele>
        <time>2021-09-18T08:21:16.000Z</time>
      </trkpt>
      <trkpt lat="43.87304" lon="5.90293">
        <ele>337.63887</ele>
        <time>2021-09-18T08:21:17.000Z</time>
      </trkpt>
      <trkpt lat="43.87334" lon="5.90325">
        <ele>337.723672</ele>
        <time>2021-09-18T08:21:24.000Z</time>
      </trkpt>
      <trkpt lat="43.87381" lon="5.90376">
        <ele>337.853841</ele>
        <time>2021-09-18T08:21:35.000Z</time>
      </trkpt>
      <trkpt lat="43.87422" lon="5.90426">
        <ele>337.973508</ele>
        <time>2021-09-18T08:21:45.000Z</time>
      </trkpt>
      <trkpt lat="43.87454" lon="5.90474">
        <ele>338.142713</ele>
        <time>2021-09-18T08:21:54.000Z</time>
      </trkpt>
      <trkpt lat="43.87485" lon="5.90524">
        <ele>338.324178</ele>
        <time>2021-09-18T08:22:03.000Z</time>
      </trkpt>
      <trkpt lat="43.87521" lon="5.90583">
        <ele>338.53923</ele>
        <time>2021-09-18T08:22:14.000Z</time>
      </trkpt>
      <trkpt lat="43.87548" lon="5.90625">
        <ele>338.698513</ele>
        <time>2021-09-18T08:22:22.000Z</time>
      </trkpt>
      <trkpt lat="43.87577" lon="5.90672">
        <ele>338.941644</ele>
        <time>2021-09-18T08:22:31.000Z</time>
      </trkpt>
      <trkpt lat="43.8758" lon="5.90677">
        <ele>338.96581</ele>
        <time>2021-09-18T08:22:32.000Z</time>
      </trkpt>
      <trkpt lat="43.87591" lon="5.90694">
        <ele>339.05691</ele>
        <time>2021-09-18T08:22:36.000Z</time>
      </trkpt>
      <trkpt lat="43.87617" lon="5.90736">
        <ele>339.270812</ele>
        <time>2021-09-18T08:22:44.000Z</time>
      </trkpt>
      <trkpt lat="43.87644" lon="5.90778">
        <ele>339.489842</ele>
        <time>2021-09-18T08:22:52.000Z</time>
      </trkpt>
      <trkpt lat="43.87673" lon="5.90824">
        <ele>339.782491</ele>
        <time>2021-09-18T08:23:01.000Z</time>
      </trkpt>
      <trkpt lat="43.8771" lon="5.90882">
        <ele>340.325137</ele>
        <time>2021-09-18T08:23:13.000Z</time>
      </trkpt>
      <trkpt lat="43.87715" lon="5.90891">
        <ele>340.41028</ele>
        <time>2021-09-18T08:23:15.000Z</time>
      </trkpt>
      <trkpt lat="43.8772" lon="5.90898">
        <ele>340.478772</ele>
        <time>2021-09-18T08:23:17.000Z</time>
      </trkpt>
      <trkpt lat="43.8771" lon="5.90923">
        <ele>340.678299</ele>
        <time>2021-09-18T08:23:21.000Z</time>
      </trkpt>
      <trkpt lat="43.87695" lon="5.90951">
        <ele>340.923429</ele>
        <time>2021-09-18T08:23:27.000Z</time>
      </trkpt>
      <trkpt lat="43.87692" lon="5.90956">
        <ele>340.967241</ele>
        <time>2021-09-18T08:23:28.000Z</time>
      </trkpt>
      <trkpt lat="43.87678" lon="5.91001">
        <ele>341.309782</ele>
        <time>2021-09-18T08:23:35.000Z</time>
      </trkpt>
      <trkpt lat="43.87656" lon="5.91057">
        <ele>341.740476</ele>
        <time>2021-09-18T08:23:44.000Z</time>
      </trkpt>
      <trkpt lat="43.87636" lon="5.91107">
        <ele>342.12621</ele>
        <time>2021-09-18T08:23:52.000Z</time>
      </trkpt>
      <trkpt lat="43.8763" lon="5.91125">
        <ele>342.261484</ele>
        <time>2021-09-18T08:23:55.000Z</time>
      </trkpt>
      <trkpt lat="43.87628" lon="5.91144">
        <ele>342.388877</ele>
        <time>2021-09-18T08:23:58.000Z</time>
      </trkpt>
      <trkpt lat="43.87628" lon="5.91158">
        <ele>342.483595</ele>
        <time>2021-09-18T08:24:00.000Z</time>
      </trkpt>
      <trkpt lat="43.87629" lon="5.9117">
        <ele>342.564922</ele>
        <time>2021-09-18T08:24:02.000Z</time>
      </trkpt>
      <trkpt lat="43.8763" lon="5.91207">
        <ele>342.808231</ele>
        <time>2021-09-18T08:24:08.000Z</time>
      </trkpt>
      <trkpt lat="43.8763" lon="5.91219">
        <ele>342.891609</ele>
        <time>2021-09-18T08:24:10.000Z</time>
      </trkpt>
      <trkpt lat="43.8763" lon="5.91237">
        <ele>343.011234</ele>
        <time>2021-09-18T08:24:13.000Z</time>
      </trkpt>
      <trkpt lat="43.87631" lon="5.91255">
        <ele>343.166161</ele>
        <time>2021-09-18T08:24:17.000Z</time>
      </trkpt>
      <trkpt lat="43.87631" lon="5.9129">
        <ele>343.538711</ele>
        <time>2021-09-18T08:24:23.000Z</time>
      </trkpt>
      <trkpt lat="43.87631" lon="5.91311">
        <ele>343.764527</ele>
        <time>2021-09-18T08:24:27.000Z</time>
      </trkpt>
      <trkpt lat="43.8763" lon="5.91337">
        <ele>344.038261</ele>
        <time>2021-09-18T08:24:32.000Z</time>
      </trkpt>
      <trkpt lat="43.8763" lon="5.9134">
        <ele>344.069162</ele>
        <time>2021-09-18T08:24:33.000Z</time>
      </trkpt>
      <trkpt lat="43.87629" lon="5.91365">
        <ele>344.33226</ele>
        <time>2021-09-18T08:24:39.000Z</time>
      </trkpt>
      <trkpt lat="43.87629" lon="5.91382">
        <ele>344.513351</ele>
        <time>2021-09-18T08:24:44.000Z</time>
      </trkpt>
      <trkpt lat="43.87627" lon="5.91411">
        <ele>344.828337</ele>
        <time>2021-09-18T08:24:51.000Z</time>
      </trkpt>
      <trkpt lat="43.87624" lon="5.91426">
        <ele>344.992892</ele>
        <time>2021-09-18T08:24:55.000Z</time>
      </trkpt>
      <trkpt lat="43.87622" lon="5.91438">
        <ele>345.127777</ele>
        <time>2021-09-18T08:24:56.000Z</time>
      </trkpt>
      <trkpt lat="43.87617" lon="5.91471">
        <ele>345.481342</ele>
        <time>2021-09-18T08:25:01.000Z</time>
      </trkpt>
      <trkpt lat="43.87617" lon="5.91478">
        <ele>345.555315</ele>
        <time>2021-09-18T08:25:02.000Z</time>
      </trkpt>
      <trkpt lat="43.87614" lon="5.91512">
        <ele>345.731069</ele>
        <time>2021-09-18T08:25:08.000Z</time>
      </trkpt>
      <trkpt lat="43.87613" lon="5.91542">
        <ele>345.723739</ele>
        <time>2021-09-18T08:25:14.000Z</time>
      </trkpt>
      <trkpt lat="43.87611" lon="5.91565">
        <ele>345.718152</ele>
        <time>2021-09-18T08:25:20.000Z</time>
      </trkpt>
      <trkpt lat="43.87608" lon="5.91586">
        <ele>345.71277</ele>
        <time>2021-09-18T08:25:26.000Z</time>
      </trkpt>
      <trkpt lat="43.87606" lon="5.91601">
        <ele>345.709112</ele>
        <time>2021-09-18T08:25:30.000Z</time>
      </trkpt>
      <trkpt lat="43.87605" lon="5.91611">
        <ele>345.706642</ele>
        <time>2021-09-18T08:25:51.000Z</time>
      </trkpt>
      <trkpt lat="43.87605" lon="5.91617">
        <ele>345.705176</ele>
        <time>2021-09-18T08:25:53.000Z</time>
      </trkpt>
      <trkpt lat="43.87603" lon="5.91635">
        <ele>345.700714</ele>
        <time>2021-09-18T08:25:57.000Z</time>
      </trkpt>
      <trkpt lat="43.87602" lon="5.91643">
        <ele>345.698522</ele>
        <time>2021-09-18T08:25:59.000Z</time>
      </trkpt>
      <trkpt lat="43.876" lon="5.91654">
        <ele>345.69576</ele>
        <time>2021-09-18T08:26:01.000Z</time>
      </trkpt>
      <trkpt lat="43.87599" lon="5.91688">
        <ele>345.687495</ele>
        <time>2021-09-18T08:26:07.000Z</time>
      </trkpt>
      <trkpt lat="43.87599" lon="5.91694">
        <ele>345.685867</ele>
        <time>2021-09-18T08:26:08.000Z</time>
      </trkpt>
      <trkpt lat="43.87608" lon="5.91718">
        <ele>345.679485</ele>
        <time>2021-09-18T08:26:12.000Z</time>
      </trkpt>
      <trkpt lat="43.8761" lon="5.91724">
        <ele>345.677829</ele>
        <time>2021-09-18T08:26:13.000Z</time>
      </trkpt>
      <trkpt lat="43.87613" lon="5.91734">
        <ele>345.675056</ele>
        <time>2021-09-18T08:26:15.000Z</time>
      </trkpt>
      <trkpt lat="43.87616" lon="5.91744">
        <ele>345.677393</ele>
        <time>2021-09-18T08:26:17.000Z</time>
      </trkpt>
      <trkpt lat="43.87619" lon="5.91765">
        <ele>345.687533</ele>
        <time>2021-09-18T08:26:21.000Z</time>
      </trkpt>
      <trkpt lat="43.87619" lon="5.91773">
        <ele>345.691302</ele>
        <time>2021-09-18T08:26:22.000Z</time>
      </trkpt>
      <trkpt lat="43.87613" lon="5.91798">
        <ele>345.70367</ele>
        <time>2021-09-18T08:26:25.000Z</time>
      </trkpt>
      <trkpt lat="43.87598" lon="5.91821">
        <ele>345.718286</ele>
        <time>2021-09-18T08:26:29.000Z</time>
      </trkpt>
      <trkpt lat="43.87592" lon="5.91834">
        <ele>345.725532</ele>
        <time>2021-09-18T08:26:31.000Z</time>
      </trkpt>
      <trkpt lat="43.8759" lon="5.91847">
        <ele>345.732226</ele>
        <time>2021-09-18T08:26:33.000Z</time>
      </trkpt>
      <trkpt lat="43.87589" lon="5.91862">
        <ele>345.739377</ele>
        <time>2021-09-18T08:26:35.000Z</time>
      </trkpt>
      <trkpt lat="43.87588" lon="5.91877">
        <ele>345.74646</ele>
        <time>2021-09-18T08:26:37.000Z</time>
      </trkpt>
      <trkpt lat="43.87588" lon="5.91885">
        <ele>345.750237</ele>
        <time>2021-09-18T08:26:38.000Z</time>
      </trkpt>
      <trkpt lat="43.87587" lon="5.91893">
        <ele>345.753972</ele>
        <time>2021-09-18T08:26:39.000Z</time>
      </trkpt>
      <trkpt lat="43.87585" lon="5.91925">
        <ele>345.769517</ele>
        <time>2021-09-18T08:26:43.000Z</time>
      </trkpt>
      <trkpt lat="43.87586" lon="5.91966">
        <ele>345.788835</ele>
        <time>2021-09-18T08:26:48.000Z</time>
      </trkpt>
      <trkpt lat="43.87587" lon="5.91997">
        <ele>346.027971</ele>
        <time>2021-09-18T08:26:52.000Z</time>
      </trkpt>
      <trkpt lat="43.87588" lon="5.92012">
        <ele>346.181696</ele>
        <time>2021-09-18T08:26:54.000Z</time>
      </trkpt>
      <trkpt lat="43.8759" lon="5.92028">
        <ele>346.348075</ele>
        <time>2021-09-18T08:26:56.000Z</time>
      </trkpt>
      <trkpt lat="43.8759" lon="5.92036">
        <ele>346.437663</ele>
        <time>2021-09-18T08:26:57.000Z</time>
      </trkpt>
      <trkpt lat="43.87595" lon="5.92051">
        <ele>346.604948</ele>
        <time>2021-09-18T08:26:59.000Z</time>
      </trkpt>
      <trkpt lat="43.87597" lon="5.92057">
        <ele>346.683016</ele>
        <time>2021-09-18T08:27:00.000Z</time>
      </trkpt>
      <trkpt lat="43.87621" lon="5.92102">
        <ele>347.254039</ele>
        <time>2021-09-18T08:27:07.000Z</time>
      </trkpt>
      <trkpt lat="43.87627" lon="5.92113">
        <ele>347.400543</ele>
        <time>2021-09-18T08:27:09.000Z</time>
      </trkpt>
      <trkpt lat="43.87631" lon="5.92125">
        <ele>347.542802</ele>
        <time>2021-09-18T08:27:11.000Z</time>
      </trkpt>
      <trkpt lat="43.87629" lon="5.92144">
        <ele>347.741895</ele>
        <time>2021-09-18T08:27:13.000Z</time>
      </trkpt>
      <trkpt lat="43.87625" lon="5.92151">
        <ele>347.834339</ele>
        <time>2021-09-18T08:27:14.000Z</time>
      </trkpt>
      <trkpt lat="43.87616" lon="5.92159">
        <ele>347.988314</ele>
        <time>2021-09-18T08:27:16.000Z</time>
      </trkpt>
      <trkpt lat="43.87602" lon="5.9217">
        <ele>348.221313</ele>
        <time>2021-09-18T08:27:20.000Z</time>
      </trkpt>
      <trkpt lat="43.87592" lon="5.92179">
        <ele>348.39577</ele>
        <time>2021-09-18T08:27:23.000Z</time>
      </trkpt>
      <trkpt lat="43.87585" lon="5.92187">
        <ele>348.520173</ele>
        <time>2021-09-18T08:27:25.000Z</time>
      </trkpt>
      <trkpt lat="43.87579" lon="5.922">
        <ele>348.689807</ele>
        <time>2021-09-18T08:27:28.000Z</time>
      </trkpt>
      <trkpt lat="43.87575" lon="5.92219">
        <ele>348.901711</ele>
        <time>2021-09-18T08:27:32.000Z</time>
      </trkpt>
      <trkpt lat="43.87581" lon="5.92267">
        <ele>349.413524</ele>
        <time>2021-09-18T08:27:37.000Z</time>
      </trkpt>
      <trkpt lat="43.87583" lon="5.9228">
        <ele>349.550487</ele>
        <time>2021-09-18T08:27:39.000Z</time>
      </trkpt>
      <trkpt lat="43.87584" lon="5.92302">
        <ele>349.790636</ele>
        <time>2021-09-18T08:27:44.000Z</time>
      </trkpt>
      <trkpt lat="43.87584" lon="5.92333">
        <ele>350.112754</ele>
        <time>2021-09-18T08:27:48.000Z</time>
      </trkpt>
      <trkpt lat="43.87582" lon="5.92392">
        <ele>350.735001</ele>
        <time>2021-09-18T08:27:56.000Z</time>
      </trkpt>
      <trkpt lat="43.87581" lon="5.92433">
        <ele>351.058899</ele>
        <time>2021-09-18T08:28:02.000Z</time>
      </trkpt>
      <trkpt lat="43.8758" lon="5.9246">
        <ele>351.117473</ele>
        <time>2021-09-18T08:28:06.000Z</time>
      </trkpt>
      <trkpt lat="43.87581" lon="5.92507">
        <ele>351.220533</ele>
        <time>2021-09-18T08:28:12.000Z</time>
      </trkpt>
      <trkpt lat="43.87581" lon="5.92515">
        <ele>351.238001</ele>
        <time>2021-09-18T08:28:13.000Z</time>
      </trkpt>
      <trkpt lat="43.87581" lon="5.92539">
        <ele>351.291504</ele>
        <time>2021-09-18T08:28:16.000Z</time>
      </trkpt>
      <trkpt lat="43.87582" lon="5.92557">
        <ele>351.329155</ele>
        <time>2021-09-18T08:28:18.000Z</time>
      </trkpt>
      <trkpt lat="43.87583" lon="5.92572">
        <ele>351.363347</ele>
        <time>2021-09-18T08:28:20.000Z</time>
      </trkpt>
      <trkpt lat="43.87585" lon="5.92603">
        <ele>351.430891</ele>
        <time>2021-09-18T08:28:24.000Z</time>
      </trkpt>
      <trkpt lat="43.87586" lon="5.92618">
        <ele>351.463127</ele>
        <time>2021-09-18T08:28:26.000Z</time>
      </trkpt>
      <trkpt lat="43.87588" lon="5.92646">
        <ele>351.5245</ele>
        <time>2021-09-18T08:28:31.000Z</time>
      </trkpt>
      <trkpt lat="43.87589" lon="5.92657">
        <ele>351.548802</ele>
        <time>2021-09-18T08:28:33.000Z</time>
      </trkpt>
      <trkpt lat="43.8759" lon="5.92676">
        <ele>351.605335</ele>
        <time>2021-09-18T08:28:36.000Z</time>
      </trkpt>
      <trkpt lat="43.8759" lon="5.92682">
        <ele>351.631807</ele>
        <time>2021-09-18T08:28:37.000Z</time>
      </trkpt>
      <trkpt lat="43.87592" lon="5.92712">
        <ele>351.757735</ele>
        <time>2021-09-18T08:28:41.000Z</time>
      </trkpt>
      <trkpt lat="43.87597" lon="5.92759">
        <ele>351.953703</ele>
        <time>2021-09-18T08:28:47.000Z</time>
      </trkpt>
      <trkpt lat="43.87597" lon="5.92765">
        <ele>351.982637</ele>
        <time>2021-09-18T08:28:48.000Z</time>
      </trkpt>
      <trkpt lat="43.87596" lon="5.92787">
        <ele>352.071147</ele>
        <time>2021-09-18T08:28:51.000Z</time>
      </trkpt>
      <trkpt lat="43.87595" lon="5.9283">
        <ele>352.251228</ele>
        <time>2021-09-18T08:28:57.000Z</time>
      </trkpt>
      <trkpt lat="43.87598" lon="5.92844">
        <ele>352.314448</ele>
        <time>2021-09-18T08:28:59.000Z</time>
      </trkpt>
      <trkpt lat="43.876" lon="5.92858">
        <ele>352.375665</ele>
        <time>2021-09-18T08:29:01.000Z</time>
      </trkpt>
      <trkpt lat="43.8761" lon="5.92895">
        <ele>352.539876</ele>
        <time>2021-09-18T08:29:07.000Z</time>
      </trkpt>
      <trkpt lat="43.87614" lon="5.92928">
        <ele>352.623192</ele>
        <time>2021-09-18T08:29:12.000Z</time>
      </trkpt>
      <trkpt lat="43.87615" lon="5.92962">
        <ele>352.633343</ele>
        <time>2021-09-18T08:29:17.000Z</time>
      </trkpt>
      <trkpt lat="43.87615" lon="5.92988">
        <ele>352.641097</ele>
        <time>2021-09-18T08:29:21.000Z</time>
      </trkpt>
      <trkpt lat="43.87615" lon="5.93">
        <ele>352.644619</ele>
        <time>2021-09-18T08:29:23.000Z</time>
      </trkpt>
      <trkpt lat="43.87615" lon="5.93034">
        <ele>352.654623</ele>
        <time>2021-09-18T08:29:28.000Z</time>
      </trkpt>
      <trkpt lat="43.87616" lon="5.93059">
        <ele>352.66191</ele>
        <time>2021-09-18T08:29:31.000Z</time>
      </trkpt>
      <trkpt lat="43.87617" lon="5.93076">
        <ele>352.667028</ele>
        <time>2021-09-18T08:29:33.000Z</time>
      </trkpt>
      <trkpt lat="43.8762" lon="5.93115">
        <ele>352.678698</ele>
        <time>2021-09-18T08:29:38.000Z</time>
      </trkpt>
      <trkpt lat="43.87624" lon="5.93157">
        <ele>352.69123</ele>
        <time>2021-09-18T08:29:43.000Z</time>
      </trkpt>
      <trkpt lat="43.87624" lon="5.93165">
        <ele>352.696942</ele>
        <time>2021-09-18T08:29:44.000Z</time>
      </trkpt>
      <trkpt lat="43.87625" lon="5.9318">
        <ele>352.719656</ele>
        <time>2021-09-18T08:29:46.000Z</time>
      </trkpt>
      <trkpt lat="43.87626" lon="5.93195">
        <ele>352.74252</ele>
        <time>2021-09-18T08:29:48.000Z</time>
      </trkpt>
      <trkpt lat="43.87628" lon="5.93243">
        <ele>352.814442</ele>
        <time>2021-09-18T08:29:54.000Z</time>
      </trkpt>
      <trkpt lat="43.8763" lon="5.93265">
        <ele>352.848028</ele>
        <time>2021-09-18T08:29:57.000Z</time>
      </trkpt>
      <trkpt lat="43.87631" lon="5.93281">
        <ele>352.871918</ele>
        <time>2021-09-18T08:29:59.000Z</time>
      </trkpt>
      <trkpt lat="43.87633" lon="5.93295">
        <ele>352.893808</ele>
        <time>2021-09-18T08:30:01.000Z</time>
      </trkpt>
      <trkpt lat="43.87635" lon="5.93316">
        <ele>352.926219</ele>
        <time>2021-09-18T08:30:04.000Z</time>
      </trkpt>
      <trkpt lat="43.87636" lon="5.9333">
        <ele>352.94706</ele>
        <time>2021-09-18T08:30:06.000Z</time>
      </trkpt>
      <trkpt lat="43.87637" lon="5.93344">
        <ele>352.968976</ele>
        <time>2021-09-18T08:30:08.000Z</time>
      </trkpt>
      <trkpt lat="43.8764" lon="5.93375">
        <ele>353.01598</ele>
        <time>2021-09-18T08:30:12.000Z</time>
      </trkpt>
      <trkpt lat="43.87641" lon="5.9339">
        <ele>353.038699</ele>
        <time>2021-09-18T08:30:14.000Z</time>
      </trkpt>
      <trkpt lat="43.87643" lon="5.93404">
        <ele>353.060193</ele>
        <time>2021-09-18T08:30:16.000Z</time>
      </trkpt>
      <trkpt lat="43.87644" lon="5.93419">
        <ele>353.102518</ele>
        <time>2021-09-18T08:30:18.000Z</time>
      </trkpt>
      <trkpt lat="43.87646" lon="5.93434">
        <ele>353.165393</ele>
        <time>2021-09-18T08:30:20.000Z</time>
      </trkpt>
      <trkpt lat="43.87649" lon="5.93465">
        <ele>353.289548</ele>
        <time>2021-09-18T08:30:24.000Z</time>
      </trkpt>
      <trkpt lat="43.87651" lon="5.93494">
        <ele>353.408102</ele>
        <time>2021-09-18T08:30:28.000Z</time>
      </trkpt>
      <trkpt lat="43.87651" lon="5.93507">
        <ele>353.462388</ele>
        <time>2021-09-18T08:30:30.000Z</time>
      </trkpt>
      <trkpt lat="43.87652" lon="5.93548">
        <ele>353.626077</ele>
        <time>2021-09-18T08:30:36.000Z</time>
      </trkpt>
      <trkpt lat="43.87653" lon="5.93555">
        <ele>353.652897</ele>
        <time>2021-09-18T08:30:37.000Z</time>
      </trkpt>
      <trkpt lat="43.87656" lon="5.93581">
        <ele>353.758242</ele>
        <time>2021-09-18T08:30:41.000Z</time>
      </trkpt>
      <trkpt lat="43.87657" lon="5.93587">
        <ele>353.785546</ele>
        <time>2021-09-18T08:30:42.000Z</time>
      </trkpt>
      <trkpt lat="43.87659" lon="5.93608">
        <ele>353.868437</ele>
        <time>2021-09-18T08:30:45.000Z</time>
      </trkpt>
      <trkpt lat="43.87666" lon="5.93657">
        <ele>354.069446</ele>
        <time>2021-09-18T08:30:52.000Z</time>
      </trkpt>
      <trkpt lat="43.87668" lon="5.9367">
        <ele>354.277842</ele>
        <time>2021-09-18T08:30:54.000Z</time>
      </trkpt>
      <trkpt lat="43.8767" lon="5.93684">
        <ele>354.509204</ele>
        <time>2021-09-18T08:30:56.000Z</time>
      </trkpt>
      <trkpt lat="43.87671" lon="5.9369">
        <ele>354.609922</ele>
        <time>2021-09-18T08:30:57.000Z</time>
      </trkpt>
      <trkpt lat="43.87675" lon="5.93728">
        <ele>355.224134</ele>
        <time>2021-09-18T08:31:02.000Z</time>
      </trkpt>
      <trkpt lat="43.87676" lon="5.93754">
        <ele>355.629305</ele>
        <time>2021-09-18T08:31:05.000Z</time>
      </trkpt>
      <trkpt lat="43.87676" lon="5.93769">
        <ele>355.880397</ele>
        <time>2021-09-18T08:31:07.000Z</time>
      </trkpt>
      <trkpt lat="43.87676" lon="5.93778">
        <ele>356.01639</ele>
        <time>2021-09-18T08:31:08.000Z</time>
      </trkpt>
      <trkpt lat="43.87676" lon="5.93803">
        <ele>356.421051</ele>
        <time>2021-09-18T08:31:11.000Z</time>
      </trkpt>
      <trkpt lat="43.87675" lon="5.93819">
        <ele>356.678586</ele>
        <time>2021-09-18T08:31:13.000Z</time>
      </trkpt>
      <trkpt lat="43.87675" lon="5.93849">
        <ele>357.152096</ele>
        <time>2021-09-18T08:31:17.000Z</time>
      </trkpt>
      <trkpt lat="43.87676" lon="5.93878">
        <ele>357.622645</ele>
        <time>2021-09-18T08:31:22.000Z</time>
      </trkpt>
      <trkpt lat="43.87676" lon="5.9389">
        <ele>357.818348</ele>
        <time>2021-09-18T08:31:24.000Z</time>
      </trkpt>
      <trkpt lat="43.87678" lon="5.93911">
        <ele>358.12818</ele>
        <time>2021-09-18T08:31:27.000Z</time>
      </trkpt>
      <trkpt lat="43.87679" lon="5.93924">
        <ele>358.281992</ele>
        <time>2021-09-18T08:31:29.000Z</time>
      </trkpt>
      <trkpt lat="43.87682" lon="5.93947">
        <ele>358.546644</ele>
        <time>2021-09-18T08:31:32.000Z</time>
      </trkpt>
      <trkpt lat="43.87691" lon="5.93973">
        <ele>358.881371</ele>
        <time>2021-09-18T08:31:35.000Z</time>
      </trkpt>
      <trkpt lat="43.87698" lon="5.93984">
        <ele>359.04972</ele>
        <time>2021-09-18T08:31:37.000Z</time>
      </trkpt>
      <trkpt lat="43.8771" lon="5.94004">
        <ele>359.353355</ele>
        <time>2021-09-18T08:31:41.000Z</time>
      </trkpt>
      <trkpt lat="43.87718" lon="5.94016">
        <ele>359.542914</ele>
        <time>2021-09-18T08:31:43.000Z</time>
      </trkpt>
      <trkpt lat="43.87728" lon="5.94031">
        <ele>359.780502</ele>
        <time>2021-09-18T08:31:46.000Z</time>
      </trkpt>
      <trkpt lat="43.87738" lon="5.94051">
        <ele>360.062572</ele>
        <time>2021-09-18T08:31:49.000Z</time>
      </trkpt>
      <trkpt lat="43.8774" lon="5.94059">
        <ele>360.161426</ele>
        <time>2021-09-18T08:31:50.000Z</time>
      </trkpt>
      <trkpt lat="43.87742" lon="5.94079">
        <ele>360.394149</ele>
        <time>2021-09-18T08:31:52.000Z</time>
      </trkpt>
      <trkpt lat="43.8774" lon="5.94087">
        <ele>360.489619</ele>
        <time>2021-09-18T08:31:53.000Z</time>
      </trkpt>
      <trkpt lat="43.87737" lon="5.94097">
        <ele>360.612072</ele>
        <time>2021-09-18T08:31:54.000Z</time>
      </trkpt>
      <trkpt lat="43.87727" lon="5.94119">
        <ele>360.916406</ele>
        <time>2021-09-18T08:31:57.000Z</time>
      </trkpt>
      <trkpt lat="43.87723" lon="5.94132">
        <ele>361.072023</ele>
        <time>2021-09-18T08:31:59.000Z</time>
      </trkpt>
      <trkpt lat="43.87722" lon="5.94139">
        <ele>361.15053</ele>
        <time>2021-09-18T08:32:00.000Z</time>
      </trkpt>
      <trkpt lat="43.87722" lon="5.94147">
        <ele>361.235205</ele>
        <time>2021-09-18T08:32:01.000Z</time>
      </trkpt>
      <trkpt lat="43.87726" lon="5.94161">
        <ele>361.400123</ele>
        <time>2021-09-18T08:32:03.000Z</time>
      </trkpt>
      <trkpt lat="43.87731" lon="5.94173">
        <ele>361.552396</ele>
        <time>2021-09-18T08:32:05.000Z</time>
      </trkpt>
      <trkpt lat="43.87739" lon="5.9419">
        <ele>361.771169</ele>
        <time>2021-09-18T08:32:08.000Z</time>
      </trkpt>
      <trkpt lat="43.87741" lon="5.94195">
        <ele>361.843205</ele>
        <time>2021-09-18T08:32:09.000Z</time>
      </trkpt>
      <trkpt lat="43.87749" lon="5.94213">
        <ele>362.068452</ele>
        <time>2021-09-18T08:32:12.000Z</time>
      </trkpt>
      <trkpt lat="43.87752" lon="5.94227">
        <ele>362.22558</ele>
        <time>2021-09-18T08:32:14.000Z</time>
      </trkpt>
      <trkpt lat="43.87754" lon="5.94233">
        <ele>362.29462</ele>
        <time>2021-09-18T08:32:15.000Z</time>
      </trkpt>
      <trkpt lat="43.87758" lon="5.94258">
        <ele>362.575765</ele>
        <time>2021-09-18T08:32:18.000Z</time>
      </trkpt>
      <trkpt lat="43.8776" lon="5.94273">
        <ele>362.742566</ele>
        <time>2021-09-18T08:32:20.000Z</time>
      </trkpt>
      <trkpt lat="43.8776" lon="5.94277">
        <ele>362.78571</ele>
        <time>2021-09-18T08:32:21.000Z</time>
      </trkpt>
      <trkpt lat="43.87761" lon="5.94281">
        <ele>362.832604</ele>
        <time>2021-09-18T08:32:22.000Z</time>
      </trkpt>
      <trkpt lat="43.87762" lon="5.94287">
        <ele>362.901335</ele>
        <time>2021-09-18T08:32:23.000Z</time>
      </trkpt>
      <trkpt lat="43.87765" lon="5.94315">
        <ele>363.213654</ele>
        <time>2021-09-18T08:32:27.000Z</time>
      </trkpt>
      <trkpt lat="43.87767" lon="5.94326">
        <ele>363.337071</ele>
        <time>2021-09-18T08:32:29.000Z</time>
      </trkpt>
      <trkpt lat="43.87767" lon="5.94339">
        <ele>363.477662</ele>
        <time>2021-09-18T08:32:31.000Z</time>
      </trkpt>
      <trkpt lat="43.87768" lon="5.94352">
        <ele>363.623525</ele>
        <time>2021-09-18T08:32:33.000Z</time>
      </trkpt>
      <trkpt lat="43.87769" lon="5.94372">
        <ele>364.05096</ele>
        <time>2021-09-18T08:32:35.000Z</time>
      </trkpt>
      <trkpt lat="43.87772" lon="5.94393">
        <ele>364.617539</ele>
        <time>2021-09-18T08:32:37.000Z</time>
      </trkpt>
      <trkpt lat="43.87775" lon="5.9441">
        <ele>365.058188</ele>
        <time>2021-09-18T08:32:39.000Z</time>
      </trkpt>
      <trkpt lat="43.87777" lon="5.94416">
        <ele>365.218842</ele>
        <time>2021-09-18T08:32:40.000Z</time>
      </trkpt>
      <trkpt lat="43.87781" lon="5.94433">
        <ele>365.695568</ele>
        <time>2021-09-18T08:32:43.000Z</time>
      </trkpt>
      <trkpt lat="43.87785" lon="5.94452">
        <ele>366.179985</ele>
        <time>2021-09-18T08:32:46.000Z</time>
      </trkpt>
      <trkpt lat="43.87787" lon="5.94465">
        <ele>366.534038</ele>
        <time>2021-09-18T08:32:48.000Z</time>
      </trkpt>
      <trkpt lat="43.87789" lon="5.94497">
        <ele>367.366556</ele>
        <time>2021-09-18T08:32:52.000Z</time>
      </trkpt>
      <trkpt lat="43.87789" lon="5.94511">
        <ele>367.726409</ele>
        <time>2021-09-18T08:32:54.000Z</time>
      </trkpt>
      <trkpt lat="43.87791" lon="5.94545">
        <ele>368.602434</ele>
        <time>2021-09-18T08:32:57.000Z</time>
      </trkpt>
      <trkpt lat="43.87792" lon="5.94561">
        <ele>369.011136</ele>
        <time>2021-09-18T08:32:59.000Z</time>
      </trkpt>
      <trkpt lat="43.87793" lon="5.94584">
        <ele>369.604761</ele>
        <time>2021-09-18T08:33:02.000Z</time>
      </trkpt>
      <trkpt lat="43.87794" lon="5.94593">
        <ele>369.814916</ele>
        <time>2021-09-18T08:33:03.000Z</time>
      </trkpt>
      <trkpt lat="43.87794" lon="5.946">
        <ele>370.002295</ele>
        <time>2021-09-18T08:33:04.000Z</time>
      </trkpt>
      <trkpt lat="43.87804" lon="5.94627">
        <ele>370.828438</ele>
        <time>2021-09-18T08:33:08.000Z</time>
      </trkpt>
      <trkpt lat="43.87806" lon="5.94633">
        <ele>370.998444</ele>
        <time>2021-09-18T08:33:09.000Z</time>
      </trkpt>
      <trkpt lat="43.87813" lon="5.94654">
        <ele>371.635359</ele>
        <time>2021-09-18T08:33:13.000Z</time>
      </trkpt>
      <trkpt lat="43.87817" lon="5.94682">
        <ele>372.44136</ele>
        <time>2021-09-18T08:33:18.000Z</time>
      </trkpt>
      <trkpt lat="43.87817" lon="5.94707">
        <ele>373.139573</ele>
        <time>2021-09-18T08:33:23.000Z</time>
      </trkpt>
      <trkpt lat="43.87817" lon="5.94725">
        <ele>373.614247</ele>
        <time>2021-09-18T08:33:26.000Z</time>
      </trkpt>
      <trkpt lat="43.87819" lon="5.94741">
        <ele>374.070472</ele>
        <time>2021-09-18T08:33:29.000Z</time>
      </trkpt>
      <trkpt lat="43.87829" lon="5.94787">
        <ele>375.392257</ele>
        <time>2021-09-18T08:33:35.000Z</time>
      </trkpt>
      <trkpt lat="43.87832" lon="5.948">
        <ele>375.790843</ele>
        <time>2021-09-18T08:33:37.000Z</time>
      </trkpt>
      <trkpt lat="43.8784" lon="5.94816">
        <ele>376.313157</ele>
        <time>2021-09-18T08:33:40.000Z</time>
      </trkpt>
      <trkpt lat="43.87854" lon="5.94841">
        <ele>376.98283</ele>
        <time>2021-09-18T08:33:45.000Z</time>
      </trkpt>
      <trkpt lat="43.87856" lon="5.94847">
        <ele>377.001649</ele>
        <time>2021-09-18T08:33:46.000Z</time>
      </trkpt>
      <trkpt lat="43.87859" lon="5.94853">
        <ele>377.020468</ele>
        <time>2021-09-18T08:33:47.000Z</time>
      </trkpt>
      <trkpt lat="43.87863" lon="5.94876">
        <ele>377.08526</ele>
        <time>2021-09-18T08:33:50.000Z</time>
      </trkpt>
      <trkpt lat="43.87863" lon="5.94884">
        <ele>377.106792</ele>
        <time>2021-09-18T08:33:51.000Z</time>
      </trkpt>
      <trkpt lat="43.8786" lon="5.94936">
        <ele>377.251769</ele>
        <time>2021-09-18T08:33:57.000Z</time>
      </trkpt>
      <trkpt lat="43.8786" lon="5.94943">
        <ele>377.271051</ele>
        <time>2021-09-18T08:33:58.000Z</time>
      </trkpt>
      <trkpt lat="43.87863" lon="5.94975">
        <ele>377.358151</ele>
        <time>2021-09-18T08:34:02.000Z</time>
      </trkpt>
      <trkpt lat="43.87864" lon="5.94983">
        <ele>377.382313</ele>
        <time>2021-09-18T08:34:03.000Z</time>
      </trkpt>
      <trkpt lat="43.87871" lon="5.95008">
        <ele>377.455667</ele>
        <time>2021-09-18T08:34:06.000Z</time>
      </trkpt>
      <trkpt lat="43.87877" lon="5.95021">
        <ele>377.499399</ele>
        <time>2021-09-18T08:34:08.000Z</time>
      </trkpt>
      <trkpt lat="43.87886" lon="5.95034">
        <ele>377.547458</ele>
        <time>2021-09-18T08:34:10.000Z</time>
      </trkpt>
      <trkpt lat="43.87908" lon="5.95066">
        <ele>377.566684</ele>
        <time>2021-09-18T08:34:15.000Z</time>
      </trkpt>
      <trkpt lat="43.87912" lon="5.95073">
        <ele>377.478306</ele>
        <time>2021-09-18T08:34:16.000Z</time>
      </trkpt>
      <trkpt lat="43.87934" lon="5.95128">
        <ele>376.821415</ele>
        <time>2021-09-18T08:34:23.000Z</time>
      </trkpt>
      <trkpt lat="43.87937" lon="5.95146">
        <ele>376.626371</ele>
        <time>2021-09-18T08:34:25.000Z</time>
      </trkpt>
      <trkpt lat="43.87935" lon="5.95166">
        <ele>376.422105</ele>
        <time>2021-09-18T08:34:27.000Z</time>
      </trkpt>
      <trkpt lat="43.87934" lon="5.95175">
        <ele>376.33111</ele>
        <time>2021-09-18T08:34:28.000Z</time>
      </trkpt>
      <trkpt lat="43.87932" lon="5.95191">
        <ele>376.157522</ele>
        <time>2021-09-18T08:34:30.000Z</time>
      </trkpt>
      <trkpt lat="43.8793" lon="5.95199">
        <ele>376.075218</ele>
        <time>2021-09-18T08:34:31.000Z</time>
      </trkpt>
      <trkpt lat="43.87929" lon="5.95206">
        <ele>375.997988</ele>
        <time>2021-09-18T08:34:32.000Z</time>
      </trkpt>
      <trkpt lat="43.87928" lon="5.95218">
        <ele>375.872631</ele>
        <time>2021-09-18T08:34:34.000Z</time>
      </trkpt>
      <trkpt lat="43.87928" lon="5.95226">
        <ele>375.787716</ele>
        <time>2021-09-18T08:34:35.000Z</time>
      </trkpt>
      <trkpt lat="43.8793" lon="5.95243">
        <ele>375.606042</ele>
        <time>2021-09-18T08:34:37.000Z</time>
      </trkpt>
      <trkpt lat="43.87935" lon="5.95259">
        <ele>375.431188</ele>
        <time>2021-09-18T08:34:39.000Z</time>
      </trkpt>
      <trkpt lat="43.87948" lon="5.95278">
        <ele>375.162631</ele>
        <time>2021-09-18T08:34:42.000Z</time>
      </trkpt>
      <trkpt lat="43.87953" lon="5.95282">
        <ele>375.074668</ele>
        <time>2021-09-18T08:34:43.000Z</time>
      </trkpt>
      <trkpt lat="43.87987" lon="5.95314">
        <ele>374.724342</ele>
        <time>2021-09-18T08:34:50.000Z</time>
      </trkpt>
      <trkpt lat="43.88016" lon="5.95359">
        <ele>374.355994</ele>
        <time>2021-09-18T08:34:58.000Z</time>
      </trkpt>
      <trkpt lat="43.88023" lon="5.95371">
        <ele>374.263233</ele>
        <time>2021-09-18T08:35:00.000Z</time>
      </trkpt>
      <trkpt lat="43.88027" lon="5.95385">
        <ele>374.169639</ele>
        <time>2021-09-18T08:35:02.000Z</time>
      </trkpt>
      <trkpt lat="43.88027" lon="5.95392">
        <ele>374.130489</ele>
        <time>2021-09-18T08:35:03.000Z</time>
      </trkpt>
      <trkpt lat="43.88031" lon="5.9543">
        <ele>373.896004</ele>
        <time>2021-09-18T08:35:09.000Z</time>
      </trkpt>
      <trkpt lat="43.8803" lon="5.95474">
        <ele>373.628381</ele>
        <time>2021-09-18T08:35:16.000Z</time>
      </trkpt>
      <trkpt lat="43.8803" lon="5.95492">
        <ele>373.552908</ele>
        <time>2021-09-18T08:35:19.000Z</time>
      </trkpt>
      <trkpt lat="43.8803" lon="5.95503">
        <ele>373.570274</ele>
        <time>2021-09-18T08:35:21.000Z</time>
      </trkpt>
      <trkpt lat="43.88031" lon="5.95515">
        <ele>373.588526</ele>
        <time>2021-09-18T08:35:23.000Z</time>
      </trkpt>
      <trkpt lat="43.88038" lon="5.95539">
        <ele>373.629806</ele>
        <time>2021-09-18T08:35:28.000Z</time>
      </trkpt>
      <trkpt lat="43.88047" lon="5.95571">
        <ele>373.684573</ele>
        <time>2021-09-18T08:35:35.000Z</time>
      </trkpt>
      <trkpt lat="43.88055" lon="5.95609">
        <ele>373.746173</ele>
        <time>2021-09-18T08:35:42.000Z</time>
      </trkpt>
      <trkpt lat="43.88053" lon="5.95643">
        <ele>373.800542</ele>
        <time>2021-09-18T08:35:48.000Z</time>
      </trkpt>
      <trkpt lat="43.88052" lon="5.95649">
        <ele>373.809677</ele>
        <time>2021-09-18T08:35:49.000Z</time>
      </trkpt>
      <trkpt lat="43.88048" lon="5.95665">
        <ele>373.837533</ele>
        <time>2021-09-18T08:35:52.000Z</time>
      </trkpt>
      <trkpt lat="43.88044" lon="5.95676">
        <ele>373.85718</ele>
        <time>2021-09-18T08:35:54.000Z</time>
      </trkpt>
      <trkpt lat="43.88036" lon="5.95695">
        <ele>373.891909</ele>
        <time>2021-09-18T08:35:58.000Z</time>
      </trkpt>
      <trkpt lat="43.88033" lon="5.957">
        <ele>373.901042</ele>
        <time>2021-09-18T08:35:59.000Z</time>
      </trkpt>
      <trkpt lat="43.88028" lon="5.95713">
        <ele>373.924561</ele>
        <time>2021-09-18T08:36:01.000Z</time>
      </trkpt>
      <trkpt lat="43.88022" lon="5.95731">
        <ele>373.966141</ele>
        <time>2021-09-18T08:36:04.000Z</time>
      </trkpt>
      <trkpt lat="43.8802" lon="5.95758">
        <ele>374.036914</ele>
        <time>2021-09-18T08:36:07.000Z</time>
      </trkpt>
      <trkpt lat="43.88021" lon="5.95765">
        <ele>374.056348</ele>
        <time>2021-09-18T08:36:08.000Z</time>
      </trkpt>
      <trkpt lat="43.88026" lon="5.95793">
        <ele>374.132304</ele>
        <time>2021-09-18T08:36:12.000Z</time>
      </trkpt>
      <trkpt lat="43.8803" lon="5.95805">
        <ele>374.167353</ele>
        <time>2021-09-18T08:36:14.000Z</time>
      </trkpt>
      <trkpt lat="43.88037" lon="5.95816">
        <ele>374.205492</ele>
        <time>2021-09-18T08:36:16.000Z</time>
      </trkpt>
      <trkpt lat="43.88051" lon="5.95824">
        <ele>374.260332</ele>
        <time>2021-09-18T08:36:19.000Z</time>
      </trkpt>
      <trkpt lat="43.88061" lon="5.95827">
        <ele>374.295274</ele>
        <time>2021-09-18T08:36:21.000Z</time>
      </trkpt>
      <trkpt lat="43.88071" lon="5.95831">
        <ele>374.333315</ele>
        <time>2021-09-18T08:36:23.000Z</time>
      </trkpt>
      <trkpt lat="43.88081" lon="5.95838">
        <ele>374.374518</ele>
        <time>2021-09-18T08:36:25.000Z</time>
      </trkpt>
      <trkpt lat="43.88086" lon="5.95843">
        <ele>374.39584</ele>
        <time>2021-09-18T08:36:26.000Z</time>
      </trkpt>
      <trkpt lat="43.88115" lon="5.9587">
        <ele>374.52288</ele>
        <time>2021-09-18T08:36:32.000Z</time>
      </trkpt>
      <trkpt lat="43.88152" lon="5.95904">
        <ele>374.512494</ele>
        <time>2021-09-18T08:36:39.000Z</time>
      </trkpt>
      <trkpt lat="43.88183" lon="5.95937">
        <ele>374.39267</ele>
        <time>2021-09-18T08:36:45.000Z</time>
      </trkpt>
      <trkpt lat="43.88187" lon="5.95944">
        <ele>374.372034</ele>
        <time>2021-09-18T08:36:46.000Z</time>
      </trkpt>
      <trkpt lat="43.88191" lon="5.95952">
        <ele>374.350707</ele>
        <time>2021-09-18T08:36:47.000Z</time>
      </trkpt>
      <trkpt lat="43.88198" lon="5.95968">
        <ele>374.307211</ele>
        <time>2021-09-18T08:36:49.000Z</time>
      </trkpt>
      <trkpt lat="43.88201" lon="5.95977">
        <ele>374.285188</ele>
        <time>2021-09-18T08:36:50.000Z</time>
      </trkpt>
      <trkpt lat="43.8821" lon="5.96034">
        <ele>374.15363</ele>
        <time>2021-09-18T08:36:56.000Z</time>
      </trkpt>
      <trkpt lat="43.88219" lon="5.96094">
        <ele>374.035006</ele>
        <time>2021-09-18T08:37:03.000Z</time>
      </trkpt>
      <trkpt lat="43.88227" lon="5.96162">
        <ele>374.068137</ele>
        <time>2021-09-18T08:37:12.000Z</time>
      </trkpt>
      <trkpt lat="43.88231" lon="5.96211">
        <ele>374.092082</ele>
        <time>2021-09-18T08:37:19.000Z</time>
      </trkpt>
      <trkpt lat="43.88235" lon="5.96249">
        <ele>374.111105</ele>
        <time>2021-09-18T08:37:25.000Z</time>
      </trkpt>
      <trkpt lat="43.88236" lon="5.96258">
        <ele>374.115122</ele>
        <time>2021-09-18T08:37:26.000Z</time>
      </trkpt>
      <trkpt lat="43.88237" lon="5.96314">
        <ele>374.142425</ele>
        <time>2021-09-18T08:37:32.000Z</time>
      </trkpt>
      <trkpt lat="43.88239" lon="5.96371">
        <ele>374.22675</ele>
        <time>2021-09-18T08:37:38.000Z</time>
      </trkpt>
      <trkpt lat="43.88239" lon="5.96388">
        <ele>374.262846</ele>
        <time>2021-09-18T08:37:40.000Z</time>
      </trkpt>
      <trkpt lat="43.8824" lon="5.96402">
        <ele>374.29249</ele>
        <time>2021-09-18T08:37:42.000Z</time>
      </trkpt>
      <trkpt lat="43.88243" lon="5.9644">
        <ele>374.372462</ele>
        <time>2021-09-18T08:37:46.000Z</time>
      </trkpt>
      <trkpt lat="43.88245" lon="5.96448">
        <ele>374.390306</ele>
        <time>2021-09-18T08:37:47.000Z</time>
      </trkpt>
      <trkpt lat="43.88252" lon="5.96471">
        <ele>374.441303</ele>
        <time>2021-09-18T08:37:50.000Z</time>
      </trkpt>
      <trkpt lat="43.8826" lon="5.96485">
        <ele>374.477489</ele>
        <time>2021-09-18T08:37:52.000Z</time>
      </trkpt>
      <trkpt lat="43.88264" lon="5.96491">
        <ele>374.494914</ele>
        <time>2021-09-18T08:37:53.000Z</time>
      </trkpt>
      <trkpt lat="43.88271" lon="5.96504">
        <ele>374.528899</ele>
        <time>2021-09-18T08:37:55.000Z</time>
      </trkpt>
      <trkpt lat="43.88273" lon="5.96512">
        <ele>374.54627</ele>
        <time>2021-09-18T08:37:56.000Z</time>
      </trkpt>
      <trkpt lat="43.88278" lon="5.96529">
        <ele>374.584306</ele>
        <time>2021-09-18T08:37:58.000Z</time>
      </trkpt>
      <trkpt lat="43.8828" lon="5.96545">
        <ele>374.619685</ele>
        <time>2021-09-18T08:38:00.000Z</time>
      </trkpt>
      <trkpt lat="43.8828" lon="5.96565">
        <ele>374.660328</ele>
        <time>2021-09-18T08:38:02.000Z</time>
      </trkpt>
      <trkpt lat="43.88276" lon="5.96592">
        <ele>374.798479</ele>
        <time>2021-09-18T08:38:05.000Z</time>
      </trkpt>
      <trkpt lat="43.88274" lon="5.966">
        <ele>374.845448</ele>
        <time>2021-09-18T08:38:06.000Z</time>
      </trkpt>
      <trkpt lat="43.88271" lon="5.96615">
        <ele>374.934532</ele>
        <time>2021-09-18T08:38:08.000Z</time>
      </trkpt>
      <trkpt lat="43.88269" lon="5.96622">
        <ele>374.979621</ele>
        <time>2021-09-18T08:38:09.000Z</time>
      </trkpt>
      <trkpt lat="43.88266" lon="5.96638">
        <ele>375.073636</ele>
        <time>2021-09-18T08:38:11.000Z</time>
      </trkpt>
      <trkpt lat="43.88264" lon="5.96672">
        <ele>375.266414</ele>
        <time>2021-09-18T08:38:15.000Z</time>
      </trkpt>
      <trkpt lat="43.88265" lon="5.96687">
        <ele>375.356306</ele>
        <time>2021-09-18T08:38:17.000Z</time>
      </trkpt>
      <trkpt lat="43.88272" lon="5.96714">
        <ele>375.519004</ele>
        <time>2021-09-18T08:38:21.000Z</time>
      </trkpt>
      <trkpt lat="43.88285" lon="5.9675">
        <ele>375.752331</ele>
        <time>2021-09-18T08:38:27.000Z</time>
      </trkpt>
      <trkpt lat="43.8829" lon="5.96761">
        <ele>375.825484</ele>
        <time>2021-09-18T08:38:29.000Z</time>
      </trkpt>
      <trkpt lat="43.88294" lon="5.96771">
        <ele>375.891073</ele>
        <time>2021-09-18T08:38:31.000Z</time>
      </trkpt>
      <trkpt lat="43.88295" lon="5.96776">
        <ele>375.919703</ele>
        <time>2021-09-18T08:38:32.000Z</time>
      </trkpt>
      <trkpt lat="43.88306" lon="5.96802">
        <ele>376.092125</ele>
        <time>2021-09-18T08:38:36.000Z</time>
      </trkpt>
      <trkpt lat="43.88321" lon="5.96843">
        <ele>376.449813</ele>
        <time>2021-09-18T08:38:42.000Z</time>
      </trkpt>
      <trkpt lat="43.88325" lon="5.96857">
        <ele>376.567071</ele>
        <time>2021-09-18T08:38:44.000Z</time>
      </trkpt>
      <trkpt lat="43.88328" lon="5.96871">
        <ele>376.681159</ele>
        <time>2021-09-18T08:38:46.000Z</time>
      </trkpt>
      <trkpt lat="43.88328" lon="5.96879">
        <ele>376.747825</ele>
        <time>2021-09-18T08:38:47.000Z</time>
      </trkpt>
      <trkpt lat="43.88328" lon="5.96887">
        <ele>376.806616</ele>
        <time>2021-09-18T08:38:48.000Z</time>
      </trkpt>
      <trkpt lat="43.88326" lon="5.96917">
        <ele>377.045552</ele>
        <time>2021-09-18T08:38:52.000Z</time>
      </trkpt>
      <trkpt lat="43.88326" lon="5.96924">
        <ele>377.099815</ele>
        <time>2021-09-18T08:38:53.000Z</time>
      </trkpt>
      <trkpt lat="43.88325" lon="5.96938">
        <ele>377.210685</ele>
        <time>2021-09-18T08:38:56.000Z</time>
      </trkpt>
      <trkpt lat="43.88321" lon="5.9696">
        <ele>377.382434</ele>
        <time>2021-09-18T08:39:00.000Z</time>
      </trkpt>
      <trkpt lat="43.88321" lon="5.96963">
        <ele>377.413466</ele>
        <time>2021-09-18T08:39:01.000Z</time>
      </trkpt>
      <trkpt lat="43.88318" lon="5.96974">
        <ele>377.497677</ele>
        <time>2021-09-18T08:39:03.000Z</time>
      </trkpt>
      <trkpt lat="43.88313" lon="5.96999">
        <ele>377.700141</ele>
        <time>2021-09-18T08:39:06.000Z</time>
      </trkpt>
      <trkpt lat="43.88308" lon="5.97032">
        <ele>377.967547</ele>
        <time>2021-09-18T08:39:08.000Z</time>
      </trkpt>
      <trkpt lat="43.88307" lon="5.97049">
        <ele>378.166606</ele>
        <time>2021-09-18T08:39:10.000Z</time>
      </trkpt>
      <trkpt lat="43.88306" lon="5.9708">
        <ele>378.83979</ele>
        <time>2021-09-18T08:39:14.000Z</time>
      </trkpt>
      <trkpt lat="43.88305" lon="5.9713">
        <ele>379.917678</ele>
        <time>2021-09-18T08:39:20.000Z</time>
      </trkpt>
      <trkpt lat="43.88307" lon="5.97168">
        <ele>380.745841</ele>
        <time>2021-09-18T08:39:25.000Z</time>
      </trkpt>
      <trkpt lat="43.88307" lon="5.97175">
        <ele>380.893147</ele>
        <time>2021-09-18T08:39:26.000Z</time>
      </trkpt>
      <trkpt lat="43.88309" lon="5.972">
        <ele>381.439615</ele>
        <time>2021-09-18T08:39:30.000Z</time>
      </trkpt>
      <trkpt lat="43.8831" lon="5.97206">
        <ele>381.565413</ele>
        <time>2021-09-18T08:39:31.000Z</time>
      </trkpt>
      <trkpt lat="43.88312" lon="5.97231">
        <ele>382.112791</ele>
        <time>2021-09-18T08:39:35.000Z</time>
      </trkpt>
      <trkpt lat="43.88314" lon="5.97244">
        <ele>382.394118</ele>
        <time>2021-09-18T08:39:37.000Z</time>
      </trkpt>
      <trkpt lat="43.88318" lon="5.97259">
        <ele>382.746077</ele>
        <time>2021-09-18T08:39:40.000Z</time>
      </trkpt>
      <trkpt lat="43.88326" lon="5.97278">
        <ele>383.229933</ele>
        <time>2021-09-18T08:39:45.000Z</time>
      </trkpt>
      <trkpt lat="43.88338" lon="5.97299">
        <ele>383.766145</ele>
        <time>2021-09-18T08:39:51.000Z</time>
      </trkpt>
      <trkpt lat="43.88352" lon="5.97321">
        <ele>384.355775</ele>
        <time>2021-09-18T08:39:57.000Z</time>
      </trkpt>
      <trkpt lat="43.88355" lon="5.97325">
        <ele>384.476634</ele>
        <time>2021-09-18T08:39:58.000Z</time>
      </trkpt>
      <trkpt lat="43.88372" lon="5.97345">
        <ele>385.072115</ele>
        <time>2021-09-18T08:40:02.000Z</time>
      </trkpt>
      <trkpt lat="43.88398" lon="5.97376">
        <ele>386.006284</ele>
        <time>2021-09-18T08:40:07.000Z</time>
      </trkpt>
      <trkpt lat="43.88406" lon="5.97389">
        <ele>386.357498</ele>
        <time>2021-09-18T08:40:09.000Z</time>
      </trkpt>
      <trkpt lat="43.8841" lon="5.97403">
        <ele>386.647406</ele>
        <time>2021-09-18T08:40:10.000Z</time>
      </trkpt>
      <trkpt lat="43.88411" lon="5.97414">
        <ele>386.877437</ele>
        <time>2021-09-18T08:40:11.000Z</time>
      </trkpt>
      <trkpt lat="43.8841" lon="5.97432">
        <ele>387.223638</ele>
        <time>2021-09-18T08:40:13.000Z</time>
      </trkpt>
      <trkpt lat="43.88408" lon="5.97439">
        <ele>387.367421</ele>
        <time>2021-09-18T08:40:14.000Z</time>
      </trkpt>
      <trkpt lat="43.88407" lon="5.97447">
        <ele>387.525267</ele>
        <time>2021-09-18T08:40:15.000Z</time>
      </trkpt>
      <trkpt lat="43.88402" lon="5.97475">
        <ele>388.095939</ele>
        <time>2021-09-18T08:40:19.000Z</time>
      </trkpt>
      <trkpt lat="43.88402" lon="5.97482">
        <ele>388.239574</ele>
        <time>2021-09-18T08:40:20.000Z</time>
      </trkpt>
      <trkpt lat="43.88401" lon="5.97506">
        <ele>388.343598</ele>
        <time>2021-09-18T08:40:24.000Z</time>
      </trkpt>
      <trkpt lat="43.88403" lon="5.9754">
        <ele>388.292527</ele>
        <time>2021-09-18T08:40:31.000Z</time>
      </trkpt>
      <trkpt lat="43.88404" lon="5.97563">
        <ele>388.258926</ele>
        <time>2021-09-18T08:40:36.000Z</time>
      </trkpt>
      <trkpt lat="43.88404" lon="5.97596">
        <ele>388.211019</ele>
        <time>2021-09-18T08:40:43.000Z</time>
      </trkpt>
      <trkpt lat="43.88396" lon="5.97622">
        <ele>388.169345</ele>
        <time>2021-09-18T08:40:48.000Z</time>
      </trkpt>
      <trkpt lat="43.88383" lon="5.97643">
        <ele>388.128913</ele>
        <time>2021-09-18T08:40:52.000Z</time>
      </trkpt>
      <trkpt lat="43.88377" lon="5.97651">
        <ele>388.11139</ele>
        <time>2021-09-18T08:40:54.000Z</time>
      </trkpt>
      <trkpt lat="43.8837" lon="5.97659">
        <ele>388.092774</ele>
        <time>2021-09-18T08:40:56.000Z</time>
      </trkpt>
      <trkpt lat="43.88364" lon="5.97669">
        <ele>388.074583</ele>
        <time>2021-09-18T08:40:58.000Z</time>
      </trkpt>
      <trkpt lat="43.88362" lon="5.97675">
        <ele>388.064306</ele>
        <time>2021-09-18T08:40:59.000Z</time>
      </trkpt>
      <trkpt lat="43.8836" lon="5.97682">
        <ele>388.053487</ele>
        <time>2021-09-18T08:41:00.000Z</time>
      </trkpt>
      <trkpt lat="43.8836" lon="5.97697">
        <ele>388.031056</ele>
        <time>2021-09-18T08:41:02.000Z</time>
      </trkpt>
      <trkpt lat="43.8836" lon="5.97705">
        <ele>388.020025</ele>
        <time>2021-09-18T08:41:03.000Z</time>
      </trkpt>
      <trkpt lat="43.88361" lon="5.97721">
        <ele>387.972751</ele>
        <time>2021-09-18T08:41:05.000Z</time>
      </trkpt>
      <trkpt lat="43.88367" lon="5.97747">
        <ele>387.811925</ele>
        <time>2021-09-18T08:41:08.000Z</time>
      </trkpt>
      <trkpt lat="43.88383" lon="5.97813">
        <ele>387.395117</ele>
        <time>2021-09-18T08:41:16.000Z</time>
      </trkpt>
      <trkpt lat="43.88401" lon="5.97875">
        <ele>386.995609</ele>
        <time>2021-09-18T08:41:24.000Z</time>
      </trkpt>
      <trkpt lat="43.8841" lon="5.97934">
        <ele>386.632841</ele>
        <time>2021-09-18T08:41:32.000Z</time>
      </trkpt>
      <trkpt lat="43.88414" lon="5.97993">
        <ele>386.719228</ele>
        <time>2021-09-18T08:41:40.000Z</time>
      </trkpt>
      <trkpt lat="43.88415" lon="5.98008">
        <ele>386.796891</ele>
        <time>2021-09-18T08:41:42.000Z</time>
      </trkpt>
      <trkpt lat="43.88416" lon="5.98022">
        <ele>386.874499</ele>
        <time>2021-09-18T08:41:44.000Z</time>
      </trkpt>
      <trkpt lat="43.88416" lon="5.98029">
        <ele>386.913126</ele>
        <time>2021-09-18T08:41:45.000Z</time>
      </trkpt>
      <trkpt lat="43.88425" lon="5.98081">
        <ele>387.200784</ele>
        <time>2021-09-18T08:41:52.000Z</time>
      </trkpt>
      <trkpt lat="43.8844" lon="5.98129">
        <ele>387.487807</ele>
        <time>2021-09-18T08:41:59.000Z</time>
      </trkpt>
      <trkpt lat="43.88457" lon="5.98176">
        <ele>387.769644</ele>
        <time>2021-09-18T08:42:06.000Z</time>
      </trkpt>
      <trkpt lat="43.88459" lon="5.98182">
        <ele>387.805451</ele>
        <time>2021-09-18T08:42:07.000Z</time>
      </trkpt>
      <trkpt lat="43.88463" lon="5.98225">
        <ele>388.23684</ele>
        <time>2021-09-18T08:42:13.000Z</time>
      </trkpt>
      <trkpt lat="43.88462" lon="5.98232">
        <ele>388.317638</ele>
        <time>2021-09-18T08:42:14.000Z</time>
      </trkpt>
      <trkpt lat="43.8846" lon="5.98245">
        <ele>388.463015</ele>
        <time>2021-09-18T08:42:16.000Z</time>
      </trkpt>
      <trkpt lat="43.88459" lon="5.98252">
        <ele>388.537199</ele>
        <time>2021-09-18T08:42:17.000Z</time>
      </trkpt>
      <trkpt lat="43.88454" lon="5.983">
        <ele>389.085893</ele>
        <time>2021-09-18T08:42:24.000Z</time>
      </trkpt>
      <trkpt lat="43.88454" lon="5.98334">
        <ele>389.472574</ele>
        <time>2021-09-18T08:42:29.000Z</time>
      </trkpt>
      <trkpt lat="43.88454" lon="5.98341">
        <ele>389.548931</ele>
        <time>2021-09-18T08:42:30.000Z</time>
      </trkpt>
      <trkpt lat="43.88455" lon="5.98348">
        <ele>389.627029</ele>
        <time>2021-09-18T08:42:31.000Z</time>
      </trkpt>
      <trkpt lat="43.8846" lon="5.98382">
        <ele>390.018009</ele>
        <time>2021-09-18T08:42:36.000Z</time>
      </trkpt>
      <trkpt lat="43.88463" lon="5.98395">
        <ele>390.169503</ele>
        <time>2021-09-18T08:42:38.000Z</time>
      </trkpt>
      <trkpt lat="43.88466" lon="5.98414">
        <ele>390.391583</ele>
        <time>2021-09-18T08:42:41.000Z</time>
      </trkpt>
      <trkpt lat="43.88475" lon="5.98451">
        <ele>391.101395</ele>
        <time>2021-09-18T08:42:47.000Z</time>
      </trkpt>
      <trkpt lat="43.88477" lon="5.98457">
        <ele>391.279556</ele>
        <time>2021-09-18T08:42:48.000Z</time>
      </trkpt>
      <trkpt lat="43.88489" lon="5.98484">
        <ele>392.241446</ele>
        <time>2021-09-18T08:42:53.000Z</time>
      </trkpt>
      <trkpt lat="43.88507" lon="5.98508">
        <ele>393.239423</ele>
        <time>2021-09-18T08:42:59.000Z</time>
      </trkpt>
      <trkpt lat="43.88518" lon="5.9853">
        <ele>394.031473</ele>
        <time>2021-09-18T08:43:05.000Z</time>
      </trkpt>
      <trkpt lat="43.88526" lon="5.98557">
        <ele>394.900445</ele>
        <time>2021-09-18T08:43:11.000Z</time>
      </trkpt>
      <trkpt lat="43.88537" lon="5.98593">
        <ele>396.042398</ele>
        <time>2021-09-18T08:43:19.000Z</time>
      </trkpt>
      <trkpt lat="43.88548" lon="5.98622">
        <ele>397.041806</ele>
        <time>2021-09-18T08:43:26.000Z</time>
      </trkpt>
      <trkpt lat="43.88565" lon="5.98648">
        <ele>398.046307</ele>
        <time>2021-09-18T08:43:34.000Z</time>
      </trkpt>
      <trkpt lat="43.88573" lon="5.98676">
        <ele>398.200172</ele>
        <time>2021-09-18T08:43:40.000Z</time>
      </trkpt>
      <trkpt lat="43.88578" lon="5.98723">
        <ele>398.435991</ele>
        <time>2021-09-18T08:43:47.000Z</time>
      </trkpt>
      <trkpt lat="43.88573" lon="5.98769">
        <ele>398.669301</ele>
        <time>2021-09-18T08:43:52.000Z</time>
      </trkpt>
      <trkpt lat="43.88573" lon="5.98831">
        <ele>398.984257</ele>
        <time>2021-09-18T08:43:58.000Z</time>
      </trkpt>
      <trkpt lat="43.88573" lon="5.98851">
        <ele>399.083885</ele>
        <time>2021-09-18T08:44:00.000Z</time>
      </trkpt>
      <trkpt lat="43.88576" lon="5.98881">
        <ele>399.239344</ele>
        <time>2021-09-18T08:44:03.000Z</time>
      </trkpt>
      <trkpt lat="43.88582" lon="5.98949">
        <ele>398.734273</ele>
        <time>2021-09-18T08:44:10.000Z</time>
      </trkpt>
      <trkpt lat="43.88587" lon="5.99004">
        <ele>398.174289</ele>
        <time>2021-09-18T08:44:17.000Z</time>
      </trkpt>
      <trkpt lat="43.88592" lon="5.9906">
        <ele>397.598658</ele>
        <time>2021-09-18T08:44:25.000Z</time>
      </trkpt>
      <trkpt lat="43.88598" lon="5.99118">
        <ele>397.0025</ele>
        <time>2021-09-18T08:44:33.000Z</time>
      </trkpt>
      <trkpt lat="43.88602" lon="5.99138">
        <ele>396.793012</ele>
        <time>2021-09-18T08:44:36.000Z</time>
      </trkpt>
      <trkpt lat="43.88605" lon="5.99151">
        <ele>396.763414</ele>
        <time>2021-09-18T08:44:38.000Z</time>
      </trkpt>
      <trkpt lat="43.88608" lon="5.99157">
        <ele>396.761706</ele>
        <time>2021-09-18T08:44:39.000Z</time>
      </trkpt>
      <trkpt lat="43.8861" lon="5.99163">
        <ele>396.760024</ele>
        <time>2021-09-18T08:44:40.000Z</time>
      </trkpt>
      <trkpt lat="43.88616" lon="5.99173">
        <ele>396.756755</ele>
        <time>2021-09-18T08:44:42.000Z</time>
      </trkpt>
      <trkpt lat="43.88624" lon="5.99189">
        <ele>396.75211</ele>
        <time>2021-09-18T08:44:45.000Z</time>
      </trkpt>
      <trkpt lat="43.88635" lon="5.99217">
        <ele>396.744202</ele>
        <time>2021-09-18T08:44:50.000Z</time>
      </trkpt>
      <trkpt lat="43.88637" lon="5.9923">
        <ele>396.740928</ele>
        <time>2021-09-18T08:44:52.000Z</time>
      </trkpt>
      <trkpt lat="43.88638" lon="5.99252">
        <ele>396.735492</ele>
        <time>2021-09-18T08:44:55.000Z</time>
      </trkpt>
      <trkpt lat="43.88638" lon="5.99259">
        <ele>396.733767</ele>
        <time>2021-09-18T08:44:56.000Z</time>
      </trkpt>
      <trkpt lat="43.88637" lon="5.99273">
        <ele>396.730264</ele>
        <time>2021-09-18T08:44:58.000Z</time>
      </trkpt>
      <trkpt lat="43.88635" lon="5.9928">
        <ele>396.728495</ele>
        <time>2021-09-18T08:44:59.000Z</time>
      </trkpt>
      <trkpt lat="43.88634" lon="5.99287">
        <ele>396.726639</ele>
        <time>2021-09-18T08:45:00.000Z</time>
      </trkpt>
      <trkpt lat="43.88632" lon="5.99302">
        <ele>396.723071</ele>
        <time>2021-09-18T08:45:02.000Z</time>
      </trkpt>
      <trkpt lat="43.8863" lon="5.99308">
        <ele>396.721318</ele>
        <time>2021-09-18T08:45:03.000Z</time>
      </trkpt>
      <trkpt lat="43.88628" lon="5.99322">
        <ele>396.717925</ele>
        <time>2021-09-18T08:45:05.000Z</time>
      </trkpt>
      <trkpt lat="43.88624" lon="5.99349">
        <ele>396.711237</ele>
        <time>2021-09-18T08:45:09.000Z</time>
      </trkpt>
      <trkpt lat="43.88621" lon="5.99377">
        <ele>396.705886</ele>
        <time>2021-09-18T08:45:13.000Z</time>
      </trkpt>
      <trkpt lat="43.8862" lon="5.99383">
        <ele>396.709368</ele>
        <time>2021-09-18T08:45:14.000Z</time>
      </trkpt>
      <trkpt lat="43.88617" lon="5.99404">
        <ele>396.720136</ele>
        <time>2021-09-18T08:45:17.000Z</time>
      </trkpt>
      <trkpt lat="43.88615" lon="5.99425">
        <ele>396.731263</ele>
        <time>2021-09-18T08:45:20.000Z</time>
      </trkpt>
      <trkpt lat="43.88613" lon="5.99458">
        <ele>396.748828</ele>
        <time>2021-09-18T08:45:25.000Z</time>
      </trkpt>
      <trkpt lat="43.88615" lon="5.99472">
        <ele>396.756203</ele>
        <time>2021-09-18T08:45:28.000Z</time>
      </trkpt>
      <trkpt lat="43.88616" lon="5.99481">
        <ele>396.760608</ele>
        <time>2021-09-18T08:45:29.000Z</time>
      </trkpt>
      <trkpt lat="43.88633" lon="5.99557">
        <ele>396.802094</ele>
        <time>2021-09-18T08:45:38.000Z</time>
      </trkpt>
      <trkpt lat="43.88635" lon="5.99565">
        <ele>396.806477</ele>
        <time>2021-09-18T08:45:39.000Z</time>
      </trkpt>
      <trkpt lat="43.88654" lon="5.99643">
        <ele>397.212434</ele>
        <time>2021-09-18T08:45:49.000Z</time>
      </trkpt>
      <trkpt lat="43.88671" lon="5.99707">
        <ele>398.144195</ele>
        <time>2021-09-18T08:45:58.000Z</time>
      </trkpt>
      <trkpt lat="43.88686" lon="5.99742">
        <ele>398.692022</ele>
        <time>2021-09-18T08:46:04.000Z</time>
      </trkpt>
      <trkpt lat="43.88698" lon="5.99768">
        <ele>399.107878</ele>
        <time>2021-09-18T08:46:09.000Z</time>
      </trkpt>
      <trkpt lat="43.88701" lon="5.99773">
        <ele>399.195853</ele>
        <time>2021-09-18T08:46:10.000Z</time>
      </trkpt>
      <trkpt lat="43.8872" lon="5.99812">
        <ele>399.839177</ele>
        <time>2021-09-18T08:46:17.000Z</time>
      </trkpt>
      <trkpt lat="43.88722" lon="5.99819">
        <ele>399.934238</ele>
        <time>2021-09-18T08:46:18.000Z</time>
      </trkpt>
      <trkpt lat="43.8873" lon="5.99836">
        <ele>400.210499</ele>
        <time>2021-09-18T08:46:21.000Z</time>
      </trkpt>
      <trkpt lat="43.88735" lon="5.99849">
        <ele>400.31593</ele>
        <time>2021-09-18T08:46:23.000Z</time>
      </trkpt>
      <trkpt lat="43.88746" lon="5.99877">
        <ele>400.540883</ele>
        <time>2021-09-18T08:46:28.000Z</time>
      </trkpt>
      <trkpt lat="43.88758" lon="5.99905">
        <ele>400.761844</ele>
        <time>2021-09-18T08:46:32.000Z</time>
      </trkpt>
      <trkpt lat="43.88763" lon="5.99918">
        <ele>400.868271</ele>
        <time>2021-09-18T08:46:34.000Z</time>
      </trkpt>
      <trkpt lat="43.88781" lon="5.9997">
        <ele>401.271359</ele>
        <time>2021-09-18T08:46:41.000Z</time>
      </trkpt>
      <trkpt lat="43.88792" lon="6.00017">
        <ele>401.615777</ele>
        <time>2021-09-18T08:46:47.000Z</time>
      </trkpt>
      <trkpt lat="43.88802" lon="6.00073">
        <ele>401.922692</ele>
        <time>2021-09-18T08:46:54.000Z</time>
      </trkpt>
      <trkpt lat="43.88819" lon="6.00152">
        <ele>401.617753</ele>
        <time>2021-09-18T08:47:04.000Z</time>
      </trkpt>
      <trkpt lat="43.88829" lon="6.0022">
        <ele>401.359576</ele>
        <time>2021-09-18T08:47:12.000Z</time>
      </trkpt>
      <trkpt lat="43.88832" lon="6.00289">
        <ele>401.100635</ele>
        <time>2021-09-18T08:47:21.000Z</time>
      </trkpt>
      <trkpt lat="43.88836" lon="6.00349">
        <ele>400.774278</ele>
        <time>2021-09-18T08:47:28.000Z</time>
      </trkpt>
      <trkpt lat="43.88838" lon="6.00374">
        <ele>400.615325</ele>
        <time>2021-09-18T08:47:31.000Z</time>
      </trkpt>
      <trkpt lat="43.88839" lon="6.004">
        <ele>400.450082</ele>
        <time>2021-09-18T08:47:34.000Z</time>
      </trkpt>
      <trkpt lat="43.8884" lon="6.00409">
        <ele>400.394296</ele>
        <time>2021-09-18T08:47:35.000Z</time>
      </trkpt>
      <trkpt lat="43.88841" lon="6.00426">
        <ele>400.286022</ele>
        <time>2021-09-18T08:47:37.000Z</time>
      </trkpt>
      <trkpt lat="43.88842" lon="6.00443">
        <ele>400.178301</ele>
        <time>2021-09-18T08:47:39.000Z</time>
      </trkpt>
      <trkpt lat="43.88849" lon="6.0051">
        <ele>399.753015</ele>
        <time>2021-09-18T08:47:47.000Z</time>
      </trkpt>
      <trkpt lat="43.88864" lon="6.00578">
        <ele>399.466482</ele>
        <time>2021-09-18T08:47:56.000Z</time>
      </trkpt>
      <trkpt lat="43.88881" lon="6.0064">
        <ele>399.502498</ele>
        <time>2021-09-18T08:48:05.000Z</time>
      </trkpt>
      <trkpt lat="43.88896" lon="6.00697">
        <ele>399.535198</ele>
        <time>2021-09-18T08:48:14.000Z</time>
      </trkpt>
      <trkpt lat="43.88901" lon="6.00739">
        <ele>399.558679</ele>
        <time>2021-09-18T08:48:20.000Z</time>
      </trkpt>
      <trkpt lat="43.88911" lon="6.0079">
        <ele>399.587234</ele>
        <time>2021-09-18T08:48:27.000Z</time>
      </trkpt>
      <trkpt lat="43.88922" lon="6.00827">
        <ele>400.356628</ele>
        <time>2021-09-18T08:48:33.000Z</time>
      </trkpt>
      <trkpt lat="43.88939" lon="6.00878">
        <ele>401.515797</ele>
        <time>2021-09-18T08:48:42.000Z</time>
      </trkpt>
      <trkpt lat="43.8895" lon="6.00911">
        <ele>402.288656</ele>
        <time>2021-09-18T08:48:48.000Z</time>
      </trkpt>
      <trkpt lat="43.88957" lon="6.00935">
        <ele>402.816642</ele>
        <time>2021-09-18T08:48:52.000Z</time>
      </trkpt>
      <trkpt lat="43.88959" lon="6.00946">
        <ele>403.069344</ele>
        <time>2021-09-18T08:48:54.000Z</time>
      </trkpt>
      <trkpt lat="43.88963" lon="6.00963">
        <ele>403.433994</ele>
        <time>2021-09-18T08:48:57.000Z</time>
      </trkpt>
      <trkpt lat="43.88967" lon="6.0098">
        <ele>403.807475</ele>
        <time>2021-09-18T08:49:00.000Z</time>
      </trkpt>
      <trkpt lat="43.88975" lon="6.01019">
        <ele>404.655865</ele>
        <time>2021-09-18T08:49:06.000Z</time>
      </trkpt>
      <trkpt lat="43.88978" lon="6.01033">
        <ele>404.885741</ele>
        <time>2021-09-18T08:49:08.000Z</time>
      </trkpt>
      <trkpt lat="43.88983" lon="6.01055">
        <ele>405.134157</ele>
        <time>2021-09-18T08:49:11.000Z</time>
      </trkpt>
      <trkpt lat="43.88997" lon="6.0112">
        <ele>405.878961</ele>
        <time>2021-09-18T08:49:19.000Z</time>
      </trkpt>
      <trkpt lat="43.89012" lon="6.01188">
        <ele>406.657221</ele>
        <time>2021-09-18T08:49:27.000Z</time>
      </trkpt>
      <trkpt lat="43.89027" lon="6.01255">
        <ele>407.427266</ele>
        <time>2021-09-18T08:49:35.000Z</time>
      </trkpt>
      <trkpt lat="43.89043" lon="6.01329">
        <ele>407.217332</ele>
        <time>2021-09-18T08:49:44.000Z</time>
      </trkpt>
      <trkpt lat="43.89062" lon="6.01408">
        <ele>406.835666</ele>
        <time>2021-09-18T08:49:54.000Z</time>
      </trkpt>
      <trkpt lat="43.89063" lon="6.01415">
        <ele>406.799481</ele>
        <time>2021-09-18T08:49:55.000Z</time>
      </trkpt>
      <trkpt lat="43.89081" lon="6.01494">
        <ele>406.418788</ele>
        <time>2021-09-18T08:50:05.000Z</time>
      </trkpt>
      <trkpt lat="43.89083" lon="6.01502">
        <ele>406.381188</ele>
        <time>2021-09-18T08:50:06.000Z</time>
      </trkpt>
      <trkpt lat="43.8909" lon="6.01565">
        <ele>406.769182</ele>
        <time>2021-09-18T08:50:14.000Z</time>
      </trkpt>
      <trkpt lat="43.89092" lon="6.01604">
        <ele>407.011173</ele>
        <time>2021-09-18T08:50:20.000Z</time>
      </trkpt>
      <trkpt lat="43.89095" lon="6.0164">
        <ele>407.238667</ele>
        <time>2021-09-18T08:50:27.000Z</time>
      </trkpt>
      <trkpt lat="43.89098" lon="6.0167">
        <ele>407.423118</ele>
        <time>2021-09-18T08:50:33.000Z</time>
      </trkpt>
      <trkpt lat="43.89101" lon="6.01699">
        <ele>407.601223</ele>
        <time>2021-09-18T08:50:39.000Z</time>
      </trkpt>
      <trkpt lat="43.89104" lon="6.01728">
        <ele>407.7825</ele>
        <time>2021-09-18T08:50:45.000Z</time>
      </trkpt>
      <trkpt lat="43.89106" lon="6.01761">
        <ele>408.019358</ele>
        <time>2021-09-18T08:50:51.000Z</time>
      </trkpt>
      <trkpt lat="43.89101" lon="6.01803">
        <ele>408.391026</ele>
        <time>2021-09-18T08:50:58.000Z</time>
      </trkpt>
      <trkpt lat="43.89092" lon="6.01829">
        <ele>408.640515</ele>
        <time>2021-09-18T08:51:04.000Z</time>
      </trkpt>
      <trkpt lat="43.89082" lon="6.01855">
        <ele>408.896095</ele>
        <time>2021-09-18T08:51:10.000Z</time>
      </trkpt>
      <trkpt lat="43.89074" lon="6.01884">
        <ele>409.17172</ele>
        <time>2021-09-18T08:51:16.000Z</time>
      </trkpt>
      <trkpt lat="43.89069" lon="6.01919">
        <ele>409.480198</ele>
        <time>2021-09-18T08:51:21.000Z</time>
      </trkpt>
      <trkpt lat="43.89071" lon="6.01938">
        <ele>409.643746</ele>
        <time>2021-09-18T08:51:23.000Z</time>
      </trkpt>
      <trkpt lat="43.89075" lon="6.01956">
        <ele>409.813569</ele>
        <time>2021-09-18T08:51:25.000Z</time>
      </trkpt>
      <trkpt lat="43.89085" lon="6.01996">
        <ele>410.136702</ele>
        <time>2021-09-18T08:51:30.000Z</time>
      </trkpt>
      <trkpt lat="43.89085" lon="6.02004">
        <ele>410.16661</ele>
        <time>2021-09-18T08:51:31.000Z</time>
      </trkpt>
      <trkpt lat="43.89084" lon="6.02037">
        <ele>410.299878</ele>
        <time>2021-09-18T08:51:35.000Z</time>
      </trkpt>
      <trkpt lat="43.89085" lon="6.02046">
        <ele>410.335503</ele>
        <time>2021-09-18T08:51:36.000Z</time>
      </trkpt>
      <trkpt lat="43.89097" lon="6.02087">
        <ele>410.515196</ele>
        <time>2021-09-18T08:51:41.000Z</time>
      </trkpt>
      <trkpt lat="43.89115" lon="6.02134">
        <ele>410.729724</ele>
        <time>2021-09-18T08:51:47.000Z</time>
      </trkpt>
      <trkpt lat="43.89121" lon="6.0215">
        <ele>410.804884</ele>
        <time>2021-09-18T08:51:49.000Z</time>
      </trkpt>
      <trkpt lat="43.89128" lon="6.02166">
        <ele>410.877116</ele>
        <time>2021-09-18T08:51:51.000Z</time>
      </trkpt>
      <trkpt lat="43.89131" lon="6.02174">
        <ele>410.914208</ele>
        <time>2021-09-18T08:51:52.000Z</time>
      </trkpt>
      <trkpt lat="43.89143" lon="6.02205">
        <ele>411.05461</ele>
        <time>2021-09-18T08:51:56.000Z</time>
      </trkpt>
      <trkpt lat="43.89151" lon="6.02246">
        <ele>411.456647</ele>
        <time>2021-09-18T08:52:01.000Z</time>
      </trkpt>
      <trkpt lat="43.89153" lon="6.02254">
        <ele>411.559604</ele>
        <time>2021-09-18T08:52:02.000Z</time>
      </trkpt>
      <trkpt lat="43.89156" lon="6.02267">
        <ele>411.719082</ele>
        <time>2021-09-18T08:52:04.000Z</time>
      </trkpt>
      <trkpt lat="43.8917" lon="6.02315">
        <ele>412.329506</ele>
        <time>2021-09-18T08:52:10.000Z</time>
      </trkpt>
      <trkpt lat="43.89191" lon="6.02375">
        <ele>413.103124</ele>
        <time>2021-09-18T08:52:18.000Z</time>
      </trkpt>
      <trkpt lat="43.89209" lon="6.02429">
        <ele>413.789068</ele>
        <time>2021-09-18T08:52:25.000Z</time>
      </trkpt>
      <trkpt lat="43.89225" lon="6.02483">
        <ele>415.214316</ele>
        <time>2021-09-18T08:52:33.000Z</time>
      </trkpt>
      <trkpt lat="43.89235" lon="6.02521">
        <ele>416.420546</ele>
        <time>2021-09-18T08:52:40.000Z</time>
      </trkpt>
      <trkpt lat="43.89243" lon="6.02553">
        <ele>417.453204</ele>
        <time>2021-09-18T08:52:48.000Z</time>
      </trkpt>
      <trkpt lat="43.89248" lon="6.02573">
        <ele>418.074886</ele>
        <time>2021-09-18T08:52:54.000Z</time>
      </trkpt>
      <trkpt lat="43.89252" lon="6.02592">
        <ele>418.685326</ele>
        <time>2021-09-18T08:53:01.000Z</time>
      </trkpt>
      <trkpt lat="43.89255" lon="6.02605">
        <ele>419.092286</ele>
        <time>2021-09-18T08:53:05.000Z</time>
      </trkpt>
      <trkpt lat="43.8926" lon="6.02625">
        <ele>419.756794</ele>
        <time>2021-09-18T08:53:12.000Z</time>
      </trkpt>
      <trkpt lat="43.89266" lon="6.02651">
        <ele>420.570712</ele>
        <time>2021-09-18T08:53:21.000Z</time>
      </trkpt>
      <trkpt lat="43.89271" lon="6.02673">
        <ele>421.269446</ele>
        <time>2021-09-18T08:53:29.000Z</time>
      </trkpt>
      <trkpt lat="43.89276" lon="6.02693">
        <ele>421.811467</ele>
        <time>2021-09-18T08:53:36.000Z</time>
      </trkpt>
      <trkpt lat="43.89284" lon="6.02726">
        <ele>422.527895</ele>
        <time>2021-09-18T08:53:47.000Z</time>
      </trkpt>
      <trkpt lat="43.89291" lon="6.02751">
        <ele>423.096105</ele>
        <time>2021-09-18T08:53:56.000Z</time>
      </trkpt>
      <trkpt lat="43.89297" lon="6.02777">
        <ele>423.668277</ele>
        <time>2021-09-18T08:54:05.000Z</time>
      </trkpt>
      <trkpt lat="43.89305" lon="6.02806">
        <ele>424.318513</ele>
        <time>2021-09-18T08:54:14.000Z</time>
      </trkpt>
      <trkpt lat="43.89311" lon="6.02834">
        <ele>424.933361</ele>
        <time>2021-09-18T08:54:21.000Z</time>
      </trkpt>
      <trkpt lat="43.89317" lon="6.0286">
        <ele>425.516501</ele>
        <time>2021-09-18T08:54:26.000Z</time>
      </trkpt>
      <trkpt lat="43.89326" lon="6.02898">
        <ele>426.350796</ele>
        <time>2021-09-18T08:54:31.000Z</time>
      </trkpt>
      <trkpt lat="43.8933" lon="6.02916">
        <ele>426.733917</ele>
        <time>2021-09-18T08:54:33.000Z</time>
      </trkpt>
      <trkpt lat="43.89335" lon="6.02942">
        <ele>426.664667</ele>
        <time>2021-09-18T08:54:36.000Z</time>
      </trkpt>
      <trkpt lat="43.89353" lon="6.0301">
        <ele>426.248258</ele>
        <time>2021-09-18T08:54:44.000Z</time>
      </trkpt>
      <trkpt lat="43.89368" lon="6.03064">
        <ele>425.914261</ele>
        <time>2021-09-18T08:54:52.000Z</time>
      </trkpt>
      <trkpt lat="43.89373" lon="6.0309">
        <ele>425.76167</ele>
        <time>2021-09-18T08:54:56.000Z</time>
      </trkpt>
      <trkpt lat="43.89376" lon="6.03108">
        <ele>425.652339</ele>
        <time>2021-09-18T08:54:59.000Z</time>
      </trkpt>
      <trkpt lat="43.89376" lon="6.03157">
        <ele>425.371875</ele>
        <time>2021-09-18T08:55:05.000Z</time>
      </trkpt>
      <trkpt lat="43.89377" lon="6.03174">
        <ele>425.090517</ele>
        <time>2021-09-18T08:55:07.000Z</time>
      </trkpt>
      <trkpt lat="43.89379" lon="6.03204">
        <ele>424.591968</ele>
        <time>2021-09-18T08:55:10.000Z</time>
      </trkpt>
      <trkpt lat="43.89392" lon="6.03258">
        <ele>423.633698</ele>
        <time>2021-09-18T08:55:15.000Z</time>
      </trkpt>
      <trkpt lat="43.89418" lon="6.03332">
        <ele>422.240586</ele>
        <time>2021-09-18T08:55:22.000Z</time>
      </trkpt>
      <trkpt lat="43.8944" lon="6.0338">
        <ele>421.29595</ele>
        <time>2021-09-18T08:55:27.000Z</time>
      </trkpt>
      <trkpt lat="43.89467" lon="6.03417">
        <ele>420.522655</ele>
        <time>2021-09-18T08:55:32.000Z</time>
      </trkpt>
      <trkpt lat="43.89496" lon="6.03452">
        <ele>419.760994</ele>
        <time>2021-09-18T08:55:38.000Z</time>
      </trkpt>
      <trkpt lat="43.89517" lon="6.03477">
        <ele>419.217331</ele>
        <time>2021-09-18T08:55:43.000Z</time>
      </trkpt>
      <trkpt lat="43.8952" lon="6.03482">
        <ele>419.120499</ele>
        <time>2021-09-18T08:55:44.000Z</time>
      </trkpt>
      <trkpt lat="43.89535" lon="6.03507">
        <ele>418.660342</ele>
        <time>2021-09-18T08:55:49.000Z</time>
      </trkpt>
      <trkpt lat="43.89537" lon="6.03512">
        <ele>418.57171</ele>
        <time>2021-09-18T08:55:50.000Z</time>
      </trkpt>
      <trkpt lat="43.8955" lon="6.03553">
        <ele>417.94126</ele>
        <time>2021-09-18T08:55:57.000Z</time>
      </trkpt>
      <trkpt lat="43.89562" lon="6.036">
        <ele>417.475479</ele>
        <time>2021-09-18T08:56:05.000Z</time>
      </trkpt>
      <trkpt lat="43.89575" lon="6.03648">
        <ele>417.23591</ele>
        <time>2021-09-18T08:56:13.000Z</time>
      </trkpt>
      <trkpt lat="43.89589" lon="6.03705">
        <ele>416.955974</ele>
        <time>2021-09-18T08:56:22.000Z</time>
      </trkpt>
      <trkpt lat="43.89598" lon="6.03736">
        <ele>416.800908</ele>
        <time>2021-09-18T08:56:27.000Z</time>
      </trkpt>
      <trkpt lat="43.89602" lon="6.03747">
        <ele>416.741319</ele>
        <time>2021-09-18T08:56:29.000Z</time>
      </trkpt>
      <trkpt lat="43.89618" lon="6.03793">
        <ele>416.504641</ele>
        <time>2021-09-18T08:56:37.000Z</time>
      </trkpt>
      <trkpt lat="43.89621" lon="6.03798">
        <ele>416.473992</ele>
        <time>2021-09-18T08:56:38.000Z</time>
      </trkpt>
      <trkpt lat="43.89627" lon="6.03809">
        <ele>416.456112</ele>
        <time>2021-09-18T08:56:40.000Z</time>
      </trkpt>
      <trkpt lat="43.89639" lon="6.0383">
        <ele>416.560641</ele>
        <time>2021-09-18T08:56:44.000Z</time>
      </trkpt>
      <trkpt lat="43.89661" lon="6.0386">
        <ele>416.722512</ele>
        <time>2021-09-18T08:56:50.000Z</time>
      </trkpt>
      <trkpt lat="43.89685" lon="6.03896">
        <ele>416.912224</ele>
        <time>2021-09-18T08:56:57.000Z</time>
      </trkpt>
      <trkpt lat="43.8971" lon="6.0394">
        <ele>417.124405</ele>
        <time>2021-09-18T08:57:05.000Z</time>
      </trkpt>
      <trkpt lat="43.89731" lon="6.03979">
        <ele>417.31007</ele>
        <time>2021-09-18T08:57:12.000Z</time>
      </trkpt>
      <trkpt lat="43.89762" lon="6.04036">
        <ele>417.647989</ele>
        <time>2021-09-18T08:57:22.000Z</time>
      </trkpt>
      <trkpt lat="43.89782" lon="6.04072">
        <ele>417.876742</ele>
        <time>2021-09-18T08:57:29.000Z</time>
      </trkpt>
      <trkpt lat="43.89805" lon="6.04115">
        <ele>418.145205</ele>
        <time>2021-09-18T08:57:37.000Z</time>
      </trkpt>
      <trkpt lat="43.89825" lon="6.04151">
        <ele>418.373977</ele>
        <time>2021-09-18T08:57:43.000Z</time>
      </trkpt>
      <trkpt lat="43.89853" lon="6.04207">
        <ele>418.66931</ele>
        <time>2021-09-18T08:57:51.000Z</time>
      </trkpt>
      <trkpt lat="43.89865" lon="6.04245">
        <ele>418.727405</ele>
        <time>2021-09-18T08:57:56.000Z</time>
      </trkpt>
      <trkpt lat="43.89866" lon="6.04254">
        <ele>418.739076</ele>
        <time>2021-09-18T08:57:57.000Z</time>
      </trkpt>
      <trkpt lat="43.89879" lon="6.04325">
        <ele>418.841218</ele>
        <time>2021-09-18T08:58:06.000Z</time>
      </trkpt>
      <trkpt lat="43.8989" lon="6.04389">
        <ele>418.931254</ele>
        <time>2021-09-18T08:58:14.000Z</time>
      </trkpt>
      <trkpt lat="43.89901" lon="6.04458">
        <ele>419.096549</ele>
        <time>2021-09-18T08:58:23.000Z</time>
      </trkpt>
      <trkpt lat="43.89909" lon="6.045">
        <ele>419.278858</ele>
        <time>2021-09-18T08:58:29.000Z</time>
      </trkpt>
      <trkpt lat="43.89917" lon="6.0455">
        <ele>419.491596</ele>
        <time>2021-09-18T08:58:36.000Z</time>
      </trkpt>
      <trkpt lat="43.89918" lon="6.04558">
        <ele>419.523069</ele>
        <time>2021-09-18T08:58:37.000Z</time>
      </trkpt>
      <trkpt lat="43.89916" lon="6.04566">
        <ele>419.556035</ele>
        <time>2021-09-18T08:58:38.000Z</time>
      </trkpt>
      <trkpt lat="43.89911" lon="6.04576">
        <ele>419.609585</ele>
        <time>2021-09-18T08:58:40.000Z</time>
      </trkpt>
      <trkpt lat="43.899" lon="6.04582">
        <ele>419.677675</ele>
        <time>2021-09-18T08:58:42.000Z</time>
      </trkpt>
      <trkpt lat="43.8989" lon="6.04586">
        <ele>419.738738</ele>
        <time>2021-09-18T08:58:44.000Z</time>
      </trkpt>
      <trkpt lat="43.89885" lon="6.04588">
        <ele>419.76694</ele>
        <time>2021-09-18T08:58:45.000Z</time>
      </trkpt>
      <trkpt lat="43.89878" lon="6.04594">
        <ele>419.81603</ele>
        <time>2021-09-18T08:58:47.000Z</time>
      </trkpt>
      <trkpt lat="43.89876" lon="6.04598">
        <ele>419.837594</ele>
        <time>2021-09-18T08:58:48.000Z</time>
      </trkpt>
      <trkpt lat="43.89871" lon="6.04613">
        <ele>419.904397</ele>
        <time>2021-09-18T08:58:51.000Z</time>
      </trkpt>
      <trkpt lat="43.89871" lon="6.04619">
        <ele>419.9284</ele>
        <time>2021-09-18T08:58:52.000Z</time>
      </trkpt>
      <trkpt lat="43.89875" lon="6.04659">
        <ele>420.168378</ele>
        <time>2021-09-18T08:58:59.000Z</time>
      </trkpt>
      <trkpt lat="43.89879" lon="6.04691">
        <ele>420.461189</ele>
        <time>2021-09-18T08:59:05.000Z</time>
      </trkpt>
      <trkpt lat="43.89882" lon="6.04729">
        <ele>420.802303</ele>
        <time>2021-09-18T08:59:12.000Z</time>
      </trkpt>
      <trkpt lat="43.89884" lon="6.04771">
        <ele>421.178602</ele>
        <time>2021-09-18T08:59:20.000Z</time>
      </trkpt>
      <trkpt lat="43.89891" lon="6.04813">
        <ele>421.565458</ele>
        <time>2021-09-18T08:59:27.000Z</time>
      </trkpt>
      <trkpt lat="43.89902" lon="6.04851">
        <ele>421.933139</ele>
        <time>2021-09-18T08:59:33.000Z</time>
      </trkpt>
      <trkpt lat="43.89904" lon="6.04858">
        <ele>422.000714</ele>
        <time>2021-09-18T08:59:34.000Z</time>
      </trkpt>
      <trkpt lat="43.89925" lon="6.04911">
        <ele>422.48757</ele>
        <time>2021-09-18T08:59:42.000Z</time>
      </trkpt>
      <trkpt lat="43.89943" lon="6.04948">
        <ele>422.797623</ele>
        <time>2021-09-18T08:59:48.000Z</time>
      </trkpt>
      <trkpt lat="43.89968" lon="6.04997">
        <ele>423.215849</ele>
        <time>2021-09-18T08:59:56.000Z</time>
      </trkpt>
      <trkpt lat="43.89999" lon="6.0504">
        <ele>423.649874</ele>
        <time>2021-09-18T09:00:04.000Z</time>
      </trkpt>
      <trkpt lat="43.90025" lon="6.05079">
        <ele>424.01956</ele>
        <time>2021-09-18T09:00:11.000Z</time>
      </trkpt>
      <trkpt lat="43.90047" lon="6.05119">
        <ele>424.312359</ele>
        <time>2021-09-18T09:00:18.000Z</time>
      </trkpt>
      <trkpt lat="43.90057" lon="6.05136">
        <ele>424.443169</ele>
        <time>2021-09-18T09:00:21.000Z</time>
      </trkpt>
      <trkpt lat="43.90071" lon="6.05159">
        <ele>424.618922</ele>
        <time>2021-09-18T09:00:25.000Z</time>
      </trkpt>
      <trkpt lat="43.90096" lon="6.05189">
        <ele>424.885347</ele>
        <time>2021-09-18T09:00:31.000Z</time>
      </trkpt>
      <trkpt lat="43.90113" lon="6.05222">
        <ele>425.118035</ele>
        <time>2021-09-18T09:00:36.000Z</time>
      </trkpt>
      <trkpt lat="43.9013" lon="6.05264">
        <ele>425.404082</ele>
        <time>2021-09-18T09:00:42.000Z</time>
      </trkpt>
      <trkpt lat="43.90133" lon="6.05272">
        <ele>425.452561</ele>
        <time>2021-09-18T09:00:43.000Z</time>
      </trkpt>
      <trkpt lat="43.90154" lon="6.05321">
        <ele>425.659011</ele>
        <time>2021-09-18T09:00:50.000Z</time>
      </trkpt>
      <trkpt lat="43.90174" lon="6.05379">
        <ele>425.882693</ele>
        <time>2021-09-18T09:00:58.000Z</time>
      </trkpt>
      <trkpt lat="43.90201" lon="6.0545">
        <ele>426.158521</ele>
        <time>2021-09-18T09:01:08.000Z</time>
      </trkpt>
      <trkpt lat="43.90219" lon="6.05506">
        <ele>426.362112</ele>
        <time>2021-09-18T09:01:16.000Z</time>
      </trkpt>
      <trkpt lat="43.90237" lon="6.05576">
        <ele>426.558077</ele>
        <time>2021-09-18T09:01:25.000Z</time>
      </trkpt>
      <trkpt lat="43.90253" lon="6.05638">
        <ele>426.730724</ele>
        <time>2021-09-18T09:01:33.000Z</time>
      </trkpt>
      <trkpt lat="43.90269" lon="6.05709">
        <ele>426.926728</ele>
        <time>2021-09-18T09:01:42.000Z</time>
      </trkpt>
      <trkpt lat="43.90282" lon="6.05775">
        <ele>427.208677</ele>
        <time>2021-09-18T09:01:51.000Z</time>
      </trkpt>
      <trkpt lat="43.90296" lon="6.0585">
        <ele>427.601341</ele>
        <time>2021-09-18T09:02:02.000Z</time>
      </trkpt>
      <trkpt lat="43.90299" lon="6.05863">
        <ele>427.672635</ele>
        <time>2021-09-18T09:02:04.000Z</time>
      </trkpt>
      <trkpt lat="43.90312" lon="6.05931">
        <ele>428.027511</ele>
        <time>2021-09-18T09:02:14.000Z</time>
      </trkpt>
      <trkpt lat="43.90323" lon="6.05986">
        <ele>428.315519</ele>
        <time>2021-09-18T09:02:22.000Z</time>
      </trkpt>
      <trkpt lat="43.9033" lon="6.06043">
        <ele>428.616082</ele>
        <time>2021-09-18T09:02:30.000Z</time>
      </trkpt>
      <trkpt lat="43.90339" lon="6.06114">
        <ele>428.983951</ele>
        <time>2021-09-18T09:02:40.000Z</time>
      </trkpt>
      <trkpt lat="43.90347" lon="6.06192">
        <ele>429.391381</ele>
        <time>2021-09-18T09:02:51.000Z</time>
      </trkpt>
      <trkpt lat="43.9035" lon="6.06266">
        <ele>429.741227</ele>
        <time>2021-09-18T09:03:01.000Z</time>
      </trkpt>
      <trkpt lat="43.90353" lon="6.06326">
        <ele>430.013821</ele>
        <time>2021-09-18T09:03:09.000Z</time>
      </trkpt>
      <trkpt lat="43.90359" lon="6.0639">
        <ele>430.310717</ele>
        <time>2021-09-18T09:03:18.000Z</time>
      </trkpt>
      <trkpt lat="43.90366" lon="6.06457">
        <ele>430.61542</ele>
        <time>2021-09-18T09:03:27.000Z</time>
      </trkpt>
      <trkpt lat="43.90373" lon="6.06531">
        <ele>431.00876</ele>
        <time>2021-09-18T09:03:37.000Z</time>
      </trkpt>
      <trkpt lat="43.90374" lon="6.06538">
        <ele>431.048631</ele>
        <time>2021-09-18T09:03:38.000Z</time>
      </trkpt>
      <trkpt lat="43.90377" lon="6.06567">
        <ele>431.204357</ele>
        <time>2021-09-18T09:03:42.000Z</time>
      </trkpt>
      <trkpt lat="43.90379" lon="6.0659">
        <ele>431.327825</ele>
        <time>2021-09-18T09:03:45.000Z</time>
      </trkpt>
      <trkpt lat="43.90384" lon="6.06641">
        <ele>431.607555</ele>
        <time>2021-09-18T09:03:52.000Z</time>
      </trkpt>
      <trkpt lat="43.90389" lon="6.06697">
        <ele>431.915393</ele>
        <time>2021-09-18T09:04:00.000Z</time>
      </trkpt>
      <trkpt lat="43.90396" lon="6.06772">
        <ele>432.417081</ele>
        <time>2021-09-18T09:04:11.000Z</time>
      </trkpt>
      <trkpt lat="43.90401" lon="6.06834">
        <ele>432.86581</ele>
        <time>2021-09-18T09:04:20.000Z</time>
      </trkpt>
      <trkpt lat="43.90407" lon="6.06894">
        <ele>433.299375</ele>
        <time>2021-09-18T09:04:29.000Z</time>
      </trkpt>
      <trkpt lat="43.90412" lon="6.06956">
        <ele>433.748354</ele>
        <time>2021-09-18T09:04:38.000Z</time>
      </trkpt>
      <trkpt lat="43.90418" lon="6.0702">
        <ele>434.249792</ele>
        <time>2021-09-18T09:04:47.000Z</time>
      </trkpt>
      <trkpt lat="43.90424" lon="6.07084">
        <ele>434.75397</ele>
        <time>2021-09-18T09:04:56.000Z</time>
      </trkpt>
      <trkpt lat="43.90427" lon="6.07148">
        <ele>435.26041</ele>
        <time>2021-09-18T09:05:05.000Z</time>
      </trkpt>
      <trkpt lat="43.90429" lon="6.07225">
        <ele>435.892124</ele>
        <time>2021-09-18T09:05:16.000Z</time>
      </trkpt>
      <trkpt lat="43.9043" lon="6.07302">
        <ele>436.646627</ele>
        <time>2021-09-18T09:05:27.000Z</time>
      </trkpt>
      <trkpt lat="43.90431" lon="6.07309">
        <ele>436.714525</ele>
        <time>2021-09-18T09:05:28.000Z</time>
      </trkpt>
      <trkpt lat="43.90432" lon="6.0737">
        <ele>437.317699</ele>
        <time>2021-09-18T09:05:37.000Z</time>
      </trkpt>
      <trkpt lat="43.90435" lon="6.07428">
        <ele>437.892845</ele>
        <time>2021-09-18T09:05:46.000Z</time>
      </trkpt>
      <trkpt lat="43.90443" lon="6.07469">
        <ele>438.312514</ele>
        <time>2021-09-18T09:05:53.000Z</time>
      </trkpt>
      <trkpt lat="43.90448" lon="6.07489">
        <ele>438.539133</ele>
        <time>2021-09-18T09:05:57.000Z</time>
      </trkpt>
      <trkpt lat="43.90455" lon="6.07521">
        <ele>438.905946</ele>
        <time>2021-09-18T09:06:03.000Z</time>
      </trkpt>
      <trkpt lat="43.90465" lon="6.07562">
        <ele>439.367041</ele>
        <time>2021-09-18T09:06:10.000Z</time>
      </trkpt>
      <trkpt lat="43.90467" lon="6.07575">
        <ele>439.501908</ele>
        <time>2021-09-18T09:06:12.000Z</time>
      </trkpt>
      <trkpt lat="43.90469" lon="6.07612">
        <ele>439.909115</ele>
        <time>2021-09-18T09:06:18.000Z</time>
      </trkpt>
      <trkpt lat="43.90469" lon="6.07619">
        <ele>439.979893</ele>
        <time>2021-09-18T09:06:19.000Z</time>
      </trkpt>
      <trkpt lat="43.90466" lon="6.0766">
        <ele>440.422308</ele>
        <time>2021-09-18T09:06:25.000Z</time>
      </trkpt>
      <trkpt lat="43.90461" lon="6.07708">
        <ele>440.929635</ele>
        <time>2021-09-18T09:06:32.000Z</time>
      </trkpt>
      <trkpt lat="43.90458" lon="6.07735">
        <ele>441.087174</ele>
        <time>2021-09-18T09:06:36.000Z</time>
      </trkpt>
      <trkpt lat="43.90458" lon="6.0775">
        <ele>441.16818</ele>
        <time>2021-09-18T09:06:38.000Z</time>
      </trkpt>
      <trkpt lat="43.90459" lon="6.07793">
        <ele>441.414805</ele>
        <time>2021-09-18T09:06:44.000Z</time>
      </trkpt>
      <trkpt lat="43.90465" lon="6.07855">
        <ele>441.774365</ele>
        <time>2021-09-18T09:06:52.000Z</time>
      </trkpt>
      <trkpt lat="43.90474" lon="6.07926">
        <ele>442.183509</ele>
        <time>2021-09-18T09:07:01.000Z</time>
      </trkpt>
      <trkpt lat="43.90477" lon="6.07949">
        <ele>442.318533</ele>
        <time>2021-09-18T09:07:04.000Z</time>
      </trkpt>
      <trkpt lat="43.9048" lon="6.07972">
        <ele>442.473674</ele>
        <time>2021-09-18T09:07:07.000Z</time>
      </trkpt>
      <trkpt lat="43.90489" lon="6.08031">
        <ele>442.893282</ele>
        <time>2021-09-18T09:07:15.000Z</time>
      </trkpt>
      <trkpt lat="43.90498" lon="6.08086">
        <ele>443.285936</ele>
        <time>2021-09-18T09:07:23.000Z</time>
      </trkpt>
      <trkpt lat="43.90505" lon="6.08132">
        <ele>443.60965</ele>
        <time>2021-09-18T09:07:30.000Z</time>
      </trkpt>
      <trkpt lat="43.90506" lon="6.08138">
        <ele>443.652114</ele>
        <time>2021-09-18T09:07:31.000Z</time>
      </trkpt>
      <trkpt lat="43.90507" lon="6.08144">
        <ele>443.696134</ele>
        <time>2021-09-18T09:07:32.000Z</time>
      </trkpt>
      <trkpt lat="43.90511" lon="6.08171">
        <ele>443.886163</ele>
        <time>2021-09-18T09:07:36.000Z</time>
      </trkpt>
      <trkpt lat="43.90518" lon="6.08222">
        <ele>444.276964</ele>
        <time>2021-09-18T09:07:44.000Z</time>
      </trkpt>
      <trkpt lat="43.90518" lon="6.08228">
        <ele>444.325579</ele>
        <time>2021-09-18T09:07:45.000Z</time>
      </trkpt>
      <trkpt lat="43.90518" lon="6.08234">
        <ele>444.376725</ele>
        <time>2021-09-18T09:07:46.000Z</time>
      </trkpt>
      <trkpt lat="43.9052" lon="6.0826">
        <ele>444.596093</ele>
        <time>2021-09-18T09:07:50.000Z</time>
      </trkpt>
      <trkpt lat="43.90519" lon="6.08313">
        <ele>445.03086</ele>
        <time>2021-09-18T09:07:58.000Z</time>
      </trkpt>
      <trkpt lat="43.90518" lon="6.0832">
        <ele>445.085231</ele>
        <time>2021-09-18T09:07:59.000Z</time>
      </trkpt>
      <trkpt lat="43.90517" lon="6.08347">
        <ele>445.312634</ele>
        <time>2021-09-18T09:08:03.000Z</time>
      </trkpt>
      <trkpt lat="43.90517" lon="6.08354">
        <ele>445.369529</ele>
        <time>2021-09-18T09:08:04.000Z</time>
      </trkpt>
      <trkpt lat="43.90517" lon="6.08368">
        <ele>445.479094</ele>
        <time>2021-09-18T09:08:06.000Z</time>
      </trkpt>
      <trkpt lat="43.90516" lon="6.08388">
        <ele>445.644726</ele>
        <time>2021-09-18T09:08:09.000Z</time>
      </trkpt>
      <trkpt lat="43.90515" lon="6.08423">
        <ele>445.933078</ele>
        <time>2021-09-18T09:08:14.000Z</time>
      </trkpt>
      <trkpt lat="43.90515" lon="6.08429">
        <ele>445.986688</ele>
        <time>2021-09-18T09:08:15.000Z</time>
      </trkpt>
      <trkpt lat="43.90513" lon="6.08469">
        <ele>446.315849</ele>
        <time>2021-09-18T09:08:21.000Z</time>
      </trkpt>
      <trkpt lat="43.90511" lon="6.08536">
        <ele>446.858707</ele>
        <time>2021-09-18T09:08:30.000Z</time>
      </trkpt>
      <trkpt lat="43.9051" lon="6.08593">
        <ele>447.327686</ele>
        <time>2021-09-18T09:08:38.000Z</time>
      </trkpt>
      <trkpt lat="43.90508" lon="6.08654">
        <ele>447.825315</ele>
        <time>2021-09-18T09:08:47.000Z</time>
      </trkpt>
      <trkpt lat="43.90506" lon="6.08712">
        <ele>448.368936</ele>
        <time>2021-09-18T09:08:56.000Z</time>
      </trkpt>
      <trkpt lat="43.90506" lon="6.08762">
        <ele>448.964654</ele>
        <time>2021-09-18T09:09:04.000Z</time>
      </trkpt>
      <trkpt lat="43.90508" lon="6.08805">
        <ele>449.471887</ele>
        <time>2021-09-18T09:09:11.000Z</time>
      </trkpt>
      <trkpt lat="43.90516" lon="6.08854">
        <ele>450.063051</ele>
        <time>2021-09-18T09:09:19.000Z</time>
      </trkpt>
      <trkpt lat="43.90526" lon="6.08891">
        <ele>450.535905</ele>
        <time>2021-09-18T09:09:25.000Z</time>
      </trkpt>
      <trkpt lat="43.90543" lon="6.08955">
        <ele>451.3091</ele>
        <time>2021-09-18T09:09:35.000Z</time>
      </trkpt>
      <trkpt lat="43.90545" lon="6.08962">
        <ele>451.376661</ele>
        <time>2021-09-18T09:09:36.000Z</time>
      </trkpt>
      <trkpt lat="43.90552" lon="6.08995">
        <ele>451.716234</ele>
        <time>2021-09-18T09:09:41.000Z</time>
      </trkpt>
      <trkpt lat="43.90558" lon="6.09039">
        <ele>452.157578</ele>
        <time>2021-09-18T09:09:48.000Z</time>
      </trkpt>
      <trkpt lat="43.90563" lon="6.09077">
        <ele>452.531593</ele>
        <time>2021-09-18T09:09:54.000Z</time>
      </trkpt>
      <trkpt lat="43.90567" lon="6.09116">
        <ele>452.913069</ele>
        <time>2021-09-18T09:10:00.000Z</time>
      </trkpt>
      <trkpt lat="43.90569" lon="6.0915">
        <ele>453.246024</ele>
        <time>2021-09-18T09:10:05.000Z</time>
      </trkpt>
      <trkpt lat="43.90573" lon="6.09192">
        <ele>453.612151</ele>
        <time>2021-09-18T09:10:11.000Z</time>
      </trkpt>
      <trkpt lat="43.90576" lon="6.09238">
        <ele>453.852438</ele>
        <time>2021-09-18T09:10:17.000Z</time>
      </trkpt>
      <trkpt lat="43.90581" lon="6.093">
        <ele>454.176989</ele>
        <time>2021-09-18T09:10:25.000Z</time>
      </trkpt>
      <trkpt lat="43.90589" lon="6.09379">
        <ele>454.583441</ele>
        <time>2021-09-18T09:10:35.000Z</time>
      </trkpt>
      <trkpt lat="43.90596" lon="6.09456">
        <ele>454.978694</ele>
        <time>2021-09-18T09:10:45.000Z</time>
      </trkpt>
      <trkpt lat="43.90601" lon="6.09508">
        <ele>455.238951</ele>
        <time>2021-09-18T09:10:52.000Z</time>
      </trkpt>
      <trkpt lat="43.90608" lon="6.09573">
        <ele>455.567085</ele>
        <time>2021-09-18T09:11:01.000Z</time>
      </trkpt>
      <trkpt lat="43.90615" lon="6.0964">
        <ele>455.898165</ele>
        <time>2021-09-18T09:11:10.000Z</time>
      </trkpt>
      <trkpt lat="43.90618" lon="6.09703">
        <ele>456.151106</ele>
        <time>2021-09-18T09:11:18.000Z</time>
      </trkpt>
      <trkpt lat="43.90619" lon="6.0975">
        <ele>456.267266</ele>
        <time>2021-09-18T09:11:24.000Z</time>
      </trkpt>
      <trkpt lat="43.90619" lon="6.09758">
        <ele>456.286246</ele>
        <time>2021-09-18T09:11:25.000Z</time>
      </trkpt>
      <trkpt lat="43.9062" lon="6.09829">
        <ele>456.4648</ele>
        <time>2021-09-18T09:11:34.000Z</time>
      </trkpt>
      <trkpt lat="43.90621" lon="6.09902">
        <ele>456.646355</ele>
        <time>2021-09-18T09:11:43.000Z</time>
      </trkpt>
      <trkpt lat="43.90623" lon="6.09951">
        <ele>456.794599</ele>
        <time>2021-09-18T09:11:49.000Z</time>
      </trkpt>
      <trkpt lat="43.9063" lon="6.10012">
        <ele>457.020707</ele>
        <time>2021-09-18T09:11:57.000Z</time>
      </trkpt>
      <trkpt lat="43.90639" lon="6.10079">
        <ele>457.264015</ele>
        <time>2021-09-18T09:12:06.000Z</time>
      </trkpt>
      <trkpt lat="43.9064" lon="6.10086">
        <ele>457.29035</ele>
        <time>2021-09-18T09:12:07.000Z</time>
      </trkpt>
      <trkpt lat="43.90648" lon="6.10142">
        <ele>457.497393</ele>
        <time>2021-09-18T09:12:15.000Z</time>
      </trkpt>
      <trkpt lat="43.90656" lon="6.10203">
        <ele>457.767917</ele>
        <time>2021-09-18T09:12:24.000Z</time>
      </trkpt>
      <trkpt lat="43.90668" lon="6.10255">
        <ele>458.0531</ele>
        <time>2021-09-18T09:12:32.000Z</time>
      </trkpt>
      <trkpt lat="43.90689" lon="6.10309">
        <ele>458.374328</ele>
        <time>2021-09-18T09:12:41.000Z</time>
      </trkpt>
      <trkpt lat="43.90704" lon="6.10349">
        <ele>458.608977</ele>
        <time>2021-09-18T09:12:48.000Z</time>
      </trkpt>
      <trkpt lat="43.90729" lon="6.10415">
        <ele>459.003909</ele>
        <time>2021-09-18T09:12:59.000Z</time>
      </trkpt>
      <trkpt lat="43.90754" lon="6.10483">
        <ele>459.425665</ele>
        <time>2021-09-18T09:13:10.000Z</time>
      </trkpt>
      <trkpt lat="43.90778" lon="6.10544">
        <ele>459.806514</ele>
        <time>2021-09-18T09:13:20.000Z</time>
      </trkpt>
      <trkpt lat="43.90804" lon="6.10613">
        <ele>460.243289</ele>
        <time>2021-09-18T09:13:31.000Z</time>
      </trkpt>
      <trkpt lat="43.9083" lon="6.10664">
        <ele>460.644203</ele>
        <time>2021-09-18T09:13:40.000Z</time>
      </trkpt>
      <trkpt lat="43.90853" lon="6.10704">
        <ele>460.984059</ele>
        <time>2021-09-18T09:13:48.000Z</time>
      </trkpt>
      <trkpt lat="43.90877" lon="6.10746">
        <ele>461.34513</ele>
        <time>2021-09-18T09:13:56.000Z</time>
      </trkpt>
      <trkpt lat="43.90906" lon="6.10796">
        <ele>461.775689</ele>
        <time>2021-09-18T09:14:05.000Z</time>
      </trkpt>
      <trkpt lat="43.90937" lon="6.10848">
        <ele>462.146531</ele>
        <time>2021-09-18T09:14:14.000Z</time>
      </trkpt>
      <trkpt lat="43.90971" lon="6.10907">
        <ele>462.499688</ele>
        <time>2021-09-18T09:14:24.000Z</time>
      </trkpt>
      <trkpt lat="43.90975" lon="6.10913">
        <ele>462.53532</ele>
        <time>2021-09-18T09:14:25.000Z</time>
      </trkpt>
      <trkpt lat="43.91009" lon="6.10974">
        <ele>462.89308</ele>
        <time>2021-09-18T09:14:35.000Z</time>
      </trkpt>
      <trkpt lat="43.9103" lon="6.11027">
        <ele>463.184767</ele>
        <time>2021-09-18T09:14:43.000Z</time>
      </trkpt>
      <trkpt lat="43.9105" lon="6.1109">
        <ele>463.536141</ele>
        <time>2021-09-18T09:14:52.000Z</time>
      </trkpt>
      <trkpt lat="43.91056" lon="6.1111">
        <ele>463.649315</ele>
        <time>2021-09-18T09:14:55.000Z</time>
      </trkpt>
      <trkpt lat="43.91063" lon="6.11131">
        <ele>463.76447</ele>
        <time>2021-09-18T09:14:58.000Z</time>
      </trkpt>
      <trkpt lat="43.91085" lon="6.11201">
        <ele>464.161495</ele>
        <time>2021-09-18T09:15:08.000Z</time>
      </trkpt>
      <trkpt lat="43.91087" lon="6.11208">
        <ele>464.200549</ele>
        <time>2021-09-18T09:15:09.000Z</time>
      </trkpt>
      <trkpt lat="43.91102" lon="6.11251">
        <ele>464.443597</ele>
        <time>2021-09-18T09:15:16.000Z</time>
      </trkpt>
      <trkpt lat="43.91119" lon="6.11303">
        <ele>464.730503</ele>
        <time>2021-09-18T09:15:24.000Z</time>
      </trkpt>
      <trkpt lat="43.91129" lon="6.11342">
        <ele>464.93261</ele>
        <time>2021-09-18T09:15:30.000Z</time>
      </trkpt>
      <trkpt lat="43.91129" lon="6.11348">
        <ele>464.967368</ele>
        <time>2021-09-18T09:15:31.000Z</time>
      </trkpt>
      <trkpt lat="43.91132" lon="6.11385">
        <ele>465.151174</ele>
        <time>2021-09-18T09:15:36.000Z</time>
      </trkpt>
      <trkpt lat="43.91136" lon="6.11437">
        <ele>465.411219</ele>
        <time>2021-09-18T09:15:43.000Z</time>
      </trkpt>
      <trkpt lat="43.91144" lon="6.11488">
        <ele>465.677808</ele>
        <time>2021-09-18T09:15:50.000Z</time>
      </trkpt>
      <trkpt lat="43.91155" lon="6.11555">
        <ele>466.071982</ele>
        <time>2021-09-18T09:15:59.000Z</time>
      </trkpt>
      <trkpt lat="43.91165" lon="6.11628">
        <ele>466.499449</ele>
        <time>2021-09-18T09:16:09.000Z</time>
      </trkpt>
      <trkpt lat="43.91167" lon="6.11649">
        <ele>466.622286</ele>
        <time>2021-09-18T09:16:12.000Z</time>
      </trkpt>
      <trkpt lat="43.91168" lon="6.11662">
        <ele>466.700408</ele>
        <time>2021-09-18T09:16:14.000Z</time>
      </trkpt>
      <trkpt lat="43.91169" lon="6.11683">
        <ele>466.819527</ele>
        <time>2021-09-18T09:16:17.000Z</time>
      </trkpt>
      <trkpt lat="43.91168" lon="6.11704">
        <ele>466.943687</ele>
        <time>2021-09-18T09:16:20.000Z</time>
      </trkpt>
      <trkpt lat="43.91161" lon="6.11774">
        <ele>467.510119</ele>
        <time>2021-09-18T09:16:30.000Z</time>
      </trkpt>
      <trkpt lat="43.91156" lon="6.11821">
        <ele>467.951587</ele>
        <time>2021-09-18T09:16:37.000Z</time>
      </trkpt>
      <trkpt lat="43.9116" lon="6.11872">
        <ele>468.439726</ele>
        <time>2021-09-18T09:16:45.000Z</time>
      </trkpt>
      <trkpt lat="43.91167" lon="6.11924">
        <ele>468.931828</ele>
        <time>2021-09-18T09:16:54.000Z</time>
      </trkpt>
      <trkpt lat="43.91173" lon="6.1195">
        <ele>469.191987</ele>
        <time>2021-09-18T09:16:59.000Z</time>
      </trkpt>
      <trkpt lat="43.91187" lon="6.1199">
        <ele>469.560984</ele>
        <time>2021-09-18T09:17:06.000Z</time>
      </trkpt>
      <trkpt lat="43.91203" lon="6.12038">
        <ele>469.919909</ele>
        <time>2021-09-18T09:17:14.000Z</time>
      </trkpt>
      <trkpt lat="43.91222" lon="6.1209">
        <ele>470.309349</ele>
        <time>2021-09-18T09:17:22.000Z</time>
      </trkpt>
      <trkpt lat="43.9124" lon="6.1214">
        <ele>470.684901</ele>
        <time>2021-09-18T09:17:30.000Z</time>
      </trkpt>
      <trkpt lat="43.91255" lon="6.12183">
        <ele>471.007514</ele>
        <time>2021-09-18T09:17:37.000Z</time>
      </trkpt>
      <trkpt lat="43.91278" lon="6.12244">
        <ele>471.715801</ele>
        <time>2021-09-18T09:17:47.000Z</time>
      </trkpt>
      <trkpt lat="43.91298" lon="6.12282">
        <ele>472.245905</ele>
        <time>2021-09-18T09:17:54.000Z</time>
      </trkpt>
      <trkpt lat="43.91327" lon="6.12336">
        <ele>473.007286</ele>
        <time>2021-09-18T09:18:04.000Z</time>
      </trkpt>
      <trkpt lat="43.91352" lon="6.12384">
        <ele>473.687239</ele>
        <time>2021-09-18T09:18:13.000Z</time>
      </trkpt>
      <trkpt lat="43.9137" lon="6.12428">
        <ele>474.224993</ele>
        <time>2021-09-18T09:18:21.000Z</time>
      </trkpt>
      <trkpt lat="43.91388" lon="6.1248">
        <ele>474.781689</ele>
        <time>2021-09-18T09:18:31.000Z</time>
      </trkpt>
      <trkpt lat="43.91404" lon="6.12524">
        <ele>475.259061</ele>
        <time>2021-09-18T09:18:39.000Z</time>
      </trkpt>
      <trkpt lat="43.91422" lon="6.1257">
        <ele>475.756787</ele>
        <time>2021-09-18T09:18:47.000Z</time>
      </trkpt>
      <trkpt lat="43.91446" lon="6.12629">
        <ele>476.42075</ele>
        <time>2021-09-18T09:18:57.000Z</time>
      </trkpt>
      <trkpt lat="43.91472" lon="6.12693">
        <ele>477.144861</ele>
        <time>2021-09-18T09:19:08.000Z</time>
      </trkpt>
      <trkpt lat="43.91485" lon="6.1273">
        <ele>477.544205</ele>
        <time>2021-09-18T09:19:15.000Z</time>
      </trkpt>
      <trkpt lat="43.91492" lon="6.12755">
        <ele>477.808412</ele>
        <time>2021-09-18T09:19:20.000Z</time>
      </trkpt>
      <trkpt lat="43.91497" lon="6.12765">
        <ele>477.923738</ele>
        <time>2021-09-18T09:19:22.000Z</time>
      </trkpt>
      <trkpt lat="43.91508" lon="6.12783">
        <ele>478.161418</ele>
        <time>2021-09-18T09:19:26.000Z</time>
      </trkpt>
      <trkpt lat="43.91522" lon="6.12796">
        <ele>478.394075</ele>
        <time>2021-09-18T09:19:30.000Z</time>
      </trkpt>
      <trkpt lat="43.91531" lon="6.12801">
        <ele>478.52239</ele>
        <time>2021-09-18T09:19:32.000Z</time>
      </trkpt>
      <trkpt lat="43.91568" lon="6.12814">
        <ele>478.962778</ele>
        <time>2021-09-18T09:19:39.000Z</time>
      </trkpt>
      <trkpt lat="43.91573" lon="6.12817">
        <ele>479.010492</ele>
        <time>2021-09-18T09:19:40.000Z</time>
      </trkpt>
      <trkpt lat="43.91583" lon="6.12823">
        <ele>479.104577</ele>
        <time>2021-09-18T09:19:42.000Z</time>
      </trkpt>
      <trkpt lat="43.91588" lon="6.12827">
        <ele>479.152743</ele>
        <time>2021-09-18T09:19:43.000Z</time>
      </trkpt>
      <trkpt lat="43.91618" lon="6.12868">
        <ele>479.506286</ele>
        <time>2021-09-18T09:19:50.000Z</time>
      </trkpt>
      <trkpt lat="43.91655" lon="6.12925">
        <ele>479.979384</ele>
        <time>2021-09-18T09:19:59.000Z</time>
      </trkpt>
      <trkpt lat="43.91693" lon="6.12982">
        <ele>480.47061</ele>
        <time>2021-09-18T09:20:08.000Z</time>
      </trkpt>
      <trkpt lat="43.91726" lon="6.13031">
        <ele>480.94545</ele>
        <time>2021-09-18T09:20:16.000Z</time>
      </trkpt>
      <trkpt lat="43.91763" lon="6.13085">
        <ele>481.482896</ele>
        <time>2021-09-18T09:20:26.000Z</time>
      </trkpt>
      <trkpt lat="43.9179" lon="6.1313">
        <ele>481.901212</ele>
        <time>2021-09-18T09:20:34.000Z</time>
      </trkpt>
      <trkpt lat="43.91821" lon="6.13182">
        <ele>482.372853</ele>
        <time>2021-09-18T09:20:43.000Z</time>
      </trkpt>
      <trkpt lat="43.9185" lon="6.1322">
        <ele>482.733836</ele>
        <time>2021-09-18T09:20:50.000Z</time>
      </trkpt>
      <trkpt lat="43.9188" lon="6.13255">
        <ele>483.093897</ele>
        <time>2021-09-18T09:20:57.000Z</time>
      </trkpt>
      <trkpt lat="43.91905" lon="6.13283">
        <ele>483.382538</ele>
        <time>2021-09-18T09:21:03.000Z</time>
      </trkpt>
      <trkpt lat="43.91934" lon="6.13312">
        <ele>483.712235</ele>
        <time>2021-09-18T09:21:10.000Z</time>
      </trkpt>
      <trkpt lat="43.91974" lon="6.13345">
        <ele>484.186027</ele>
        <time>2021-09-18T09:21:19.000Z</time>
      </trkpt>
      <trkpt lat="43.92006" lon="6.13372">
        <ele>484.578693</ele>
        <time>2021-09-18T09:21:26.000Z</time>
      </trkpt>
      <trkpt lat="43.92035" lon="6.13394">
        <ele>484.928262</ele>
        <time>2021-09-18T09:21:32.000Z</time>
      </trkpt>
      <trkpt lat="43.92045" lon="6.13403">
        <ele>485.058911</ele>
        <time>2021-09-18T09:21:34.000Z</time>
      </trkpt>
      <trkpt lat="43.92055" lon="6.13411">
        <ele>485.178082</ele>
        <time>2021-09-18T09:21:36.000Z</time>
      </trkpt>
      <trkpt lat="43.92088" lon="6.13439">
        <ele>485.587037</ele>
        <time>2021-09-18T09:21:43.000Z</time>
      </trkpt>
      <trkpt lat="43.92115" lon="6.1346">
        <ele>485.761913</ele>
        <time>2021-09-18T09:21:49.000Z</time>
      </trkpt>
      <trkpt lat="43.9212" lon="6.13463">
        <ele>485.778089</ele>
        <time>2021-09-18T09:21:50.000Z</time>
      </trkpt>
      <trkpt lat="43.92127" lon="6.13469">
        <ele>485.807968</ele>
        <time>2021-09-18T09:21:52.000Z</time>
      </trkpt>
      <trkpt lat="43.92135" lon="6.13475">
        <ele>485.835543</ele>
        <time>2021-09-18T09:21:54.000Z</time>
      </trkpt>
      <trkpt lat="43.92152" lon="6.13485">
        <ele>485.897456</ele>
        <time>2021-09-18T09:21:59.000Z</time>
      </trkpt>
      <trkpt lat="43.9216" lon="6.13491">
        <ele>485.927856</ele>
        <time>2021-09-18T09:22:01.000Z</time>
      </trkpt>
      <trkpt lat="43.92168" lon="6.13504">
        <ele>485.966831</ele>
        <time>2021-09-18T09:22:03.000Z</time>
      </trkpt>
      <trkpt lat="43.92172" lon="6.13519">
        <ele>486.006341</ele>
        <time>2021-09-18T09:22:05.000Z</time>
      </trkpt>
      <trkpt lat="43.92176" lon="6.13535">
        <ele>486.045726</ele>
        <time>2021-09-18T09:22:07.000Z</time>
      </trkpt>
      <trkpt lat="43.92178" lon="6.13543">
        <ele>486.06515</ele>
        <time>2021-09-18T09:22:08.000Z</time>
      </trkpt>
      <trkpt lat="43.92192" lon="6.1361">
        <ele>486.2305</ele>
        <time>2021-09-18T09:22:17.000Z</time>
      </trkpt>
      <trkpt lat="43.92202" lon="6.1367">
        <ele>486.275837</ele>
        <time>2021-09-18T09:22:25.000Z</time>
      </trkpt>
      <trkpt lat="43.9221" lon="6.13723">
        <ele>486.262223</ele>
        <time>2021-09-18T09:22:32.000Z</time>
      </trkpt>
      <trkpt lat="43.92217" lon="6.13769">
        <ele>486.250621</ele>
        <time>2021-09-18T09:22:38.000Z</time>
      </trkpt>
      <trkpt lat="43.92218" lon="6.13777">
        <ele>486.24866</ele>
        <time>2021-09-18T09:22:39.000Z</time>
      </trkpt>
      <trkpt lat="43.9223" lon="6.13829">
        <ele>486.235031</ele>
        <time>2021-09-18T09:22:46.000Z</time>
      </trkpt>
      <trkpt lat="43.9224" lon="6.13848">
        <ele>486.229271</ele>
        <time>2021-09-18T09:22:49.000Z</time>
      </trkpt>
      <trkpt lat="43.92248" lon="6.13859">
        <ele>486.225391</ele>
        <time>2021-09-18T09:22:51.000Z</time>
      </trkpt>
      <trkpt lat="43.92273" lon="6.13889">
        <ele>486.190889</ele>
        <time>2021-09-18T09:22:57.000Z</time>
      </trkpt>
      <trkpt lat="43.92281" lon="6.13898">
        <ele>486.178969</ele>
        <time>2021-09-18T09:22:59.000Z</time>
      </trkpt>
      <trkpt lat="43.92288" lon="6.13906">
        <ele>486.167727</ele>
        <time>2021-09-18T09:23:01.000Z</time>
      </trkpt>
      <trkpt lat="43.92298" lon="6.13918">
        <ele>486.15242</ele>
        <time>2021-09-18T09:23:04.000Z</time>
      </trkpt>
      <trkpt lat="43.92307" lon="6.13928">
        <ele>486.137992</ele>
        <time>2021-09-18T09:23:07.000Z</time>
      </trkpt>
      <trkpt lat="43.92325" lon="6.13948">
        <ele>486.111296</ele>
        <time>2021-09-18T09:23:13.000Z</time>
      </trkpt>
      <trkpt lat="43.92336" lon="6.1396">
        <ele>486.094415</ele>
        <time>2021-09-18T09:23:17.000Z</time>
      </trkpt>
      <trkpt lat="43.92347" lon="6.13974">
        <ele>486.076022</ele>
        <time>2021-09-18T09:23:21.000Z</time>
      </trkpt>
      <trkpt lat="43.92359" lon="6.13989">
        <ele>486.057427</ele>
        <time>2021-09-18T09:23:25.000Z</time>
      </trkpt>
      <trkpt lat="43.92365" lon="6.13998">
        <ele>486.046439</ele>
        <time>2021-09-18T09:23:27.000Z</time>
      </trkpt>
      <trkpt lat="43.92372" lon="6.14007">
        <ele>486.035159</ele>
        <time>2021-09-18T09:23:29.000Z</time>
      </trkpt>
      <trkpt lat="43.9238" lon="6.14017">
        <ele>486.023239</ele>
        <time>2021-09-18T09:23:31.000Z</time>
      </trkpt>
      <trkpt lat="43.92384" lon="6.14022">
        <ele>486.016564</ele>
        <time>2021-09-18T09:23:32.000Z</time>
      </trkpt>
      <trkpt lat="43.92414" lon="6.14061">
        <ele>486.339791</ele>
        <time>2021-09-18T09:23:39.000Z</time>
      </trkpt>
      <trkpt lat="43.92444" lon="6.14087">
        <ele>486.681716</ele>
        <time>2021-09-18T09:23:45.000Z</time>
      </trkpt>
      <trkpt lat="43.92461" lon="6.14093">
        <ele>486.846483</ele>
        <time>2021-09-18T09:23:48.000Z</time>
      </trkpt>
      <trkpt lat="43.92473" lon="6.14095">
        <ele>486.954078</ele>
        <time>2021-09-18T09:23:50.000Z</time>
      </trkpt>
      <trkpt lat="43.9251" lon="6.14099">
        <ele>487.310517</ele>
        <time>2021-09-18T09:23:57.000Z</time>
      </trkpt>
      <trkpt lat="43.92538" lon="6.14102">
        <ele>487.57282</ele>
        <time>2021-09-18T09:24:03.000Z</time>
      </trkpt>
      <trkpt lat="43.92569" lon="6.14105">
        <ele>487.983321</ele>
        <time>2021-09-18T09:24:10.000Z</time>
      </trkpt>
      <trkpt lat="43.92601" lon="6.14108">
        <ele>488.489743</ele>
        <time>2021-09-18T09:24:17.000Z</time>
      </trkpt>
      <trkpt lat="43.92641" lon="6.14115">
        <ele>489.144907</ele>
        <time>2021-09-18T09:24:26.000Z</time>
      </trkpt>
      <trkpt lat="43.92662" lon="6.14121">
        <ele>489.490141</ele>
        <time>2021-09-18T09:24:31.000Z</time>
      </trkpt>
      <trkpt lat="43.92666" lon="6.14123">
        <ele>489.558124</ele>
        <time>2021-09-18T09:24:32.000Z</time>
      </trkpt>
      <trkpt lat="43.92691" lon="6.14136">
        <ele>489.983745</ele>
        <time>2021-09-18T09:24:38.000Z</time>
      </trkpt>
      <trkpt lat="43.92727" lon="6.14163">
        <ele>490.639512</ele>
        <time>2021-09-18T09:24:47.000Z</time>
      </trkpt>
      <trkpt lat="43.92748" lon="6.14182">
        <ele>491.13486</ele>
        <time>2021-09-18T09:24:53.000Z</time>
      </trkpt>
      <trkpt lat="43.92767" lon="6.142">
        <ele>491.570922</ele>
        <time>2021-09-18T09:24:58.000Z</time>
      </trkpt>
      <trkpt lat="43.92771" lon="6.14203">
        <ele>491.656556</ele>
        <time>2021-09-18T09:24:59.000Z</time>
      </trkpt>
      <trkpt lat="43.928" lon="6.14233">
        <ele>492.357701</ele>
        <time>2021-09-18T09:25:07.000Z</time>
      </trkpt>
      <trkpt lat="43.92821" lon="6.14266">
        <ele>492.972442</ele>
        <time>2021-09-18T09:25:14.000Z</time>
      </trkpt>
      <trkpt lat="43.92841" lon="6.14315">
        <ele>493.751294</ele>
        <time>2021-09-18T09:25:23.000Z</time>
      </trkpt>
      <trkpt lat="43.92854" lon="6.14365">
        <ele>494.240231</ele>
        <time>2021-09-18T09:25:31.000Z</time>
      </trkpt>
      <trkpt lat="43.9286" lon="6.14432">
        <ele>494.621744</ele>
        <time>2021-09-18T09:25:40.000Z</time>
      </trkpt>
      <trkpt lat="43.92864" lon="6.14503">
        <ele>495.028513</ele>
        <time>2021-09-18T09:25:49.000Z</time>
      </trkpt>
      <trkpt lat="43.92871" lon="6.14566">
        <ele>495.38709</ele>
        <time>2021-09-18T09:25:56.000Z</time>
      </trkpt>
      <trkpt lat="43.92887" lon="6.14612">
        <ele>495.538815</ele>
        <time>2021-09-18T09:26:02.000Z</time>
      </trkpt>
      <trkpt lat="43.92911" lon="6.1466">
        <ele>495.63336</ele>
        <time>2021-09-18T09:26:09.000Z</time>
      </trkpt>
      <trkpt lat="43.92945" lon="6.14707">
        <ele>495.739824</ele>
        <time>2021-09-18T09:26:17.000Z</time>
      </trkpt>
      <trkpt lat="43.92972" lon="6.14748">
        <ele>495.828184</ele>
        <time>2021-09-18T09:26:24.000Z</time>
      </trkpt>
      <trkpt lat="43.92987" lon="6.14795">
        <ele>495.996794</ele>
        <time>2021-09-18T09:26:31.000Z</time>
      </trkpt>
      <trkpt lat="43.92997" lon="6.1484">
        <ele>496.325674</ele>
        <time>2021-09-18T09:26:38.000Z</time>
      </trkpt>
      <trkpt lat="43.93006" lon="6.14884">
        <ele>496.645098</ele>
        <time>2021-09-18T09:26:45.000Z</time>
      </trkpt>
      <trkpt lat="43.93017" lon="6.14934">
        <ele>497.005658</ele>
        <time>2021-09-18T09:26:53.000Z</time>
      </trkpt>
      <trkpt lat="43.93023" lon="6.14959">
        <ele>497.186077</ele>
        <time>2021-09-18T09:26:58.000Z</time>
      </trkpt>
      <trkpt lat="43.93024" lon="6.14963">
        <ele>497.210574</ele>
        <time>2021-09-18T09:26:59.000Z</time>
      </trkpt>
      <trkpt lat="43.93017" lon="6.14966">
        <ele>497.279635</ele>
        <time>2021-09-18T09:27:02.000Z</time>
      </trkpt>
      <trkpt lat="43.93017" lon="6.14967">
        <ele>497.288844</ele>
        <time>2021-09-18T09:27:04.000Z</time>
      </trkpt>
      <trkpt lat="43.93027" lon="6.14979">
        <ele>497.419524</ele>
        <time>2021-09-18T09:28:31.000Z</time>
      </trkpt>
      <trkpt lat="43.93028" lon="6.14982">
        <ele>497.442692</ele>
        <time>2021-09-18T09:28:32.000Z</time>
      </trkpt>
      <trkpt lat="43.93033" lon="6.15006">
        <ele>497.615333</ele>
        <time>2021-09-18T09:28:37.000Z</time>
      </trkpt>
      <trkpt lat="43.93038" lon="6.15026">
        <ele>497.590782</ele>
        <time>2021-09-18T09:28:39.000Z</time>
      </trkpt>
      <trkpt lat="43.93042" lon="6.15047">
        <ele>497.563974</ele>
        <time>2021-09-18T09:28:43.000Z</time>
      </trkpt>
      <trkpt lat="43.93055" lon="6.15107">
        <ele>497.489815</ele>
        <time>2021-09-18T09:28:50.000Z</time>
      </trkpt>
      <trkpt lat="43.93074" lon="6.15182">
        <ele>497.393535</ele>
        <time>2021-09-18T09:28:59.000Z</time>
      </trkpt>
      <trkpt lat="43.93088" lon="6.15223">
        <ele>497.339626</ele>
        <time>2021-09-18T09:29:04.000Z</time>
      </trkpt>
      <trkpt lat="43.93095" lon="6.15238">
        <ele>497.318309</ele>
        <time>2021-09-18T09:29:06.000Z</time>
      </trkpt>
      <trkpt lat="43.93115" lon="6.15273">
        <ele>497.312284</ele>
        <time>2021-09-18T09:29:11.000Z</time>
      </trkpt>
      <trkpt lat="43.93138" lon="6.15314">
        <ele>497.307143</ele>
        <time>2021-09-18T09:29:17.000Z</time>
      </trkpt>
      <trkpt lat="43.93158" lon="6.15344">
        <ele>497.303007</ele>
        <time>2021-09-18T09:29:23.000Z</time>
      </trkpt>
      <trkpt lat="43.93199" lon="6.15397">
        <ele>497.295276</ele>
        <time>2021-09-18T09:29:32.000Z</time>
      </trkpt>
      <trkpt lat="43.93232" lon="6.15432">
        <ele>497.3968</ele>
        <time>2021-09-18T09:29:40.000Z</time>
      </trkpt>
      <trkpt lat="43.93251" lon="6.15453">
        <ele>497.558662</ele>
        <time>2021-09-18T09:29:45.000Z</time>
      </trkpt>
      <trkpt lat="43.93259" lon="6.15461">
        <ele>497.622136</ele>
        <time>2021-09-18T09:29:47.000Z</time>
      </trkpt>
      <trkpt lat="43.93294" lon="6.15505">
        <ele>497.933632</ele>
        <time>2021-09-18T09:29:56.000Z</time>
      </trkpt>
      <trkpt lat="43.93331" lon="6.15557">
        <ele>498.28488</ele>
        <time>2021-09-18T09:30:05.000Z</time>
      </trkpt>
      <trkpt lat="43.93363" lon="6.15598">
        <ele>498.618478</ele>
        <time>2021-09-18T09:30:12.000Z</time>
      </trkpt>
      <trkpt lat="43.93404" lon="6.15633">
        <ele>499.130746</ele>
        <time>2021-09-18T09:30:20.000Z</time>
      </trkpt>
      <trkpt lat="43.93435" lon="6.15661">
        <ele>499.524527</ele>
        <time>2021-09-18T09:30:27.000Z</time>
      </trkpt>
      <trkpt lat="43.93463" lon="6.15687">
        <ele>499.877032</ele>
        <time>2021-09-18T09:30:35.000Z</time>
      </trkpt>
      <trkpt lat="43.93485" lon="6.15713">
        <ele>500.182318</ele>
        <time>2021-09-18T09:30:43.000Z</time>
      </trkpt>
      <trkpt lat="43.93505" lon="6.15749">
        <ele>500.610444</ele>
        <time>2021-09-18T09:30:52.000Z</time>
      </trkpt>
      <trkpt lat="43.93526" lon="6.15789">
        <ele>501.206702</ele>
        <time>2021-09-18T09:31:01.000Z</time>
      </trkpt>
      <trkpt lat="43.93555" lon="6.15847">
        <ele>502.037395</ele>
        <time>2021-09-18T09:31:13.000Z</time>
      </trkpt>
      <trkpt lat="43.93577" lon="6.15896">
        <ele>502.730208</ele>
        <time>2021-09-18T09:31:22.000Z</time>
      </trkpt>
      <trkpt lat="43.93602" lon="6.1595">
        <ele>503.429596</ele>
        <time>2021-09-18T09:31:31.000Z</time>
      </trkpt>
      <trkpt lat="43.93634" lon="6.16007">
        <ele>503.83806</ele>
        <time>2021-09-18T09:31:40.000Z</time>
      </trkpt>
      <trkpt lat="43.93667" lon="6.16057">
        <ele>504.221101</ele>
        <time>2021-09-18T09:31:48.000Z</time>
      </trkpt>
      <trkpt lat="43.93697" lon="6.16104">
        <ele>504.583667</ele>
        <time>2021-09-18T09:31:56.000Z</time>
      </trkpt>
      <trkpt lat="43.93731" lon="6.16157">
        <ele>505.034</ele>
        <time>2021-09-18T09:32:05.000Z</time>
      </trkpt>
      <trkpt lat="43.93766" lon="6.16208">
        <ele>505.540496</ele>
        <time>2021-09-18T09:32:14.000Z</time>
      </trkpt>
      <trkpt lat="43.93793" lon="6.16247">
        <ele>505.926486</ele>
        <time>2021-09-18T09:32:22.000Z</time>
      </trkpt>
      <trkpt lat="43.9384" lon="6.16297">
        <ele>506.514766</ele>
        <time>2021-09-18T09:32:31.000Z</time>
      </trkpt>
      <trkpt lat="43.93884" lon="6.16338">
        <ele>506.982204</ele>
        <time>2021-09-18T09:32:40.000Z</time>
      </trkpt>
      <trkpt lat="43.93931" lon="6.16382">
        <ele>507.474789</ele>
        <time>2021-09-18T09:32:50.000Z</time>
      </trkpt>
      <trkpt lat="43.93963" lon="6.16424">
        <ele>507.853009</ele>
        <time>2021-09-18T09:32:58.000Z</time>
      </trkpt>
      <trkpt lat="43.93989" lon="6.16467">
        <ele>508.210284</ele>
        <time>2021-09-18T09:33:06.000Z</time>
      </trkpt>
      <trkpt lat="43.94018" lon="6.16524">
        <ele>508.713175</ele>
        <time>2021-09-18T09:33:16.000Z</time>
      </trkpt>
      <trkpt lat="43.94038" lon="6.16581">
        <ele>509.16814</ele>
        <time>2021-09-18T09:33:25.000Z</time>
      </trkpt>
      <trkpt lat="43.94057" lon="6.16656">
        <ele>509.738675</ele>
        <time>2021-09-18T09:33:36.000Z</time>
      </trkpt>
      <trkpt lat="43.94076" lon="6.16715">
        <ele>510.183428</ele>
        <time>2021-09-18T09:33:45.000Z</time>
      </trkpt>
      <trkpt lat="43.94099" lon="6.16772">
        <ele>510.618094</ele>
        <time>2021-09-18T09:33:54.000Z</time>
      </trkpt>
      <trkpt lat="43.94114" lon="6.1682">
        <ele>510.970713</ele>
        <time>2021-09-18T09:34:01.000Z</time>
      </trkpt>
      <trkpt lat="43.94121" lon="6.16869">
        <ele>511.305312</ele>
        <time>2021-09-18T09:34:08.000Z</time>
      </trkpt>
      <trkpt lat="43.94131" lon="6.16904">
        <ele>511.555148</ele>
        <time>2021-09-18T09:34:14.000Z</time>
      </trkpt>
      <trkpt lat="43.94144" lon="6.16928">
        <ele>511.660593</ele>
        <time>2021-09-18T09:34:19.000Z</time>
      </trkpt>
      <trkpt lat="43.94151" lon="6.16934">
        <ele>511.696486</ele>
        <time>2021-09-18T09:34:21.000Z</time>
      </trkpt>
      <trkpt lat="43.94163" lon="6.16943">
        <ele>511.751975</ele>
        <time>2021-09-18T09:34:24.000Z</time>
      </trkpt>
      <trkpt lat="43.94168" lon="6.16946">
        <ele>511.77096</ele>
        <time>2021-09-18T09:34:26.000Z</time>
      </trkpt>
      <trkpt lat="43.94193" lon="6.16955">
        <ele>511.876962</ele>
        <time>2021-09-18T09:34:32.000Z</time>
      </trkpt>
      <trkpt lat="43.94211" lon="6.1696">
        <ele>511.952606</ele>
        <time>2021-09-18T09:34:37.000Z</time>
      </trkpt>
      <trkpt lat="43.94229" lon="6.16967">
        <ele>512.030883</ele>
        <time>2021-09-18T09:34:41.000Z</time>
      </trkpt>
      <trkpt lat="43.94238" lon="6.16972">
        <ele>512.069735</ele>
        <time>2021-09-18T09:34:43.000Z</time>
      </trkpt>
      <trkpt lat="43.94259" lon="6.16988">
        <ele>512.167988</ele>
        <time>2021-09-18T09:34:48.000Z</time>
      </trkpt>
      <trkpt lat="43.94264" lon="6.16992">
        <ele>512.190446</ele>
        <time>2021-09-18T09:34:49.000Z</time>
      </trkpt>
      <trkpt lat="43.94294" lon="6.1702">
        <ele>512.304288</ele>
        <time>2021-09-18T09:34:55.000Z</time>
      </trkpt>
      <trkpt lat="43.94329" lon="6.17062">
        <ele>512.092029</ele>
        <time>2021-09-18T09:35:03.000Z</time>
      </trkpt>
      <trkpt lat="43.94354" lon="6.171">
        <ele>511.924259</ele>
        <time>2021-09-18T09:35:10.000Z</time>
      </trkpt>
      <trkpt lat="43.94362" lon="6.17111">
        <ele>511.874366</ele>
        <time>2021-09-18T09:35:12.000Z</time>
      </trkpt>
      <trkpt lat="43.94374" lon="6.17127">
        <ele>511.797916</ele>
        <time>2021-09-18T09:35:15.000Z</time>
      </trkpt>
      <trkpt lat="43.94397" lon="6.17164">
        <ele>511.638003</ele>
        <time>2021-09-18T09:35:21.000Z</time>
      </trkpt>
      <trkpt lat="43.9443" lon="6.1723">
        <ele>511.541337</ele>
        <time>2021-09-18T09:35:31.000Z</time>
      </trkpt>
      <trkpt lat="43.94459" lon="6.1728">
        <ele>511.596971</ele>
        <time>2021-09-18T09:35:39.000Z</time>
      </trkpt>
      <trkpt lat="43.94492" lon="6.17316">
        <ele>511.64701</ele>
        <time>2021-09-18T09:35:46.000Z</time>
      </trkpt>
      <trkpt lat="43.94536" lon="6.17343">
        <ele>511.703757</ele>
        <time>2021-09-18T09:35:54.000Z</time>
      </trkpt>
      <trkpt lat="43.94591" lon="6.17376">
        <ele>512.007061</ele>
        <time>2021-09-18T09:36:04.000Z</time>
      </trkpt>
      <trkpt lat="43.94596" lon="6.1738">
        <ele>512.044791</ele>
        <time>2021-09-18T09:36:05.000Z</time>
      </trkpt>
      <trkpt lat="43.94619" lon="6.17405">
        <ele>512.235343</ele>
        <time>2021-09-18T09:36:10.000Z</time>
      </trkpt>
      <trkpt lat="43.94649" lon="6.17444">
        <ele>512.49707</ele>
        <time>2021-09-18T09:36:17.000Z</time>
      </trkpt>
      <trkpt lat="43.94682" lon="6.17491">
        <ele>512.796718</ele>
        <time>2021-09-18T09:36:26.000Z</time>
      </trkpt>
      <trkpt lat="43.94713" lon="6.17535">
        <ele>513.228864</ele>
        <time>2021-09-18T09:36:35.000Z</time>
      </trkpt>
      <trkpt lat="43.94743" lon="6.17572">
        <ele>513.661833</ele>
        <time>2021-09-18T09:36:43.000Z</time>
      </trkpt>
      <trkpt lat="43.9478" lon="6.17607">
        <ele>514.135759</ele>
        <time>2021-09-18T09:36:52.000Z</time>
      </trkpt>
      <trkpt lat="43.94816" lon="6.17633">
        <ele>514.570171</ele>
        <time>2021-09-18T09:37:00.000Z</time>
      </trkpt>
      <trkpt lat="43.94857" lon="6.17661">
        <ele>515.071034</ele>
        <time>2021-09-18T09:37:09.000Z</time>
      </trkpt>
      <trkpt lat="43.94907" lon="6.17683">
        <ele>515.642882</ele>
        <time>2021-09-18T09:37:19.000Z</time>
      </trkpt>
      <trkpt lat="43.9494" lon="6.17701">
        <ele>516.03123</ele>
        <time>2021-09-18T09:37:26.000Z</time>
      </trkpt>
      <trkpt lat="43.94985" lon="6.17732">
        <ele>516.569137</ele>
        <time>2021-09-18T09:37:36.000Z</time>
      </trkpt>
      <trkpt lat="43.95014" lon="6.17753">
        <ele>517.006553</ele>
        <time>2021-09-18T09:37:43.000Z</time>
      </trkpt>
      <trkpt lat="43.95047" lon="6.17778">
        <ele>517.597795</ele>
        <time>2021-09-18T09:37:51.000Z</time>
      </trkpt>
      <trkpt lat="43.95081" lon="6.17809">
        <ele>518.252514</ele>
        <time>2021-09-18T09:38:00.000Z</time>
      </trkpt>
      <trkpt lat="43.95112" lon="6.17839">
        <ele>518.845701</ele>
        <time>2021-09-18T09:38:08.000Z</time>
      </trkpt>
      <trkpt lat="43.95119" lon="6.17846">
        <ele>518.993182</ele>
        <time>2021-09-18T09:38:10.000Z</time>
      </trkpt>
      <trkpt lat="43.95138" lon="6.17865">
        <ele>519.358658</ele>
        <time>2021-09-18T09:38:15.000Z</time>
      </trkpt>
      <trkpt lat="43.95174" lon="6.17901">
        <ele>520.149697</ele>
        <time>2021-09-18T09:38:24.000Z</time>
      </trkpt>
      <trkpt lat="43.95213" lon="6.17941">
        <ele>521.094641</ele>
        <time>2021-09-18T09:38:34.000Z</time>
      </trkpt>
      <trkpt lat="43.95243" lon="6.17972">
        <ele>521.803121</ele>
        <time>2021-09-18T09:38:42.000Z</time>
      </trkpt>
      <trkpt lat="43.95271" lon="6.18003">
        <ele>522.495842</ele>
        <time>2021-09-18T09:38:50.000Z</time>
      </trkpt>
      <trkpt lat="43.95301" lon="6.18033">
        <ele>523.177817</ele>
        <time>2021-09-18T09:38:58.000Z</time>
      </trkpt>
      <trkpt lat="43.95331" lon="6.18053">
        <ele>523.679005</ele>
        <time>2021-09-18T09:39:05.000Z</time>
      </trkpt>
      <trkpt lat="43.95368" lon="6.18075">
        <ele>524.306477</ele>
        <time>2021-09-18T09:39:14.000Z</time>
      </trkpt>
      <trkpt lat="43.95397" lon="6.18095">
        <ele>524.80028</ele>
        <time>2021-09-18T09:39:20.000Z</time>
      </trkpt>
      <trkpt lat="43.95434" lon="6.1812">
        <ele>525.430477</ele>
        <time>2021-09-18T09:39:27.000Z</time>
      </trkpt>
      <trkpt lat="43.95474" lon="6.18147">
        <ele>525.986568</ele>
        <time>2021-09-18T09:39:35.000Z</time>
      </trkpt>
      <trkpt lat="43.95514" lon="6.18175">
        <ele>526.378818</ele>
        <time>2021-09-18T09:39:44.000Z</time>
      </trkpt>
      <trkpt lat="43.95551" lon="6.18201">
        <ele>526.739417</ele>
        <time>2021-09-18T09:39:52.000Z</time>
      </trkpt>
      <trkpt lat="43.95588" lon="6.18229">
        <ele>527.096852</ele>
        <time>2021-09-18T09:39:59.000Z</time>
      </trkpt>
      <trkpt lat="43.9563" lon="6.18268">
        <ele>527.50282</ele>
        <time>2021-09-18T09:40:07.000Z</time>
      </trkpt>
      <trkpt lat="43.9567" lon="6.18305">
        <ele>527.825754</ele>
        <time>2021-09-18T09:40:15.000Z</time>
      </trkpt>
      <trkpt lat="43.95707" lon="6.18341">
        <ele>528.135618</ele>
        <time>2021-09-18T09:40:24.000Z</time>
      </trkpt>
      <trkpt lat="43.95741" lon="6.18371">
        <ele>528.409273</ele>
        <time>2021-09-18T09:40:33.000Z</time>
      </trkpt>
      <trkpt lat="43.95784" lon="6.18406">
        <ele>528.664611</ele>
        <time>2021-09-18T09:40:43.000Z</time>
      </trkpt>
      <trkpt lat="43.95829" lon="6.18443">
        <ele>528.826626</ele>
        <time>2021-09-18T09:40:52.000Z</time>
      </trkpt>
      <trkpt lat="43.95873" lon="6.18478">
        <ele>528.97972</ele>
        <time>2021-09-18T09:41:00.000Z</time>
      </trkpt>
      <trkpt lat="43.95912" lon="6.1851">
        <ele>529.120217</ele>
        <time>2021-09-18T09:41:08.000Z</time>
      </trkpt>
      <trkpt lat="43.95942" lon="6.18535">
        <ele>529.546982</ele>
        <time>2021-09-18T09:41:15.000Z</time>
      </trkpt>
      <trkpt lat="43.95961" lon="6.18552">
        <ele>529.917194</ele>
        <time>2021-09-18T09:41:21.000Z</time>
      </trkpt>
      <trkpt lat="43.95985" lon="6.18574">
        <ele>530.383792</ele>
        <time>2021-09-18T09:41:29.000Z</time>
      </trkpt>
      <trkpt lat="43.96002" lon="6.18592">
        <ele>530.731135</ele>
        <time>2021-09-18T09:41:35.000Z</time>
      </trkpt>
      <trkpt lat="43.96036" lon="6.18626">
        <ele>531.419784</ele>
        <time>2021-09-18T09:41:46.000Z</time>
      </trkpt>
      <trkpt lat="43.96063" lon="6.18653">
        <ele>531.963554</ele>
        <time>2021-09-18T09:41:54.000Z</time>
      </trkpt>
      <trkpt lat="43.96089" lon="6.18678">
        <ele>532.318689</ele>
        <time>2021-09-18T09:42:01.000Z</time>
      </trkpt>
      <trkpt lat="43.96116" lon="6.18706">
        <ele>532.647453</ele>
        <time>2021-09-18T09:42:08.000Z</time>
      </trkpt>
      <trkpt lat="43.9615" lon="6.18741">
        <ele>533.061606</ele>
        <time>2021-09-18T09:42:16.000Z</time>
      </trkpt>
      <trkpt lat="43.96183" lon="6.18759">
        <ele>533.407063</ele>
        <time>2021-09-18T09:42:22.000Z</time>
      </trkpt>
      <trkpt lat="43.96219" lon="6.18776">
        <ele>533.779185</ele>
        <time>2021-09-18T09:42:28.000Z</time>
      </trkpt>
      <trkpt lat="43.96242" lon="6.18787">
        <ele>534.041773</ele>
        <time>2021-09-18T09:42:32.000Z</time>
      </trkpt>
      <trkpt lat="43.96252" lon="6.18793">
        <ele>534.169067</ele>
        <time>2021-09-18T09:42:34.000Z</time>
      </trkpt>
      <trkpt lat="43.96268" lon="6.18802">
        <ele>534.361126</ele>
        <time>2021-09-18T09:42:37.000Z</time>
      </trkpt>
      <trkpt lat="43.96285" lon="6.18813">
        <ele>534.578538</ele>
        <time>2021-09-18T09:42:40.000Z</time>
      </trkpt>
      <trkpt lat="43.96328" lon="6.18842">
        <ele>535.112703</ele>
        <time>2021-09-18T09:42:47.000Z</time>
      </trkpt>
      <trkpt lat="43.96363" lon="6.18866">
        <ele>535.563611</ele>
        <time>2021-09-18T09:42:54.000Z</time>
      </trkpt>
      <trkpt lat="43.96397" lon="6.18881">
        <ele>536.030264</ele>
        <time>2021-09-18T09:43:02.000Z</time>
      </trkpt>
      <trkpt lat="43.96432" lon="6.18895">
        <ele>536.828412</ele>
        <time>2021-09-18T09:43:11.000Z</time>
      </trkpt>
      <trkpt lat="43.96462" lon="6.18907">
        <ele>537.508817</ele>
        <time>2021-09-18T09:43:19.000Z</time>
      </trkpt>
      <trkpt lat="43.96498" lon="6.18923">
        <ele>538.333017</ele>
        <time>2021-09-18T09:43:29.000Z</time>
      </trkpt>
      <trkpt lat="43.9653" lon="6.18938">
        <ele>539.073649</ele>
        <time>2021-09-18T09:43:37.000Z</time>
      </trkpt>
      <trkpt lat="43.96568" lon="6.1896">
        <ele>539.8677</ele>
        <time>2021-09-18T09:43:45.000Z</time>
      </trkpt>
      <trkpt lat="43.96598" lon="6.18979">
        <ele>540.140038</ele>
        <time>2021-09-18T09:43:51.000Z</time>
      </trkpt>
      <trkpt lat="43.96641" lon="6.19006">
        <ele>540.52185</ele>
        <time>2021-09-18T09:44:00.000Z</time>
      </trkpt>
      <trkpt lat="43.96695" lon="6.1904">
        <ele>541.011908</ele>
        <time>2021-09-18T09:44:09.000Z</time>
      </trkpt>
      <trkpt lat="43.96741" lon="6.19067">
        <ele>541.309488</ele>
        <time>2021-09-18T09:44:17.000Z</time>
      </trkpt>
      <trkpt lat="43.96789" lon="6.19094">
        <ele>541.406405</ele>
        <time>2021-09-18T09:44:25.000Z</time>
      </trkpt>
      <trkpt lat="43.96831" lon="6.19116">
        <ele>541.490265</ele>
        <time>2021-09-18T09:44:32.000Z</time>
      </trkpt>
      <trkpt lat="43.96891" lon="6.19144">
        <ele>541.6096</ele>
        <time>2021-09-18T09:44:42.000Z</time>
      </trkpt>
      <trkpt lat="43.96946" lon="6.19168">
        <ele>541.96934</ele>
        <time>2021-09-18T09:44:51.000Z</time>
      </trkpt>
      <trkpt lat="43.96959" lon="6.19173">
        <ele>542.052948</ele>
        <time>2021-09-18T09:44:53.000Z</time>
      </trkpt>
      <trkpt lat="43.97007" lon="6.19194">
        <ele>542.374193</ele>
        <time>2021-09-18T09:45:01.000Z</time>
      </trkpt>
      <trkpt lat="43.97047" lon="6.19211">
        <ele>542.645167</ele>
        <time>2021-09-18T09:45:09.000Z</time>
      </trkpt>
      <trkpt lat="43.97074" lon="6.19222">
        <ele>542.938679</ele>
        <time>2021-09-18T09:45:17.000Z</time>
      </trkpt>
      <trkpt lat="43.97101" lon="6.19233">
        <ele>543.446665</ele>
        <time>2021-09-18T09:45:25.000Z</time>
      </trkpt>
      <trkpt lat="43.97129" lon="6.19246">
        <ele>544.004574</ele>
        <time>2021-09-18T09:45:33.000Z</time>
      </trkpt>
      <trkpt lat="43.97151" lon="6.19256">
        <ele>544.42465</ele>
        <time>2021-09-18T09:45:40.000Z</time>
      </trkpt>
      <trkpt lat="43.97183" lon="6.19272">
        <ele>545.05806</ele>
        <time>2021-09-18T09:45:50.000Z</time>
      </trkpt>
      <trkpt lat="43.97214" lon="6.19289">
        <ele>545.679894</ele>
        <time>2021-09-18T09:45:58.000Z</time>
      </trkpt>
      <trkpt lat="43.97249" lon="6.19308">
        <ele>546.120758</ele>
        <time>2021-09-18T09:46:06.000Z</time>
      </trkpt>
      <trkpt lat="43.97282" lon="6.19333">
        <ele>546.174283</ele>
        <time>2021-09-18T09:46:13.000Z</time>
      </trkpt>
      <trkpt lat="43.97323" lon="6.19365">
        <ele>546.240125</ele>
        <time>2021-09-18T09:46:20.000Z</time>
      </trkpt>
      <trkpt lat="43.97374" lon="6.19401">
        <ele>546.320223</ele>
        <time>2021-09-18T09:46:28.000Z</time>
      </trkpt>
      <trkpt lat="43.97414" lon="6.1942">
        <ele>546.462726</ele>
        <time>2021-09-18T09:46:34.000Z</time>
      </trkpt>
      <trkpt lat="43.97469" lon="6.19445">
        <ele>546.801764</ele>
        <time>2021-09-18T09:46:42.000Z</time>
      </trkpt>
      <trkpt lat="43.97475" lon="6.19449">
        <ele>546.83928</ele>
        <time>2021-09-18T09:46:43.000Z</time>
      </trkpt>
      <trkpt lat="43.97517" lon="6.19471">
        <ele>547.098189</ele>
        <time>2021-09-18T09:46:50.000Z</time>
      </trkpt>
      <trkpt lat="43.97562" lon="6.19496">
        <ele>547.378943</ele>
        <time>2021-09-18T09:46:58.000Z</time>
      </trkpt>
      <trkpt lat="43.97606" lon="6.19518">
        <ele>547.650661</ele>
        <time>2021-09-18T09:47:06.000Z</time>
      </trkpt>
      <trkpt lat="43.97647" lon="6.19537">
        <ele>547.90264</ele>
        <time>2021-09-18T09:47:14.000Z</time>
      </trkpt>
      <trkpt lat="43.97681" lon="6.19563">
        <ele>548.131411</ele>
        <time>2021-09-18T09:47:22.000Z</time>
      </trkpt>
      <trkpt lat="43.97707" lon="6.19592">
        <ele>548.322258</ele>
        <time>2021-09-18T09:47:29.000Z</time>
      </trkpt>
      <trkpt lat="43.97731" lon="6.19623">
        <ele>548.539414</ele>
        <time>2021-09-18T09:47:36.000Z</time>
      </trkpt>
      <trkpt lat="43.97765" lon="6.19656">
        <ele>548.87152</ele>
        <time>2021-09-18T09:47:44.000Z</time>
      </trkpt>
      <trkpt lat="43.97809" lon="6.19677">
        <ele>549.242985</ele>
        <time>2021-09-18T09:47:53.000Z</time>
      </trkpt>
      <trkpt lat="43.97854" lon="6.19693">
        <ele>549.614829</ele>
        <time>2021-09-18T09:48:02.000Z</time>
      </trkpt>
      <trkpt lat="43.97896" lon="6.197">
        <ele>549.895333</ele>
        <time>2021-09-18T09:48:10.000Z</time>
      </trkpt>
      <trkpt lat="43.97933" lon="6.19698">
        <ele>549.959854</ele>
        <time>2021-09-18T09:48:16.000Z</time>
      </trkpt>
      <trkpt lat="43.97967" lon="6.19692">
        <ele>550.018033</ele>
        <time>2021-09-18T09:48:22.000Z</time>
      </trkpt>
      <trkpt lat="43.98002" lon="6.19685">
        <ele>550.079462</ele>
        <time>2021-09-18T09:48:29.000Z</time>
      </trkpt>
      <trkpt lat="43.9805" lon="6.19675">
        <ele>550.16512</ele>
        <time>2021-09-18T09:48:39.000Z</time>
      </trkpt>
      <trkpt lat="43.98092" lon="6.19669">
        <ele>550.355439</ele>
        <time>2021-09-18T09:48:48.000Z</time>
      </trkpt>
      <trkpt lat="43.98134" lon="6.1967">
        <ele>550.610792</ele>
        <time>2021-09-18T09:48:56.000Z</time>
      </trkpt>
      <trkpt lat="43.98178" lon="6.19675">
        <ele>550.882848</ele>
        <time>2021-09-18T09:49:04.000Z</time>
      </trkpt>
      <trkpt lat="43.98223" lon="6.1968">
        <ele>551.164139</ele>
        <time>2021-09-18T09:49:13.000Z</time>
      </trkpt>
      <trkpt lat="43.98256" lon="6.19683">
        <ele>551.445828</ele>
        <time>2021-09-18T09:49:20.000Z</time>
      </trkpt>
      <trkpt lat="43.98261" lon="6.19683">
        <ele>551.513036</ele>
        <time>2021-09-18T09:49:21.000Z</time>
      </trkpt>
      <trkpt lat="43.98313" lon="6.19689">
        <ele>552.245845</ele>
        <time>2021-09-18T09:49:32.000Z</time>
      </trkpt>
      <trkpt lat="43.9835" lon="6.19694">
        <ele>552.764348</ele>
        <time>2021-09-18T09:49:40.000Z</time>
      </trkpt>
      <trkpt lat="43.98386" lon="6.197">
        <ele>553.278689</ele>
        <time>2021-09-18T09:49:48.000Z</time>
      </trkpt>
      <trkpt lat="43.98429" lon="6.1971">
        <ele>553.842994</ele>
        <time>2021-09-18T09:49:57.000Z</time>
      </trkpt>
      <trkpt lat="43.98465" lon="6.19723">
        <ele>554.088142</ele>
        <time>2021-09-18T09:50:04.000Z</time>
      </trkpt>
      <trkpt lat="43.98506" lon="6.19737">
        <ele>554.364229</ele>
        <time>2021-09-18T09:50:11.000Z</time>
      </trkpt>
      <trkpt lat="43.98564" lon="6.19758">
        <ele>554.75859</ele>
        <time>2021-09-18T09:50:20.000Z</time>
      </trkpt>
      <trkpt lat="43.98614" lon="6.19775">
        <ele>555.13849</ele>
        <time>2021-09-18T09:50:28.000Z</time>
      </trkpt>
      <trkpt lat="43.98671" lon="6.19795">
        <ele>555.672986</ele>
        <time>2021-09-18T09:50:38.000Z</time>
      </trkpt>
      <trkpt lat="43.98725" lon="6.19814">
        <ele>556.1877</ele>
        <time>2021-09-18T09:50:48.000Z</time>
      </trkpt>
      <trkpt lat="43.98763" lon="6.19827">
        <ele>556.539078</ele>
        <time>2021-09-18T09:50:55.000Z</time>
      </trkpt>
      <trkpt lat="43.98793" lon="6.19838">
        <ele>556.979794</ele>
        <time>2021-09-18T09:51:01.000Z</time>
      </trkpt>
      <trkpt lat="43.98838" lon="6.19853">
        <ele>557.717324</ele>
        <time>2021-09-18T09:51:10.000Z</time>
      </trkpt>
      <trkpt lat="43.98881" lon="6.19867">
        <ele>558.441049</ele>
        <time>2021-09-18T09:51:19.000Z</time>
      </trkpt>
      <trkpt lat="43.98908" lon="6.19875">
        <ele>558.882647</ele>
        <time>2021-09-18T09:51:25.000Z</time>
      </trkpt>
      <trkpt lat="43.98935" lon="6.19882">
        <ele>559.330165</ele>
        <time>2021-09-18T09:51:32.000Z</time>
      </trkpt>
      <trkpt lat="43.98956" lon="6.19882">
        <ele>559.649761</ele>
        <time>2021-09-18T09:51:39.000Z</time>
      </trkpt>
      <trkpt lat="43.98985" lon="6.19878">
        <ele>560.025625</ele>
        <time>2021-09-18T09:51:48.000Z</time>
      </trkpt>
      <trkpt lat="43.99006" lon="6.19867">
        <ele>560.324951</ele>
        <time>2021-09-18T09:51:55.000Z</time>
      </trkpt>
      <trkpt lat="43.99023" lon="6.19851">
        <ele>560.587105</ele>
        <time>2021-09-18T09:52:02.000Z</time>
      </trkpt>
      <trkpt lat="43.99036" lon="6.1983">
        <ele>560.845919</ele>
        <time>2021-09-18T09:52:09.000Z</time>
      </trkpt>
      <trkpt lat="43.99046" lon="6.19797">
        <ele>561.175677</ele>
        <time>2021-09-18T09:52:16.000Z</time>
      </trkpt>
      <trkpt lat="43.99048" lon="6.19764">
        <ele>561.48937</ele>
        <time>2021-09-18T09:52:24.000Z</time>
      </trkpt>
      <trkpt lat="43.99049" lon="6.19732">
        <ele>561.788105</ele>
        <time>2021-09-18T09:52:32.000Z</time>
      </trkpt>
      <trkpt lat="43.99048" lon="6.197">
        <ele>562.017982</ele>
        <time>2021-09-18T09:52:40.000Z</time>
      </trkpt>
      <trkpt lat="43.99046" lon="6.1966">
        <ele>562.2658</ele>
        <time>2021-09-18T09:52:50.000Z</time>
      </trkpt>
      <trkpt lat="43.99043" lon="6.19626">
        <ele>562.478508</ele>
        <time>2021-09-18T09:52:59.000Z</time>
      </trkpt>
      <trkpt lat="43.99041" lon="6.19586">
        <ele>562.719769</ele>
        <time>2021-09-18T09:53:08.000Z</time>
      </trkpt>
      <trkpt lat="43.99046" lon="6.19572">
        <ele>562.817371</ele>
        <time>2021-09-18T09:53:11.000Z</time>
      </trkpt>
      <trkpt lat="43.99049" lon="6.19568">
        <ele>562.851852</ele>
        <time>2021-09-18T09:53:12.000Z</time>
      </trkpt>
      <trkpt lat="43.99051" lon="6.19563">
        <ele>562.884837</ele>
        <time>2021-09-18T09:53:13.000Z</time>
      </trkpt>
      <trkpt lat="43.99058" lon="6.19556">
        <ele>562.956556</ele>
        <time>2021-09-18T09:53:15.000Z</time>
      </trkpt>
      <trkpt lat="43.99062" lon="6.19554">
        <ele>562.999573</ele>
        <time>2021-09-18T09:53:16.000Z</time>
      </trkpt>
      <trkpt lat="43.99085" lon="6.19552">
        <ele>563.188845</ele>
        <time>2021-09-18T09:53:21.000Z</time>
      </trkpt>
      <trkpt lat="43.99089" lon="6.19552">
        <ele>563.225622</ele>
        <time>2021-09-18T09:53:23.000Z</time>
      </trkpt>
      <trkpt lat="43.99101" lon="6.19551">
        <ele>563.331732</ele>
        <time>2021-09-18T09:53:25.000Z</time>
      </trkpt>
      <trkpt lat="43.99106" lon="6.19551">
        <ele>563.369348</ele>
        <time>2021-09-18T09:53:26.000Z</time>
      </trkpt>
      <trkpt lat="43.9911" lon="6.19551">
        <ele>563.404482</ele>
        <time>2021-09-18T09:53:27.000Z</time>
      </trkpt>
      <trkpt lat="43.99126" lon="6.19553">
        <ele>563.78893</ele>
        <time>2021-09-18T09:53:31.000Z</time>
      </trkpt>
      <trkpt lat="43.99145" lon="6.19555">
        <ele>564.306018</ele>
        <time>2021-09-18T09:53:36.000Z</time>
      </trkpt>
      <trkpt lat="43.99177" lon="6.19559">
        <ele>565.164746</ele>
        <time>2021-09-18T09:53:45.000Z</time>
      </trkpt>
      <trkpt lat="43.99196" lon="6.19561">
        <ele>565.695885</ele>
        <time>2021-09-18T09:53:51.000Z</time>
      </trkpt>
      <trkpt lat="43.99216" lon="6.19564">
        <ele>566.232551</ele>
        <time>2021-09-18T09:53:57.000Z</time>
      </trkpt>
      <trkpt lat="43.99237" lon="6.19567">
        <ele>566.790776</ele>
        <time>2021-09-18T09:54:03.000Z</time>
      </trkpt>
      <trkpt lat="43.9926" lon="6.1957">
        <ele>567.424365</ele>
        <time>2021-09-18T09:54:11.000Z</time>
      </trkpt>
      <trkpt lat="43.99278" lon="6.19571">
        <ele>567.894646</ele>
        <time>2021-09-18T09:54:17.000Z</time>
      </trkpt>
      <trkpt lat="43.99305" lon="6.1957">
        <ele>568.668859</ele>
        <time>2021-09-18T09:54:26.000Z</time>
      </trkpt>
      <trkpt lat="43.9933" lon="6.19564">
        <ele>569.410053</ele>
        <time>2021-09-18T09:54:35.000Z</time>
      </trkpt>
      <trkpt lat="43.99344" lon="6.19557">
        <ele>569.835864</ele>
        <time>2021-09-18T09:54:40.000Z</time>
      </trkpt>
      <trkpt lat="43.99354" lon="6.19552">
        <ele>570.170233</ele>
        <time>2021-09-18T09:54:44.000Z</time>
      </trkpt>
      <trkpt lat="43.99368" lon="6.19546">
        <ele>570.586271</ele>
        <time>2021-09-18T09:54:48.000Z</time>
      </trkpt>
      <trkpt lat="43.99394" lon="6.19539">
        <ele>571.380326</ele>
        <time>2021-09-18T09:54:55.000Z</time>
      </trkpt>
      <trkpt lat="43.99422" lon="6.19537">
        <ele>572.203421</ele>
        <time>2021-09-18T09:55:03.000Z</time>
      </trkpt>
      <trkpt lat="43.99442" lon="6.19535">
        <ele>572.80445</ele>
        <time>2021-09-18T09:55:09.000Z</time>
      </trkpt>
      <trkpt lat="43.99463" lon="6.19534">
        <ele>573.410964</ele>
        <time>2021-09-18T09:55:15.000Z</time>
      </trkpt>
      <trkpt lat="43.99486" lon="6.19539">
        <ele>574.246533</ele>
        <time>2021-09-18T09:55:22.000Z</time>
      </trkpt>
      <trkpt lat="43.99512" lon="6.19555">
        <ele>575.314814</ele>
        <time>2021-09-18T09:55:31.000Z</time>
      </trkpt>
      <trkpt lat="43.99538" lon="6.19571">
        <ele>576.385272</ele>
        <time>2021-09-18T09:55:40.000Z</time>
      </trkpt>
      <trkpt lat="43.9955" lon="6.19579">
        <ele>576.888789</ele>
        <time>2021-09-18T09:55:46.000Z</time>
      </trkpt>
      <trkpt lat="43.99553" lon="6.19569">
        <ele>577.156537</ele>
        <time>2021-09-18T09:55:51.000Z</time>
      </trkpt>
      <trkpt lat="43.99555" lon="6.19559">
        <ele>577.44965</ele>
        <time>2021-09-18T09:55:57.000Z</time>
      </trkpt>
      <trkpt lat="43.99575" lon="6.1956">
        <ele>578.184914</ele>
        <time>2021-09-18T09:57:09.000Z</time>
      </trkpt>
      <trkpt lat="43.99577" lon="6.19564">
        <ele>578.318716</ele>
        <time>2021-09-18T09:57:11.000Z</time>
      </trkpt>
      <trkpt lat="43.99587" lon="6.19574">
        <ele>578.795868</ele>
        <time>2021-09-18T09:57:17.000Z</time>
      </trkpt>
      <trkpt lat="43.99599" lon="6.19594">
        <ele>579.469333</ele>
        <time>2021-09-18T09:57:21.000Z</time>
      </trkpt>
      <trkpt lat="43.99598" lon="6.19597">
        <ele>579.553095</ele>
        <time>2021-09-18T09:57:22.000Z</time>
      </trkpt>
      <trkpt lat="43.99597" lon="6.19598">
        <ele>579.60014</ele>
        <time>2021-09-18T09:57:25.000Z</time>
      </trkpt>
      <trkpt lat="43.99593" lon="6.19604">
        <ele>579.828544</ele>
        <time>2021-09-18T09:57:29.000Z</time>
      </trkpt>
      <trkpt lat="43.99608" lon="6.19613">
        <ele>580.309394</ele>
        <time>2021-09-18T09:57:34.000Z</time>
      </trkpt>
      <trkpt lat="43.99628" lon="6.19624">
        <ele>580.300007</ele>
        <time>2021-09-18T09:57:40.000Z</time>
      </trkpt>
      <trkpt lat="43.99636" lon="6.19628">
        <ele>580.296259</ele>
        <time>2021-09-18T09:57:45.000Z</time>
      </trkpt>
      <trkpt lat="43.99604" lon="6.19598">
        <ele>580.279233</ele>
        <time>2021-09-18T11:21:04.000Z</time>
      </trkpt>
      <trkpt lat="43.99596" lon="6.19602">
        <ele>580.275556</ele>
        <time>2021-09-18T11:25:36.000Z</time>
      </trkpt>
      <trkpt lat="43.99599" lon="6.19607">
        <ele>580.273781</ele>
        <time>2021-09-18T11:25:37.000Z</time>
      </trkpt>
      <trkpt lat="43.99611" lon="6.19614">
        <ele>580.267957</ele>
        <time>2021-09-18T11:25:41.000Z</time>
      </trkpt>
      <trkpt lat="43.99642" lon="6.19631">
        <ele>580.253671</ele>
        <time>2021-09-18T11:25:49.000Z</time>
      </trkpt>
      <trkpt lat="43.99665" lon="6.19639">
        <ele>580.243325</ele>
        <time>2021-09-18T11:25:55.000Z</time>
      </trkpt>
      <trkpt lat="43.99688" lon="6.19644">
        <ele>580.232887</ele>
        <time>2021-09-18T11:26:01.000Z</time>
      </trkpt>
      <trkpt lat="43.99712" lon="6.19648">
        <ele>580.616615</ele>
        <time>2021-09-18T11:26:07.000Z</time>
      </trkpt>
      <trkpt lat="43.99744" lon="6.19654">
        <ele>581.156269</ele>
        <time>2021-09-18T11:26:15.000Z</time>
      </trkpt>
      <trkpt lat="43.99777" lon="6.19663">
        <ele>581.733453</ele>
        <time>2021-09-18T11:26:23.000Z</time>
      </trkpt>
      <trkpt lat="43.9981" lon="6.19672">
        <ele>582.284379</ele>
        <time>2021-09-18T11:26:31.000Z</time>
      </trkpt>
      <trkpt lat="43.99848" lon="6.19687">
        <ele>582.95552</ele>
        <time>2021-09-18T11:26:41.000Z</time>
      </trkpt>
      <trkpt lat="43.99884" lon="6.19701">
        <ele>583.561543</ele>
        <time>2021-09-18T11:26:50.000Z</time>
      </trkpt>
      <trkpt lat="43.99914" lon="6.19717">
        <ele>584.061988</ele>
        <time>2021-09-18T11:26:57.000Z</time>
      </trkpt>
      <trkpt lat="43.9994" lon="6.19729">
        <ele>584.479477</ele>
        <time>2021-09-18T11:27:03.000Z</time>
      </trkpt>
      <trkpt lat="43.99948" lon="6.19733">
        <ele>584.620123</ele>
        <time>2021-09-18T11:27:05.000Z</time>
      </trkpt>
      <trkpt lat="43.99967" lon="6.19742">
        <ele>584.933977</ele>
        <time>2021-09-18T11:27:10.000Z</time>
      </trkpt>
      <trkpt lat="43.99974" lon="6.19745">
        <ele>585.050191</ele>
        <time>2021-09-18T11:27:12.000Z</time>
      </trkpt>
      <trkpt lat="43.99982" lon="6.19749">
        <ele>585.17973</ele>
        <time>2021-09-18T11:27:14.000Z</time>
      </trkpt>
      <trkpt lat="43.99994" lon="6.19755">
        <ele>585.3807</ele>
        <time>2021-09-18T11:27:18.000Z</time>
      </trkpt>
      <trkpt lat="44.00006" lon="6.19761">
        <ele>585.589082</ele>
        <time>2021-09-18T11:27:20.000Z</time>
      </trkpt>
      <trkpt lat="44.00037" lon="6.19775">
        <ele>586.103282</ele>
        <time>2021-09-18T11:27:27.000Z</time>
      </trkpt>
      <trkpt lat="44.00074" lon="6.19793">
        <ele>586.97097</ele>
        <time>2021-09-18T11:27:35.000Z</time>
      </trkpt>
      <trkpt lat="44.0011" lon="6.1981">
        <ele>587.821814</ele>
        <time>2021-09-18T11:27:43.000Z</time>
      </trkpt>
      <trkpt lat="44.00148" lon="6.19829">
        <ele>588.729677</ele>
        <time>2021-09-18T11:27:51.000Z</time>
      </trkpt>
      <trkpt lat="44.00179" lon="6.19853">
        <ele>589.516703</ele>
        <time>2021-09-18T11:27:58.000Z</time>
      </trkpt>
      <trkpt lat="44.00196" lon="6.19866">
        <ele>589.958427</ele>
        <time>2021-09-18T11:28:02.000Z</time>
      </trkpt>
      <trkpt lat="44.0021" lon="6.19873">
        <ele>590.193057</ele>
        <time>2021-09-18T11:28:05.000Z</time>
      </trkpt>
      <trkpt lat="44.00247" lon="6.19887">
        <ele>590.640411</ele>
        <time>2021-09-18T11:28:12.000Z</time>
      </trkpt>
      <trkpt lat="44.00285" lon="6.19898">
        <ele>591.085974</ele>
        <time>2021-09-18T11:28:19.000Z</time>
      </trkpt>
      <trkpt lat="44.00319" lon="6.1991">
        <ele>591.496028</ele>
        <time>2021-09-18T11:28:25.000Z</time>
      </trkpt>
      <trkpt lat="44.00352" lon="6.19932">
        <ele>591.927709</ele>
        <time>2021-09-18T11:28:31.000Z</time>
      </trkpt>
      <trkpt lat="44.00403" lon="6.19968">
        <ele>592.085771</ele>
        <time>2021-09-18T11:28:40.000Z</time>
      </trkpt>
      <trkpt lat="44.00447" lon="6.19992">
        <ele>591.965787</ele>
        <time>2021-09-18T11:28:47.000Z</time>
      </trkpt>
      <trkpt lat="44.00481" lon="6.20019">
        <ele>591.866973</ele>
        <time>2021-09-18T11:28:53.000Z</time>
      </trkpt>
      <trkpt lat="44.00527" lon="6.2007">
        <ele>591.710365</ele>
        <time>2021-09-18T11:29:02.000Z</time>
      </trkpt>
      <trkpt lat="44.00535" lon="6.20084">
        <ele>591.611855</ele>
        <time>2021-09-18T11:29:04.000Z</time>
      </trkpt>
      <trkpt lat="44.00542" lon="6.20101">
        <ele>591.504647</ele>
        <time>2021-09-18T11:29:06.000Z</time>
      </trkpt>
      <trkpt lat="44.00546" lon="6.20106">
        <ele>591.461144</ele>
        <time>2021-09-18T11:29:07.000Z</time>
      </trkpt>
      <trkpt lat="44.00554" lon="6.20106">
        <ele>591.394943</ele>
        <time>2021-09-18T11:29:08.000Z</time>
      </trkpt>
      <trkpt lat="44.00564" lon="6.20112">
        <ele>591.314379</ele>
        <time>2021-09-18T11:29:10.000Z</time>
      </trkpt>
      <trkpt lat="44.00569" lon="6.20115">
        <ele>591.270123</ele>
        <time>2021-09-18T11:29:11.000Z</time>
      </trkpt>
      <trkpt lat="44.00588" lon="6.20133">
        <ele>591.095064</ele>
        <time>2021-09-18T11:29:15.000Z</time>
      </trkpt>
      <trkpt lat="44.00606" lon="6.20154">
        <ele>590.918107</ele>
        <time>2021-09-18T11:29:19.000Z</time>
      </trkpt>
      <trkpt lat="44.00648" lon="6.20203">
        <ele>590.493152</ele>
        <time>2021-09-18T11:29:28.000Z</time>
      </trkpt>
      <trkpt lat="44.00652" lon="6.20207">
        <ele>590.456981</ele>
        <time>2021-09-18T11:29:29.000Z</time>
      </trkpt>
      <trkpt lat="44.00656" lon="6.20211">
        <ele>590.417723</ele>
        <time>2021-09-18T11:29:31.000Z</time>
      </trkpt>
      <trkpt lat="44.00656" lon="6.20211">
        <ele>590.417723</ele>
        <time>2021-09-18T11:29:33.000Z</time>
      </trkpt>
      <trkpt lat="44.00658" lon="6.20214">
        <ele>590.393961</ele>
        <time>2021-09-18T11:29:35.000Z</time>
      </trkpt>
      <trkpt lat="44.0066" lon="6.20216">
        <ele>590.378119</ele>
        <time>2021-09-18T11:29:36.000Z</time>
      </trkpt>
      <trkpt lat="44.00669" lon="6.20226">
        <ele>590.344733</ele>
        <time>2021-09-18T11:29:42.000Z</time>
      </trkpt>
      <trkpt lat="44.00673" lon="6.2023">
        <ele>590.351905</ele>
        <time>2021-09-18T11:32:08.000Z</time>
      </trkpt>
      <trkpt lat="44.00674" lon="6.20232">
        <ele>590.354494</ele>
        <time>2021-09-18T11:32:09.000Z</time>
      </trkpt>
      <trkpt lat="44.00676" lon="6.20234">
        <ele>590.35768</ele>
        <time>2021-09-18T11:32:10.000Z</time>
      </trkpt>
      <trkpt lat="44.00686" lon="6.20245">
        <ele>590.377194</ele>
        <time>2021-09-18T11:32:14.000Z</time>
      </trkpt>
      <trkpt lat="44.00708" lon="6.2027">
        <ele>590.419406</ele>
        <time>2021-09-18T11:32:20.000Z</time>
      </trkpt>
      <trkpt lat="44.00716" lon="6.2028">
        <ele>590.435447</ele>
        <time>2021-09-18T11:32:22.000Z</time>
      </trkpt>
      <trkpt lat="44.00728" lon="6.20295">
        <ele>590.460052</ele>
        <time>2021-09-18T11:32:25.000Z</time>
      </trkpt>
      <trkpt lat="44.00758" lon="6.20337">
        <ele>590.523533</ele>
        <time>2021-09-18T11:32:33.000Z</time>
      </trkpt>
      <trkpt lat="44.00769" lon="6.20352">
        <ele>590.546114</ele>
        <time>2021-09-18T11:32:36.000Z</time>
      </trkpt>
      <trkpt lat="44.00783" lon="6.20372">
        <ele>590.5753</ele>
        <time>2021-09-18T11:32:40.000Z</time>
      </trkpt>
      <trkpt lat="44.00804" lon="6.204">
        <ele>590.729035</ele>
        <time>2021-09-18T11:32:46.000Z</time>
      </trkpt>
      <trkpt lat="44.00807" lon="6.20406">
        <ele>590.79018</ele>
        <time>2021-09-18T11:32:47.000Z</time>
      </trkpt>
      <trkpt lat="44.00825" lon="6.2043">
        <ele>591.088532</ele>
        <time>2021-09-18T11:32:52.000Z</time>
      </trkpt>
      <trkpt lat="44.00858" lon="6.20473">
        <ele>591.619619</ele>
        <time>2021-09-18T11:33:01.000Z</time>
      </trkpt>
      <trkpt lat="44.00895" lon="6.20512">
        <ele>592.177713</ele>
        <time>2021-09-18T11:33:11.000Z</time>
      </trkpt>
      <trkpt lat="44.0093" lon="6.20546">
        <ele>592.681802</ele>
        <time>2021-09-18T11:33:21.000Z</time>
      </trkpt>
      <trkpt lat="44.00973" lon="6.20584">
        <ele>593.755747</ele>
        <time>2021-09-18T11:33:34.000Z</time>
      </trkpt>
      <trkpt lat="44.01006" lon="6.20614">
        <ele>594.614317</ele>
        <time>2021-09-18T11:33:44.000Z</time>
      </trkpt>
      <trkpt lat="44.01034" lon="6.20654">
        <ele>595.486291</ele>
        <time>2021-09-18T11:33:53.000Z</time>
      </trkpt>
      <trkpt lat="44.01052" lon="6.20681">
        <ele>596.069502</ele>
        <time>2021-09-18T11:33:59.000Z</time>
      </trkpt>
      <trkpt lat="44.01063" lon="6.20692">
        <ele>596.371537</ele>
        <time>2021-09-18T11:34:02.000Z</time>
      </trkpt>
      <trkpt lat="44.01093" lon="6.20711">
        <ele>597.275953</ele>
        <time>2021-09-18T11:34:09.000Z</time>
      </trkpt>
      <trkpt lat="44.01116" lon="6.20725">
        <ele>598.0848</ele>
        <time>2021-09-18T11:34:15.000Z</time>
      </trkpt>
      <trkpt lat="44.01137" lon="6.20732">
        <ele>598.758675</ele>
        <time>2021-09-18T11:34:21.000Z</time>
      </trkpt>
      <trkpt lat="44.01155" lon="6.20747">
        <ele>599.416024</ele>
        <time>2021-09-18T11:34:26.000Z</time>
      </trkpt>
      <trkpt lat="44.01159" lon="6.20757">
        <ele>599.680867</ele>
        <time>2021-09-18T11:34:28.000Z</time>
      </trkpt>
      <trkpt lat="44.01162" lon="6.20769">
        <ele>599.967855</ele>
        <time>2021-09-18T11:34:30.000Z</time>
      </trkpt>
      <trkpt lat="44.01163" lon="6.20775">
        <ele>600.103925</ele>
        <time>2021-09-18T11:34:31.000Z</time>
      </trkpt>
      <trkpt lat="44.01166" lon="6.20814">
        <ele>601.013556</ele>
        <time>2021-09-18T11:34:38.000Z</time>
      </trkpt>
      <trkpt lat="44.01175" lon="6.20843">
        <ele>601.73232</ele>
        <time>2021-09-18T11:34:44.000Z</time>
      </trkpt>
      <trkpt lat="44.01193" lon="6.20878">
        <ele>602.577048</ele>
        <time>2021-09-18T11:34:52.000Z</time>
      </trkpt>
      <trkpt lat="44.01213" lon="6.20916">
        <ele>603.204924</ele>
        <time>2021-09-18T11:35:00.000Z</time>
      </trkpt>
      <trkpt lat="44.01235" lon="6.20948">
        <ele>603.794796</ele>
        <time>2021-09-18T11:35:07.000Z</time>
      </trkpt>
      <trkpt lat="44.01262" lon="6.20986">
        <ele>604.505088</ele>
        <time>2021-09-18T11:35:15.000Z</time>
      </trkpt>
      <trkpt lat="44.01287" lon="6.21011">
        <ele>605.073489</ele>
        <time>2021-09-18T11:35:21.000Z</time>
      </trkpt>
      <trkpt lat="44.01314" lon="6.2102">
        <ele>605.584918</ele>
        <time>2021-09-18T11:35:26.000Z</time>
      </trkpt>
      <trkpt lat="44.01347" lon="6.21022">
        <ele>606.146912</ele>
        <time>2021-09-18T11:35:32.000Z</time>
      </trkpt>
      <trkpt lat="44.01389" lon="6.21029">
        <ele>606.823246</ele>
        <time>2021-09-18T11:35:40.000Z</time>
      </trkpt>
      <trkpt lat="44.01407" lon="6.2104">
        <ele>607.134035</ele>
        <time>2021-09-18T11:35:44.000Z</time>
      </trkpt>
      <trkpt lat="44.01414" lon="6.21048">
        <ele>607.284581</ele>
        <time>2021-09-18T11:35:46.000Z</time>
      </trkpt>
      <trkpt lat="44.01425" lon="6.21061">
        <ele>607.511816</ele>
        <time>2021-09-18T11:35:49.000Z</time>
      </trkpt>
      <trkpt lat="44.01433" lon="6.21078">
        <ele>607.743752</ele>
        <time>2021-09-18T11:35:52.000Z</time>
      </trkpt>
      <trkpt lat="44.01438" lon="6.21089">
        <ele>607.897515</ele>
        <time>2021-09-18T11:35:54.000Z</time>
      </trkpt>
      <trkpt lat="44.01444" lon="6.21115">
        <ele>608.214741</ele>
        <time>2021-09-18T11:35:58.000Z</time>
      </trkpt>
      <trkpt lat="44.01453" lon="6.2117">
        <ele>608.889153</ele>
        <time>2021-09-18T11:36:06.000Z</time>
      </trkpt>
      <trkpt lat="44.01462" lon="6.21239">
        <ele>609.79771</ele>
        <time>2021-09-18T11:36:17.000Z</time>
      </trkpt>
      <trkpt lat="44.01465" lon="6.21278">
        <ele>610.296908</ele>
        <time>2021-09-18T11:36:24.000Z</time>
      </trkpt>
      <trkpt lat="44.01467" lon="6.21313">
        <ele>610.743027</ele>
        <time>2021-09-18T11:36:31.000Z</time>
      </trkpt>
      <trkpt lat="44.01464" lon="6.21327">
        <ele>610.937976</ele>
        <time>2021-09-18T11:36:34.000Z</time>
      </trkpt>
      <trkpt lat="44.01461" lon="6.21332">
        <ele>611.012087</ele>
        <time>2021-09-18T11:36:35.000Z</time>
      </trkpt>
      <trkpt lat="44.01457" lon="6.21337">
        <ele>611.111338</ele>
        <time>2021-09-18T11:36:36.000Z</time>
      </trkpt>
      <trkpt lat="44.01442" lon="6.21341">
        <ele>611.389607</ele>
        <time>2021-09-18T11:36:39.000Z</time>
      </trkpt>
      <trkpt lat="44.01398" lon="6.21353">
        <ele>611.709243</ele>
        <time>2021-09-18T11:36:46.000Z</time>
      </trkpt>
      <trkpt lat="44.01348" lon="6.21365">
        <ele>611.422954</ele>
        <time>2021-09-18T11:36:53.000Z</time>
      </trkpt>
      <trkpt lat="44.01292" lon="6.21374">
        <ele>611.108145</ele>
        <time>2021-09-18T11:37:00.000Z</time>
      </trkpt>
      <trkpt lat="44.01284" lon="6.21375">
        <ele>611.061076</ele>
        <time>2021-09-18T11:37:01.000Z</time>
      </trkpt>
      <trkpt lat="44.01232" lon="6.21386">
        <ele>610.66436</ele>
        <time>2021-09-18T11:37:07.000Z</time>
      </trkpt>
      <trkpt lat="44.01171" lon="6.21405">
        <ele>609.522882</ele>
        <time>2021-09-18T11:37:14.000Z</time>
      </trkpt>
      <trkpt lat="44.0112" lon="6.21431">
        <ele>608.54149</ele>
        <time>2021-09-18T11:37:20.000Z</time>
      </trkpt>
      <trkpt lat="44.01074" lon="6.21466">
        <ele>607.579556</ele>
        <time>2021-09-18T11:37:26.000Z</time>
      </trkpt>
      <trkpt lat="44.01028" lon="6.21516">
        <ele>606.494321</ele>
        <time>2021-09-18T11:37:33.000Z</time>
      </trkpt>
      <trkpt lat="44.00996" lon="6.21563">
        <ele>605.627119</ele>
        <time>2021-09-18T11:37:39.000Z</time>
      </trkpt>
      <trkpt lat="44.00966" lon="6.21623">
        <ele>604.639186</ele>
        <time>2021-09-18T11:37:46.000Z</time>
      </trkpt>
      <trkpt lat="44.00951" lon="6.21678">
        <ele>604.030194</ele>
        <time>2021-09-18T11:37:52.000Z</time>
      </trkpt>
      <trkpt lat="44.00945" lon="6.21731">
        <ele>603.710933</ele>
        <time>2021-09-18T11:37:58.000Z</time>
      </trkpt>
      <trkpt lat="44.0095" lon="6.21781">
        <ele>603.412941</ele>
        <time>2021-09-18T11:38:04.000Z</time>
      </trkpt>
      <trkpt lat="44.00964" lon="6.21833">
        <ele>603.084642</ele>
        <time>2021-09-18T11:38:11.000Z</time>
      </trkpt>
      <trkpt lat="44.00978" lon="6.21864">
        <ele>602.863511</ele>
        <time>2021-09-18T11:38:16.000Z</time>
      </trkpt>
      <trkpt lat="44.00993" lon="6.21886">
        <ele>602.688325</ele>
        <time>2021-09-18T11:38:20.000Z</time>
      </trkpt>
      <trkpt lat="44.01002" lon="6.21896">
        <ele>602.774555</ele>
        <time>2021-09-18T11:38:22.000Z</time>
      </trkpt>
      <trkpt lat="44.0103" lon="6.21923">
        <ele>603.039635</ele>
        <time>2021-09-18T11:38:28.000Z</time>
      </trkpt>
      <trkpt lat="44.01078" lon="6.21962">
        <ele>603.473822</ele>
        <time>2021-09-18T11:38:38.000Z</time>
      </trkpt>
      <trkpt lat="44.01092" lon="6.21973">
        <ele>603.604832</ele>
        <time>2021-09-18T11:38:41.000Z</time>
      </trkpt>
      <trkpt lat="44.0113" lon="6.22015">
        <ele>603.980856</ele>
        <time>2021-09-18T11:38:50.000Z</time>
      </trkpt>
      <trkpt lat="44.01161" lon="6.22056">
        <ele>604.11635</ele>
        <time>2021-09-18T11:38:58.000Z</time>
      </trkpt>
      <trkpt lat="44.01199" lon="6.22108">
        <ele>604.169742</ele>
        <time>2021-09-18T11:39:08.000Z</time>
      </trkpt>
      <trkpt lat="44.01236" lon="6.22154">
        <ele>604.218637</ele>
        <time>2021-09-18T11:39:17.000Z</time>
      </trkpt>
      <trkpt lat="44.01278" lon="6.22201">
        <ele>604.283331</ele>
        <time>2021-09-18T11:39:27.000Z</time>
      </trkpt>
      <trkpt lat="44.01317" lon="6.22243">
        <ele>604.431637</ele>
        <time>2021-09-18T11:39:36.000Z</time>
      </trkpt>
      <trkpt lat="44.01348" lon="6.22284">
        <ele>604.561002</ele>
        <time>2021-09-18T11:39:44.000Z</time>
      </trkpt>
      <trkpt lat="44.01386" lon="6.2234">
        <ele>604.726383</ele>
        <time>2021-09-18T11:39:54.000Z</time>
      </trkpt>
      <trkpt lat="44.0142" lon="6.22391">
        <ele>604.87025</ele>
        <time>2021-09-18T11:40:03.000Z</time>
      </trkpt>
      <trkpt lat="44.01457" lon="6.22447">
        <ele>605.016147</ele>
        <time>2021-09-18T11:40:12.000Z</time>
      </trkpt>
      <trkpt lat="44.01461" lon="6.22454">
        <ele>605.033351</ele>
        <time>2021-09-18T11:40:13.000Z</time>
      </trkpt>
      <trkpt lat="44.01501" lon="6.22512">
        <ele>605.188948</ele>
        <time>2021-09-18T11:40:22.000Z</time>
      </trkpt>
      <trkpt lat="44.01528" lon="6.22569">
        <ele>605.398927</ele>
        <time>2021-09-18T11:40:30.000Z</time>
      </trkpt>
      <trkpt lat="44.01546" lon="6.22621">
        <ele>605.766977</ele>
        <time>2021-09-18T11:40:37.000Z</time>
      </trkpt>
      <trkpt lat="44.01558" lon="6.22678">
        <ele>606.154588</ele>
        <time>2021-09-18T11:40:45.000Z</time>
      </trkpt>
      <trkpt lat="44.01563" lon="6.22733">
        <ele>606.509299</ele>
        <time>2021-09-18T11:40:53.000Z</time>
      </trkpt>
      <trkpt lat="44.01564" lon="6.22792">
        <ele>606.894553</ele>
        <time>2021-09-18T11:41:02.000Z</time>
      </trkpt>
      <trkpt lat="44.01561" lon="6.22842">
        <ele>607.531938</ele>
        <time>2021-09-18T11:41:10.000Z</time>
      </trkpt>
      <trkpt lat="44.01558" lon="6.2289">
        <ele>608.153521</ele>
        <time>2021-09-18T11:41:18.000Z</time>
      </trkpt>
      <trkpt lat="44.01554" lon="6.22947">
        <ele>608.899199</ele>
        <time>2021-09-18T11:41:28.000Z</time>
      </trkpt>
      <trkpt lat="44.0155" lon="6.22997">
        <ele>609.549772</ele>
        <time>2021-09-18T11:41:37.000Z</time>
      </trkpt>
      <trkpt lat="44.01546" lon="6.23054">
        <ele>610.323853</ele>
        <time>2021-09-18T11:41:47.000Z</time>
      </trkpt>
      <trkpt lat="44.01545" lon="6.23102">
        <ele>611.06711</ele>
        <time>2021-09-18T11:41:55.000Z</time>
      </trkpt>
      <trkpt lat="44.01547" lon="6.2317">
        <ele>612.129474</ele>
        <time>2021-09-18T11:42:06.000Z</time>
      </trkpt>
      <trkpt lat="44.01553" lon="6.23231">
        <ele>613.094526</ele>
        <time>2021-09-18T11:42:16.000Z</time>
      </trkpt>
      <trkpt lat="44.01559" lon="6.23297">
        <ele>614.105926</ele>
        <time>2021-09-18T11:42:26.000Z</time>
      </trkpt>
      <trkpt lat="44.01568" lon="6.23377">
        <ele>615.054074</ele>
        <time>2021-09-18T11:42:38.000Z</time>
      </trkpt>
      <trkpt lat="44.01575" lon="6.23427">
        <ele>615.653464</ele>
        <time>2021-09-18T11:42:46.000Z</time>
      </trkpt>
      <trkpt lat="44.01586" lon="6.23478">
        <ele>616.271318</ele>
        <time>2021-09-18T11:42:54.000Z</time>
      </trkpt>
      <trkpt lat="44.01598" lon="6.23524">
        <ele>616.846495</ele>
        <time>2021-09-18T11:43:01.000Z</time>
      </trkpt>
      <trkpt lat="44.01615" lon="6.2359">
        <ele>616.945776</ele>
        <time>2021-09-18T11:43:10.000Z</time>
      </trkpt>
      <trkpt lat="44.0163" lon="6.2365">
        <ele>616.914763</ele>
        <time>2021-09-18T11:43:17.000Z</time>
      </trkpt>
      <trkpt lat="44.01633" lon="6.23659">
        <ele>616.909997</ele>
        <time>2021-09-18T11:43:18.000Z</time>
      </trkpt>
      <trkpt lat="44.01642" lon="6.23697">
        <ele>616.890522</ele>
        <time>2021-09-18T11:43:22.000Z</time>
      </trkpt>
      <trkpt lat="44.01647" lon="6.23728">
        <ele>616.875164</ele>
        <time>2021-09-18T11:43:25.000Z</time>
      </trkpt>
      <trkpt lat="44.0165" lon="6.23749">
        <ele>616.864497</ele>
        <time>2021-09-18T11:43:27.000Z</time>
      </trkpt>
      <trkpt lat="44.01653" lon="6.23829">
        <ele>616.320633</ele>
        <time>2021-09-18T11:43:34.000Z</time>
      </trkpt>
      <trkpt lat="44.01654" lon="6.23912">
        <ele>615.522986</ele>
        <time>2021-09-18T11:43:41.000Z</time>
      </trkpt>
      <trkpt lat="44.01655" lon="6.23925">
        <ele>615.404059</ele>
        <time>2021-09-18T11:43:42.000Z</time>
      </trkpt>
      <trkpt lat="44.01657" lon="6.24011">
        <ele>614.573486</ele>
        <time>2021-09-18T11:43:49.000Z</time>
      </trkpt>
      <trkpt lat="44.01657" lon="6.24024">
        <ele>614.453493</ele>
        <time>2021-09-18T11:43:50.000Z</time>
      </trkpt>
      <trkpt lat="44.0166" lon="6.24097">
        <ele>613.702512</ele>
        <time>2021-09-18T11:43:56.000Z</time>
      </trkpt>
      <trkpt lat="44.01673" lon="6.2417">
        <ele>612.936517</ele>
        <time>2021-09-18T11:44:02.000Z</time>
      </trkpt>
      <trkpt lat="44.01675" lon="6.24182">
        <ele>612.806278</ele>
        <time>2021-09-18T11:44:03.000Z</time>
      </trkpt>
      <trkpt lat="44.01694" lon="6.24265">
        <ele>611.926497</ele>
        <time>2021-09-18T11:44:10.000Z</time>
      </trkpt>
      <trkpt lat="44.017" lon="6.24334">
        <ele>611.264242</ele>
        <time>2021-09-18T11:44:16.000Z</time>
      </trkpt>
      <trkpt lat="44.017" lon="6.24409">
        <ele>610.555739</ele>
        <time>2021-09-18T11:44:23.000Z</time>
      </trkpt>
      <trkpt lat="44.01699" lon="6.24477">
        <ele>609.909406</ele>
        <time>2021-09-18T11:44:30.000Z</time>
      </trkpt>
      <trkpt lat="44.01697" lon="6.24553">
        <ele>609.337155</ele>
        <time>2021-09-18T11:44:38.000Z</time>
      </trkpt>
      <trkpt lat="44.01696" lon="6.24562">
        <ele>609.286628</ele>
        <time>2021-09-18T11:44:39.000Z</time>
      </trkpt>
      <trkpt lat="44.01693" lon="6.24645">
        <ele>608.836537</ele>
        <time>2021-09-18T11:44:48.000Z</time>
      </trkpt>
      <trkpt lat="44.0169" lon="6.24726">
        <ele>608.396282</ele>
        <time>2021-09-18T11:44:57.000Z</time>
      </trkpt>
      <trkpt lat="44.01689" lon="6.24735">
        <ele>608.347882</ele>
        <time>2021-09-18T11:44:58.000Z</time>
      </trkpt>
      <trkpt lat="44.01687" lon="6.24814">
        <ele>608.128458</ele>
        <time>2021-09-18T11:45:07.000Z</time>
      </trkpt>
      <trkpt lat="44.01686" lon="6.24822">
        <ele>608.119624</ele>
        <time>2021-09-18T11:45:08.000Z</time>
      </trkpt>
      <trkpt lat="44.01684" lon="6.24898">
        <ele>608.041866</ele>
        <time>2021-09-18T11:45:17.000Z</time>
      </trkpt>
      <trkpt lat="44.01683" lon="6.24914">
        <ele>608.025737</ele>
        <time>2021-09-18T11:45:19.000Z</time>
      </trkpt>
      <trkpt lat="44.0168" lon="6.24991">
        <ele>607.946025</ele>
        <time>2021-09-18T11:45:29.000Z</time>
      </trkpt>
      <trkpt lat="44.0168" lon="6.24999">
        <ele>607.938011</ele>
        <time>2021-09-18T11:45:30.000Z</time>
      </trkpt>
      <trkpt lat="44.01677" lon="6.25078">
        <ele>608.090334</ele>
        <time>2021-09-18T11:45:40.000Z</time>
      </trkpt>
      <trkpt lat="44.0168" lon="6.25138">
        <ele>608.255642</ele>
        <time>2021-09-18T11:45:48.000Z</time>
      </trkpt>
      <trkpt lat="44.01685" lon="6.25188">
        <ele>608.395986</ele>
        <time>2021-09-18T11:45:55.000Z</time>
      </trkpt>
      <trkpt lat="44.01686" lon="6.25201">
        <ele>608.432674</ele>
        <time>2021-09-18T11:45:57.000Z</time>
      </trkpt>
      <trkpt lat="44.01684" lon="6.25221">
        <ele>608.486629</ele>
        <time>2021-09-18T11:46:00.000Z</time>
      </trkpt>
      <trkpt lat="44.01681" lon="6.25233">
        <ele>608.522789</ele>
        <time>2021-09-18T11:46:02.000Z</time>
      </trkpt>
      <trkpt lat="44.01678" lon="6.25246">
        <ele>608.558834</ele>
        <time>2021-09-18T11:46:04.000Z</time>
      </trkpt>
      <trkpt lat="44.01674" lon="6.25258">
        <ele>608.5965</ele>
        <time>2021-09-18T11:46:06.000Z</time>
      </trkpt>
      <trkpt lat="44.01671" lon="6.25264">
        <ele>608.593662</ele>
        <time>2021-09-18T11:46:07.000Z</time>
      </trkpt>
      <trkpt lat="44.01661" lon="6.25279">
        <ele>608.478592</ele>
        <time>2021-09-18T11:46:10.000Z</time>
      </trkpt>
      <trkpt lat="44.01657" lon="6.25284">
        <ele>608.440423</ele>
        <time>2021-09-18T11:46:11.000Z</time>
      </trkpt>
      <trkpt lat="44.01628" lon="6.25305">
        <ele>608.187544</ele>
        <time>2021-09-18T11:46:17.000Z</time>
      </trkpt>
      <trkpt lat="44.01579" lon="6.25329">
        <ele>607.795013</ele>
        <time>2021-09-18T11:46:26.000Z</time>
      </trkpt>
      <trkpt lat="44.01536" lon="6.25349">
        <ele>607.446772</ele>
        <time>2021-09-18T11:46:34.000Z</time>
      </trkpt>
      <trkpt lat="44.01496" lon="6.25371">
        <ele>606.851816</ele>
        <time>2021-09-18T11:46:42.000Z</time>
      </trkpt>
      <trkpt lat="44.01491" lon="6.25372">
        <ele>606.723763</ele>
        <time>2021-09-18T11:46:43.000Z</time>
      </trkpt>
      <trkpt lat="44.01481" lon="6.25372">
        <ele>606.470159</ele>
        <time>2021-09-18T11:46:45.000Z</time>
      </trkpt>
      <trkpt lat="44.01475" lon="6.25371">
        <ele>606.340825</ele>
        <time>2021-09-18T11:46:46.000Z</time>
      </trkpt>
      <trkpt lat="44.01455" lon="6.2537">
        <ele>605.823312</ele>
        <time>2021-09-18T11:46:50.000Z</time>
      </trkpt>
      <trkpt lat="44.01449" lon="6.2537">
        <ele>605.67901</ele>
        <time>2021-09-18T11:46:51.000Z</time>
      </trkpt>
      <trkpt lat="44.01443" lon="6.2537">
        <ele>605.544705</ele>
        <time>2021-09-18T11:46:52.000Z</time>
      </trkpt>
      <trkpt lat="44.01433" lon="6.25369">
        <ele>605.29095</ele>
        <time>2021-09-18T11:46:54.000Z</time>
      </trkpt>
      <trkpt lat="44.01428" lon="6.25369">
        <ele>605.166522</ele>
        <time>2021-09-18T11:46:55.000Z</time>
      </trkpt>
      <trkpt lat="44.0142" lon="6.25367">
        <ele>604.953315</ele>
        <time>2021-09-18T11:46:57.000Z</time>
      </trkpt>
      <trkpt lat="44.01403" lon="6.25359">
        <ele>604.518611</ele>
        <time>2021-09-18T11:47:00.000Z</time>
      </trkpt>
      <trkpt lat="44.01381" lon="6.25354">
        <ele>603.959778</ele>
        <time>2021-09-18T11:47:05.000Z</time>
      </trkpt>
      <trkpt lat="44.0119" lon="6.2536">
        <ele>602.957305</ele>
        <time>2021-09-18T11:47:39.000Z</time>
      </trkpt>
      <trkpt lat="44.01184" lon="6.25363">
        <ele>602.965624</ele>
        <time>2021-09-18T11:47:40.000Z</time>
      </trkpt>
      <trkpt lat="44.01153" lon="6.25378">
        <ele>603.034087</ele>
        <time>2021-09-18T11:47:46.000Z</time>
      </trkpt>
      <trkpt lat="44.01122" lon="6.25394">
        <ele>603.574865</ele>
        <time>2021-09-18T11:47:52.000Z</time>
      </trkpt>
      <trkpt lat="44.01113" lon="6.25403">
        <ele>603.75289</ele>
        <time>2021-09-18T11:47:54.000Z</time>
      </trkpt>
      <trkpt lat="44.01099" lon="6.25416">
        <ele>604.029912</ele>
        <time>2021-09-18T11:47:57.000Z</time>
      </trkpt>
      <trkpt lat="44.01094" lon="6.25421">
        <ele>604.123581</ele>
        <time>2021-09-18T11:47:58.000Z</time>
      </trkpt>
      <trkpt lat="44.01087" lon="6.25432">
        <ele>604.297125</ele>
        <time>2021-09-18T11:48:00.000Z</time>
      </trkpt>
      <trkpt lat="44.01081" lon="6.25445">
        <ele>604.476635</ele>
        <time>2021-09-18T11:48:02.000Z</time>
      </trkpt>
      <trkpt lat="44.01073" lon="6.25473">
        <ele>604.828158</ele>
        <time>2021-09-18T11:48:06.000Z</time>
      </trkpt>
      <trkpt lat="44.01072" lon="6.25481">
        <ele>604.91869</ele>
        <time>2021-09-18T11:48:07.000Z</time>
      </trkpt>
      <trkpt lat="44.01072" lon="6.25534">
        <ele>605.538927</ele>
        <time>2021-09-18T11:48:14.000Z</time>
      </trkpt>
      <trkpt lat="44.01073" lon="6.25592">
        <ele>606.47294</ele>
        <time>2021-09-18T11:48:22.000Z</time>
      </trkpt>
      <trkpt lat="44.01074" lon="6.25664">
        <ele>608.061386</ele>
        <time>2021-09-18T11:48:31.000Z</time>
      </trkpt>
      <trkpt lat="44.01074" lon="6.25721">
        <ele>609.322643</ele>
        <time>2021-09-18T11:48:38.000Z</time>
      </trkpt>
      <trkpt lat="44.01066" lon="6.25776">
        <ele>610.578191</ele>
        <time>2021-09-18T11:48:45.000Z</time>
      </trkpt>
      <trkpt lat="44.01047" lon="6.25828">
        <ele>611.729183</ele>
        <time>2021-09-18T11:48:52.000Z</time>
      </trkpt>
      <trkpt lat="44.01029" lon="6.25879">
        <ele>612.616688</ele>
        <time>2021-09-18T11:48:59.000Z</time>
      </trkpt>
      <trkpt lat="44.01007" lon="6.25951">
        <ele>613.836546</ele>
        <time>2021-09-18T11:49:09.000Z</time>
      </trkpt>
      <trkpt lat="44.00994" lon="6.26003">
        <ele>614.700966</ele>
        <time>2021-09-18T11:49:16.000Z</time>
      </trkpt>
      <trkpt lat="44.00986" lon="6.26064">
        <ele>615.505827</ele>
        <time>2021-09-18T11:49:24.000Z</time>
      </trkpt>
      <trkpt lat="44.00982" lon="6.26136">
        <ele>616.063427</ele>
        <time>2021-09-18T11:49:33.000Z</time>
      </trkpt>
      <trkpt lat="44.00978" lon="6.26199">
        <ele>616.558824</ele>
        <time>2021-09-18T11:49:41.000Z</time>
      </trkpt>
      <trkpt lat="44.00974" lon="6.26263">
        <ele>617.053081</ele>
        <time>2021-09-18T11:49:49.000Z</time>
      </trkpt>
      <trkpt lat="44.0097" lon="6.26324">
        <ele>617.457985</ele>
        <time>2021-09-18T11:49:57.000Z</time>
      </trkpt>
      <trkpt lat="44.00966" lon="6.26392">
        <ele>617.835983</ele>
        <time>2021-09-18T11:50:06.000Z</time>
      </trkpt>
      <trkpt lat="44.00962" lon="6.26461">
        <ele>618.215269</ele>
        <time>2021-09-18T11:50:15.000Z</time>
      </trkpt>
      <trkpt lat="44.00958" lon="6.26523">
        <ele>618.554291</ele>
        <time>2021-09-18T11:50:23.000Z</time>
      </trkpt>
      <trkpt lat="44.00955" lon="6.26591">
        <ele>618.963919</ele>
        <time>2021-09-18T11:50:32.000Z</time>
      </trkpt>
      <trkpt lat="44.00951" lon="6.2666">
        <ele>619.387913</ele>
        <time>2021-09-18T11:50:41.000Z</time>
      </trkpt>
      <trkpt lat="44.00947" lon="6.26735">
        <ele>619.84895</ele>
        <time>2021-09-18T11:50:51.000Z</time>
      </trkpt>
      <trkpt lat="44.00947" lon="6.26742">
        <ele>619.895115</ele>
        <time>2021-09-18T11:50:52.000Z</time>
      </trkpt>
      <trkpt lat="44.00942" lon="6.26824">
        <ele>620.474972</ele>
        <time>2021-09-18T11:51:03.000Z</time>
      </trkpt>
      <trkpt lat="44.00938" lon="6.26884">
        <ele>620.9854</ele>
        <time>2021-09-18T11:51:11.000Z</time>
      </trkpt>
      <trkpt lat="44.00932" lon="6.2696">
        <ele>621.635931</ele>
        <time>2021-09-18T11:51:21.000Z</time>
      </trkpt>
      <trkpt lat="44.0093" lon="6.26996">
        <ele>621.948325</ele>
        <time>2021-09-18T11:51:26.000Z</time>
      </trkpt>
      <trkpt lat="44.00931" lon="6.27011">
        <ele>622.073464</ele>
        <time>2021-09-18T11:51:28.000Z</time>
      </trkpt>
      <trkpt lat="44.00939" lon="6.27074">
        <ele>622.79687</ele>
        <time>2021-09-18T11:51:37.000Z</time>
      </trkpt>
      <trkpt lat="44.0094" lon="6.27081">
        <ele>622.892754</ele>
        <time>2021-09-18T11:51:38.000Z</time>
      </trkpt>
      <trkpt lat="44.00941" lon="6.27089">
        <ele>622.989975</ele>
        <time>2021-09-18T11:51:39.000Z</time>
      </trkpt>
      <trkpt lat="44.00941" lon="6.27125">
        <ele>623.485133</ele>
        <time>2021-09-18T11:51:44.000Z</time>
      </trkpt>
      <trkpt lat="44.00935" lon="6.27165">
        <ele>624.036357</ele>
        <time>2021-09-18T11:51:50.000Z</time>
      </trkpt>
      <trkpt lat="44.00927" lon="6.27219">
        <ele>624.785437</ele>
        <time>2021-09-18T11:51:59.000Z</time>
      </trkpt>
      <trkpt lat="44.00926" lon="6.27268">
        <ele>625.452753</ele>
        <time>2021-09-18T11:52:07.000Z</time>
      </trkpt>
      <trkpt lat="44.00924" lon="6.27324">
        <ele>626.235104</ele>
        <time>2021-09-18T11:52:16.000Z</time>
      </trkpt>
      <trkpt lat="44.00923" lon="6.27366">
        <ele>626.857282</ele>
        <time>2021-09-18T11:52:23.000Z</time>
      </trkpt>
      <trkpt lat="44.00921" lon="6.27423">
        <ele>627.675726</ele>
        <time>2021-09-18T11:52:32.000Z</time>
      </trkpt>
      <trkpt lat="44.00916" lon="6.2748">
        <ele>628.519493</ele>
        <time>2021-09-18T11:52:41.000Z</time>
      </trkpt>
      <trkpt lat="44.00903" lon="6.27525">
        <ele>629.224516</ele>
        <time>2021-09-18T11:52:48.000Z</time>
      </trkpt>
      <trkpt lat="44.00884" lon="6.27576">
        <ele>629.657878</ele>
        <time>2021-09-18T11:52:56.000Z</time>
      </trkpt>
      <trkpt lat="44.00866" lon="6.27623">
        <ele>630.001978</ele>
        <time>2021-09-18T11:53:03.000Z</time>
      </trkpt>
      <trkpt lat="44.00847" lon="6.27685">
        <ele>630.439108</ele>
        <time>2021-09-18T11:53:11.000Z</time>
      </trkpt>
      <trkpt lat="44.00828" lon="6.27751">
        <ele>630.901022</ele>
        <time>2021-09-18T11:53:19.000Z</time>
      </trkpt>
      <trkpt lat="44.00804" lon="6.27804">
        <ele>631.542771</ele>
        <time>2021-09-18T11:53:26.000Z</time>
      </trkpt>
      <trkpt lat="44.00783" lon="6.27838">
        <ele>632.033914</ele>
        <time>2021-09-18T11:53:32.000Z</time>
      </trkpt>
      <trkpt lat="44.00765" lon="6.27869">
        <ele>632.466888</ele>
        <time>2021-09-18T11:53:39.000Z</time>
      </trkpt>
      <trkpt lat="44.00747" lon="6.27912">
        <ele>633.003825</ele>
        <time>2021-09-18T11:53:48.000Z</time>
      </trkpt>
      <trkpt lat="44.00738" lon="6.27955">
        <ele>633.495147</ele>
        <time>2021-09-18T11:53:55.000Z</time>
      </trkpt>
      <trkpt lat="44.00732" lon="6.28007">
        <ele>633.953834</ele>
        <time>2021-09-18T11:54:02.000Z</time>
      </trkpt>
      <trkpt lat="44.00723" lon="6.28061">
        <ele>634.38227</ele>
        <time>2021-09-18T11:54:09.000Z</time>
      </trkpt>
      <trkpt lat="44.00709" lon="6.28107">
        <ele>634.77588</ele>
        <time>2021-09-18T11:54:15.000Z</time>
      </trkpt>
      <trkpt lat="44.00684" lon="6.28166">
        <ele>635.303489</ele>
        <time>2021-09-18T11:54:23.000Z</time>
      </trkpt>
      <trkpt lat="44.00654" lon="6.28235">
        <ele>635.871557</ele>
        <time>2021-09-18T11:54:32.000Z</time>
      </trkpt>
      <trkpt lat="44.00648" lon="6.2825">
        <ele>635.988746</ele>
        <time>2021-09-18T11:54:34.000Z</time>
      </trkpt>
      <trkpt lat="44.00626" lon="6.28301">
        <ele>636.375091</ele>
        <time>2021-09-18T11:54:41.000Z</time>
      </trkpt>
      <trkpt lat="44.00596" lon="6.28368">
        <ele>636.885178</ele>
        <time>2021-09-18T11:54:51.000Z</time>
      </trkpt>
      <trkpt lat="44.00575" lon="6.28395">
        <ele>637.139291</ele>
        <time>2021-09-18T11:54:56.000Z</time>
      </trkpt>
      <trkpt lat="44.00545" lon="6.28417">
        <ele>637.453312</ele>
        <time>2021-09-18T11:55:02.000Z</time>
      </trkpt>
      <trkpt lat="44.0051" lon="6.28437">
        <ele>637.797578</ele>
        <time>2021-09-18T11:55:09.000Z</time>
      </trkpt>
      <trkpt lat="44.00468" lon="6.28463">
        <ele>638.222639</ele>
        <time>2021-09-18T11:55:18.000Z</time>
      </trkpt>
      <trkpt lat="44.00433" lon="6.2849">
        <ele>638.58507</ele>
        <time>2021-09-18T11:55:26.000Z</time>
      </trkpt>
      <trkpt lat="44.00394" lon="6.28533">
        <ele>639.088558</ele>
        <time>2021-09-18T11:55:36.000Z</time>
      </trkpt>
      <trkpt lat="44.0035" lon="6.28584">
        <ele>639.782132</ele>
        <time>2021-09-18T11:55:47.000Z</time>
      </trkpt>
      <trkpt lat="44.00309" lon="6.28616">
        <ele>640.351493</ele>
        <time>2021-09-18T11:55:56.000Z</time>
      </trkpt>
      <trkpt lat="44.00264" lon="6.28644">
        <ele>640.956003</ele>
        <time>2021-09-18T11:56:05.000Z</time>
      </trkpt>
      <trkpt lat="44.00221" lon="6.28672">
        <ele>641.396148</ele>
        <time>2021-09-18T11:56:13.000Z</time>
      </trkpt>
      <trkpt lat="44.00183" lon="6.28698">
        <ele>641.764212</ele>
        <time>2021-09-18T11:56:20.000Z</time>
      </trkpt>
      <trkpt lat="44.00138" lon="6.28727">
        <ele>642.189707</ele>
        <time>2021-09-18T11:56:28.000Z</time>
      </trkpt>
      <trkpt lat="44.00101" lon="6.28758">
        <ele>642.560113</ele>
        <time>2021-09-18T11:56:35.000Z</time>
      </trkpt>
      <trkpt lat="44.00088" lon="6.28774">
        <ele>642.761273</ele>
        <time>2021-09-18T11:56:38.000Z</time>
      </trkpt>
      <trkpt lat="44.00076" lon="6.28792">
        <ele>642.990631</ele>
        <time>2021-09-18T11:56:41.000Z</time>
      </trkpt>
      <trkpt lat="44.00056" lon="6.28835">
        <ele>643.46003</ele>
        <time>2021-09-18T11:56:47.000Z</time>
      </trkpt>
      <trkpt lat="44.00043" lon="6.2888">
        <ele>643.911883</ele>
        <time>2021-09-18T11:56:53.000Z</time>
      </trkpt>
      <trkpt lat="44.00031" lon="6.28932">
        <ele>644.415394</ele>
        <time>2021-09-18T11:57:00.000Z</time>
      </trkpt>
      <trkpt lat="44.00017" lon="6.28982">
        <ele>644.916573</ele>
        <time>2021-09-18T11:57:08.000Z</time>
      </trkpt>
      <trkpt lat="44.00001" lon="6.29028">
        <ele>645.526568</ele>
        <time>2021-09-18T11:57:16.000Z</time>
      </trkpt>
      <trkpt lat="43.99982" lon="6.2907">
        <ele>646.130169</ele>
        <time>2021-09-18T11:57:24.000Z</time>
      </trkpt>
      <trkpt lat="43.99956" lon="6.29108">
        <ele>646.762207</ele>
        <time>2021-09-18T11:57:32.000Z</time>
      </trkpt>
      <trkpt lat="43.99932" lon="6.29127">
        <ele>647.230016</ele>
        <time>2021-09-18T11:57:38.000Z</time>
      </trkpt>
      <trkpt lat="43.99923" lon="6.29133">
        <ele>647.383754</ele>
        <time>2021-09-18T11:57:40.000Z</time>
      </trkpt>
      <trkpt lat="43.99893" lon="6.29144">
        <ele>647.901954</ele>
        <time>2021-09-18T11:57:46.000Z</time>
      </trkpt>
      <trkpt lat="43.99855" lon="6.29148">
        <ele>648.149651</ele>
        <time>2021-09-18T11:57:53.000Z</time>
      </trkpt>
      <trkpt lat="43.998" lon="6.29151">
        <ele>648.440903</ele>
        <time>2021-09-18T11:58:02.000Z</time>
      </trkpt>
      <trkpt lat="43.99745" lon="6.29154">
        <ele>648.735884</ele>
        <time>2021-09-18T11:58:10.000Z</time>
      </trkpt>
      <trkpt lat="43.99691" lon="6.29159">
        <ele>648.946829</ele>
        <time>2021-09-18T11:58:18.000Z</time>
      </trkpt>
      <trkpt lat="43.99654" lon="6.29177">
        <ele>649.003444</ele>
        <time>2021-09-18T11:58:24.000Z</time>
      </trkpt>
      <trkpt lat="43.99607" lon="6.2921">
        <ele>649.07984</ele>
        <time>2021-09-18T11:58:32.000Z</time>
      </trkpt>
      <trkpt lat="43.99556" lon="6.29247">
        <ele>649.162866</ele>
        <time>2021-09-18T11:58:41.000Z</time>
      </trkpt>
      <trkpt lat="43.99504" lon="6.29282">
        <ele>649.222154</ele>
        <time>2021-09-18T11:58:50.000Z</time>
      </trkpt>
      <trkpt lat="43.99457" lon="6.29299">
        <ele>649.266452</ele>
        <time>2021-09-18T11:58:57.000Z</time>
      </trkpt>
      <trkpt lat="43.99409" lon="6.2931">
        <ele>649.31067</ele>
        <time>2021-09-18T11:59:04.000Z</time>
      </trkpt>
      <trkpt lat="43.99354" lon="6.29317">
        <ele>649.419972</ele>
        <time>2021-09-18T11:59:12.000Z</time>
      </trkpt>
      <trkpt lat="43.99318" lon="6.29316">
        <ele>649.567744</ele>
        <time>2021-09-18T11:59:17.000Z</time>
      </trkpt>
      <trkpt lat="43.99304" lon="6.29315">
        <ele>649.624315</ele>
        <time>2021-09-18T11:59:19.000Z</time>
      </trkpt>
      <trkpt lat="43.99292" lon="6.2932">
        <ele>649.676685</ele>
        <time>2021-09-18T11:59:21.000Z</time>
      </trkpt>
      <trkpt lat="43.99281" lon="6.29328">
        <ele>649.72718</ele>
        <time>2021-09-18T11:59:23.000Z</time>
      </trkpt>
      <trkpt lat="43.99272" lon="6.29341">
        <ele>649.777805</ele>
        <time>2021-09-18T11:59:25.000Z</time>
      </trkpt>
      <trkpt lat="43.99266" lon="6.29356">
        <ele>649.827731</ele>
        <time>2021-09-18T11:59:27.000Z</time>
      </trkpt>
      <trkpt lat="43.99264" lon="6.29373">
        <ele>649.878888</ele>
        <time>2021-09-18T11:59:29.000Z</time>
      </trkpt>
      <trkpt lat="43.99257" lon="6.29433">
        <ele>650.058958</ele>
        <time>2021-09-18T11:59:36.000Z</time>
      </trkpt>
      <trkpt lat="43.99237" lon="6.29503">
        <ele>650.692134</ele>
        <time>2021-09-18T11:59:45.000Z</time>
      </trkpt>
      <trkpt lat="43.99233" lon="6.29518">
        <ele>650.832533</ele>
        <time>2021-09-18T11:59:47.000Z</time>
      </trkpt>
      <trkpt lat="43.99211" lon="6.29575">
        <ele>651.406017</ele>
        <time>2021-09-18T11:59:55.000Z</time>
      </trkpt>
      <trkpt lat="43.99183" lon="6.29613">
        <ele>651.88964</ele>
        <time>2021-09-18T12:00:02.000Z</time>
      </trkpt>
      <trkpt lat="43.99147" lon="6.29654">
        <ele>652.561986</ele>
        <time>2021-09-18T12:00:11.000Z</time>
      </trkpt>
      <trkpt lat="43.99111" lon="6.29682">
        <ele>653.357142</ele>
        <time>2021-09-18T12:00:19.000Z</time>
      </trkpt>
      <trkpt lat="43.99076" lon="6.29704">
        <ele>654.118242</ele>
        <time>2021-09-18T12:00:27.000Z</time>
      </trkpt>
      <trkpt lat="43.99048" lon="6.29709">
        <ele>654.655789</ele>
        <time>2021-09-18T12:00:33.000Z</time>
      </trkpt>
      <trkpt lat="43.99016" lon="6.29698">
        <ele>655.314136</ele>
        <time>2021-09-18T12:00:41.000Z</time>
      </trkpt>
      <trkpt lat="43.98982" lon="6.29685">
        <ele>656.057956</ele>
        <time>2021-09-18T12:00:50.000Z</time>
      </trkpt>
      <trkpt lat="43.98942" lon="6.2967">
        <ele>657.166328</ele>
        <time>2021-09-18T12:01:01.000Z</time>
      </trkpt>
      <trkpt lat="43.98913" lon="6.29659">
        <ele>657.967277</ele>
        <time>2021-09-18T12:01:09.000Z</time>
      </trkpt>
      <trkpt lat="43.98881" lon="6.29647">
        <ele>658.865059</ele>
        <time>2021-09-18T12:01:18.000Z</time>
      </trkpt>
      <trkpt lat="43.98856" lon="6.29649">
        <ele>659.533493</ele>
        <time>2021-09-18T12:01:25.000Z</time>
      </trkpt>
      <trkpt lat="43.98833" lon="6.29664">
        <ele>660.201628</ele>
        <time>2021-09-18T12:01:32.000Z</time>
      </trkpt>
      <trkpt lat="43.98817" lon="6.29689">
        <ele>660.738933</ele>
        <time>2021-09-18T12:01:38.000Z</time>
      </trkpt>
      <trkpt lat="43.98801" lon="6.29734">
        <ele>661.283576</ele>
        <time>2021-09-18T12:01:46.000Z</time>
      </trkpt>
      <trkpt lat="43.98781" lon="6.29788">
        <ele>661.946272</ele>
        <time>2021-09-18T12:01:55.000Z</time>
      </trkpt>
      <trkpt lat="43.98768" lon="6.29812">
        <ele>662.26243</ele>
        <time>2021-09-18T12:01:59.000Z</time>
      </trkpt>
      <trkpt lat="43.9876" lon="6.29822">
        <ele>662.424401</ele>
        <time>2021-09-18T12:02:01.000Z</time>
      </trkpt>
      <trkpt lat="43.98733" lon="6.29846">
        <ele>662.921571</ele>
        <time>2021-09-18T12:02:07.000Z</time>
      </trkpt>
      <trkpt lat="43.98727" lon="6.29849">
        <ele>663.006927</ele>
        <time>2021-09-18T12:02:08.000Z</time>
      </trkpt>
      <trkpt lat="43.98699" lon="6.2986">
        <ele>663.364949</ele>
        <time>2021-09-18T12:02:13.000Z</time>
      </trkpt>
      <trkpt lat="43.98644" lon="6.29874">
        <ele>663.687281</ele>
        <time>2021-09-18T12:02:22.000Z</time>
      </trkpt>
      <trkpt lat="43.98637" lon="6.29876">
        <ele>663.723802</ele>
        <time>2021-09-18T12:02:23.000Z</time>
      </trkpt>
      <trkpt lat="43.98586" lon="6.29892">
        <ele>664.025593</ele>
        <time>2021-09-18T12:02:31.000Z</time>
      </trkpt>
      <trkpt lat="43.98555" lon="6.29911">
        <ele>664.21974</ele>
        <time>2021-09-18T12:02:36.000Z</time>
      </trkpt>
      <trkpt lat="43.98523" lon="6.2995">
        <ele>664.476862</ele>
        <time>2021-09-18T12:02:42.000Z</time>
      </trkpt>
      <trkpt lat="43.98515" lon="6.29965">
        <ele>664.568154</ele>
        <time>2021-09-18T12:02:44.000Z</time>
      </trkpt>
      <trkpt lat="43.98505" lon="6.29989">
        <ele>664.702898</ele>
        <time>2021-09-18T12:02:47.000Z</time>
      </trkpt>
      <trkpt lat="43.98487" lon="6.30056">
        <ele>665.046989</ele>
        <time>2021-09-18T12:02:55.000Z</time>
      </trkpt>
      <trkpt lat="43.98467" lon="6.30132">
        <ele>665.432382</ele>
        <time>2021-09-18T12:03:04.000Z</time>
      </trkpt>
      <trkpt lat="43.98442" lon="6.30188">
        <ele>665.769758</ele>
        <time>2021-09-18T12:03:12.000Z</time>
      </trkpt>
      <trkpt lat="43.98419" lon="6.30223">
        <ele>666.020899</ele>
        <time>2021-09-18T12:03:18.000Z</time>
      </trkpt>
      <trkpt lat="43.98387" lon="6.30255">
        <ele>666.307494</ele>
        <time>2021-09-18T12:03:25.000Z</time>
      </trkpt>
      <trkpt lat="43.98346" lon="6.3028">
        <ele>666.633029</ele>
        <time>2021-09-18T12:03:33.000Z</time>
      </trkpt>
      <trkpt lat="43.98295" lon="6.30306">
        <ele>666.913658</ele>
        <time>2021-09-18T12:03:43.000Z</time>
      </trkpt>
      <trkpt lat="43.9829" lon="6.30309">
        <ele>666.927321</ele>
        <time>2021-09-18T12:03:44.000Z</time>
      </trkpt>
      <trkpt lat="43.98247" lon="6.30331">
        <ele>667.038143</ele>
        <time>2021-09-18T12:03:52.000Z</time>
      </trkpt>
      <trkpt lat="43.98219" lon="6.30341">
        <ele>667.108699</ele>
        <time>2021-09-18T12:03:57.000Z</time>
      </trkpt>
      <trkpt lat="43.98207" lon="6.30343">
        <ele>667.137012</ele>
        <time>2021-09-18T12:03:59.000Z</time>
      </trkpt>
      <trkpt lat="43.98163" lon="6.3035">
        <ele>667.242294</ele>
        <time>2021-09-18T12:04:06.000Z</time>
      </trkpt>
      <trkpt lat="43.98134" lon="6.30362">
        <ele>667.425034</ele>
        <time>2021-09-18T12:04:11.000Z</time>
      </trkpt>
      <trkpt lat="43.98098" lon="6.30392">
        <ele>667.894329</ele>
        <time>2021-09-18T12:04:18.000Z</time>
      </trkpt>
      <trkpt lat="43.98072" lon="6.30421">
        <ele>668.27996</ele>
        <time>2021-09-18T12:04:25.000Z</time>
      </trkpt>
      <trkpt lat="43.9805" lon="6.30453">
        <ele>668.644898</ele>
        <time>2021-09-18T12:04:32.000Z</time>
      </trkpt>
      <trkpt lat="43.98034" lon="6.30499">
        <ele>669.062891</ele>
        <time>2021-09-18T12:04:40.000Z</time>
      </trkpt>
      <trkpt lat="43.98021" lon="6.30544">
        <ele>669.660864</ele>
        <time>2021-09-18T12:04:49.000Z</time>
      </trkpt>
      <trkpt lat="43.98011" lon="6.30581">
        <ele>670.505364</ele>
        <time>2021-09-18T12:04:57.000Z</time>
      </trkpt>
      <trkpt lat="43.98002" lon="6.30618">
        <ele>671.349995</ele>
        <time>2021-09-18T12:05:06.000Z</time>
      </trkpt>
      <trkpt lat="43.97996" lon="6.3065">
        <ele>672.059222</ele>
        <time>2021-09-18T12:05:14.000Z</time>
      </trkpt>
      <trkpt lat="43.97993" lon="6.30683">
        <ele>672.780541</ele>
        <time>2021-09-18T12:05:22.000Z</time>
      </trkpt>
      <trkpt lat="43.97995" lon="6.30721">
        <ele>673.601882</ele>
        <time>2021-09-18T12:05:31.000Z</time>
      </trkpt>
      <trkpt lat="43.98001" lon="6.30769">
        <ele>674.653792</ele>
        <time>2021-09-18T12:05:42.000Z</time>
      </trkpt>
      <trkpt lat="43.98002" lon="6.30805">
        <ele>675.857721</ele>
        <time>2021-09-18T12:05:51.000Z</time>
      </trkpt>
      <trkpt lat="43.98" lon="6.30843">
        <ele>677.224189</ele>
        <time>2021-09-18T12:06:01.000Z</time>
      </trkpt>
      <trkpt lat="43.97992" lon="6.30881">
        <ele>678.609494</ele>
        <time>2021-09-18T12:06:11.000Z</time>
      </trkpt>
      <trkpt lat="43.97979" lon="6.30909">
        <ele>679.77243</ele>
        <time>2021-09-18T12:06:19.000Z</time>
      </trkpt>
      <trkpt lat="43.97965" lon="6.30938">
        <ele>681.004134</ele>
        <time>2021-09-18T12:06:28.000Z</time>
      </trkpt>
      <trkpt lat="43.9795" lon="6.30958">
        <ele>682.037093</ele>
        <time>2021-09-18T12:06:35.000Z</time>
      </trkpt>
      <trkpt lat="43.97933" lon="6.30983">
        <ele>683.253473</ele>
        <time>2021-09-18T12:06:42.000Z</time>
      </trkpt>
      <trkpt lat="43.97928" lon="6.30988">
        <ele>683.554068</ele>
        <time>2021-09-18T12:06:47.000Z</time>
      </trkpt>
      <trkpt lat="43.9792" lon="6.30996">
        <ele>683.716999</ele>
        <time>2021-09-18T12:07:50.000Z</time>
      </trkpt>
      <trkpt lat="43.97917" lon="6.30999">
        <ele>683.779012</ele>
        <time>2021-09-18T12:07:52.000Z</time>
      </trkpt>
      <trkpt lat="43.97904" lon="6.31013">
        <ele>684.060367</ele>
        <time>2021-09-18T12:07:57.000Z</time>
      </trkpt>
      <trkpt lat="43.97883" lon="6.31036">
        <ele>684.52864</ele>
        <time>2021-09-18T12:08:03.000Z</time>
      </trkpt>
      <trkpt lat="43.97852" lon="6.31068">
        <ele>685.181113</ele>
        <time>2021-09-18T12:08:10.000Z</time>
      </trkpt>
      <trkpt lat="43.97815" lon="6.31102">
        <ele>685.953907</ele>
        <time>2021-09-18T12:08:17.000Z</time>
      </trkpt>
      <trkpt lat="43.97774" lon="6.31126">
        <ele>686.613407</ele>
        <time>2021-09-18T12:08:24.000Z</time>
      </trkpt>
      <trkpt lat="43.9772" lon="6.31152">
        <ele>686.31861</ele>
        <time>2021-09-18T12:08:33.000Z</time>
      </trkpt>
      <trkpt lat="43.97714" lon="6.31155">
        <ele>686.28515</ele>
        <time>2021-09-18T12:08:34.000Z</time>
      </trkpt>
      <trkpt lat="43.97666" lon="6.31176">
        <ele>686.027569</ele>
        <time>2021-09-18T12:08:42.000Z</time>
      </trkpt>
      <trkpt lat="43.97628" lon="6.31177">
        <ele>685.832069</ele>
        <time>2021-09-18T12:08:48.000Z</time>
      </trkpt>
      <trkpt lat="43.97584" lon="6.31172">
        <ele>685.630161</ele>
        <time>2021-09-18T12:08:55.000Z</time>
      </trkpt>
      <trkpt lat="43.97536" lon="6.31168">
        <ele>685.455424</ele>
        <time>2021-09-18T12:09:02.000Z</time>
      </trkpt>
      <trkpt lat="43.9749" lon="6.31163">
        <ele>685.283244</ele>
        <time>2021-09-18T12:09:09.000Z</time>
      </trkpt>
      <trkpt lat="43.97443" lon="6.31159">
        <ele>685.10979</ele>
        <time>2021-09-18T12:09:16.000Z</time>
      </trkpt>
      <trkpt lat="43.97436" lon="6.31159">
        <ele>685.085033</ele>
        <time>2021-09-18T12:09:17.000Z</time>
      </trkpt>
      <trkpt lat="43.9739" lon="6.31164">
        <ele>685.076147</ele>
        <time>2021-09-18T12:09:24.000Z</time>
      </trkpt>
      <trkpt lat="43.97347" lon="6.31173">
        <ele>685.117945</ele>
        <time>2021-09-18T12:09:31.000Z</time>
      </trkpt>
      <trkpt lat="43.97293" lon="6.31191">
        <ele>685.17039</ele>
        <time>2021-09-18T12:09:40.000Z</time>
      </trkpt>
      <trkpt lat="43.97281" lon="6.31193">
        <ele>685.181968</ele>
        <time>2021-09-18T12:09:42.000Z</time>
      </trkpt>
      <trkpt lat="43.97263" lon="6.31193">
        <ele>685.199304</ele>
        <time>2021-09-18T12:09:45.000Z</time>
      </trkpt>
      <trkpt lat="43.97223" lon="6.31177">
        <ele>685.268132</ele>
        <time>2021-09-18T12:09:52.000Z</time>
      </trkpt>
      <trkpt lat="43.97175" lon="6.31152">
        <ele>685.377428</ele>
        <time>2021-09-18T12:10:01.000Z</time>
      </trkpt>
      <trkpt lat="43.97159" lon="6.31146">
        <ele>685.413023</ele>
        <time>2021-09-18T12:10:04.000Z</time>
      </trkpt>
      <trkpt lat="43.97142" lon="6.31142">
        <ele>685.448933</ele>
        <time>2021-09-18T12:10:07.000Z</time>
      </trkpt>
      <trkpt lat="43.97102" lon="6.31146">
        <ele>685.533941</ele>
        <time>2021-09-18T12:10:14.000Z</time>
      </trkpt>
      <trkpt lat="43.97058" lon="6.31163">
        <ele>685.557095</ele>
        <time>2021-09-18T12:10:22.000Z</time>
      </trkpt>
      <trkpt lat="43.97006" lon="6.31182">
        <ele>685.434289</ele>
        <time>2021-09-18T12:10:31.000Z</time>
      </trkpt>
      <trkpt lat="43.96953" lon="6.31202">
        <ele>685.308379</ele>
        <time>2021-09-18T12:10:40.000Z</time>
      </trkpt>
      <trkpt lat="43.96899" lon="6.31232">
        <ele>685.185347</ele>
        <time>2021-09-18T12:10:49.000Z</time>
      </trkpt>
      <trkpt lat="43.96848" lon="6.31264">
        <ele>685.182671</ele>
        <time>2021-09-18T12:10:58.000Z</time>
      </trkpt>
      <trkpt lat="43.96843" lon="6.31268">
        <ele>685.182383</ele>
        <time>2021-09-18T12:10:59.000Z</time>
      </trkpt>
      <trkpt lat="43.96802" lon="6.313">
        <ele>685.180137</ele>
        <time>2021-09-18T12:11:06.000Z</time>
      </trkpt>
      <trkpt lat="43.96782" lon="6.3133">
        <ele>685.178737</ele>
        <time>2021-09-18T12:11:12.000Z</time>
      </trkpt>
      <trkpt lat="43.96757" lon="6.31379">
        <ele>685.190381</ele>
        <time>2021-09-18T12:11:19.000Z</time>
      </trkpt>
      <trkpt lat="43.96739" lon="6.31434">
        <ele>685.29825</ele>
        <time>2021-09-18T12:11:25.000Z</time>
      </trkpt>
      <trkpt lat="43.96731" lon="6.31503">
        <ele>685.421046</ele>
        <time>2021-09-18T12:11:33.000Z</time>
      </trkpt>
      <trkpt lat="43.9672" lon="6.31583">
        <ele>685.566393</ele>
        <time>2021-09-18T12:11:43.000Z</time>
      </trkpt>
      <trkpt lat="43.96702" lon="6.31635">
        <ele>685.810531</ele>
        <time>2021-09-18T12:11:50.000Z</time>
      </trkpt>
      <trkpt lat="43.9668" lon="6.317">
        <ele>686.309013</ele>
        <time>2021-09-18T12:11:59.000Z</time>
      </trkpt>
      <trkpt lat="43.96662" lon="6.31752">
        <ele>686.712938</ele>
        <time>2021-09-18T12:12:07.000Z</time>
      </trkpt>
      <trkpt lat="43.96646" lon="6.31798">
        <ele>687.07018</ele>
        <time>2021-09-18T12:12:15.000Z</time>
      </trkpt>
      <trkpt lat="43.96646" lon="6.31798">
        <ele>687.07018</ele>
        <time>2021-09-18T12:12:16.000Z</time>
      </trkpt>
      <trkpt lat="43.96635" lon="6.31828">
        <ele>687.306314</ele>
        <time>2021-09-18T12:12:21.000Z</time>
      </trkpt>
      <trkpt lat="43.96616" lon="6.31866">
        <ele>687.686575</ele>
        <time>2021-09-18T12:12:29.000Z</time>
      </trkpt>
      <trkpt lat="43.96591" lon="6.31901">
        <ele>688.105801</ele>
        <time>2021-09-18T12:12:37.000Z</time>
      </trkpt>
      <trkpt lat="43.96561" lon="6.31932">
        <ele>688.553369</ele>
        <time>2021-09-18T12:12:44.000Z</time>
      </trkpt>
      <trkpt lat="43.96526" lon="6.3196">
        <ele>689.036266</ele>
        <time>2021-09-18T12:12:51.000Z</time>
      </trkpt>
      <trkpt lat="43.96479" lon="6.31999">
        <ele>689.583417</ele>
        <time>2021-09-18T12:13:00.000Z</time>
      </trkpt>
      <trkpt lat="43.96437" lon="6.32042">
        <ele>689.85426</ele>
        <time>2021-09-18T12:13:08.000Z</time>
      </trkpt>
      <trkpt lat="43.96396" lon="6.32086">
        <ele>690.126053</ele>
        <time>2021-09-18T12:13:16.000Z</time>
      </trkpt>
      <trkpt lat="43.96361" lon="6.32124">
        <ele>690.358219</ele>
        <time>2021-09-18T12:13:23.000Z</time>
      </trkpt>
      <trkpt lat="43.96329" lon="6.32159">
        <ele>690.637629</ele>
        <time>2021-09-18T12:13:30.000Z</time>
      </trkpt>
      <trkpt lat="43.96305" lon="6.32199">
        <ele>690.93666</ele>
        <time>2021-09-18T12:13:37.000Z</time>
      </trkpt>
      <trkpt lat="43.96295" lon="6.32239">
        <ele>691.178286</ele>
        <time>2021-09-18T12:13:43.000Z</time>
      </trkpt>
      <trkpt lat="43.96291" lon="6.32294">
        <ele>691.495721</ele>
        <time>2021-09-18T12:13:51.000Z</time>
      </trkpt>
      <trkpt lat="43.96288" lon="6.32374">
        <ele>691.955175</ele>
        <time>2021-09-18T12:14:02.000Z</time>
      </trkpt>
      <trkpt lat="43.96287" lon="6.32382">
        <ele>691.997755</ele>
        <time>2021-09-18T12:14:03.000Z</time>
      </trkpt>
      <trkpt lat="43.9628" lon="6.32435">
        <ele>692.298533</ele>
        <time>2021-09-18T12:14:10.000Z</time>
      </trkpt>
      <trkpt lat="43.96263" lon="6.32484">
        <ele>692.593989</ele>
        <time>2021-09-18T12:14:17.000Z</time>
      </trkpt>
      <trkpt lat="43.96238" lon="6.32541">
        <ele>692.969909</ele>
        <time>2021-09-18T12:14:26.000Z</time>
      </trkpt>
      <trkpt lat="43.96215" lon="6.32591">
        <ele>693.323525</ele>
        <time>2021-09-18T12:14:34.000Z</time>
      </trkpt>
      <trkpt lat="43.96191" lon="6.32645">
        <ele>694.037963</ele>
        <time>2021-09-18T12:14:44.000Z</time>
      </trkpt>
      <trkpt lat="43.96171" lon="6.32694">
        <ele>694.672547</ele>
        <time>2021-09-18T12:14:53.000Z</time>
      </trkpt>
      <trkpt lat="43.96166" lon="6.32711">
        <ele>694.881203</ele>
        <time>2021-09-18T12:14:56.000Z</time>
      </trkpt>
      <trkpt lat="43.96163" lon="6.32735">
        <ele>695.152479</ele>
        <time>2021-09-18T12:15:00.000Z</time>
      </trkpt>
      <trkpt lat="43.96167" lon="6.32785">
        <ele>695.714974</ele>
        <time>2021-09-18T12:15:08.000Z</time>
      </trkpt>
      <trkpt lat="43.96173" lon="6.32831">
        <ele>696.242011</ele>
        <time>2021-09-18T12:15:15.000Z</time>
      </trkpt>
      <trkpt lat="43.96173" lon="6.32838">
        <ele>696.320863</ele>
        <time>2021-09-18T12:15:16.000Z</time>
      </trkpt>
      <trkpt lat="43.96174" lon="6.32873">
        <ele>696.712035</ele>
        <time>2021-09-18T12:15:21.000Z</time>
      </trkpt>
      <trkpt lat="43.9617" lon="6.32902">
        <ele>697.051489</ele>
        <time>2021-09-18T12:15:25.000Z</time>
      </trkpt>
      <trkpt lat="43.96168" lon="6.32917">
        <ele>697.225551</ele>
        <time>2021-09-18T12:15:27.000Z</time>
      </trkpt>
      <trkpt lat="43.96154" lon="6.32976">
        <ele>697.934182</ele>
        <time>2021-09-18T12:15:35.000Z</time>
      </trkpt>
      <trkpt lat="43.96142" lon="6.3303">
        <ele>698.574468</ele>
        <time>2021-09-18T12:15:42.000Z</time>
      </trkpt>
      <trkpt lat="43.96139" lon="6.33062">
        <ele>698.920897</ele>
        <time>2021-09-18T12:15:46.000Z</time>
      </trkpt>
      <trkpt lat="43.9614" lon="6.33079">
        <ele>699.025689</ele>
        <time>2021-09-18T12:15:48.000Z</time>
      </trkpt>
      <trkpt lat="43.9615" lon="6.3316">
        <ele>699.524893</ele>
        <time>2021-09-18T12:15:57.000Z</time>
      </trkpt>
      <trkpt lat="43.96151" lon="6.33168">
        <ele>699.578139</ele>
        <time>2021-09-18T12:15:58.000Z</time>
      </trkpt>
      <trkpt lat="43.96159" lon="6.33234">
        <ele>699.984792</ele>
        <time>2021-09-18T12:16:06.000Z</time>
      </trkpt>
      <trkpt lat="43.96167" lon="6.33295">
        <ele>700.363496</ele>
        <time>2021-09-18T12:16:14.000Z</time>
      </trkpt>
      <trkpt lat="43.96175" lon="6.33375">
        <ele>700.859218</ele>
        <time>2021-09-18T12:16:24.000Z</time>
      </trkpt>
      <trkpt lat="43.96185" lon="6.33456">
        <ele>701.357247</ele>
        <time>2021-09-18T12:16:34.000Z</time>
      </trkpt>
      <trkpt lat="43.96186" lon="6.33464">
        <ele>701.406982</ele>
        <time>2021-09-18T12:16:35.000Z</time>
      </trkpt>
      <trkpt lat="43.96185" lon="6.33521">
        <ele>701.750762</ele>
        <time>2021-09-18T12:16:42.000Z</time>
      </trkpt>
      <trkpt lat="43.96177" lon="6.33568">
        <ele>702.012756</ele>
        <time>2021-09-18T12:16:48.000Z</time>
      </trkpt>
      <trkpt lat="43.96162" lon="6.33612">
        <ele>702.214134</ele>
        <time>2021-09-18T12:16:54.000Z</time>
      </trkpt>
      <trkpt lat="43.96132" lon="6.3367">
        <ele>702.50335</ele>
        <time>2021-09-18T12:17:03.000Z</time>
      </trkpt>
      <trkpt lat="43.961" lon="6.3373">
        <ele>702.810227</ele>
        <time>2021-09-18T12:17:12.000Z</time>
      </trkpt>
      <trkpt lat="43.96076" lon="6.33786">
        <ele>703.017613</ele>
        <time>2021-09-18T12:17:20.000Z</time>
      </trkpt>
      <trkpt lat="43.96073" lon="6.33794">
        <ele>703.032588</ele>
        <time>2021-09-18T12:17:21.000Z</time>
      </trkpt>
      <trkpt lat="43.96063" lon="6.33833">
        <ele>703.10741</ele>
        <time>2021-09-18T12:17:26.000Z</time>
      </trkpt>
      <trkpt lat="43.96051" lon="6.33888">
        <ele>703.208208</ele>
        <time>2021-09-18T12:17:33.000Z</time>
      </trkpt>
      <trkpt lat="43.96048" lon="6.33901">
        <ele>703.233498</ele>
        <time>2021-09-18T12:17:35.000Z</time>
      </trkpt>
      <trkpt lat="43.96043" lon="6.33899">
        <ele>703.247072</ele>
        <time>2021-09-18T12:17:37.000Z</time>
      </trkpt>
      <trkpt lat="43.9604" lon="6.33907">
        <ele>703.261974</ele>
        <time>2021-09-18T12:17:41.000Z</time>
      </trkpt>
      <trkpt lat="43.9604" lon="6.33907">
        <ele>703.261974</ele>
        <time>2021-09-18T12:17:43.000Z</time>
      </trkpt>
      <trkpt lat="43.96046" lon="6.33913">
        <ele>703.2815</ele>
        <time>2021-09-18T12:18:38.000Z</time>
      </trkpt>
      <trkpt lat="43.96046" lon="6.33916">
        <ele>703.286213</ele>
        <time>2021-09-18T12:18:40.000Z</time>
      </trkpt>
      <trkpt lat="43.96046" lon="6.33915">
        <ele>703.287479</ele>
        <time>2021-09-18T12:18:42.000Z</time>
      </trkpt>
      <trkpt lat="43.96046" lon="6.33918">
        <ele>703.292938</ele>
        <time>2021-09-18T12:18:44.000Z</time>
      </trkpt>
      <trkpt lat="43.96042" lon="6.3394">
        <ele>703.333401</ele>
        <time>2021-09-18T12:18:49.000Z</time>
      </trkpt>
      <trkpt lat="43.9604" lon="6.33958">
        <ele>703.36433</ele>
        <time>2021-09-18T12:18:51.000Z</time>
      </trkpt>
      <trkpt lat="43.96038" lon="6.33976">
        <ele>703.397921</ele>
        <time>2021-09-18T12:18:54.000Z</time>
      </trkpt>
      <trkpt lat="43.96033" lon="6.34039">
        <ele>703.578084</ele>
        <time>2021-09-18T12:19:03.000Z</time>
      </trkpt>
      <trkpt lat="43.96028" lon="6.34091">
        <ele>703.738644</ele>
        <time>2021-09-18T12:19:10.000Z</time>
      </trkpt>
      <trkpt lat="43.96024" lon="6.34143">
        <ele>703.897698</ele>
        <time>2021-09-18T12:19:17.000Z</time>
      </trkpt>
      <trkpt lat="43.96018" lon="6.34221">
        <ele>704.136492</ele>
        <time>2021-09-18T12:19:27.000Z</time>
      </trkpt>
      <trkpt lat="43.96015" lon="6.34291">
        <ele>704.585504</ele>
        <time>2021-09-18T12:19:36.000Z</time>
      </trkpt>
      <trkpt lat="43.96014" lon="6.34307">
        <ele>704.694951</ele>
        <time>2021-09-18T12:19:38.000Z</time>
      </trkpt>
      <trkpt lat="43.96015" lon="6.34322">
        <ele>704.800219</ele>
        <time>2021-09-18T12:19:40.000Z</time>
      </trkpt>
      <trkpt lat="43.96018" lon="6.34336">
        <ele>704.907736</ele>
        <time>2021-09-18T12:19:42.000Z</time>
      </trkpt>
      <trkpt lat="43.96025" lon="6.34357">
        <ele>705.067788</ele>
        <time>2021-09-18T12:19:45.000Z</time>
      </trkpt>
      <trkpt lat="43.96034" lon="6.34376">
        <ele>705.225923</ele>
        <time>2021-09-18T12:19:48.000Z</time>
      </trkpt>
      <trkpt lat="43.96056" lon="6.34408">
        <ele>705.547394</ele>
        <time>2021-09-18T12:19:54.000Z</time>
      </trkpt>
      <trkpt lat="43.96061" lon="6.34413">
        <ele>705.603423</ele>
        <time>2021-09-18T12:19:55.000Z</time>
      </trkpt>
      <trkpt lat="43.96078" lon="6.34433">
        <ele>705.822717</ele>
        <time>2021-09-18T12:19:59.000Z</time>
      </trkpt>
      <trkpt lat="43.96124" lon="6.34477">
        <ele>706.350034</ele>
        <time>2021-09-18T12:20:09.000Z</time>
      </trkpt>
      <trkpt lat="43.96157" lon="6.3452">
        <ele>706.776932</ele>
        <time>2021-09-18T12:20:17.000Z</time>
      </trkpt>
      <trkpt lat="43.96167" lon="6.34539">
        <ele>706.931782</ele>
        <time>2021-09-18T12:20:20.000Z</time>
      </trkpt>
      <trkpt lat="43.96173" lon="6.34551">
        <ele>707.029389</ele>
        <time>2021-09-18T12:20:22.000Z</time>
      </trkpt>
      <trkpt lat="43.96175" lon="6.34558">
        <ele>707.082262</ele>
        <time>2021-09-18T12:20:23.000Z</time>
      </trkpt>
      <trkpt lat="43.96178" lon="6.34565">
        <ele>707.133519</ele>
        <time>2021-09-18T12:20:24.000Z</time>
      </trkpt>
      <trkpt lat="43.96184" lon="6.34592">
        <ele>707.323852</ele>
        <time>2021-09-18T12:20:28.000Z</time>
      </trkpt>
      <trkpt lat="43.96185" lon="6.34599">
        <ele>707.372158</ele>
        <time>2021-09-18T12:20:29.000Z</time>
      </trkpt>
      <trkpt lat="43.96189" lon="6.3465">
        <ele>707.72614</ele>
        <time>2021-09-18T12:20:36.000Z</time>
      </trkpt>
      <trkpt lat="43.96191" lon="6.3472">
        <ele>708.220524</ele>
        <time>2021-09-18T12:20:45.000Z</time>
      </trkpt>
      <trkpt lat="43.9619" lon="6.34792">
        <ele>708.73272</ele>
        <time>2021-09-18T12:20:54.000Z</time>
      </trkpt>
      <trkpt lat="43.9618" lon="6.34855">
        <ele>709.195647</ele>
        <time>2021-09-18T12:21:02.000Z</time>
      </trkpt>
      <trkpt lat="43.96164" lon="6.34926">
        <ele>709.704698</ele>
        <time>2021-09-18T12:21:12.000Z</time>
      </trkpt>
      <trkpt lat="43.96154" lon="6.34981">
        <ele>710.084291</ele>
        <time>2021-09-18T12:21:20.000Z</time>
      </trkpt>
      <trkpt lat="43.96154" lon="6.35025">
        <ele>710.376398</ele>
        <time>2021-09-18T12:21:26.000Z</time>
      </trkpt>
      <trkpt lat="43.96164" lon="6.35079">
        <ele>710.747549</ele>
        <time>2021-09-18T12:21:33.000Z</time>
      </trkpt>
      <trkpt lat="43.96182" lon="6.35131">
        <ele>711.101407</ele>
        <time>2021-09-18T12:21:40.000Z</time>
      </trkpt>
      <trkpt lat="43.96203" lon="6.35186">
        <ele>711.297976</ele>
        <time>2021-09-18T12:21:47.000Z</time>
      </trkpt>
      <trkpt lat="43.96215" lon="6.35238">
        <ele>711.473151</ele>
        <time>2021-09-18T12:21:53.000Z</time>
      </trkpt>
      <trkpt lat="43.96216" lon="6.35247">
        <ele>711.500102</ele>
        <time>2021-09-18T12:21:54.000Z</time>
      </trkpt>
      <trkpt lat="43.96217" lon="6.35297">
        <ele>711.658579</ele>
        <time>2021-09-18T12:22:00.000Z</time>
      </trkpt>
      <trkpt lat="43.96209" lon="6.35342">
        <ele>711.80808</ele>
        <time>2021-09-18T12:22:06.000Z</time>
      </trkpt>
      <trkpt lat="43.96193" lon="6.35389">
        <ele>711.938633</ele>
        <time>2021-09-18T12:22:13.000Z</time>
      </trkpt>
      <trkpt lat="43.96177" lon="6.35414">
        <ele>712.012803</ele>
        <time>2021-09-18T12:22:18.000Z</time>
      </trkpt>
      <trkpt lat="43.96156" lon="6.35444">
        <ele>712.105798</ele>
        <time>2021-09-18T12:22:24.000Z</time>
      </trkpt>
      <trkpt lat="43.96128" lon="6.3548">
        <ele>712.222048</ele>
        <time>2021-09-18T12:22:31.000Z</time>
      </trkpt>
      <trkpt lat="43.96086" lon="6.35534">
        <ele>712.396012</ele>
        <time>2021-09-18T12:22:41.000Z</time>
      </trkpt>
      <trkpt lat="43.96082" lon="6.35539">
        <ele>712.413357</ele>
        <time>2021-09-18T12:22:42.000Z</time>
      </trkpt>
      <trkpt lat="43.96051" lon="6.35579">
        <ele>712.439043</ele>
        <time>2021-09-18T12:22:49.000Z</time>
      </trkpt>
      <trkpt lat="43.96043" lon="6.3559">
        <ele>712.446171</ele>
        <time>2021-09-18T12:22:51.000Z</time>
      </trkpt>
      <trkpt lat="43.96026" lon="6.35611">
        <ele>712.460368</ele>
        <time>2021-09-18T12:22:55.000Z</time>
      </trkpt>
      <trkpt lat="43.96004" lon="6.35638">
        <ele>712.478023</ele>
        <time>2021-09-18T12:23:01.000Z</time>
      </trkpt>
      <trkpt lat="43.95969" lon="6.35683">
        <ele>712.507426</ele>
        <time>2021-09-18T12:23:08.000Z</time>
      </trkpt>
      <trkpt lat="43.95937" lon="6.35718">
        <ele>712.547024</ele>
        <time>2021-09-18T12:23:15.000Z</time>
      </trkpt>
      <trkpt lat="43.95917" lon="6.3574">
        <ele>712.587324</ele>
        <time>2021-09-18T12:23:19.000Z</time>
      </trkpt>
      <trkpt lat="43.95907" lon="6.35751">
        <ele>712.607011</ele>
        <time>2021-09-18T12:23:21.000Z</time>
      </trkpt>
      <trkpt lat="43.9588" lon="6.35783">
        <ele>712.664307</ele>
        <time>2021-09-18T12:23:27.000Z</time>
      </trkpt>
      <trkpt lat="43.95848" lon="6.35824">
        <ele>712.733515</ele>
        <time>2021-09-18T12:23:34.000Z</time>
      </trkpt>
      <trkpt lat="43.95822" lon="6.35859">
        <ele>712.790844</ele>
        <time>2021-09-18T12:23:40.000Z</time>
      </trkpt>
      <trkpt lat="43.95815" lon="6.35872">
        <ele>712.810264</ele>
        <time>2021-09-18T12:23:42.000Z</time>
      </trkpt>
      <trkpt lat="43.95791" lon="6.35922">
        <ele>712.994289</ele>
        <time>2021-09-18T12:23:49.000Z</time>
      </trkpt>
      <trkpt lat="43.95768" lon="6.35972">
        <ele>713.180024</ele>
        <time>2021-09-18T12:23:56.000Z</time>
      </trkpt>
      <trkpt lat="43.95743" lon="6.3601">
        <ele>713.337763</ele>
        <time>2021-09-18T12:24:02.000Z</time>
      </trkpt>
      <trkpt lat="43.95705" lon="6.36049">
        <ele>713.545426</ele>
        <time>2021-09-18T12:24:10.000Z</time>
      </trkpt>
      <trkpt lat="43.95674" lon="6.36078">
        <ele>713.777279</ele>
        <time>2021-09-18T12:24:16.000Z</time>
      </trkpt>
      <trkpt lat="43.95633" lon="6.36118">
        <ele>714.122249</ele>
        <time>2021-09-18T12:24:24.000Z</time>
      </trkpt>
      <trkpt lat="43.95602" lon="6.36156">
        <ele>714.406728</ele>
        <time>2021-09-18T12:24:31.000Z</time>
      </trkpt>
      <trkpt lat="43.95568" lon="6.36206">
        <ele>714.749074</ele>
        <time>2021-09-18T12:24:39.000Z</time>
      </trkpt>
      <trkpt lat="43.95532" lon="6.36263">
        <ele>715.210102</ele>
        <time>2021-09-18T12:24:48.000Z</time>
      </trkpt>
      <trkpt lat="43.95496" lon="6.36306">
        <ele>715.624309</ele>
        <time>2021-09-18T12:24:56.000Z</time>
      </trkpt>
      <trkpt lat="43.95461" lon="6.36331">
        <ele>715.974753</ele>
        <time>2021-09-18T12:25:03.000Z</time>
      </trkpt>
      <trkpt lat="43.95422" lon="6.36355">
        <ele>716.354013</ele>
        <time>2021-09-18T12:25:11.000Z</time>
      </trkpt>
      <trkpt lat="43.95417" lon="6.36358">
        <ele>716.40058</ele>
        <time>2021-09-18T12:25:12.000Z</time>
      </trkpt>
      <trkpt lat="43.95393" lon="6.36374">
        <ele>716.550504</ele>
        <time>2021-09-18T12:25:17.000Z</time>
      </trkpt>
      <trkpt lat="43.95369" lon="6.36399">
        <ele>716.711927</ele>
        <time>2021-09-18T12:25:24.000Z</time>
      </trkpt>
      <trkpt lat="43.95337" lon="6.36439">
        <ele>716.939655</ele>
        <time>2021-09-18T12:25:31.000Z</time>
      </trkpt>
      <trkpt lat="43.9531" lon="6.36473">
        <ele>717.136401</ele>
        <time>2021-09-18T12:25:38.000Z</time>
      </trkpt>
      <trkpt lat="43.95277" lon="6.36515">
        <ele>717.372486</ele>
        <time>2021-09-18T12:25:46.000Z</time>
      </trkpt>
      <trkpt lat="43.95245" lon="6.36557">
        <ele>717.68003</ele>
        <time>2021-09-18T12:25:54.000Z</time>
      </trkpt>
      <trkpt lat="43.95226" lon="6.36583">
        <ele>717.861333</ele>
        <time>2021-09-18T12:25:59.000Z</time>
      </trkpt>
      <trkpt lat="43.95222" lon="6.36588">
        <ele>717.897961</ele>
        <time>2021-09-18T12:26:00.000Z</time>
      </trkpt>
      <trkpt lat="43.95208" lon="6.36607">
        <ele>718.035678</ele>
        <time>2021-09-18T12:26:04.000Z</time>
      </trkpt>
      <trkpt lat="43.95205" lon="6.36612">
        <ele>718.067386</ele>
        <time>2021-09-18T12:26:05.000Z</time>
      </trkpt>
      <trkpt lat="43.95192" lon="6.36629">
        <ele>718.189149</ele>
        <time>2021-09-18T12:26:09.000Z</time>
      </trkpt>
      <trkpt lat="43.95204" lon="6.36638">
        <ele>718.280045</ele>
        <time>2021-09-18T12:26:12.000Z</time>
      </trkpt>
      <trkpt lat="43.95224" lon="6.36648">
        <ele>718.432132</ele>
        <time>2021-09-18T12:26:17.000Z</time>
      </trkpt>
      <trkpt lat="43.95229" lon="6.36651">
        <ele>718.470722</ele>
        <time>2021-09-18T12:26:18.000Z</time>
      </trkpt>
      <trkpt lat="43.95234" lon="6.36656">
        <ele>718.509198</ele>
        <time>2021-09-18T12:26:19.000Z</time>
      </trkpt>
      <trkpt lat="43.95247" lon="6.3667">
        <ele>718.626945</ele>
        <time>2021-09-18T12:26:22.000Z</time>
      </trkpt>
      <trkpt lat="43.95273" lon="6.367">
        <ele>718.889003</ele>
        <time>2021-09-18T12:26:28.000Z</time>
      </trkpt>
      <trkpt lat="43.95276" lon="6.36706">
        <ele>718.932478</ele>
        <time>2021-09-18T12:26:29.000Z</time>
      </trkpt>
      <trkpt lat="43.95289" lon="6.36732">
        <ele>719.107658</ele>
        <time>2021-09-18T12:26:34.000Z</time>
      </trkpt>
      <trkpt lat="43.95297" lon="6.36752">
        <ele>719.235644</ele>
        <time>2021-09-18T12:26:38.000Z</time>
      </trkpt>
      <trkpt lat="43.95312" lon="6.36799">
        <ele>719.527008</ele>
        <time>2021-09-18T12:26:47.000Z</time>
      </trkpt>
      <trkpt lat="43.9532" lon="6.36826">
        <ele>719.687589</ele>
        <time>2021-09-18T12:26:53.000Z</time>
      </trkpt>
      <trkpt lat="43.95327" lon="6.36845">
        <ele>719.808719</ele>
        <time>2021-09-18T12:26:59.000Z</time>
      </trkpt>
      <trkpt lat="43.95328" lon="6.36848">
        <ele>719.8295</ele>
        <time>2021-09-18T12:27:00.000Z</time>
      </trkpt>
      <trkpt lat="43.9533" lon="6.36855">
        <ele>719.871407</ele>
        <time>2021-09-18T12:27:02.000Z</time>
      </trkpt>
      <trkpt lat="43.95344" lon="6.36886">
        <ele>720.12118</ele>
        <time>2021-09-18T12:27:09.000Z</time>
      </trkpt>
      <trkpt lat="43.95357" lon="6.36916">
        <ele>720.506637</ele>
        <time>2021-09-18T12:27:15.000Z</time>
      </trkpt>
      <trkpt lat="43.95376" lon="6.36961">
        <ele>721.076672</ele>
        <time>2021-09-18T12:27:24.000Z</time>
      </trkpt>
      <trkpt lat="43.95387" lon="6.36989">
        <ele>721.428931</ele>
        <time>2021-09-18T12:27:30.000Z</time>
      </trkpt>
      <trkpt lat="43.9539" lon="6.36999">
        <ele>721.552318</ele>
        <time>2021-09-18T12:27:32.000Z</time>
      </trkpt>
      <trkpt lat="43.95397" lon="6.37019">
        <ele>721.798088</ele>
        <time>2021-09-18T12:27:36.000Z</time>
      </trkpt>
      <trkpt lat="43.95399" lon="6.37024">
        <ele>721.85928</ele>
        <time>2021-09-18T12:27:37.000Z</time>
      </trkpt>
      <trkpt lat="43.95407" lon="6.37049">
        <ele>722.169983</ele>
        <time>2021-09-18T12:27:42.000Z</time>
      </trkpt>
      <trkpt lat="43.95424" lon="6.37097">
        <ele>722.758382</ele>
        <time>2021-09-18T12:27:51.000Z</time>
      </trkpt>
      <trkpt lat="43.9543" lon="6.37112">
        <ele>723.093949</ele>
        <time>2021-09-18T12:27:54.000Z</time>
      </trkpt>
      <trkpt lat="43.95439" lon="6.37133">
        <ele>723.611704</ele>
        <time>2021-09-18T12:27:58.000Z</time>
      </trkpt>
      <trkpt lat="43.95441" lon="6.37139">
        <ele>723.736613</ele>
        <time>2021-09-18T12:27:59.000Z</time>
      </trkpt>
      <trkpt lat="43.95458" lon="6.37169">
        <ele>724.567013</ele>
        <time>2021-09-18T12:28:06.000Z</time>
      </trkpt>
      <trkpt lat="43.95473" lon="6.37191">
        <ele>725.217863</ele>
        <time>2021-09-18T12:28:12.000Z</time>
      </trkpt>
      <trkpt lat="43.95496" lon="6.37223">
        <ele>726.158241</ele>
        <time>2021-09-18T12:28:21.000Z</time>
      </trkpt>
      <trkpt lat="43.95522" lon="6.37251">
        <ele>727.128073</ele>
        <time>2021-09-18T12:28:31.000Z</time>
      </trkpt>
      <trkpt lat="43.95544" lon="6.3728">
        <ele>728.039585</ele>
        <time>2021-09-18T12:28:41.000Z</time>
      </trkpt>
      <trkpt lat="43.95563" lon="6.37307">
        <ele>728.753174</ele>
        <time>2021-09-18T12:28:50.000Z</time>
      </trkpt>
      <trkpt lat="43.95577" lon="6.37329">
        <ele>729.303744</ele>
        <time>2021-09-18T12:28:57.000Z</time>
      </trkpt>
      <trkpt lat="43.95589" lon="6.37357">
        <ele>729.902919</ele>
        <time>2021-09-18T12:29:04.000Z</time>
      </trkpt>
      <trkpt lat="43.95599" lon="6.37382">
        <ele>730.425782</ele>
        <time>2021-09-18T12:29:10.000Z</time>
      </trkpt>
      <trkpt lat="43.95612" lon="6.37418">
        <ele>731.179469</ele>
        <time>2021-09-18T12:29:17.000Z</time>
      </trkpt>
      <trkpt lat="43.95634" lon="6.37466">
        <ele>732.244167</ele>
        <time>2021-09-18T12:29:26.000Z</time>
      </trkpt>
      <trkpt lat="43.95658" lon="6.37511">
        <ele>733.023332</ele>
        <time>2021-09-18T12:29:34.000Z</time>
      </trkpt>
      <trkpt lat="43.95684" lon="6.37558">
        <ele>733.583664</ele>
        <time>2021-09-18T12:29:42.000Z</time>
      </trkpt>
      <trkpt lat="43.95707" lon="6.37594">
        <ele>734.034046</ele>
        <time>2021-09-18T12:29:49.000Z</time>
      </trkpt>
      <trkpt lat="43.95714" lon="6.37603">
        <ele>734.164807</ele>
        <time>2021-09-18T12:29:51.000Z</time>
      </trkpt>
      <trkpt lat="43.95726" lon="6.37616">
        <ele>734.366571</ele>
        <time>2021-09-18T12:29:54.000Z</time>
      </trkpt>
      <trkpt lat="43.95756" lon="6.37648">
        <ele>734.856034</ele>
        <time>2021-09-18T12:30:01.000Z</time>
      </trkpt>
      <trkpt lat="43.95792" lon="6.37684">
        <ele>735.369662</ele>
        <time>2021-09-18T12:30:09.000Z</time>
      </trkpt>
      <trkpt lat="43.95832" lon="6.37724">
        <ele>735.868432</ele>
        <time>2021-09-18T12:30:18.000Z</time>
      </trkpt>
      <trkpt lat="43.95868" lon="6.37759">
        <ele>736.313178</ele>
        <time>2021-09-18T12:30:26.000Z</time>
      </trkpt>
      <trkpt lat="43.9591" lon="6.37808">
        <ele>736.870846</ele>
        <time>2021-09-18T12:30:36.000Z</time>
      </trkpt>
      <trkpt lat="43.95913" lon="6.37813">
        <ele>736.924727</ele>
        <time>2021-09-18T12:30:37.000Z</time>
      </trkpt>
      <trkpt lat="43.9593" lon="6.37842">
        <ele>737.079886</ele>
        <time>2021-09-18T12:30:42.000Z</time>
      </trkpt>
      <trkpt lat="43.95933" lon="6.37848">
        <ele>737.106453</ele>
        <time>2021-09-18T12:30:43.000Z</time>
      </trkpt>
      <trkpt lat="43.95948" lon="6.37886">
        <ele>737.275893</ele>
        <time>2021-09-18T12:30:49.000Z</time>
      </trkpt>
      <trkpt lat="43.95964" lon="6.37926">
        <ele>737.44982</ele>
        <time>2021-09-18T12:30:55.000Z</time>
      </trkpt>
      <trkpt lat="43.95966" lon="6.37932">
        <ele>737.475659</ele>
        <time>2021-09-18T12:30:56.000Z</time>
      </trkpt>
      <trkpt lat="43.95968" lon="6.37938">
        <ele>737.502431</ele>
        <time>2021-09-18T12:30:57.000Z</time>
      </trkpt>
      <trkpt lat="43.95973" lon="6.3795">
        <ele>737.556312</ele>
        <time>2021-09-18T12:30:59.000Z</time>
      </trkpt>
      <trkpt lat="43.95979" lon="6.37964">
        <ele>737.61553</ele>
        <time>2021-09-18T12:31:01.000Z</time>
      </trkpt>
      <trkpt lat="43.95998" lon="6.38015">
        <ele>737.838932</ele>
        <time>2021-09-18T12:31:08.000Z</time>
      </trkpt>
      <trkpt lat="43.96023" lon="6.38079">
        <ele>738.105507</ele>
        <time>2021-09-18T12:31:17.000Z</time>
      </trkpt>
      <trkpt lat="43.96043" lon="6.38128">
        <ele>738.306163</ele>
        <time>2021-09-18T12:31:24.000Z</time>
      </trkpt>
      <trkpt lat="43.96067" lon="6.38189">
        <ele>738.559499</ele>
        <time>2021-09-18T12:31:33.000Z</time>
      </trkpt>
      <trkpt lat="43.96089" lon="6.38246">
        <ele>738.79105</ele>
        <time>2021-09-18T12:31:42.000Z</time>
      </trkpt>
      <trkpt lat="43.96095" lon="6.38265">
        <ele>738.887847</ele>
        <time>2021-09-18T12:31:45.000Z</time>
      </trkpt>
      <trkpt lat="43.96102" lon="6.38291">
        <ele>739.023036</ele>
        <time>2021-09-18T12:31:49.000Z</time>
      </trkpt>
      <trkpt lat="43.96108" lon="6.38348">
        <ele>739.302037</ele>
        <time>2021-09-18T12:31:57.000Z</time>
      </trkpt>
      <trkpt lat="43.96109" lon="6.38385">
        <ele>739.483196</ele>
        <time>2021-09-18T12:32:02.000Z</time>
      </trkpt>
      <trkpt lat="43.96107" lon="6.38392">
        <ele>739.518109</ele>
        <time>2021-09-18T12:32:03.000Z</time>
      </trkpt>
      <trkpt lat="43.96103" lon="6.38397">
        <ele>739.560025</ele>
        <time>2021-09-18T12:32:04.000Z</time>
      </trkpt>
      <trkpt lat="43.96098" lon="6.38411">
        <ele>739.634083</ele>
        <time>2021-09-18T12:32:06.000Z</time>
      </trkpt>
      <trkpt lat="43.96092" lon="6.38424">
        <ele>739.711581</ele>
        <time>2021-09-18T12:32:08.000Z</time>
      </trkpt>
      <trkpt lat="43.96077" lon="6.38448">
        <ele>739.867535</ele>
        <time>2021-09-18T12:32:13.000Z</time>
      </trkpt>
      <trkpt lat="43.96037" lon="6.3849">
        <ele>740.143493</ele>
        <time>2021-09-18T12:32:21.000Z</time>
      </trkpt>
      <trkpt lat="43.96006" lon="6.38522">
        <ele>740.311447</ele>
        <time>2021-09-18T12:32:28.000Z</time>
      </trkpt>
      <trkpt lat="43.95968" lon="6.38562">
        <ele>740.513939</ele>
        <time>2021-09-18T12:32:36.000Z</time>
      </trkpt>
      <trkpt lat="43.95929" lon="6.38603">
        <ele>740.725287</ele>
        <time>2021-09-18T12:32:44.000Z</time>
      </trkpt>
      <trkpt lat="43.95896" lon="6.38641">
        <ele>741.004863</ele>
        <time>2021-09-18T12:32:52.000Z</time>
      </trkpt>
      <trkpt lat="43.95893" lon="6.38645">
        <ele>741.045929</ele>
        <time>2021-09-18T12:32:53.000Z</time>
      </trkpt>
      <trkpt lat="43.95874" lon="6.38676">
        <ele>741.290407</ele>
        <time>2021-09-18T12:32:59.000Z</time>
      </trkpt>
      <trkpt lat="43.95871" lon="6.38682">
        <ele>741.33229</ele>
        <time>2021-09-18T12:33:00.000Z</time>
      </trkpt>
      <trkpt lat="43.95857" lon="6.38709">
        <ele>741.536732</ele>
        <time>2021-09-18T12:33:05.000Z</time>
      </trkpt>
      <trkpt lat="43.95829" lon="6.38762">
        <ele>741.937708</ele>
        <time>2021-09-18T12:33:15.000Z</time>
      </trkpt>
      <trkpt lat="43.95798" lon="6.38821">
        <ele>742.420831</ele>
        <time>2021-09-18T12:33:26.000Z</time>
      </trkpt>
      <trkpt lat="43.95773" lon="6.38869">
        <ele>743.041842</ele>
        <time>2021-09-18T12:33:35.000Z</time>
      </trkpt>
      <trkpt lat="43.95756" lon="6.38901">
        <ele>743.450493</ele>
        <time>2021-09-18T12:33:41.000Z</time>
      </trkpt>
      <trkpt lat="43.95753" lon="6.38906">
        <ele>743.51987</ele>
        <time>2021-09-18T12:33:42.000Z</time>
      </trkpt>
      <trkpt lat="43.95726" lon="6.38959">
        <ele>744.193338</ele>
        <time>2021-09-18T12:33:52.000Z</time>
      </trkpt>
      <trkpt lat="43.9571" lon="6.3899">
        <ele>744.591839</ele>
        <time>2021-09-18T12:33:58.000Z</time>
      </trkpt>
      <trkpt lat="43.95707" lon="6.38994">
        <ele>744.653602</ele>
        <time>2021-09-18T12:33:59.000Z</time>
      </trkpt>
      <trkpt lat="43.9568" lon="6.39048">
        <ele>745.402597</ele>
        <time>2021-09-18T12:34:09.000Z</time>
      </trkpt>
      <trkpt lat="43.9566" lon="6.39089">
        <ele>746.020234</ele>
        <time>2021-09-18T12:34:17.000Z</time>
      </trkpt>
      <trkpt lat="43.95637" lon="6.39143">
        <ele>746.793622</ele>
        <time>2021-09-18T12:34:27.000Z</time>
      </trkpt>
      <trkpt lat="43.9562" lon="6.39199">
        <ele>747.529782</ele>
        <time>2021-09-18T12:34:36.000Z</time>
      </trkpt>
      <trkpt lat="43.95608" lon="6.39247">
        <ele>748.13779</ele>
        <time>2021-09-18T12:34:43.000Z</time>
      </trkpt>
      <trkpt lat="43.95597" lon="6.39321">
        <ele>748.983859</ele>
        <time>2021-09-18T12:34:53.000Z</time>
      </trkpt>
      <trkpt lat="43.95591" lon="6.39358">
        <ele>749.407921</ele>
        <time>2021-09-18T12:34:58.000Z</time>
      </trkpt>
      <trkpt lat="43.95588" lon="6.3938">
        <ele>749.657266</ele>
        <time>2021-09-18T12:35:01.000Z</time>
      </trkpt>
      <trkpt lat="43.95576" lon="6.39453">
        <ele>750.495555</ele>
        <time>2021-09-18T12:35:11.000Z</time>
      </trkpt>
      <trkpt lat="43.95575" lon="6.3946">
        <ele>750.577833</ele>
        <time>2021-09-18T12:35:12.000Z</time>
      </trkpt>
      <trkpt lat="43.95564" lon="6.39535">
        <ele>751.5515</ele>
        <time>2021-09-18T12:35:23.000Z</time>
      </trkpt>
      <trkpt lat="43.95563" lon="6.39541">
        <ele>751.64262</ele>
        <time>2021-09-18T12:35:24.000Z</time>
      </trkpt>
      <trkpt lat="43.95553" lon="6.39607">
        <ele>752.532127</ele>
        <time>2021-09-18T12:35:34.000Z</time>
      </trkpt>
      <trkpt lat="43.95542" lon="6.39678">
        <ele>753.491233</ele>
        <time>2021-09-18T12:35:45.000Z</time>
      </trkpt>
      <trkpt lat="43.9553" lon="6.39741">
        <ele>754.417689</ele>
        <time>2021-09-18T12:35:55.000Z</time>
      </trkpt>
      <trkpt lat="43.95519" lon="6.39811">
        <ele>755.606537</ele>
        <time>2021-09-18T12:36:06.000Z</time>
      </trkpt>
      <trkpt lat="43.95508" lon="6.39883">
        <ele>756.837682</ele>
        <time>2021-09-18T12:36:18.000Z</time>
      </trkpt>
      <trkpt lat="43.95506" lon="6.39894">
        <ele>757.031384</ele>
        <time>2021-09-18T12:36:20.000Z</time>
      </trkpt>
      <trkpt lat="43.95505" lon="6.39906">
        <ele>757.223458</ele>
        <time>2021-09-18T12:36:22.000Z</time>
      </trkpt>
      <trkpt lat="43.95503" lon="6.39917">
        <ele>757.420421</ele>
        <time>2021-09-18T12:36:24.000Z</time>
      </trkpt>
      <trkpt lat="43.95499" lon="6.39946">
        <ele>757.910275</ele>
        <time>2021-09-18T12:36:29.000Z</time>
      </trkpt>
      <trkpt lat="43.95497" lon="6.39958">
        <ele>758.108868</ele>
        <time>2021-09-18T12:36:31.000Z</time>
      </trkpt>
      <trkpt lat="43.95487" lon="6.40022">
        <ele>759.289722</ele>
        <time>2021-09-18T12:36:42.000Z</time>
      </trkpt>
      <trkpt lat="43.9548" lon="6.40064">
        <ele>760.074498</ele>
        <time>2021-09-18T12:36:49.000Z</time>
      </trkpt>
      <trkpt lat="43.95467" lon="6.40123">
        <ele>761.18089</ele>
        <time>2021-09-18T12:36:59.000Z</time>
      </trkpt>
      <trkpt lat="43.95455" lon="6.4017">
        <ele>762.083955</ele>
        <time>2021-09-18T12:37:07.000Z</time>
      </trkpt>
      <trkpt lat="43.95439" lon="6.40215">
        <ele>762.940579</ele>
        <time>2021-09-18T12:37:15.000Z</time>
      </trkpt>
      <trkpt lat="43.95421" lon="6.40264">
        <ele>763.669582</ele>
        <time>2021-09-18T12:37:24.000Z</time>
      </trkpt>
      <trkpt lat="43.95397" lon="6.40326">
        <ele>764.590154</ele>
        <time>2021-09-18T12:37:35.000Z</time>
      </trkpt>
      <trkpt lat="43.95371" lon="6.40393">
        <ele>765.596218</ele>
        <time>2021-09-18T12:37:46.000Z</time>
      </trkpt>
      <trkpt lat="43.95366" lon="6.40405">
        <ele>765.78004</ele>
        <time>2021-09-18T12:37:48.000Z</time>
      </trkpt>
      <trkpt lat="43.95343" lon="6.40465">
        <ele>766.425768</ele>
        <time>2021-09-18T12:37:57.000Z</time>
      </trkpt>
      <trkpt lat="43.95318" lon="6.40527">
        <ele>766.960089</ele>
        <time>2021-09-18T12:38:06.000Z</time>
      </trkpt>
      <trkpt lat="43.95291" lon="6.40597">
        <ele>767.55773</ele>
        <time>2021-09-18T12:38:16.000Z</time>
      </trkpt>
      <trkpt lat="43.95288" lon="6.40604">
        <ele>767.617412</ele>
        <time>2021-09-18T12:38:17.000Z</time>
      </trkpt>
      <trkpt lat="43.95262" lon="6.40672">
        <ele>768.24211</ele>
        <time>2021-09-18T12:38:27.000Z</time>
      </trkpt>
      <trkpt lat="43.95259" lon="6.40679">
        <ele>768.30988</ele>
        <time>2021-09-18T12:38:28.000Z</time>
      </trkpt>
      <trkpt lat="43.95234" lon="6.40744">
        <ele>768.980865</ele>
        <time>2021-09-18T12:38:38.000Z</time>
      </trkpt>
      <trkpt lat="43.95213" lon="6.40811">
        <ele>769.635785</ele>
        <time>2021-09-18T12:38:48.000Z</time>
      </trkpt>
      <trkpt lat="43.952" lon="6.40858">
        <ele>770.087118</ele>
        <time>2021-09-18T12:38:55.000Z</time>
      </trkpt>
      <trkpt lat="43.95195" lon="6.40877">
        <ele>770.291397</ele>
        <time>2021-09-18T12:38:58.000Z</time>
      </trkpt>
      <trkpt lat="43.95191" lon="6.40897">
        <ele>770.5338</ele>
        <time>2021-09-18T12:39:01.000Z</time>
      </trkpt>
      <trkpt lat="43.95175" lon="6.40969">
        <ele>771.404517</ele>
        <time>2021-09-18T12:39:12.000Z</time>
      </trkpt>
      <trkpt lat="43.95173" lon="6.40983">
        <ele>771.564264</ele>
        <time>2021-09-18T12:39:14.000Z</time>
      </trkpt>
      <trkpt lat="43.95162" lon="6.41035">
        <ele>772.190363</ele>
        <time>2021-09-18T12:39:22.000Z</time>
      </trkpt>
      <trkpt lat="43.95149" lon="6.41098">
        <ele>772.94777</ele>
        <time>2021-09-18T12:39:32.000Z</time>
      </trkpt>
      <trkpt lat="43.9514" lon="6.41153">
        <ele>773.740577</ele>
        <time>2021-09-18T12:39:41.000Z</time>
      </trkpt>
      <trkpt lat="43.95139" lon="6.41204">
        <ele>774.485621</ele>
        <time>2021-09-18T12:39:49.000Z</time>
      </trkpt>
      <trkpt lat="43.95139" lon="6.41222">
        <ele>774.753231</ele>
        <time>2021-09-18T12:39:52.000Z</time>
      </trkpt>
      <trkpt lat="43.9514" lon="6.41234">
        <ele>774.924604</ele>
        <time>2021-09-18T12:39:54.000Z</time>
      </trkpt>
      <trkpt lat="43.95145" lon="6.41291">
        <ele>775.76878</ele>
        <time>2021-09-18T12:40:03.000Z</time>
      </trkpt>
      <trkpt lat="43.9515" lon="6.41352">
        <ele>776.673255</ele>
        <time>2021-09-18T12:40:13.000Z</time>
      </trkpt>
      <trkpt lat="43.95154" lon="6.41407">
        <ele>777.66393</ele>
        <time>2021-09-18T12:40:22.000Z</time>
      </trkpt>
      <trkpt lat="43.95155" lon="6.4147">
        <ele>778.805324</ele>
        <time>2021-09-18T12:40:32.000Z</time>
      </trkpt>
      <trkpt lat="43.95152" lon="6.4151">
        <ele>779.532968</ele>
        <time>2021-09-18T12:40:39.000Z</time>
      </trkpt>
      <trkpt lat="43.95143" lon="6.41555">
        <ele>780.378232</ele>
        <time>2021-09-18T12:40:48.000Z</time>
      </trkpt>
      <trkpt lat="43.9514" lon="6.41601">
        <ele>781.222001</ele>
        <time>2021-09-18T12:40:57.000Z</time>
      </trkpt>
      <trkpt lat="43.95141" lon="6.41644">
        <ele>781.937856</ele>
        <time>2021-09-18T12:41:05.000Z</time>
      </trkpt>
      <trkpt lat="43.95149" lon="6.41678">
        <ele>782.513811</ele>
        <time>2021-09-18T12:41:11.000Z</time>
      </trkpt>
      <trkpt lat="43.95151" lon="6.41683">
        <ele>782.612388</ele>
        <time>2021-09-18T12:41:12.000Z</time>
      </trkpt>
      <trkpt lat="43.95163" lon="6.41709">
        <ele>783.111524</ele>
        <time>2021-09-18T12:41:17.000Z</time>
      </trkpt>
      <trkpt lat="43.95171" lon="6.41724">
        <ele>783.41322</ele>
        <time>2021-09-18T12:41:20.000Z</time>
      </trkpt>
      <trkpt lat="43.95191" lon="6.41767">
        <ele>784.238969</ele>
        <time>2021-09-18T12:41:28.000Z</time>
      </trkpt>
      <trkpt lat="43.95217" lon="6.41821">
        <ele>785.300331</ele>
        <time>2021-09-18T12:41:38.000Z</time>
      </trkpt>
      <trkpt lat="43.95239" lon="6.41867">
        <ele>785.938401</ele>
        <time>2021-09-18T12:41:46.000Z</time>
      </trkpt>
      <trkpt lat="43.9526" lon="6.41919">
        <ele>786.594561</ele>
        <time>2021-09-18T12:41:54.000Z</time>
      </trkpt>
      <trkpt lat="43.95273" lon="6.41969">
        <ele>787.170923</ele>
        <time>2021-09-18T12:42:01.000Z</time>
      </trkpt>
      <trkpt lat="43.95282" lon="6.42032">
        <ele>787.882716</ele>
        <time>2021-09-18T12:42:10.000Z</time>
      </trkpt>
      <trkpt lat="43.95292" lon="6.42098">
        <ele>788.717148</ele>
        <time>2021-09-18T12:42:20.000Z</time>
      </trkpt>
      <trkpt lat="43.95301" lon="6.42159">
        <ele>789.553839</ele>
        <time>2021-09-18T12:42:30.000Z</time>
      </trkpt>
      <trkpt lat="43.9532" lon="6.42225">
        <ele>790.485324</ele>
        <time>2021-09-18T12:42:41.000Z</time>
      </trkpt>
      <trkpt lat="43.95341" lon="6.42273">
        <ele>791.23736</ele>
        <time>2021-09-18T12:42:50.000Z</time>
      </trkpt>
      <trkpt lat="43.95365" lon="6.42317">
        <ele>791.970131</ele>
        <time>2021-09-18T12:42:59.000Z</time>
      </trkpt>
      <trkpt lat="43.95399" lon="6.42363">
        <ele>792.833594</ele>
        <time>2021-09-18T12:43:09.000Z</time>
      </trkpt>
      <trkpt lat="43.95439" lon="6.42418">
        <ele>793.880761</ele>
        <time>2021-09-18T12:43:21.000Z</time>
      </trkpt>
      <trkpt lat="43.95449" lon="6.42432">
        <ele>794.143583</ele>
        <time>2021-09-18T12:43:24.000Z</time>
      </trkpt>
      <trkpt lat="43.9549" lon="6.42488">
        <ele>795.303799</ele>
        <time>2021-09-18T12:43:36.000Z</time>
      </trkpt>
      <trkpt lat="43.95529" lon="6.42545">
        <ele>796.58225</ele>
        <time>2021-09-18T12:43:48.000Z</time>
      </trkpt>
      <trkpt lat="43.95551" lon="6.42594">
        <ele>797.534019</ele>
        <time>2021-09-18T12:43:57.000Z</time>
      </trkpt>
      <trkpt lat="43.95566" lon="6.42646">
        <ele>798.444468</ele>
        <time>2021-09-18T12:44:06.000Z</time>
      </trkpt>
      <trkpt lat="43.95582" lon="6.42707">
        <ele>799.753212</ele>
        <time>2021-09-18T12:44:17.000Z</time>
      </trkpt>
      <trkpt lat="43.95594" lon="6.42746">
        <ele>800.710202</ele>
        <time>2021-09-18T12:44:25.000Z</time>
      </trkpt>
      <trkpt lat="43.95616" lon="6.42799">
        <ele>802.101811</ele>
        <time>2021-09-18T12:44:36.000Z</time>
      </trkpt>
      <trkpt lat="43.95637" lon="6.42831">
        <ele>803.070836</ele>
        <time>2021-09-18T12:44:44.000Z</time>
      </trkpt>
      <trkpt lat="43.95665" lon="6.42867">
        <ele>804.280152</ele>
        <time>2021-09-18T12:44:54.000Z</time>
      </trkpt>
      <trkpt lat="43.95702" lon="6.429">
        <ele>805.511007</ele>
        <time>2021-09-18T12:45:05.000Z</time>
      </trkpt>
      <trkpt lat="43.95735" lon="6.4293">
        <ele>806.60924</ele>
        <time>2021-09-18T12:45:15.000Z</time>
      </trkpt>
      <trkpt lat="43.95768" lon="6.4296">
        <ele>807.687403</ele>
        <time>2021-09-18T12:45:25.000Z</time>
      </trkpt>
      <trkpt lat="43.95799" lon="6.42987">
        <ele>808.688229</ele>
        <time>2021-09-18T12:45:34.000Z</time>
      </trkpt>
      <trkpt lat="43.95831" lon="6.43016">
        <ele>809.690926</ele>
        <time>2021-09-18T12:45:44.000Z</time>
      </trkpt>
      <trkpt lat="43.95864" lon="6.43052">
        <ele>810.61143</ele>
        <time>2021-09-18T12:45:54.000Z</time>
      </trkpt>
      <trkpt lat="43.95888" lon="6.43086">
        <ele>811.364831</ele>
        <time>2021-09-18T12:46:02.000Z</time>
      </trkpt>
      <trkpt lat="43.95907" lon="6.4313">
        <ele>812.162456</ele>
        <time>2021-09-18T12:46:10.000Z</time>
      </trkpt>
      <trkpt lat="43.95923" lon="6.43177">
        <ele>812.986621</ele>
        <time>2021-09-18T12:46:18.000Z</time>
      </trkpt>
      <trkpt lat="43.95942" lon="6.43243">
        <ele>813.982415</ele>
        <time>2021-09-18T12:46:28.000Z</time>
      </trkpt>
      <trkpt lat="43.95954" lon="6.43275">
        <ele>814.433687</ele>
        <time>2021-09-18T12:46:33.000Z</time>
      </trkpt>
      <trkpt lat="43.95957" lon="6.4328">
        <ele>814.519933</ele>
        <time>2021-09-18T12:46:34.000Z</time>
      </trkpt>
      <trkpt lat="43.95964" lon="6.4329">
        <ele>814.703387</ele>
        <time>2021-09-18T12:46:36.000Z</time>
      </trkpt>
      <trkpt lat="43.95975" lon="6.43304">
        <ele>814.981083</ele>
        <time>2021-09-18T12:46:39.000Z</time>
      </trkpt>
      <trkpt lat="43.96021" lon="6.4334">
        <ele>815.917138</ele>
        <time>2021-09-18T12:46:49.000Z</time>
      </trkpt>
      <trkpt lat="43.96043" lon="6.43357">
        <ele>816.367435</ele>
        <time>2021-09-18T12:46:54.000Z</time>
      </trkpt>
      <trkpt lat="43.96051" lon="6.43363">
        <ele>816.545984</ele>
        <time>2021-09-18T12:46:56.000Z</time>
      </trkpt>
      <trkpt lat="43.96056" lon="6.43367">
        <ele>816.64096</ele>
        <time>2021-09-18T12:46:57.000Z</time>
      </trkpt>
      <trkpt lat="43.96072" lon="6.43379">
        <ele>817.05806</ele>
        <time>2021-09-18T12:47:01.000Z</time>
      </trkpt>
      <trkpt lat="43.96081" lon="6.43386">
        <ele>817.272367</ele>
        <time>2021-09-18T12:47:03.000Z</time>
      </trkpt>
      <trkpt lat="43.96096" lon="6.43405">
        <ele>817.713862</ele>
        <time>2021-09-18T12:47:07.000Z</time>
      </trkpt>
      <trkpt lat="43.96102" lon="6.43415">
        <ele>817.920408</ele>
        <time>2021-09-18T12:47:09.000Z</time>
      </trkpt>
      <trkpt lat="43.96122" lon="6.43457">
        <ele>818.722989</ele>
        <time>2021-09-18T12:47:17.000Z</time>
      </trkpt>
      <trkpt lat="43.96136" lon="6.43491">
        <ele>819.335536</ele>
        <time>2021-09-18T12:47:23.000Z</time>
      </trkpt>
      <trkpt lat="43.96155" lon="6.43529">
        <ele>820.06851</ele>
        <time>2021-09-18T12:47:30.000Z</time>
      </trkpt>
      <trkpt lat="43.96166" lon="6.43551">
        <ele>820.491381</ele>
        <time>2021-09-18T12:47:34.000Z</time>
      </trkpt>
      <trkpt lat="43.96171" lon="6.43562">
        <ele>820.727458</ele>
        <time>2021-09-18T12:47:36.000Z</time>
      </trkpt>
      <trkpt lat="43.96176" lon="6.43574">
        <ele>820.983512</ele>
        <time>2021-09-18T12:47:38.000Z</time>
      </trkpt>
      <trkpt lat="43.96184" lon="6.43604">
        <ele>821.571823</ele>
        <time>2021-09-18T12:47:43.000Z</time>
      </trkpt>
      <trkpt lat="43.96188" lon="6.43642">
        <ele>822.27099</ele>
        <time>2021-09-18T12:47:50.000Z</time>
      </trkpt>
      <trkpt lat="43.96192" lon="6.43682">
        <ele>823.016606</ele>
        <time>2021-09-18T12:47:59.000Z</time>
      </trkpt>
      <trkpt lat="43.96195" lon="6.43723">
        <ele>823.789261</ele>
        <time>2021-09-18T12:48:08.000Z</time>
      </trkpt>
      <trkpt lat="43.96195" lon="6.43775">
        <ele>824.737356</ele>
        <time>2021-09-18T12:48:17.000Z</time>
      </trkpt>
      <trkpt lat="43.96188" lon="6.43793">
        <ele>825.124135</ele>
        <time>2021-09-18T12:48:20.000Z</time>
      </trkpt>
      <trkpt lat="43.96184" lon="6.43797">
        <ele>825.224719</ele>
        <time>2021-09-18T12:48:21.000Z</time>
      </trkpt>
      <trkpt lat="43.96177" lon="6.43806">
        <ele>825.40301</ele>
        <time>2021-09-18T12:48:23.000Z</time>
      </trkpt>
      <trkpt lat="43.96172" lon="6.43824">
        <ele>825.676419</ele>
        <time>2021-09-18T12:48:26.000Z</time>
      </trkpt>
      <trkpt lat="43.96162" lon="6.43883">
        <ele>826.523997</ele>
        <time>2021-09-18T12:48:35.000Z</time>
      </trkpt>
      <trkpt lat="43.96153" lon="6.43944">
        <ele>827.387813</ele>
        <time>2021-09-18T12:48:44.000Z</time>
      </trkpt>
      <trkpt lat="43.96141" lon="6.44004">
        <ele>828.251545</ele>
        <time>2021-09-18T12:48:53.000Z</time>
      </trkpt>
      <trkpt lat="43.96124" lon="6.44082">
        <ele>829.362377</ele>
        <time>2021-09-18T12:49:05.000Z</time>
      </trkpt>
      <trkpt lat="43.96115" lon="6.44137">
        <ele>830.108517</ele>
        <time>2021-09-18T12:49:13.000Z</time>
      </trkpt>
      <trkpt lat="43.96117" lon="6.44179">
        <ele>830.678351</ele>
        <time>2021-09-18T12:49:19.000Z</time>
      </trkpt>
      <trkpt lat="43.96135" lon="6.44229">
        <ele>831.424009</ele>
        <time>2021-09-18T12:49:27.000Z</time>
      </trkpt>
      <trkpt lat="43.96156" lon="6.44284">
        <ele>832.349456</ele>
        <time>2021-09-18T12:49:36.000Z</time>
      </trkpt>
      <trkpt lat="43.96175" lon="6.44338">
        <ele>833.426486</ele>
        <time>2021-09-18T12:49:45.000Z</time>
      </trkpt>
      <trkpt lat="43.96191" lon="6.44381">
        <ele>834.294262</ele>
        <time>2021-09-18T12:49:53.000Z</time>
      </trkpt>
      <trkpt lat="43.96193" lon="6.44386">
        <ele>834.391853</ele>
        <time>2021-09-18T12:49:54.000Z</time>
      </trkpt>
      <trkpt lat="43.96208" lon="6.4442">
        <ele>835.128706</ele>
        <time>2021-09-18T12:50:02.000Z</time>
      </trkpt>
      <trkpt lat="43.96228" lon="6.44448">
        <ele>835.827565</ele>
        <time>2021-09-18T12:50:10.000Z</time>
      </trkpt>
      <trkpt lat="43.96234" lon="6.44462">
        <ele>836.126399</ele>
        <time>2021-09-18T12:50:13.000Z</time>
      </trkpt>
      <trkpt lat="43.96239" lon="6.44479">
        <ele>836.453519</ele>
        <time>2021-09-18T12:50:16.000Z</time>
      </trkpt>
      <trkpt lat="43.96247" lon="6.44528">
        <ele>837.594004</ele>
        <time>2021-09-18T12:50:24.000Z</time>
      </trkpt>
      <trkpt lat="43.96252" lon="6.44574">
        <ele>838.64306</ele>
        <time>2021-09-18T12:50:32.000Z</time>
      </trkpt>
      <trkpt lat="43.96262" lon="6.44606">
        <ele>839.42972</ele>
        <time>2021-09-18T12:50:39.000Z</time>
      </trkpt>
      <trkpt lat="43.9628" lon="6.4463">
        <ele>840.223359</ele>
        <time>2021-09-18T12:50:46.000Z</time>
      </trkpt>
      <trkpt lat="43.96311" lon="6.44668">
        <ele>841.527803</ele>
        <time>2021-09-18T12:50:56.000Z</time>
      </trkpt>
      <trkpt lat="43.96341" lon="6.44704">
        <ele>842.781807</ele>
        <time>2021-09-18T12:51:05.000Z</time>
      </trkpt>
      <trkpt lat="43.9637" lon="6.4474">
        <ele>844.015349</ele>
        <time>2021-09-18T12:51:14.000Z</time>
      </trkpt>
      <trkpt lat="43.96397" lon="6.44778">
        <ele>845.260771</ele>
        <time>2021-09-18T12:51:23.000Z</time>
      </trkpt>
      <trkpt lat="43.96427" lon="6.44822">
        <ele>846.674348</ele>
        <time>2021-09-18T12:51:34.000Z</time>
      </trkpt>
      <trkpt lat="43.96444" lon="6.44845">
        <ele>847.422362</ele>
        <time>2021-09-18T12:51:40.000Z</time>
      </trkpt>
      <trkpt lat="43.96448" lon="6.44848">
        <ele>847.565875</ele>
        <time>2021-09-18T12:51:41.000Z</time>
      </trkpt>
      <trkpt lat="43.96452" lon="6.44852">
        <ele>847.710786</ele>
        <time>2021-09-18T12:51:42.000Z</time>
      </trkpt>
      <trkpt lat="43.9646" lon="6.44859">
        <ele>847.98631</ele>
        <time>2021-09-18T12:51:44.000Z</time>
      </trkpt>
      <trkpt lat="43.96467" lon="6.44866">
        <ele>848.164027</ele>
        <time>2021-09-18T12:51:46.000Z</time>
      </trkpt>
      <trkpt lat="43.96495" lon="6.44894">
        <ele>848.871579</ele>
        <time>2021-09-18T12:51:55.000Z</time>
      </trkpt>
      <trkpt lat="43.96517" lon="6.44927">
        <ele>849.549677</ele>
        <time>2021-09-18T12:52:03.000Z</time>
      </trkpt>
      <trkpt lat="43.96526" lon="6.44959">
        <ele>850.073805</ele>
        <time>2021-09-18T12:52:09.000Z</time>
      </trkpt>
      <trkpt lat="43.96529" lon="6.45008">
        <ele>850.809793</ele>
        <time>2021-09-18T12:52:17.000Z</time>
      </trkpt>
      <trkpt lat="43.96522" lon="6.45052">
        <ele>851.485756</ele>
        <time>2021-09-18T12:52:24.000Z</time>
      </trkpt>
      <trkpt lat="43.96518" lon="6.45064">
        <ele>851.67621</ele>
        <time>2021-09-18T12:52:26.000Z</time>
      </trkpt>
      <trkpt lat="43.96509" lon="6.4508">
        <ele>851.88279</ele>
        <time>2021-09-18T12:52:29.000Z</time>
      </trkpt>
      <trkpt lat="43.96506" lon="6.45085">
        <ele>851.951536</ele>
        <time>2021-09-18T12:52:30.000Z</time>
      </trkpt>
      <trkpt lat="43.9649" lon="6.45101">
        <ele>852.229643</ele>
        <time>2021-09-18T12:52:34.000Z</time>
      </trkpt>
      <trkpt lat="43.96462" lon="6.45126">
        <ele>852.700453</ele>
        <time>2021-09-18T12:52:41.000Z</time>
      </trkpt>
      <trkpt lat="43.96458" lon="6.45131">
        <ele>852.768986</ele>
        <time>2021-09-18T12:52:42.000Z</time>
      </trkpt>
      <trkpt lat="43.9645" lon="6.45147">
        <ele>852.967312</ele>
        <time>2021-09-18T12:52:45.000Z</time>
      </trkpt>
      <trkpt lat="43.96448" lon="6.45152">
        <ele>853.027955</ele>
        <time>2021-09-18T12:52:46.000Z</time>
      </trkpt>
      <trkpt lat="43.96445" lon="6.45164">
        <ele>853.154299</ele>
        <time>2021-09-18T12:52:48.000Z</time>
      </trkpt>
      <trkpt lat="43.9644" lon="6.45183">
        <ele>853.358828</ele>
        <time>2021-09-18T12:52:51.000Z</time>
      </trkpt>
      <trkpt lat="43.96418" lon="6.45242">
        <ele>854.035796</ele>
        <time>2021-09-18T12:53:01.000Z</time>
      </trkpt>
      <trkpt lat="43.96403" lon="6.4527">
        <ele>854.389284</ele>
        <time>2021-09-18T12:53:07.000Z</time>
      </trkpt>
      <trkpt lat="43.96389" lon="6.45294">
        <ele>854.695474</ele>
        <time>2021-09-18T12:53:13.000Z</time>
      </trkpt>
      <trkpt lat="43.9638" lon="6.4531">
        <ele>854.893623</ele>
        <time>2021-09-18T12:53:18.000Z</time>
      </trkpt>
      <trkpt lat="43.96369" lon="6.45333">
        <ele>855.17382</ele>
        <time>2021-09-18T12:53:24.000Z</time>
      </trkpt>
      <trkpt lat="43.96357" lon="6.45359">
        <ele>855.481108</ele>
        <time>2021-09-18T12:53:30.000Z</time>
      </trkpt>
      <trkpt lat="43.9634" lon="6.45397">
        <ele>855.922524</ele>
        <time>2021-09-18T12:53:38.000Z</time>
      </trkpt>
      <trkpt lat="43.96322" lon="6.4544">
        <ele>856.420687</ele>
        <time>2021-09-18T12:53:47.000Z</time>
      </trkpt>
      <trkpt lat="43.96306" lon="6.45479">
        <ele>856.987498</ele>
        <time>2021-09-18T12:53:55.000Z</time>
      </trkpt>
      <trkpt lat="43.96296" lon="6.45515">
        <ele>857.602546</ele>
        <time>2021-09-18T12:54:02.000Z</time>
      </trkpt>
      <trkpt lat="43.96288" lon="6.45553">
        <ele>858.229457</ele>
        <time>2021-09-18T12:54:09.000Z</time>
      </trkpt>
      <trkpt lat="43.9628" lon="6.45592">
        <ele>858.872248</ele>
        <time>2021-09-18T12:54:16.000Z</time>
      </trkpt>
      <trkpt lat="43.96274" lon="6.45619">
        <ele>859.311972</ele>
        <time>2021-09-18T12:54:21.000Z</time>
      </trkpt>
      <trkpt lat="43.96273" lon="6.45624">
        <ele>859.404806</ele>
        <time>2021-09-18T12:54:22.000Z</time>
      </trkpt>
      <trkpt lat="43.96263" lon="6.45675">
        <ele>860.238735</ele>
        <time>2021-09-18T12:54:31.000Z</time>
      </trkpt>
      <trkpt lat="43.96256" lon="6.45721">
        <ele>861.085578</ele>
        <time>2021-09-18T12:54:39.000Z</time>
      </trkpt>
      <trkpt lat="43.96247" lon="6.4576">
        <ele>861.944828</ele>
        <time>2021-09-18T12:54:46.000Z</time>
      </trkpt>
      <trkpt lat="43.96237" lon="6.45805">
        <ele>862.917111</ele>
        <time>2021-09-18T12:54:54.000Z</time>
      </trkpt>
      <trkpt lat="43.96231" lon="6.45833">
        <ele>863.522887</ele>
        <time>2021-09-18T12:54:59.000Z</time>
      </trkpt>
      <trkpt lat="43.96229" lon="6.45845">
        <ele>863.774995</ele>
        <time>2021-09-18T12:55:01.000Z</time>
      </trkpt>
      <trkpt lat="43.96222" lon="6.45892">
        <ele>864.775377</ele>
        <time>2021-09-18T12:55:09.000Z</time>
      </trkpt>
      <trkpt lat="43.96228" lon="6.45929">
        <ele>865.544096</ele>
        <time>2021-09-18T12:55:16.000Z</time>
      </trkpt>
      <trkpt lat="43.96234" lon="6.45966">
        <ele>866.297773</ele>
        <time>2021-09-18T12:55:23.000Z</time>
      </trkpt>
      <trkpt lat="43.96237" lon="6.46005">
        <ele>867.031267</ele>
        <time>2021-09-18T12:55:30.000Z</time>
      </trkpt>
      <trkpt lat="43.96237" lon="6.46045">
        <ele>867.774259</ele>
        <time>2021-09-18T12:55:37.000Z</time>
      </trkpt>
      <trkpt lat="43.96232" lon="6.46087">
        <ele>868.577794</ele>
        <time>2021-09-18T12:55:44.000Z</time>
      </trkpt>
      <trkpt lat="43.96223" lon="6.46134">
        <ele>869.479836</ele>
        <time>2021-09-18T12:55:52.000Z</time>
      </trkpt>
      <trkpt lat="43.96213" lon="6.4618">
        <ele>870.380165</ele>
        <time>2021-09-18T12:56:00.000Z</time>
      </trkpt>
      <trkpt lat="43.96201" lon="6.46231">
        <ele>871.452752</ele>
        <time>2021-09-18T12:56:09.000Z</time>
      </trkpt>
      <trkpt lat="43.96192" lon="6.46272">
        <ele>872.313261</ele>
        <time>2021-09-18T12:56:17.000Z</time>
      </trkpt>
      <trkpt lat="43.96192" lon="6.46309">
        <ele>873.045746</ele>
        <time>2021-09-18T12:56:24.000Z</time>
      </trkpt>
      <trkpt lat="43.96194" lon="6.46344">
        <ele>873.746116</ele>
        <time>2021-09-18T12:56:32.000Z</time>
      </trkpt>
      <trkpt lat="43.96196" lon="6.46375">
        <ele>874.384246</ele>
        <time>2021-09-18T12:56:40.000Z</time>
      </trkpt>
      <trkpt lat="43.96194" lon="6.46409">
        <ele>875.057654</ele>
        <time>2021-09-18T12:56:49.000Z</time>
      </trkpt>
      <trkpt lat="43.96186" lon="6.46437">
        <ele>875.739259</ele>
        <time>2021-09-18T12:56:57.000Z</time>
      </trkpt>
      <trkpt lat="43.96172" lon="6.4646">
        <ele>876.722399</ele>
        <time>2021-09-18T12:57:05.000Z</time>
      </trkpt>
      <trkpt lat="43.96157" lon="6.46481">
        <ele>877.691202</ele>
        <time>2021-09-18T12:57:13.000Z</time>
      </trkpt>
      <trkpt lat="43.96146" lon="6.46501">
        <ele>878.492999</ele>
        <time>2021-09-18T12:57:20.000Z</time>
      </trkpt>
      <trkpt lat="43.96142" lon="6.46523">
        <ele>879.248562</ele>
        <time>2021-09-18T12:57:27.000Z</time>
      </trkpt>
      <trkpt lat="43.96148" lon="6.4655">
        <ele>880.155211</ele>
        <time>2021-09-18T12:57:34.000Z</time>
      </trkpt>
      <trkpt lat="43.96161" lon="6.46563">
        <ele>880.900225</ele>
        <time>2021-09-18T12:57:39.000Z</time>
      </trkpt>
      <trkpt lat="43.96172" lon="6.46579">
        <ele>881.586461</ele>
        <time>2021-09-18T12:57:44.000Z</time>
      </trkpt>
      <trkpt lat="43.96182" lon="6.46608">
        <ele>882.61352</ele>
        <time>2021-09-18T12:57:54.000Z</time>
      </trkpt>
      <trkpt lat="43.96184" lon="6.46635">
        <ele>883.51535</ele>
        <time>2021-09-18T12:58:03.000Z</time>
      </trkpt>
      <trkpt lat="43.96183" lon="6.46661">
        <ele>884.53845</ele>
        <time>2021-09-18T12:58:11.000Z</time>
      </trkpt>
      <trkpt lat="43.96181" lon="6.46673">
        <ele>885.018251</ele>
        <time>2021-09-18T12:58:17.000Z</time>
      </trkpt>
      <trkpt lat="43.96181" lon="6.46676">
        <ele>885.119874</ele>
        <time>2021-09-18T12:58:22.000Z</time>
      </trkpt>
      <trkpt lat="43.96179" lon="6.46685">
        <ele>885.513557</ele>
        <time>2021-09-18T12:59:20.000Z</time>
      </trkpt>
      <trkpt lat="43.96179" lon="6.46688">
        <ele>885.611309</ele>
        <time>2021-09-18T12:59:21.000Z</time>
      </trkpt>
      <trkpt lat="43.96175" lon="6.46709">
        <ele>886.480912</ele>
        <time>2021-09-18T12:59:28.000Z</time>
      </trkpt>
      <trkpt lat="43.96172" lon="6.4673">
        <ele>887.314456</ele>
        <time>2021-09-18T12:59:35.000Z</time>
      </trkpt>
      <trkpt lat="43.96168" lon="6.46754">
        <ele>888.321745</ele>
        <time>2021-09-18T12:59:42.000Z</time>
      </trkpt>
      <trkpt lat="43.96165" lon="6.46778">
        <ele>889.26466</ele>
        <time>2021-09-18T12:59:49.000Z</time>
      </trkpt>
      <trkpt lat="43.9616" lon="6.46812">
        <ele>890.672786</ele>
        <time>2021-09-18T12:59:59.000Z</time>
      </trkpt>
      <trkpt lat="43.96153" lon="6.46841">
        <ele>891.856425</ele>
        <time>2021-09-18T13:00:07.000Z</time>
      </trkpt>
      <trkpt lat="43.96148" lon="6.46874">
        <ele>893.188944</ele>
        <time>2021-09-18T13:00:16.000Z</time>
      </trkpt>
      <trkpt lat="43.96143" lon="6.46908">
        <ele>894.177674</ele>
        <time>2021-09-18T13:00:24.000Z</time>
      </trkpt>
      <trkpt lat="43.96135" lon="6.46953">
        <ele>895.335826</ele>
        <time>2021-09-18T13:00:34.000Z</time>
      </trkpt>
      <trkpt lat="43.96125" lon="6.46992">
        <ele>896.368378</ele>
        <time>2021-09-18T13:00:43.000Z</time>
      </trkpt>
      <trkpt lat="43.96117" lon="6.47025">
        <ele>897.247565</ele>
        <time>2021-09-18T13:00:51.000Z</time>
      </trkpt>
      <trkpt lat="43.96108" lon="6.47058">
        <ele>898.124405</ele>
        <time>2021-09-18T13:00:59.000Z</time>
      </trkpt>
      <trkpt lat="43.96097" lon="6.47097">
        <ele>899.173821</ele>
        <time>2021-09-18T13:01:09.000Z</time>
      </trkpt>
      <trkpt lat="43.96091" lon="6.47119">
        <ele>899.780076</ele>
        <time>2021-09-18T13:01:15.000Z</time>
      </trkpt>
      <trkpt lat="43.96081" lon="6.47147">
        <ele>900.727378</ele>
        <time>2021-09-18T13:01:23.000Z</time>
      </trkpt>
      <trkpt lat="43.96073" lon="6.47171">
        <ele>901.538925</ele>
        <time>2021-09-18T13:01:30.000Z</time>
      </trkpt>
      <trkpt lat="43.96066" lon="6.47204">
        <ele>902.599979</ele>
        <time>2021-09-18T13:01:38.000Z</time>
      </trkpt>
      <trkpt lat="43.96061" lon="6.4723">
        <ele>903.438647</ele>
        <time>2021-09-18T13:01:45.000Z</time>
      </trkpt>
      <trkpt lat="43.96057" lon="6.4726">
        <ele>904.401287</ele>
        <time>2021-09-18T13:01:53.000Z</time>
      </trkpt>
      <trkpt lat="43.96056" lon="6.47288">
        <ele>905.269935</ele>
        <time>2021-09-18T13:02:00.000Z</time>
      </trkpt>
      <trkpt lat="43.96054" lon="6.47325">
        <ele>906.396517</ele>
        <time>2021-09-18T13:02:09.000Z</time>
      </trkpt>
      <trkpt lat="43.96051" lon="6.47357">
        <ele>907.391067</ele>
        <time>2021-09-18T13:02:17.000Z</time>
      </trkpt>
      <trkpt lat="43.96049" lon="6.47389">
        <ele>908.557557</ele>
        <time>2021-09-18T13:02:25.000Z</time>
      </trkpt>
      <trkpt lat="43.96048" lon="6.47412">
        <ele>909.38641</ele>
        <time>2021-09-18T13:02:31.000Z</time>
      </trkpt>
      <trkpt lat="43.96048" lon="6.47446">
        <ele>910.608681</ele>
        <time>2021-09-18T13:02:40.000Z</time>
      </trkpt>
      <trkpt lat="43.96048" lon="6.47474">
        <ele>911.617597</ele>
        <time>2021-09-18T13:02:48.000Z</time>
      </trkpt>
      <trkpt lat="43.96051" lon="6.47506">
        <ele>912.791326</ele>
        <time>2021-09-18T13:02:57.000Z</time>
      </trkpt>
      <trkpt lat="43.96056" lon="6.47546">
        <ele>914.262101</ele>
        <time>2021-09-18T13:03:08.000Z</time>
      </trkpt>
      <trkpt lat="43.96063" lon="6.47585">
        <ele>915.720585</ele>
        <time>2021-09-18T13:03:19.000Z</time>
      </trkpt>
      <trkpt lat="43.96068" lon="6.47617">
        <ele>916.935032</ele>
        <time>2021-09-18T13:03:28.000Z</time>
      </trkpt>
      <trkpt lat="43.96071" lon="6.47649">
        <ele>918.279801</ele>
        <time>2021-09-18T13:03:37.000Z</time>
      </trkpt>
      <trkpt lat="43.96073" lon="6.47681">
        <ele>919.607542</ele>
        <time>2021-09-18T13:03:46.000Z</time>
      </trkpt>
      <trkpt lat="43.96074" lon="6.47717">
        <ele>921.085179</ele>
        <time>2021-09-18T13:03:56.000Z</time>
      </trkpt>
      <trkpt lat="43.96072" lon="6.47753">
        <ele>922.57677</ele>
        <time>2021-09-18T13:04:06.000Z</time>
      </trkpt>
      <trkpt lat="43.9607" lon="6.47782">
        <ele>923.804931</ele>
        <time>2021-09-18T13:04:14.000Z</time>
      </trkpt>
      <trkpt lat="43.96066" lon="6.47812">
        <ele>925.0595</ele>
        <time>2021-09-18T13:04:23.000Z</time>
      </trkpt>
      <trkpt lat="43.96062" lon="6.47839">
        <ele>926.1914</ele>
        <time>2021-09-18T13:04:31.000Z</time>
      </trkpt>
      <trkpt lat="43.96057" lon="6.47872">
        <ele>927.612927</ele>
        <time>2021-09-18T13:04:41.000Z</time>
      </trkpt>
      <trkpt lat="43.96051" lon="6.47906">
        <ele>929.103338</ele>
        <time>2021-09-18T13:04:51.000Z</time>
      </trkpt>
      <trkpt lat="43.96045" lon="6.47942">
        <ele>930.744239</ele>
        <time>2021-09-18T13:05:02.000Z</time>
      </trkpt>
      <trkpt lat="43.9604" lon="6.47972">
        <ele>932.077277</ele>
        <time>2021-09-18T13:05:11.000Z</time>
      </trkpt>
      <trkpt lat="43.96035" lon="6.48006">
        <ele>933.555007</ele>
        <time>2021-09-18T13:05:21.000Z</time>
      </trkpt>
      <trkpt lat="43.96029" lon="6.48042">
        <ele>935.191682</ele>
        <time>2021-09-18T13:05:32.000Z</time>
      </trkpt>
      <trkpt lat="43.96025" lon="6.48069">
        <ele>936.369992</ele>
        <time>2021-09-18T13:05:40.000Z</time>
      </trkpt>
      <trkpt lat="43.96021" lon="6.48092">
        <ele>937.385132</ele>
        <time>2021-09-18T13:05:47.000Z</time>
      </trkpt>
      <trkpt lat="43.96018" lon="6.48111">
        <ele>938.202696</ele>
        <time>2021-09-18T13:05:53.000Z</time>
      </trkpt>
      <trkpt lat="43.96012" lon="6.48143">
        <ele>939.483963</ele>
        <time>2021-09-18T13:06:02.000Z</time>
      </trkpt>
      <trkpt lat="43.96008" lon="6.48172">
        <ele>940.617873</ele>
        <time>2021-09-18T13:06:10.000Z</time>
      </trkpt>
      <trkpt lat="43.96003" lon="6.48199">
        <ele>941.730264</ele>
        <time>2021-09-18T13:06:18.000Z</time>
      </trkpt>
      <trkpt lat="43.95999" lon="6.48225">
        <ele>942.762638</ele>
        <time>2021-09-18T13:06:25.000Z</time>
      </trkpt>
      <trkpt lat="43.95994" lon="6.48258">
        <ele>944.09719</ele>
        <time>2021-09-18T13:06:34.000Z</time>
      </trkpt>
      <trkpt lat="43.95987" lon="6.48298">
        <ele>945.703556</ele>
        <time>2021-09-18T13:06:45.000Z</time>
      </trkpt>
      <trkpt lat="43.95982" lon="6.48331">
        <ele>947.038112</ele>
        <time>2021-09-18T13:06:54.000Z</time>
      </trkpt>
      <trkpt lat="43.95974" lon="6.48377">
        <ele>948.536067</ele>
        <time>2021-09-18T13:07:05.000Z</time>
      </trkpt>
      <trkpt lat="43.95969" lon="6.48418">
        <ele>949.81257</ele>
        <time>2021-09-18T13:07:15.000Z</time>
      </trkpt>
      <trkpt lat="43.95966" lon="6.48456">
        <ele>950.956615</ele>
        <time>2021-09-18T13:07:24.000Z</time>
      </trkpt>
      <trkpt lat="43.95965" lon="6.48495">
        <ele>952.121069</ele>
        <time>2021-09-18T13:07:33.000Z</time>
      </trkpt>
      <trkpt lat="43.95966" lon="6.48534">
        <ele>953.300601</ele>
        <time>2021-09-18T13:07:42.000Z</time>
      </trkpt>
      <trkpt lat="43.95969" lon="6.48581">
        <ele>954.73523</ele>
        <time>2021-09-18T13:07:53.000Z</time>
      </trkpt>
      <trkpt lat="43.95973" lon="6.48616">
        <ele>955.751212</ele>
        <time>2021-09-18T13:08:01.000Z</time>
      </trkpt>
      <trkpt lat="43.95983" lon="6.48663">
        <ele>957.137955</ele>
        <time>2021-09-18T13:08:12.000Z</time>
      </trkpt>
      <trkpt lat="43.95991" lon="6.48702">
        <ele>958.291666</ele>
        <time>2021-09-18T13:08:21.000Z</time>
      </trkpt>
      <trkpt lat="43.96001" lon="6.48745">
        <ele>959.559826</ele>
        <time>2021-09-18T13:08:31.000Z</time>
      </trkpt>
      <trkpt lat="43.96012" lon="6.4879">
        <ele>960.896119</ele>
        <time>2021-09-18T13:08:42.000Z</time>
      </trkpt>
      <trkpt lat="43.96022" lon="6.4883">
        <ele>962.119856</ele>
        <time>2021-09-18T13:08:52.000Z</time>
      </trkpt>
      <trkpt lat="43.96034" lon="6.48876">
        <ele>963.642179</ele>
        <time>2021-09-18T13:09:03.000Z</time>
      </trkpt>
      <trkpt lat="43.96044" lon="6.48918">
        <ele>965.010185</ele>
        <time>2021-09-18T13:09:13.000Z</time>
      </trkpt>
      <trkpt lat="43.96052" lon="6.48947">
        <ele>965.971162</ele>
        <time>2021-09-18T13:09:20.000Z</time>
      </trkpt>
      <trkpt lat="43.96058" lon="6.48986">
        <ele>967.218419</ele>
        <time>2021-09-18T13:09:29.000Z</time>
      </trkpt>
      <trkpt lat="43.96064" lon="6.49032">
        <ele>968.700883</ele>
        <time>2021-09-18T13:09:40.000Z</time>
      </trkpt>
      <trkpt lat="43.96069" lon="6.49079">
        <ele>970.413432</ele>
        <time>2021-09-18T13:09:51.000Z</time>
      </trkpt>
      <trkpt lat="43.96074" lon="6.49116">
        <ele>972.512642</ele>
        <time>2021-09-18T13:10:00.000Z</time>
      </trkpt>
      <trkpt lat="43.96079" lon="6.49142">
        <ele>974.014689</ele>
        <time>2021-09-18T13:10:07.000Z</time>
      </trkpt>
      <trkpt lat="43.96088" lon="6.49175">
        <ele>975.924753</ele>
        <time>2021-09-18T13:10:16.000Z</time>
      </trkpt>
      <trkpt lat="43.961" lon="6.492">
        <ele>977.618957</ele>
        <time>2021-09-18T13:10:24.000Z</time>
      </trkpt>
      <trkpt lat="43.96105" lon="6.49208">
        <ele>978.2076</ele>
        <time>2021-09-18T13:10:27.000Z</time>
      </trkpt>
      <trkpt lat="43.96108" lon="6.49213">
        <ele>978.55366</ele>
        <time>2021-09-18T13:10:29.000Z</time>
      </trkpt>
      <trkpt lat="43.96117" lon="6.4923">
        <ele>979.731026</ele>
        <time>2021-09-18T13:10:35.000Z</time>
      </trkpt>
      <trkpt lat="43.96128" lon="6.49251">
        <ele>981.169013</ele>
        <time>2021-09-18T13:10:42.000Z</time>
      </trkpt>
      <trkpt lat="43.96136" lon="6.49277">
        <ele>982.71022</ele>
        <time>2021-09-18T13:10:49.000Z</time>
      </trkpt>
      <trkpt lat="43.96141" lon="6.49305">
        <ele>983.822793</ele>
        <time>2021-09-18T13:10:55.000Z</time>
      </trkpt>
      <trkpt lat="43.96146" lon="6.49344">
        <ele>984.273544</ele>
        <time>2021-09-18T13:11:00.000Z</time>
      </trkpt>
      <trkpt lat="43.96148" lon="6.49352">
        <ele>984.377932</ele>
        <time>2021-09-18T13:11:01.000Z</time>
      </trkpt>
      <trkpt lat="43.96158" lon="6.49379">
        <ele>984.728273</ele>
        <time>2021-09-18T13:11:04.000Z</time>
      </trkpt>
      <trkpt lat="43.96168" lon="6.4941">
        <ele>985.119798</ele>
        <time>2021-09-18T13:11:07.000Z</time>
      </trkpt>
      <trkpt lat="43.96169" lon="6.49423">
        <ele>985.272036</ele>
        <time>2021-09-18T13:11:08.000Z</time>
      </trkpt>
      <trkpt lat="43.96169" lon="6.49437">
        <ele>985.427025</ele>
        <time>2021-09-18T13:11:09.000Z</time>
      </trkpt>
      <trkpt lat="43.96163" lon="6.49462">
        <ele>985.733094</ele>
        <time>2021-09-18T13:11:11.000Z</time>
      </trkpt>
      <trkpt lat="43.96155" lon="6.49512">
        <ele>986.325692</ele>
        <time>2021-09-18T13:11:15.000Z</time>
      </trkpt>
      <trkpt lat="43.96155" lon="6.49524">
        <ele>986.471312</ele>
        <time>2021-09-18T13:11:16.000Z</time>
      </trkpt>
      <trkpt lat="43.96158" lon="6.49578">
        <ele>985.935466</ele>
        <time>2021-09-18T13:11:20.000Z</time>
      </trkpt>
      <trkpt lat="43.96157" lon="6.49606">
        <ele>985.535391</ele>
        <time>2021-09-18T13:11:22.000Z</time>
      </trkpt>
      <trkpt lat="43.96155" lon="6.49634">
        <ele>985.149682</ele>
        <time>2021-09-18T13:11:24.000Z</time>
      </trkpt>
      <trkpt lat="43.96158" lon="6.49688">
        <ele>984.381818</ele>
        <time>2021-09-18T13:11:28.000Z</time>
      </trkpt>
      <trkpt lat="43.96171" lon="6.49772">
        <ele>983.171445</ele>
        <time>2021-09-18T13:11:34.000Z</time>
      </trkpt>
      <trkpt lat="43.96175" lon="6.49785">
        <ele>982.923571</ele>
        <time>2021-09-18T13:11:35.000Z</time>
      </trkpt>
      <trkpt lat="43.96186" lon="6.4981">
        <ele>982.287905</ele>
        <time>2021-09-18T13:11:37.000Z</time>
      </trkpt>
      <trkpt lat="43.96199" lon="6.49834">
        <ele>981.636416</ele>
        <time>2021-09-18T13:11:39.000Z</time>
      </trkpt>
      <trkpt lat="43.96213" lon="6.49856">
        <ele>980.978729</ele>
        <time>2021-09-18T13:11:41.000Z</time>
      </trkpt>
      <trkpt lat="43.96223" lon="6.49863">
        <ele>980.657509</ele>
        <time>2021-09-18T13:11:42.000Z</time>
      </trkpt>
      <trkpt lat="43.96233" lon="6.49868">
        <ele>980.336571</ele>
        <time>2021-09-18T13:11:43.000Z</time>
      </trkpt>
      <trkpt lat="43.96255" lon="6.49874">
        <ele>979.641904</ele>
        <time>2021-09-18T13:11:45.000Z</time>
      </trkpt>
      <trkpt lat="43.96276" lon="6.49888">
        <ele>978.934126</ele>
        <time>2021-09-18T13:11:47.000Z</time>
      </trkpt>
      <trkpt lat="43.96291" lon="6.49914">
        <ele>978.209227</ele>
        <time>2021-09-18T13:11:49.000Z</time>
      </trkpt>
      <trkpt lat="43.96297" lon="6.49927">
        <ele>977.867365</ele>
        <time>2021-09-18T13:11:50.000Z</time>
      </trkpt>
      <trkpt lat="43.96314" lon="6.49945">
        <ele>977.110225</ele>
        <time>2021-09-18T13:11:52.000Z</time>
      </trkpt>
      <trkpt lat="43.96345" lon="6.49964">
        <ele>975.742974</ele>
        <time>2021-09-18T13:11:55.000Z</time>
      </trkpt>
      <trkpt lat="43.96383" lon="6.49996">
        <ele>973.922111</ele>
        <time>2021-09-18T13:11:59.000Z</time>
      </trkpt>
      <trkpt lat="43.96434" lon="6.50034">
        <ele>971.5906</ele>
        <time>2021-09-18T13:12:04.000Z</time>
      </trkpt>
      <trkpt lat="43.96483" lon="6.50074">
        <ele>969.042216</ele>
        <time>2021-09-18T13:12:09.000Z</time>
      </trkpt>
      <trkpt lat="43.96502" lon="6.50092">
        <ele>967.932614</ele>
        <time>2021-09-18T13:12:11.000Z</time>
      </trkpt>
      <trkpt lat="43.96516" lon="6.50117">
        <ele>966.812725</ele>
        <time>2021-09-18T13:12:13.000Z</time>
      </trkpt>
      <trkpt lat="43.96531" lon="6.5016">
        <ele>965.137726</ele>
        <time>2021-09-18T13:12:16.000Z</time>
      </trkpt>
      <trkpt lat="43.96551" lon="6.50232">
        <ele>962.404251</ele>
        <time>2021-09-18T13:12:21.000Z</time>
      </trkpt>
      <trkpt lat="43.96556" lon="6.50245">
        <ele>961.857991</ele>
        <time>2021-09-18T13:12:22.000Z</time>
      </trkpt>
      <trkpt lat="43.96562" lon="6.50258">
        <ele>961.322916</ele>
        <time>2021-09-18T13:12:23.000Z</time>
      </trkpt>
      <trkpt lat="43.96574" lon="6.50284">
        <ele>960.219663</ele>
        <time>2021-09-18T13:12:25.000Z</time>
      </trkpt>
      <trkpt lat="43.96616" lon="6.50337">
        <ele>957.424185</ele>
        <time>2021-09-18T13:12:30.000Z</time>
      </trkpt>
      <trkpt lat="43.96666" lon="6.50376">
        <ele>954.591496</ele>
        <time>2021-09-18T13:12:35.000Z</time>
      </trkpt>
      <trkpt lat="43.96716" lon="6.50411">
        <ele>951.74659</ele>
        <time>2021-09-18T13:12:40.000Z</time>
      </trkpt>
      <trkpt lat="43.96746" lon="6.50432">
        <ele>949.940021</ele>
        <time>2021-09-18T13:12:43.000Z</time>
      </trkpt>
      <trkpt lat="43.96796" lon="6.50467">
        <ele>946.922118</ele>
        <time>2021-09-18T13:12:48.000Z</time>
      </trkpt>
      <trkpt lat="43.96806" lon="6.50475">
        <ele>946.316809</ele>
        <time>2021-09-18T13:12:49.000Z</time>
      </trkpt>
      <trkpt lat="43.96855" lon="6.5051">
        <ele>943.365128</ele>
        <time>2021-09-18T13:12:54.000Z</time>
      </trkpt>
      <trkpt lat="43.96863" lon="6.50518">
        <ele>942.788204</ele>
        <time>2021-09-18T13:12:55.000Z</time>
      </trkpt>
      <trkpt lat="43.96876" lon="6.50536">
        <ele>941.355501</ele>
        <time>2021-09-18T13:12:57.000Z</time>
      </trkpt>
      <trkpt lat="43.96881" lon="6.50546">
        <ele>940.687093</ele>
        <time>2021-09-18T13:12:58.000Z</time>
      </trkpt>
      <trkpt lat="43.96888" lon="6.50567">
        <ele>939.353114</ele>
        <time>2021-09-18T13:13:00.000Z</time>
      </trkpt>
      <trkpt lat="43.96889" lon="6.50578">
        <ele>938.700199</ele>
        <time>2021-09-18T13:13:01.000Z</time>
      </trkpt>
      <trkpt lat="43.96889" lon="6.5059">
        <ele>938.059206</ele>
        <time>2021-09-18T13:13:02.000Z</time>
      </trkpt>
      <trkpt lat="43.96886" lon="6.50612">
        <ele>936.732205</ele>
        <time>2021-09-18T13:13:04.000Z</time>
      </trkpt>
      <trkpt lat="43.96867" lon="6.50678">
        <ele>932.697801</ele>
        <time>2021-09-18T13:13:10.000Z</time>
      </trkpt>
      <trkpt lat="43.96854" lon="6.50712">
        <ele>930.463867</ele>
        <time>2021-09-18T13:13:14.000Z</time>
      </trkpt>
      <trkpt lat="43.96846" lon="6.50724">
        <ele>929.556433</ele>
        <time>2021-09-18T13:13:16.000Z</time>
      </trkpt>
      <trkpt lat="43.96842" lon="6.50729">
        <ele>929.101345</ele>
        <time>2021-09-18T13:13:18.000Z</time>
      </trkpt>
      <trkpt lat="43.96826" lon="6.50736">
        <ele>926.986162</ele>
        <time>2021-09-18T13:13:20.000Z</time>
      </trkpt>
      <trkpt lat="43.96823" lon="6.50735">
        <ele>926.382538</ele>
        <time>2021-09-18T13:13:21.000Z</time>
      </trkpt>
      <trkpt lat="43.96802" lon="6.50728">
        <ele>922.858641</ele>
        <time>2021-09-18T13:13:28.000Z</time>
      </trkpt>
      <trkpt lat="43.96775" lon="6.50719">
        <ele>918.34218</ele>
        <time>2021-09-18T13:13:35.000Z</time>
      </trkpt>
      <trkpt lat="43.96746" lon="6.50706">
        <ele>913.482306</ele>
        <time>2021-09-18T13:13:43.000Z</time>
      </trkpt>
      <trkpt lat="43.96727" lon="6.50701">
        <ele>910.281266</ele>
        <time>2021-09-18T13:13:49.000Z</time>
      </trkpt>
      <trkpt lat="43.96716" lon="6.50695">
        <ele>908.391029</ele>
        <time>2021-09-18T13:13:54.000Z</time>
      </trkpt>
      <trkpt lat="43.96716" lon="6.50695">
        <ele>908.391029</ele>
        <time>2021-09-18T13:13:56.000Z</time>
      </trkpt>
      <trkpt lat="43.96718" lon="6.50695">
        <ele>908.095441</ele>
        <time>2021-09-18T13:19:03.000Z</time>
      </trkpt>
      <trkpt lat="43.9672" lon="6.50693">
        <ele>907.659155</ele>
        <time>2021-09-18T13:19:04.000Z</time>
      </trkpt>
      <trkpt lat="43.96721" lon="6.50697">
        <ele>907.173311</ele>
        <time>2021-09-18T13:19:07.000Z</time>
      </trkpt>
      <trkpt lat="43.96722" lon="6.507">
        <ele>906.847551</ele>
        <time>2021-09-18T13:19:10.000Z</time>
      </trkpt>
      <trkpt lat="43.96721" lon="6.507">
        <ele>906.618984</ele>
        <time>2021-09-18T13:19:11.000Z</time>
      </trkpt>
      <trkpt lat="43.96715" lon="6.50699">
        <ele>905.73572</ele>
        <time>2021-09-18T13:19:14.000Z</time>
      </trkpt>
      <trkpt lat="43.96713" lon="6.50699">
        <ele>905.425709</ele>
        <time>2021-09-18T13:19:15.000Z</time>
      </trkpt>
      <trkpt lat="43.96697" lon="6.50695">
        <ele>902.752607</ele>
        <time>2021-09-18T13:19:23.000Z</time>
      </trkpt>
      <trkpt lat="43.96682" lon="6.50692">
        <ele>900.194079</ele>
        <time>2021-09-18T13:19:31.000Z</time>
      </trkpt>
      <trkpt lat="43.96666" lon="6.50688">
        <ele>899.086462</ele>
        <time>2021-09-18T13:19:38.000Z</time>
      </trkpt>
      <trkpt lat="43.96639" lon="6.50682">
        <ele>898.553271</ele>
        <time>2021-09-18T13:19:46.000Z</time>
      </trkpt>
      <trkpt lat="43.96617" lon="6.50676">
        <ele>898.104658</ele>
        <time>2021-09-18T13:19:53.000Z</time>
      </trkpt>
      <trkpt lat="43.96595" lon="6.50671">
        <ele>897.673531</ele>
        <time>2021-09-18T13:20:00.000Z</time>
      </trkpt>
      <trkpt lat="43.96553" lon="6.50661">
        <ele>896.823426</ele>
        <time>2021-09-18T13:20:09.000Z</time>
      </trkpt>
      <trkpt lat="43.9652" lon="6.50653">
        <ele>896.17213</ele>
        <time>2021-09-18T13:20:16.000Z</time>
      </trkpt>
      <trkpt lat="43.965" lon="6.50648">
        <ele>895.776965</ele>
        <time>2021-09-18T13:20:20.000Z</time>
      </trkpt>
      <trkpt lat="43.9649" lon="6.50652">
        <ele>895.642304</ele>
        <time>2021-09-18T13:20:22.000Z</time>
      </trkpt>
      <trkpt lat="43.96461" lon="6.50658">
        <ele>895.311461</ele>
        <time>2021-09-18T13:20:27.000Z</time>
      </trkpt>
      <trkpt lat="43.96455" lon="6.50659">
        <ele>895.24794</ele>
        <time>2021-09-18T13:20:28.000Z</time>
      </trkpt>
      <trkpt lat="43.96425" lon="6.50667">
        <ele>894.894381</ele>
        <time>2021-09-18T13:20:34.000Z</time>
      </trkpt>
      <trkpt lat="43.96394" lon="6.50672">
        <ele>894.543183</ele>
        <time>2021-09-18T13:20:40.000Z</time>
      </trkpt>
      <trkpt lat="43.96389" lon="6.50673">
        <ele>894.486349</ele>
        <time>2021-09-18T13:20:41.000Z</time>
      </trkpt>
      <trkpt lat="43.96351" lon="6.5067">
        <ele>894.062361</ele>
        <time>2021-09-18T13:20:48.000Z</time>
      </trkpt>
      <trkpt lat="43.96308" lon="6.50664">
        <ele>893.512261</ele>
        <time>2021-09-18T13:20:56.000Z</time>
      </trkpt>
      <trkpt lat="43.96281" lon="6.5066">
        <ele>893.092738</ele>
        <time>2021-09-18T13:21:01.000Z</time>
      </trkpt>
      <trkpt lat="43.9623" lon="6.50653">
        <ele>892.306474</ele>
        <time>2021-09-18T13:21:10.000Z</time>
      </trkpt>
      <trkpt lat="43.9619" lon="6.50647">
        <ele>891.691803</ele>
        <time>2021-09-18T13:21:17.000Z</time>
      </trkpt>
      <trkpt lat="43.96147" lon="6.5064">
        <ele>891.0329</ele>
        <time>2021-09-18T13:21:25.000Z</time>
      </trkpt>
      <trkpt lat="43.96117" lon="6.50632">
        <ele>890.697519</ele>
        <time>2021-09-18T13:21:31.000Z</time>
      </trkpt>
      <trkpt lat="43.96113" lon="6.50632">
        <ele>890.654029</ele>
        <time>2021-09-18T13:21:32.000Z</time>
      </trkpt>
      <trkpt lat="43.96105" lon="6.50631">
        <ele>890.568042</ele>
        <time>2021-09-18T13:21:34.000Z</time>
      </trkpt>
      <trkpt lat="43.96089" lon="6.5063">
        <ele>890.398215</ele>
        <time>2021-09-18T13:21:38.000Z</time>
      </trkpt>
      <trkpt lat="43.96068" lon="6.50629">
        <ele>890.182834</ele>
        <time>2021-09-18T13:21:44.000Z</time>
      </trkpt>
      <trkpt lat="43.96043" lon="6.50626">
        <ele>889.924379</ele>
        <time>2021-09-18T13:21:51.000Z</time>
      </trkpt>
      <trkpt lat="43.96016" lon="6.50625">
        <ele>889.650308</ele>
        <time>2021-09-18T13:21:59.000Z</time>
      </trkpt>
      <trkpt lat="43.95989" lon="6.50625">
        <ele>889.362826</ele>
        <time>2021-09-18T13:22:06.000Z</time>
      </trkpt>
      <trkpt lat="43.95962" lon="6.50622">
        <ele>889.095506</ele>
        <time>2021-09-18T13:22:12.000Z</time>
      </trkpt>
      <trkpt lat="43.95925" lon="6.5062">
        <ele>889.009989</ele>
        <time>2021-09-18T13:22:20.000Z</time>
      </trkpt>
      <trkpt lat="43.95905" lon="6.5062">
        <ele>888.961545</ele>
        <time>2021-09-18T13:22:25.000Z</time>
      </trkpt>
      <trkpt lat="43.95879" lon="6.50624">
        <ele>888.902362</ele>
        <time>2021-09-18T13:22:32.000Z</time>
      </trkpt>
      <trkpt lat="43.95857" lon="6.50631">
        <ele>888.848889</ele>
        <time>2021-09-18T13:22:38.000Z</time>
      </trkpt>
      <trkpt lat="43.95838" lon="6.5064">
        <ele>888.801971</ele>
        <time>2021-09-18T13:22:44.000Z</time>
      </trkpt>
      <trkpt lat="43.95815" lon="6.50654">
        <ele>888.743777</ele>
        <time>2021-09-18T13:22:51.000Z</time>
      </trkpt>
      <trkpt lat="43.95804" lon="6.50661">
        <ele>888.715455</ele>
        <time>2021-09-18T13:22:54.000Z</time>
      </trkpt>
      <trkpt lat="43.95787" lon="6.50671">
        <ele>888.671871</ele>
        <time>2021-09-18T13:22:58.000Z</time>
      </trkpt>
      <trkpt lat="43.95765" lon="6.50685">
        <ele>888.612025</ele>
        <time>2021-09-18T13:23:04.000Z</time>
      </trkpt>
      <trkpt lat="43.95745" lon="6.50697">
        <ele>888.560973</ele>
        <time>2021-09-18T13:23:10.000Z</time>
      </trkpt>
      <trkpt lat="43.9572" lon="6.50712">
        <ele>888.493736</ele>
        <time>2021-09-18T13:23:17.000Z</time>
      </trkpt>
      <trkpt lat="43.95697" lon="6.50727">
        <ele>888.432347</ele>
        <time>2021-09-18T13:23:24.000Z</time>
      </trkpt>
      <trkpt lat="43.95675" lon="6.50743">
        <ele>888.369978</ele>
        <time>2021-09-18T13:23:31.000Z</time>
      </trkpt>
      <trkpt lat="43.95644" lon="6.50764">
        <ele>888.285732</ele>
        <time>2021-09-18T13:23:39.000Z</time>
      </trkpt>
      <trkpt lat="43.95613" lon="6.50791">
        <ele>888.178033</ele>
        <time>2021-09-18T13:23:47.000Z</time>
      </trkpt>
      <trkpt lat="43.95583" lon="6.50824">
        <ele>888.046988</ele>
        <time>2021-09-18T13:23:55.000Z</time>
      </trkpt>
      <trkpt lat="43.95559" lon="6.50849">
        <ele>887.943632</ele>
        <time>2021-09-18T13:24:01.000Z</time>
      </trkpt>
      <trkpt lat="43.95548" lon="6.50862">
        <ele>887.893443</ele>
        <time>2021-09-18T13:24:04.000Z</time>
      </trkpt>
      <trkpt lat="43.95535" lon="6.50872">
        <ele>887.844067</ele>
        <time>2021-09-18T13:24:07.000Z</time>
      </trkpt>
      <trkpt lat="43.95531" lon="6.50874">
        <ele>887.828231</ele>
        <time>2021-09-18T13:24:08.000Z</time>
      </trkpt>
      <trkpt lat="43.95514" lon="6.5088">
        <ele>887.767698</ele>
        <time>2021-09-18T13:24:12.000Z</time>
      </trkpt>
      <trkpt lat="43.9549" lon="6.5089">
        <ele>887.679391</ele>
        <time>2021-09-18T13:24:19.000Z</time>
      </trkpt>
      <trkpt lat="43.95471" lon="6.50897">
        <ele>887.678983</ele>
        <time>2021-09-18T13:24:26.000Z</time>
      </trkpt>
      <trkpt lat="43.9545" lon="6.50908">
        <ele>888.451455</ele>
        <time>2021-09-18T13:24:35.000Z</time>
      </trkpt>
      <trkpt lat="43.95436" lon="6.50917">
        <ele>888.990557</ele>
        <time>2021-09-18T13:24:41.000Z</time>
      </trkpt>
      <trkpt lat="43.95425" lon="6.50927">
        <ele>889.439685</ele>
        <time>2021-09-18T13:24:47.000Z</time>
      </trkpt>
      <trkpt lat="43.95414" lon="6.50936">
        <ele>889.878948</ele>
        <time>2021-09-18T13:24:53.000Z</time>
      </trkpt>
      <trkpt lat="43.95397" lon="6.5095">
        <ele>890.566529</ele>
        <time>2021-09-18T13:25:01.000Z</time>
      </trkpt>
      <trkpt lat="43.95377" lon="6.50966">
        <ele>891.384694</ele>
        <time>2021-09-18T13:25:10.000Z</time>
      </trkpt>
      <trkpt lat="43.95358" lon="6.50979">
        <ele>892.132696</ele>
        <time>2021-09-18T13:25:19.000Z</time>
      </trkpt>
      <trkpt lat="43.95335" lon="6.50987">
        <ele>892.960662</ele>
        <time>2021-09-18T13:25:29.000Z</time>
      </trkpt>
      <trkpt lat="43.95319" lon="6.5099">
        <ele>893.506841</ele>
        <time>2021-09-18T13:25:36.000Z</time>
      </trkpt>
      <trkpt lat="43.953" lon="6.50994">
        <ele>894.518712</ele>
        <time>2021-09-18T13:25:44.000Z</time>
      </trkpt>
      <trkpt lat="43.95278" lon="6.51003">
        <ele>896.146675</ele>
        <time>2021-09-18T13:25:54.000Z</time>
      </trkpt>
      <trkpt lat="43.95262" lon="6.51013">
        <ele>897.379605</ele>
        <time>2021-09-18T13:26:02.000Z</time>
      </trkpt>
      <trkpt lat="43.95245" lon="6.51029">
        <ele>898.782818</ele>
        <time>2021-09-18T13:26:11.000Z</time>
      </trkpt>
      <trkpt lat="43.95232" lon="6.51046">
        <ele>900.064383</ele>
        <time>2021-09-18T13:26:19.000Z</time>
      </trkpt>
      <trkpt lat="43.95216" lon="6.51065">
        <ele>901.526513</ele>
        <time>2021-09-18T13:26:28.000Z</time>
      </trkpt>
      <trkpt lat="43.95199" lon="6.51078">
        <ele>902.929867</ele>
        <time>2021-09-18T13:26:37.000Z</time>
      </trkpt>
      <trkpt lat="43.95184" lon="6.51086">
        <ele>904.08221</ele>
        <time>2021-09-18T13:26:43.000Z</time>
      </trkpt>
      <trkpt lat="43.95168" lon="6.51093">
        <ele>905.223782</ele>
        <time>2021-09-18T13:26:50.000Z</time>
      </trkpt>
      <trkpt lat="43.95157" lon="6.51097">
        <ele>906.028019</ele>
        <time>2021-09-18T13:26:55.000Z</time>
      </trkpt>
      <trkpt lat="43.95139" lon="6.51105">
        <ele>906.801846</ele>
        <time>2021-09-18T13:27:03.000Z</time>
      </trkpt>
      <trkpt lat="43.95122" lon="6.5111">
        <ele>907.10866</ele>
        <time>2021-09-18T13:27:10.000Z</time>
      </trkpt>
      <trkpt lat="43.95102" lon="6.51117">
        <ele>907.47671</ele>
        <time>2021-09-18T13:27:16.000Z</time>
      </trkpt>
      <trkpt lat="43.95076" lon="6.51125">
        <ele>907.963146</ele>
        <time>2021-09-18T13:27:22.000Z</time>
      </trkpt>
      <trkpt lat="43.95062" lon="6.51129">
        <ele>908.215149</ele>
        <time>2021-09-18T13:27:25.000Z</time>
      </trkpt>
      <trkpt lat="43.95052" lon="6.51132">
        <ele>908.39507</ele>
        <time>2021-09-18T13:27:27.000Z</time>
      </trkpt>
      <trkpt lat="43.95012" lon="6.51147">
        <ele>909.15116</ele>
        <time>2021-09-18T13:27:35.000Z</time>
      </trkpt>
      <trkpt lat="43.94997" lon="6.51158">
        <ele>909.461909</ele>
        <time>2021-09-18T13:27:38.000Z</time>
      </trkpt>
      <trkpt lat="43.94982" lon="6.51174">
        <ele>909.795122</ele>
        <time>2021-09-18T13:27:41.000Z</time>
      </trkpt>
      <trkpt lat="43.94978" lon="6.51181">
        <ele>909.792889</ele>
        <time>2021-09-18T13:27:42.000Z</time>
      </trkpt>
      <trkpt lat="43.9497" lon="6.51197">
        <ele>909.654254</ele>
        <time>2021-09-18T13:27:44.000Z</time>
      </trkpt>
      <trkpt lat="43.94967" lon="6.51206">
        <ele>909.578627</ele>
        <time>2021-09-18T13:27:45.000Z</time>
      </trkpt>
      <trkpt lat="43.94957" lon="6.51234">
        <ele>909.358856</ele>
        <time>2021-09-18T13:27:48.000Z</time>
      </trkpt>
      <trkpt lat="43.94949" lon="6.5125">
        <ele>909.212798</ele>
        <time>2021-09-18T13:27:50.000Z</time>
      </trkpt>
      <trkpt lat="43.94937" lon="6.51263">
        <ele>909.061762</ele>
        <time>2021-09-18T13:27:52.000Z</time>
      </trkpt>
      <trkpt lat="43.94929" lon="6.51266">
        <ele>908.985528</ele>
        <time>2021-09-18T13:27:53.000Z</time>
      </trkpt>
      <trkpt lat="43.94922" lon="6.51267">
        <ele>908.911333</ele>
        <time>2021-09-18T13:27:54.000Z</time>
      </trkpt>
      <trkpt lat="43.94908" lon="6.51266">
        <ele>908.770731</ele>
        <time>2021-09-18T13:27:56.000Z</time>
      </trkpt>
      <trkpt lat="43.94876" lon="6.51259">
        <ele>908.446913</ele>
        <time>2021-09-18T13:28:01.000Z</time>
      </trkpt>
      <trkpt lat="43.9487" lon="6.51258">
        <ele>908.385341</ele>
        <time>2021-09-18T13:28:02.000Z</time>
      </trkpt>
      <trkpt lat="43.94851" lon="6.51254">
        <ele>908.200852</ele>
        <time>2021-09-18T13:28:05.000Z</time>
      </trkpt>
      <trkpt lat="43.94839" lon="6.51251">
        <ele>908.080772</ele>
        <time>2021-09-18T13:28:07.000Z</time>
      </trkpt>
      <trkpt lat="43.94802" lon="6.51244">
        <ele>907.383644</ele>
        <time>2021-09-18T13:28:13.000Z</time>
      </trkpt>
      <trkpt lat="43.94795" lon="6.51244">
        <ele>907.255415</ele>
        <time>2021-09-18T13:28:14.000Z</time>
      </trkpt>
      <trkpt lat="43.94783" lon="6.51248">
        <ele>907.005623</ele>
        <time>2021-09-18T13:28:16.000Z</time>
      </trkpt>
      <trkpt lat="43.94777" lon="6.51251">
        <ele>906.881314</ele>
        <time>2021-09-18T13:28:17.000Z</time>
      </trkpt>
      <trkpt lat="43.94771" lon="6.51255">
        <ele>906.75839</ele>
        <time>2021-09-18T13:28:18.000Z</time>
      </trkpt>
      <trkpt lat="43.94757" lon="6.51274">
        <ele>906.36965</ele>
        <time>2021-09-18T13:28:21.000Z</time>
      </trkpt>
      <trkpt lat="43.94737" lon="6.51327">
        <ele>905.537109</ele>
        <time>2021-09-18T13:28:27.000Z</time>
      </trkpt>
      <trkpt lat="43.94714" lon="6.51387">
        <ele>904.594777</ele>
        <time>2021-09-18T13:28:34.000Z</time>
      </trkpt>
      <trkpt lat="43.94693" lon="6.51422">
        <ele>903.671605</ele>
        <time>2021-09-18T13:28:39.000Z</time>
      </trkpt>
      <trkpt lat="43.94666" lon="6.51449">
        <ele>902.721595</ele>
        <time>2021-09-18T13:28:44.000Z</time>
      </trkpt>
      <trkpt lat="43.9462" lon="6.51484">
        <ele>901.237246</ele>
        <time>2021-09-18T13:28:52.000Z</time>
      </trkpt>
      <trkpt lat="43.94586" lon="6.51506">
        <ele>900.15803</ele>
        <time>2021-09-18T13:28:58.000Z</time>
      </trkpt>
      <trkpt lat="43.94546" lon="6.51534">
        <ele>898.50248</ele>
        <time>2021-09-18T13:29:05.000Z</time>
      </trkpt>
      <trkpt lat="43.94508" lon="6.5156">
        <ele>896.451385</ele>
        <time>2021-09-18T13:29:12.000Z</time>
      </trkpt>
      <trkpt lat="43.94471" lon="6.51585">
        <ele>894.487835</ele>
        <time>2021-09-18T13:29:19.000Z</time>
      </trkpt>
      <trkpt lat="43.94448" lon="6.51601">
        <ele>893.266239</ele>
        <time>2021-09-18T13:29:24.000Z</time>
      </trkpt>
      <trkpt lat="43.94445" lon="6.51604">
        <ele>893.066487</ele>
        <time>2021-09-18T13:29:25.000Z</time>
      </trkpt>
      <trkpt lat="43.9444" lon="6.51607">
        <ele>892.820186</ele>
        <time>2021-09-18T13:29:28.000Z</time>
      </trkpt>
      <trkpt lat="43.94438" lon="6.51608">
        <ele>892.690405</ele>
        <time>2021-09-18T13:30:09.000Z</time>
      </trkpt>
      <trkpt lat="43.94435" lon="6.5161">
        <ele>892.53443</ele>
        <time>2021-09-18T13:30:11.000Z</time>
      </trkpt>
      <trkpt lat="43.9442" lon="6.51621">
        <ele>891.722499</ele>
        <time>2021-09-18T13:30:18.000Z</time>
      </trkpt>
      <trkpt lat="43.94401" lon="6.51634">
        <ele>890.746851</ele>
        <time>2021-09-18T13:30:24.000Z</time>
      </trkpt>
      <trkpt lat="43.94377" lon="6.5165">
        <ele>890.370835</ele>
        <time>2021-09-18T13:30:31.000Z</time>
      </trkpt>
      <trkpt lat="43.94347" lon="6.51671">
        <ele>889.914155</ele>
        <time>2021-09-18T13:30:39.000Z</time>
      </trkpt>
      <trkpt lat="43.94316" lon="6.51692">
        <ele>889.436182</ele>
        <time>2021-09-18T13:30:47.000Z</time>
      </trkpt>
      <trkpt lat="43.94282" lon="6.51716">
        <ele>888.908185</ele>
        <time>2021-09-18T13:30:55.000Z</time>
      </trkpt>
      <trkpt lat="43.94249" lon="6.5174">
        <ele>888.40072</ele>
        <time>2021-09-18T13:31:03.000Z</time>
      </trkpt>
      <trkpt lat="43.94226" lon="6.51759">
        <ele>888.252947</ele>
        <time>2021-09-18T13:31:09.000Z</time>
      </trkpt>
      <trkpt lat="43.94217" lon="6.5177">
        <ele>888.238696</ele>
        <time>2021-09-18T13:31:12.000Z</time>
      </trkpt>
      <trkpt lat="43.94195" lon="6.518">
        <ele>888.202878</ele>
        <time>2021-09-18T13:31:18.000Z</time>
      </trkpt>
      <trkpt lat="43.94183" lon="6.51819">
        <ele>888.181714</ele>
        <time>2021-09-18T13:31:22.000Z</time>
      </trkpt>
      <trkpt lat="43.94178" lon="6.5183">
        <ele>888.171078</ele>
        <time>2021-09-18T13:31:24.000Z</time>
      </trkpt>
      <trkpt lat="43.94156" lon="6.5188">
        <ele>888.121642</ele>
        <time>2021-09-18T13:31:34.000Z</time>
      </trkpt>
      <trkpt lat="43.94144" lon="6.51927">
        <ele>888.080069</ele>
        <time>2021-09-18T13:31:42.000Z</time>
      </trkpt>
      <trkpt lat="43.94136" lon="6.51982">
        <ele>888.07042</ele>
        <time>2021-09-18T13:31:51.000Z</time>
      </trkpt>
      <trkpt lat="43.94132" lon="6.52008">
        <ele>888.074861</ele>
        <time>2021-09-18T13:31:55.000Z</time>
      </trkpt>
      <trkpt lat="43.94129" lon="6.52027">
        <ele>888.078223</ele>
        <time>2021-09-18T13:31:58.000Z</time>
      </trkpt>
      <trkpt lat="43.9412" lon="6.52076">
        <ele>888.086838</ele>
        <time>2021-09-18T13:32:06.000Z</time>
      </trkpt>
      <trkpt lat="43.94109" lon="6.52103">
        <ele>888.092172</ele>
        <time>2021-09-18T13:32:11.000Z</time>
      </trkpt>
      <trkpt lat="43.94106" lon="6.52108">
        <ele>888.093169</ele>
        <time>2021-09-18T13:32:12.000Z</time>
      </trkpt>
      <trkpt lat="43.941" lon="6.52116">
        <ele>888.095206</ele>
        <time>2021-09-18T13:32:14.000Z</time>
      </trkpt>
      <trkpt lat="43.94086" lon="6.52132">
        <ele>888.099559</ele>
        <time>2021-09-18T13:32:18.000Z</time>
      </trkpt>
      <trkpt lat="43.94057" lon="6.52158">
        <ele>888.12821</ele>
        <time>2021-09-18T13:32:26.000Z</time>
      </trkpt>
      <trkpt lat="43.9403" lon="6.52188">
        <ele>888.299105</ele>
        <time>2021-09-18T13:32:34.000Z</time>
      </trkpt>
      <trkpt lat="43.94006" lon="6.52221">
        <ele>888.466937</ele>
        <time>2021-09-18T13:32:42.000Z</time>
      </trkpt>
      <trkpt lat="43.93988" lon="6.52245">
        <ele>888.589907</ele>
        <time>2021-09-18T13:32:48.000Z</time>
      </trkpt>
      <trkpt lat="43.93966" lon="6.5227">
        <ele>888.731077</ele>
        <time>2021-09-18T13:32:55.000Z</time>
      </trkpt>
      <trkpt lat="43.9395" lon="6.52288">
        <ele>888.831245</ele>
        <time>2021-09-18T13:33:00.000Z</time>
      </trkpt>
      <trkpt lat="43.93941" lon="6.52299">
        <ele>888.892913</ele>
        <time>2021-09-18T13:33:03.000Z</time>
      </trkpt>
      <trkpt lat="43.93934" lon="6.52306">
        <ele>888.937047</ele>
        <time>2021-09-18T13:33:05.000Z</time>
      </trkpt>
      <trkpt lat="43.93919" lon="6.52326">
        <ele>889.058104</ele>
        <time>2021-09-18T13:33:10.000Z</time>
      </trkpt>
      <trkpt lat="43.93911" lon="6.52339">
        <ele>889.145744</ele>
        <time>2021-09-18T13:33:13.000Z</time>
      </trkpt>
      <trkpt lat="43.93901" lon="6.52359">
        <ele>889.269244</ele>
        <time>2021-09-18T13:33:17.000Z</time>
      </trkpt>
      <trkpt lat="43.93877" lon="6.52403">
        <ele>889.556813</ele>
        <time>2021-09-18T13:33:26.000Z</time>
      </trkpt>
      <trkpt lat="43.93847" lon="6.52454">
        <ele>889.892792</ele>
        <time>2021-09-18T13:33:37.000Z</time>
      </trkpt>
      <trkpt lat="43.93837" lon="6.52482">
        <ele>890.050727</ele>
        <time>2021-09-18T13:33:43.000Z</time>
      </trkpt>
      <trkpt lat="43.93827" lon="6.52522">
        <ele>890.272086</ele>
        <time>2021-09-18T13:33:51.000Z</time>
      </trkpt>
      <trkpt lat="43.93821" lon="6.52559">
        <ele>889.96483</ele>
        <time>2021-09-18T13:33:58.000Z</time>
      </trkpt>
      <trkpt lat="43.93821" lon="6.52583">
        <ele>889.745814</ele>
        <time>2021-09-18T13:34:02.000Z</time>
      </trkpt>
      <trkpt lat="43.93821" lon="6.5259">
        <ele>889.685761</ele>
        <time>2021-09-18T13:34:03.000Z</time>
      </trkpt>
      <trkpt lat="43.93821" lon="6.52604">
        <ele>889.559474</ele>
        <time>2021-09-18T13:34:05.000Z</time>
      </trkpt>
      <trkpt lat="43.93821" lon="6.5262">
        <ele>889.425098</ele>
        <time>2021-09-18T13:34:07.000Z</time>
      </trkpt>
      <trkpt lat="43.93819" lon="6.52636">
        <ele>889.279646</ele>
        <time>2021-09-18T13:34:09.000Z</time>
      </trkpt>
      <trkpt lat="43.93817" lon="6.52645">
        <ele>889.195766</ele>
        <time>2021-09-18T13:34:10.000Z</time>
      </trkpt>
      <trkpt lat="43.93814" lon="6.52664">
        <ele>889.025988</ele>
        <time>2021-09-18T13:34:12.000Z</time>
      </trkpt>
      <trkpt lat="43.93814" lon="6.52683">
        <ele>888.859071</ele>
        <time>2021-09-18T13:34:14.000Z</time>
      </trkpt>
      <trkpt lat="43.93814" lon="6.5272">
        <ele>888.526075</ele>
        <time>2021-09-18T13:34:18.000Z</time>
      </trkpt>
      <trkpt lat="43.93814" lon="6.52727">
        <ele>888.46601</ele>
        <time>2021-09-18T13:34:19.000Z</time>
      </trkpt>
      <trkpt lat="43.93814" lon="6.52733">
        <ele>888.410372</ele>
        <time>2021-09-18T13:34:20.000Z</time>
      </trkpt>
      <trkpt lat="43.93815" lon="6.52743">
        <ele>888.326439</ele>
        <time>2021-09-18T13:34:22.000Z</time>
      </trkpt>
      <trkpt lat="43.93815" lon="6.52748">
        <ele>888.277867</ele>
        <time>2021-09-18T13:34:24.000Z</time>
      </trkpt>
      <trkpt lat="43.93815" lon="6.52752">
        <ele>888.246933</ele>
        <time>2021-09-18T13:34:26.000Z</time>
      </trkpt>
      <trkpt lat="43.93815" lon="6.52757">
        <ele>888.20276</ele>
        <time>2021-09-18T13:34:29.000Z</time>
      </trkpt>
      <trkpt lat="43.93815" lon="6.52758">
        <ele>888.193045</ele>
        <time>2021-09-18T13:34:32.000Z</time>
      </trkpt>
      <trkpt lat="43.93815" lon="6.52762">
        <ele>888.161252</ele>
        <time>2021-09-18T13:35:30.000Z</time>
      </trkpt>
      <trkpt lat="43.93815" lon="6.52766">
        <ele>888.12061</ele>
        <time>2021-09-18T13:35:33.000Z</time>
      </trkpt>
      <trkpt lat="43.93815" lon="6.52767">
        <ele>888.111779</ele>
        <time>2021-09-18T13:35:36.000Z</time>
      </trkpt>
      <trkpt lat="43.93815" lon="6.5278">
        <ele>888.007598</ele>
        <time>2021-09-18T13:36:23.000Z</time>
      </trkpt>
      <trkpt lat="43.93816" lon="6.52801">
        <ele>887.851643</ele>
        <time>2021-09-18T13:36:28.000Z</time>
      </trkpt>
      <trkpt lat="43.93816" lon="6.52845">
        <ele>887.511605</ele>
        <time>2021-09-18T13:36:36.000Z</time>
      </trkpt>
      <trkpt lat="43.93816" lon="6.52877">
        <ele>887.27346</ele>
        <time>2021-09-18T13:36:41.000Z</time>
      </trkpt>
      <trkpt lat="43.93813" lon="6.52888">
        <ele>887.185908</ele>
        <time>2021-09-18T13:36:43.000Z</time>
      </trkpt>
      <trkpt lat="43.93799" lon="6.52916">
        <ele>886.921153</ele>
        <time>2021-09-18T13:36:49.000Z</time>
      </trkpt>
      <trkpt lat="43.93784" lon="6.52935">
        <ele>886.71056</ele>
        <time>2021-09-18T13:36:55.000Z</time>
      </trkpt>
      <trkpt lat="43.93676" lon="6.53071">
        <ele>886.210756</ele>
        <time>2021-09-18T13:37:25.000Z</time>
      </trkpt>
      <trkpt lat="43.93672" lon="6.53076">
        <ele>886.212612</ele>
        <time>2021-09-18T13:37:26.000Z</time>
      </trkpt>
      <trkpt lat="43.93657" lon="6.53094">
        <ele>886.220241</ele>
        <time>2021-09-18T13:37:31.000Z</time>
      </trkpt>
      <trkpt lat="43.93644" lon="6.53103">
        <ele>886.225875</ele>
        <time>2021-09-18T13:37:35.000Z</time>
      </trkpt>
      <trkpt lat="43.93624" lon="6.53117">
        <ele>886.234452</ele>
        <time>2021-09-18T13:37:41.000Z</time>
      </trkpt>
      <trkpt lat="43.93607" lon="6.53138">
        <ele>886.242817</ele>
        <time>2021-09-18T13:37:47.000Z</time>
      </trkpt>
      <trkpt lat="43.93593" lon="6.53165">
        <ele>886.449564</ele>
        <time>2021-09-18T13:37:53.000Z</time>
      </trkpt>
      <trkpt lat="43.93589" lon="6.53169">
        <ele>886.485834</ele>
        <time>2021-09-18T13:37:54.000Z</time>
      </trkpt>
      <trkpt lat="43.93585" lon="6.53171">
        <ele>886.521578</ele>
        <time>2021-09-18T13:37:55.000Z</time>
      </trkpt>
      <trkpt lat="43.93577" lon="6.53174">
        <ele>886.590005</ele>
        <time>2021-09-18T13:37:57.000Z</time>
      </trkpt>
      <trkpt lat="43.93574" lon="6.53175">
        <ele>886.623324</ele>
        <time>2021-09-18T13:37:58.000Z</time>
      </trkpt>
      <trkpt lat="43.93554" lon="6.53169">
        <ele>886.79637</ele>
        <time>2021-09-18T13:38:04.000Z</time>
      </trkpt>
      <trkpt lat="43.93535" lon="6.53162">
        <ele>886.959765</ele>
        <time>2021-09-18T13:38:10.000Z</time>
      </trkpt>
      <trkpt lat="43.93513" lon="6.53155">
        <ele>887.150327</ele>
        <time>2021-09-18T13:38:16.000Z</time>
      </trkpt>
      <trkpt lat="43.93364" lon="6.53119">
        <ele>888.438359</ele>
        <time>2021-09-18T13:38:50.000Z</time>
      </trkpt>
      <trkpt lat="43.93361" lon="6.53112">
        <ele>888.487108</ele>
        <time>2021-09-18T13:38:52.000Z</time>
      </trkpt>
      <trkpt lat="43.93333" lon="6.53109">
        <ele>888.724341</ele>
        <time>2021-09-18T13:38:58.000Z</time>
      </trkpt>
      <trkpt lat="43.933" lon="6.53107">
        <ele>889.005319</ele>
        <time>2021-09-18T13:39:06.000Z</time>
      </trkpt>
      <trkpt lat="43.93267" lon="6.53112">
        <ele>889.289309</ele>
        <time>2021-09-18T13:39:14.000Z</time>
      </trkpt>
      <trkpt lat="43.93232" lon="6.53125">
        <ele>889.296293</ele>
        <time>2021-09-18T13:39:22.000Z</time>
      </trkpt>
      <trkpt lat="43.93196" lon="6.53139">
        <ele>889.291711</ele>
        <time>2021-09-18T13:39:30.000Z</time>
      </trkpt>
      <trkpt lat="43.93173" lon="6.53145">
        <ele>889.2889</ele>
        <time>2021-09-18T13:39:35.000Z</time>
      </trkpt>
      <trkpt lat="43.93145" lon="6.53151">
        <ele>889.28549</ele>
        <time>2021-09-18T13:39:41.000Z</time>
      </trkpt>
      <trkpt lat="43.93122" lon="6.53155">
        <ele>889.282637</ele>
        <time>2021-09-18T13:39:46.000Z</time>
      </trkpt>
      <trkpt lat="43.93091" lon="6.5317">
        <ele>889.278704</ele>
        <time>2021-09-18T13:39:54.000Z</time>
      </trkpt>
      <trkpt lat="43.93063" lon="6.53186">
        <ele>889.09695</ele>
        <time>2021-09-18T13:40:01.000Z</time>
      </trkpt>
      <trkpt lat="43.93033" lon="6.532">
        <ele>888.900446</ele>
        <time>2021-09-18T13:40:08.000Z</time>
      </trkpt>
      <trkpt lat="43.93005" lon="6.53207">
        <ele>888.723889</ele>
        <time>2021-09-18T13:40:14.000Z</time>
      </trkpt>
      <trkpt lat="43.92962" lon="6.53214">
        <ele>888.461649</ele>
        <time>2021-09-18T13:40:23.000Z</time>
      </trkpt>
      <trkpt lat="43.9293" lon="6.53218">
        <ele>888.266238</ele>
        <time>2021-09-18T13:40:30.000Z</time>
      </trkpt>
      <trkpt lat="43.92889" lon="6.53225">
        <ele>888.061412</ele>
        <time>2021-09-18T13:40:39.000Z</time>
      </trkpt>
      <trkpt lat="43.92864" lon="6.53236">
        <ele>887.947481</ele>
        <time>2021-09-18T13:40:45.000Z</time>
      </trkpt>
      <trkpt lat="43.92835" lon="6.53256">
        <ele>887.809212</ele>
        <time>2021-09-18T13:40:52.000Z</time>
      </trkpt>
      <trkpt lat="43.9281" lon="6.53274">
        <ele>887.688041</ele>
        <time>2021-09-18T13:40:58.000Z</time>
      </trkpt>
      <trkpt lat="43.92785" lon="6.53285">
        <ele>887.575885</ele>
        <time>2021-09-18T13:41:04.000Z</time>
      </trkpt>
      <trkpt lat="43.92739" lon="6.53299">
        <ele>887.446817</ele>
        <time>2021-09-18T13:41:14.000Z</time>
      </trkpt>
      <trkpt lat="43.92699" lon="6.53311">
        <ele>887.692374</ele>
        <time>2021-09-18T13:41:23.000Z</time>
      </trkpt>
      <trkpt lat="43.92671" lon="6.53321">
        <ele>887.86383</ele>
        <time>2021-09-18T13:41:30.000Z</time>
      </trkpt>
      <trkpt lat="43.92643" lon="6.53332">
        <ele>888.040548</ele>
        <time>2021-09-18T13:41:38.000Z</time>
      </trkpt>
      <trkpt lat="43.92614" lon="6.5334">
        <ele>888.214605</ele>
        <time>2021-09-18T13:41:46.000Z</time>
      </trkpt>
      <trkpt lat="43.92592" lon="6.53336">
        <ele>888.349106</ele>
        <time>2021-09-18T13:41:52.000Z</time>
      </trkpt>
      <trkpt lat="43.92571" lon="6.53328">
        <ele>888.479441</ele>
        <time>2021-09-18T13:41:58.000Z</time>
      </trkpt>
      <trkpt lat="43.9255" lon="6.53321">
        <ele>888.941039</ele>
        <time>2021-09-18T13:42:04.000Z</time>
      </trkpt>
      <trkpt lat="43.92525" lon="6.53317">
        <ele>889.473041</ele>
        <time>2021-09-18T13:42:11.000Z</time>
      </trkpt>
      <trkpt lat="43.92498" lon="6.5332">
        <ele>890.055405</ele>
        <time>2021-09-18T13:42:19.000Z</time>
      </trkpt>
      <trkpt lat="43.92467" lon="6.53328">
        <ele>890.726185</ele>
        <time>2021-09-18T13:42:28.000Z</time>
      </trkpt>
      <trkpt lat="43.92443" lon="6.53331">
        <ele>891.242209</ele>
        <time>2021-09-18T13:42:35.000Z</time>
      </trkpt>
      <trkpt lat="43.92421" lon="6.5333">
        <ele>891.709509</ele>
        <time>2021-09-18T13:42:41.000Z</time>
      </trkpt>
      <trkpt lat="43.92396" lon="6.53326">
        <ele>892.237102</ele>
        <time>2021-09-18T13:42:48.000Z</time>
      </trkpt>
      <trkpt lat="43.92371" lon="6.53326">
        <ele>892.967896</ele>
        <time>2021-09-18T13:42:55.000Z</time>
      </trkpt>
      <trkpt lat="43.92346" lon="6.53339">
        <ele>893.766517</ele>
        <time>2021-09-18T13:43:03.000Z</time>
      </trkpt>
      <trkpt lat="43.92328" lon="6.53358">
        <ele>894.456745</ele>
        <time>2021-09-18T13:43:10.000Z</time>
      </trkpt>
      <trkpt lat="43.92311" lon="6.5338">
        <ele>895.168215</ele>
        <time>2021-09-18T13:43:17.000Z</time>
      </trkpt>
      <trkpt lat="43.92294" lon="6.53402">
        <ele>895.873002</ele>
        <time>2021-09-18T13:43:24.000Z</time>
      </trkpt>
      <trkpt lat="43.92271" lon="6.53429">
        <ele>896.772456</ele>
        <time>2021-09-18T13:43:32.000Z</time>
      </trkpt>
      <trkpt lat="43.9225" lon="6.53449">
        <ele>897.552026</ele>
        <time>2021-09-18T13:43:40.000Z</time>
      </trkpt>
      <trkpt lat="43.92227" lon="6.53466">
        <ele>898.309364</ele>
        <time>2021-09-18T13:43:48.000Z</time>
      </trkpt>
      <trkpt lat="43.92203" lon="6.5348">
        <ele>899.062812</ele>
        <time>2021-09-18T13:43:56.000Z</time>
      </trkpt>
      <trkpt lat="43.92177" lon="6.53489">
        <ele>899.83452</ele>
        <time>2021-09-18T13:44:04.000Z</time>
      </trkpt>
      <trkpt lat="43.9215" lon="6.53495">
        <ele>900.618707</ele>
        <time>2021-09-18T13:44:12.000Z</time>
      </trkpt>
      <trkpt lat="43.92129" lon="6.535">
        <ele>901.255015</ele>
        <time>2021-09-18T13:44:19.000Z</time>
      </trkpt>
      <trkpt lat="43.92106" lon="6.53507">
        <ele>901.913198</ele>
        <time>2021-09-18T13:44:26.000Z</time>
      </trkpt>
      <trkpt lat="43.9208" lon="6.53516">
        <ele>902.69861</ele>
        <time>2021-09-18T13:44:35.000Z</time>
      </trkpt>
      <trkpt lat="43.92045" lon="6.53524">
        <ele>903.707001</ele>
        <time>2021-09-18T13:44:45.000Z</time>
      </trkpt>
      <trkpt lat="43.92024" lon="6.53527">
        <ele>904.278843</ele>
        <time>2021-09-18T13:44:52.000Z</time>
      </trkpt>
      <trkpt lat="43.9201" lon="6.53539">
        <ele>904.751523</ele>
        <time>2021-09-18T13:44:58.000Z</time>
      </trkpt>
      <trkpt lat="43.91999" lon="6.53559">
        <ele>905.253131</ele>
        <time>2021-09-18T13:45:04.000Z</time>
      </trkpt>
      <trkpt lat="43.91987" lon="6.53582">
        <ele>905.839711</ele>
        <time>2021-09-18T13:45:11.000Z</time>
      </trkpt>
      <trkpt lat="43.9197" lon="6.53602">
        <ele>906.457952</ele>
        <time>2021-09-18T13:45:18.000Z</time>
      </trkpt>
      <trkpt lat="43.91954" lon="6.53611">
        <ele>906.944418</ele>
        <time>2021-09-18T13:45:23.000Z</time>
      </trkpt>
      <trkpt lat="43.91938" lon="6.53614">
        <ele>907.374627</ele>
        <time>2021-09-18T13:45:28.000Z</time>
      </trkpt>
      <trkpt lat="43.91921" lon="6.53619">
        <ele>907.860805</ele>
        <time>2021-09-18T13:45:34.000Z</time>
      </trkpt>
      <trkpt lat="43.91908" lon="6.53632">
        <ele>908.201383</ele>
        <time>2021-09-18T13:45:39.000Z</time>
      </trkpt>
      <trkpt lat="43.91895" lon="6.53655">
        <ele>908.579412</ele>
        <time>2021-09-18T13:45:45.000Z</time>
      </trkpt>
      <trkpt lat="43.91888" lon="6.53688">
        <ele>909.020457</ele>
        <time>2021-09-18T13:45:52.000Z</time>
      </trkpt>
      <trkpt lat="43.91888" lon="6.53725">
        <ele>909.504441</ele>
        <time>2021-09-18T13:45:59.000Z</time>
      </trkpt>
      <trkpt lat="43.9189" lon="6.53761">
        <ele>909.970523</ele>
        <time>2021-09-18T13:46:06.000Z</time>
      </trkpt>
      <trkpt lat="43.91891" lon="6.53782">
        <ele>910.251075</ele>
        <time>2021-09-18T13:46:10.000Z</time>
      </trkpt>
      <trkpt lat="43.91892" lon="6.53793">
        <ele>910.394101</ele>
        <time>2021-09-18T13:46:12.000Z</time>
      </trkpt>
      <trkpt lat="43.91901" lon="6.53828">
        <ele>910.874521</ele>
        <time>2021-09-18T13:46:19.000Z</time>
      </trkpt>
      <trkpt lat="43.91913" lon="6.53869">
        <ele>911.384696</ele>
        <time>2021-09-18T13:46:27.000Z</time>
      </trkpt>
      <trkpt lat="43.91916" lon="6.53885">
        <ele>911.545328</ele>
        <time>2021-09-18T13:46:30.000Z</time>
      </trkpt>
      <trkpt lat="43.91916" lon="6.53897">
        <ele>911.655293</ele>
        <time>2021-09-18T13:46:32.000Z</time>
      </trkpt>
      <trkpt lat="43.91913" lon="6.53913">
        <ele>911.819027</ele>
        <time>2021-09-18T13:46:35.000Z</time>
      </trkpt>
      <trkpt lat="43.91906" lon="6.53928">
        <ele>911.988524</ele>
        <time>2021-09-18T13:46:38.000Z</time>
      </trkpt>
      <trkpt lat="43.919" lon="6.53937">
        <ele>912.104374</ele>
        <time>2021-09-18T13:46:40.000Z</time>
      </trkpt>
      <trkpt lat="43.91889" lon="6.53945">
        <ele>912.272787</ele>
        <time>2021-09-18T13:46:43.000Z</time>
      </trkpt>
      <trkpt lat="43.91862" lon="6.53959">
        <ele>912.644608</ele>
        <time>2021-09-18T13:46:50.000Z</time>
      </trkpt>
      <trkpt lat="43.91853" lon="6.53963">
        <ele>912.770511</ele>
        <time>2021-09-18T13:46:53.000Z</time>
      </trkpt>
      <trkpt lat="43.91837" lon="6.53971">
        <ele>913.002635</ele>
        <time>2021-09-18T13:46:58.000Z</time>
      </trkpt>
      <trkpt lat="43.91805" lon="6.53986">
        <ele>913.450324</ele>
        <time>2021-09-18T13:47:06.000Z</time>
      </trkpt>
      <trkpt lat="43.9179" lon="6.53994">
        <ele>913.659397</ele>
        <time>2021-09-18T13:47:10.000Z</time>
      </trkpt>
      <trkpt lat="43.91767" lon="6.54006">
        <ele>913.956866</ele>
        <time>2021-09-18T13:47:16.000Z</time>
      </trkpt>
      <trkpt lat="43.91748" lon="6.54016">
        <ele>914.210502</ele>
        <time>2021-09-18T13:47:21.000Z</time>
      </trkpt>
      <trkpt lat="43.91721" lon="6.54033">
        <ele>914.574396</ele>
        <time>2021-09-18T13:47:28.000Z</time>
      </trkpt>
      <trkpt lat="43.91698" lon="6.54048">
        <ele>914.887049</ele>
        <time>2021-09-18T13:47:34.000Z</time>
      </trkpt>
      <trkpt lat="43.91671" lon="6.54066">
        <ele>915.255425</ele>
        <time>2021-09-18T13:47:41.000Z</time>
      </trkpt>
      <trkpt lat="43.91658" lon="6.54075">
        <ele>915.441299</ele>
        <time>2021-09-18T13:47:45.000Z</time>
      </trkpt>
      <trkpt lat="43.91639" lon="6.54087">
        <ele>915.704585</ele>
        <time>2021-09-18T13:47:50.000Z</time>
      </trkpt>
      <trkpt lat="43.91617" lon="6.54101">
        <ele>915.825902</ele>
        <time>2021-09-18T13:47:56.000Z</time>
      </trkpt>
      <trkpt lat="43.91599" lon="6.54113">
        <ele>915.825902</ele>
        <time>2021-09-18T13:48:01.000Z</time>
      </trkpt>
      <trkpt lat="43.91582" lon="6.54127">
        <ele>915.825902</ele>
        <time>2021-09-18T13:48:07.000Z</time>
      </trkpt>
      <trkpt lat="43.91572" lon="6.54137">
        <ele>915.825902</ele>
        <time>2021-09-18T13:48:12.000Z</time>
      </trkpt>
      <trkpt lat="43.91568" lon="6.54142">
        <ele>915.825902</ele>
        <time>2021-09-18T13:48:17.000Z</time>
      </trkpt>
      <trkpt lat="43.91566" lon="6.54137">
        <ele>915.825902</ele>
        <time>2021-09-18T13:48:32.000Z</time>
      </trkpt>
      <trkpt lat="43.9156" lon="6.54138">
        <ele>915.825902</ele>
        <time>2021-09-18T13:48:34.000Z</time>
      </trkpt>
      <trkpt lat="43.91547" lon="6.54145">
        <ele>915.825902</ele>
        <time>2021-09-18T13:48:39.000Z</time>
      </trkpt>
      <trkpt lat="43.91528" lon="6.54156">
        <ele>915.825902</ele>
        <time>2021-09-18T13:48:45.000Z</time>
      </trkpt>
      <trkpt lat="43.91513" lon="6.54167">
        <ele>915.825902</ele>
        <time>2021-09-18T13:48:51.000Z</time>
      </trkpt>
      <trkpt lat="43.915" lon="6.54168">
        <ele>915.825902</ele>
        <time>2021-09-18T13:48:57.000Z</time>
      </trkpt>
      <trkpt lat="43.91488" lon="6.54173">
        <ele>915.825902</ele>
        <time>2021-09-18T13:49:03.000Z</time>
      </trkpt>
      <trkpt lat="43.91473" lon="6.5418">
        <ele>915.825902</ele>
        <time>2021-09-18T13:49:10.000Z</time>
      </trkpt>
      <trkpt lat="43.91464" lon="6.54183">
        <ele>915.825902</ele>
        <time>2021-09-18T13:49:16.000Z</time>
      </trkpt>
      <trkpt lat="43.91463" lon="6.54184">
        <ele>915.825902</ele>
        <time>2021-09-18T13:49:18.000Z</time>
      </trkpt>
      <trkpt lat="43.91462" lon="6.54184">
        <ele>915.825902</ele>
        <time>2021-09-18T13:49:20.000Z</time>
      </trkpt>
    </trkseg>
  </trk>
</gpx>